<?xml version="1.0" encoding="UTF-8" standalone="no" ?>
<gpx xmlns="http://www.topografix.com/GPX/1/1" xmlns:xsi="http://www.w3.org/2001/XMLSchema-instance" xsi:schemaLocation="http://www.topografix.com/GPX/1/1 http://www.topografix.com/GPX/1/1/gpx.xsd" version="1.1" creator="VisuGPX - https://www.visugpx.com">
  <metadata>
    <name>lacs de Crupillouse</name>
    <desc><![CDATA[Du hameau de la Beaume,le sentier plein sud grimpe à travers les pierriers, après de nombreux lacés  et derrière un énorme cairn  nous découvrons le premier lac.Pour admirer l\'ensemble des lacs de Crupillouse nous grimpons sur le Col de Veyre. Déjeuner et retour par le même itinéraire.]]></desc>
  </metadata>
  <trk>
    <name><![CDATA[Tracé actuel: 29 AOU 2013 07:44]]></name>
    <trkseg>
      <trkpt lat="44.73949" lon="6.24842">
        <ele>1271</ele>
        <time>2013-08-29T05:44:12Z</time>
      </trkpt>
      <trkpt lat="44.73949" lon="6.24843">
        <ele>1274.36</ele>
        <time>2013-08-29T05:44:14Z</time>
      </trkpt>
      <trkpt lat="44.73949" lon="6.24844">
        <ele>1263.79</ele>
        <time>2013-08-29T05:44:22Z</time>
      </trkpt>
      <trkpt lat="44.73949" lon="6.24844">
        <ele>1274.85</ele>
        <time>2013-08-29T05:44:23Z</time>
      </trkpt>
      <trkpt lat="44.73949" lon="6.24843">
        <ele>1278.21</ele>
        <time>2013-08-29T05:44:26Z</time>
      </trkpt>
      <trkpt lat="44.73948" lon="6.24843">
        <ele>1273.88</ele>
        <time>2013-08-29T05:44:27Z</time>
      </trkpt>
      <trkpt lat="44.7395" lon="6.24841">
        <ele>1272.44</ele>
        <time>2013-08-29T05:44:34Z</time>
      </trkpt>
      <trkpt lat="44.73949" lon="6.2484">
        <ele>1271.48</ele>
        <time>2013-08-29T05:44:41Z</time>
      </trkpt>
      <trkpt lat="44.73949" lon="6.2484">
        <ele>1255.62</ele>
        <time>2013-08-29T05:44:44Z</time>
      </trkpt>
      <trkpt lat="44.73949" lon="6.2484">
        <ele>1274.36</ele>
        <time>2013-08-29T05:44:45Z</time>
      </trkpt>
      <trkpt lat="44.7395" lon="6.24841">
        <ele>1258.02</ele>
        <time>2013-08-29T05:44:46Z</time>
      </trkpt>
      <trkpt lat="44.7395" lon="6.24841">
        <ele>1273.88</ele>
        <time>2013-08-29T05:44:47Z</time>
      </trkpt>
      <trkpt lat="44.7395" lon="6.24841">
        <ele>1277.73</ele>
        <time>2013-08-29T05:44:48Z</time>
      </trkpt>
      <trkpt lat="44.7395" lon="6.2484">
        <ele>1274.36</ele>
        <time>2013-08-29T05:44:49Z</time>
      </trkpt>
      <trkpt lat="44.7395" lon="6.2484">
        <ele>1272.44</ele>
        <time>2013-08-29T05:44:52Z</time>
      </trkpt>
      <trkpt lat="44.7395" lon="6.24841">
        <ele>1267.16</ele>
        <time>2013-08-29T05:44:55Z</time>
      </trkpt>
      <trkpt lat="44.7395" lon="6.24841">
        <ele>1275.81</ele>
        <time>2013-08-29T05:44:56Z</time>
      </trkpt>
      <trkpt lat="44.7395" lon="6.24841">
        <ele>1272.44</ele>
        <time>2013-08-29T05:44:58Z</time>
      </trkpt>
      <trkpt lat="44.7395" lon="6.24841">
        <ele>1271.96</ele>
        <time>2013-08-29T05:44:59Z</time>
      </trkpt>
      <trkpt lat="44.73949" lon="6.24841">
        <ele>1275.81</ele>
        <time>2013-08-29T05:45:05Z</time>
      </trkpt>
      <trkpt lat="44.73949" lon="6.24842">
        <ele>1271.96</ele>
        <time>2013-08-29T05:45:09Z</time>
      </trkpt>
      <trkpt lat="44.73949" lon="6.24841">
        <ele>1276.29</ele>
        <time>2013-08-29T05:45:15Z</time>
      </trkpt>
      <trkpt lat="44.73949" lon="6.24841">
        <ele>1271.48</ele>
        <time>2013-08-29T05:45:16Z</time>
      </trkpt>
      <trkpt lat="44.73949" lon="6.24841">
        <ele>1280.61</ele>
        <time>2013-08-29T05:45:17Z</time>
      </trkpt>
      <trkpt lat="44.73949" lon="6.24841">
        <ele>1274.85</ele>
        <time>2013-08-29T05:45:18Z</time>
      </trkpt>
      <trkpt lat="44.7395" lon="6.2484">
        <ele>1261.39</ele>
        <time>2013-08-29T05:45:20Z</time>
      </trkpt>
      <trkpt lat="44.7395" lon="6.24839">
        <ele>1272.92</ele>
        <time>2013-08-29T05:45:21Z</time>
      </trkpt>
      <trkpt lat="44.7395" lon="6.24839">
        <ele>1269.56</ele>
        <time>2013-08-29T05:45:23Z</time>
      </trkpt>
      <trkpt lat="44.7395" lon="6.24839">
        <ele>1273.88</ele>
        <time>2013-08-29T05:45:24Z</time>
      </trkpt>
      <trkpt lat="44.7395" lon="6.2484">
        <ele>1274.36</ele>
        <time>2013-08-29T05:45:56Z</time>
      </trkpt>
      <trkpt lat="44.73949" lon="6.24837">
        <ele>1274.36</ele>
        <time>2013-08-29T05:46:27Z</time>
      </trkpt>
      <trkpt lat="44.73949" lon="6.24837">
        <ele>1274.36</ele>
        <time>2013-08-29T05:46:30Z</time>
      </trkpt>
      <trkpt lat="44.73945" lon="6.24838">
        <ele>1274.85</ele>
        <time>2013-08-29T05:46:34Z</time>
      </trkpt>
      <trkpt lat="44.7394" lon="6.24837">
        <ele>1274.36</ele>
        <time>2013-08-29T05:46:41Z</time>
      </trkpt>
      <trkpt lat="44.73933" lon="6.24838">
        <ele>1275.33</ele>
        <time>2013-08-29T05:46:53Z</time>
      </trkpt>
      <trkpt lat="44.73924" lon="6.24835">
        <ele>1275.33</ele>
        <time>2013-08-29T05:47:05Z</time>
      </trkpt>
      <trkpt lat="44.7392" lon="6.24832">
        <ele>1274.85</ele>
        <time>2013-08-29T05:47:19Z</time>
      </trkpt>
      <trkpt lat="44.73917" lon="6.24833">
        <ele>1274.85</ele>
        <time>2013-08-29T05:47:27Z</time>
      </trkpt>
      <trkpt lat="44.73916" lon="6.24834">
        <ele>1274.85</ele>
        <time>2013-08-29T05:47:28Z</time>
      </trkpt>
      <trkpt lat="44.73909" lon="6.24836">
        <ele>1275.33</ele>
        <time>2013-08-29T05:47:37Z</time>
      </trkpt>
      <trkpt lat="44.73903" lon="6.24836">
        <ele>1275.33</ele>
        <time>2013-08-29T05:47:44Z</time>
      </trkpt>
      <trkpt lat="44.739" lon="6.24836">
        <ele>1274.85</ele>
        <time>2013-08-29T05:47:47Z</time>
      </trkpt>
      <trkpt lat="44.73897" lon="6.24836">
        <ele>1274.85</ele>
        <time>2013-08-29T05:47:49Z</time>
      </trkpt>
      <trkpt lat="44.73895" lon="6.24837">
        <ele>1275.81</ele>
        <time>2013-08-29T05:47:51Z</time>
      </trkpt>
      <trkpt lat="44.73886" lon="6.24835">
        <ele>1275.81</ele>
        <time>2013-08-29T05:47:59Z</time>
      </trkpt>
      <trkpt lat="44.73874" lon="6.24826">
        <ele>1277.73</ele>
        <time>2013-08-29T05:48:12Z</time>
      </trkpt>
      <trkpt lat="44.73862" lon="6.24821">
        <ele>1279.17</ele>
        <time>2013-08-29T05:48:25Z</time>
      </trkpt>
      <trkpt lat="44.73861" lon="6.2482">
        <ele>1279.17</ele>
        <time>2013-08-29T05:48:27Z</time>
      </trkpt>
      <trkpt lat="44.73854" lon="6.24815">
        <ele>1280.61</ele>
        <time>2013-08-29T05:48:41Z</time>
      </trkpt>
      <trkpt lat="44.73853" lon="6.24813">
        <ele>1280.13</ele>
        <time>2013-08-29T05:49:15Z</time>
      </trkpt>
      <trkpt lat="44.73853" lon="6.24813">
        <ele>1281.09</ele>
        <time>2013-08-29T05:49:46Z</time>
      </trkpt>
      <trkpt lat="44.73854" lon="6.24811">
        <ele>1280.61</ele>
        <time>2013-08-29T05:50:27Z</time>
      </trkpt>
      <trkpt lat="44.73857" lon="6.24803">
        <ele>1281.57</ele>
        <time>2013-08-29T05:50:39Z</time>
      </trkpt>
      <trkpt lat="44.73858" lon="6.248">
        <ele>1281.57</ele>
        <time>2013-08-29T05:50:42Z</time>
      </trkpt>
      <trkpt lat="44.73867" lon="6.24789">
        <ele>1282.54</ele>
        <time>2013-08-29T05:50:56Z</time>
      </trkpt>
      <trkpt lat="44.73872" lon="6.24782">
        <ele>1283.5</ele>
        <time>2013-08-29T05:51:06Z</time>
      </trkpt>
      <trkpt lat="44.73879" lon="6.24775">
        <ele>1284.46</ele>
        <time>2013-08-29T05:51:18Z</time>
      </trkpt>
      <trkpt lat="44.73885" lon="6.2477">
        <ele>1287.34</ele>
        <time>2013-08-29T05:51:29Z</time>
      </trkpt>
      <trkpt lat="44.73895" lon="6.24765">
        <ele>1288.3</ele>
        <time>2013-08-29T05:51:42Z</time>
      </trkpt>
      <trkpt lat="44.73903" lon="6.24764">
        <ele>1289.75</ele>
        <time>2013-08-29T05:51:55Z</time>
      </trkpt>
      <trkpt lat="44.739" lon="6.24759">
        <ele>1291.19</ele>
        <time>2013-08-29T05:52:05Z</time>
      </trkpt>
      <trkpt lat="44.73897" lon="6.24747">
        <ele>1292.63</ele>
        <time>2013-08-29T05:52:19Z</time>
      </trkpt>
      <trkpt lat="44.73894" lon="6.24737">
        <ele>1293.59</ele>
        <time>2013-08-29T05:52:31Z</time>
      </trkpt>
      <trkpt lat="44.7389" lon="6.24736">
        <ele>1293.11</ele>
        <time>2013-08-29T05:52:36Z</time>
      </trkpt>
      <trkpt lat="44.73887" lon="6.24735">
        <ele>1294.55</ele>
        <time>2013-08-29T05:52:39Z</time>
      </trkpt>
      <trkpt lat="44.73882" lon="6.2473">
        <ele>1295.99</ele>
        <time>2013-08-29T05:52:48Z</time>
      </trkpt>
      <trkpt lat="44.73875" lon="6.24722">
        <ele>1296.48</ele>
        <time>2013-08-29T05:53:00Z</time>
      </trkpt>
      <trkpt lat="44.73866" lon="6.24714">
        <ele>1298.4</ele>
        <time>2013-08-29T05:53:14Z</time>
      </trkpt>
      <trkpt lat="44.73859" lon="6.24705">
        <ele>1300.32</ele>
        <time>2013-08-29T05:53:27Z</time>
      </trkpt>
      <trkpt lat="44.73854" lon="6.24694">
        <ele>1301.76</ele>
        <time>2013-08-29T05:53:41Z</time>
      </trkpt>
      <trkpt lat="44.73848" lon="6.24683">
        <ele>1303.69</ele>
        <time>2013-08-29T05:53:56Z</time>
      </trkpt>
      <trkpt lat="44.73846" lon="6.24676">
        <ele>1305.13</ele>
        <time>2013-08-29T05:54:08Z</time>
      </trkpt>
      <trkpt lat="44.73851" lon="6.24678">
        <ele>1306.57</ele>
        <time>2013-08-29T05:54:19Z</time>
      </trkpt>
      <trkpt lat="44.73852" lon="6.24678">
        <ele>1306.09</ele>
        <time>2013-08-29T05:54:22Z</time>
      </trkpt>
      <trkpt lat="44.73858" lon="6.24682">
        <ele>1308.01</ele>
        <time>2013-08-29T05:54:32Z</time>
      </trkpt>
      <trkpt lat="44.7387" lon="6.24684">
        <ele>1308.97</ele>
        <time>2013-08-29T05:54:44Z</time>
      </trkpt>
      <trkpt lat="44.73871" lon="6.24685">
        <ele>1309.93</ele>
        <time>2013-08-29T05:54:48Z</time>
      </trkpt>
      <trkpt lat="44.73877" lon="6.24683">
        <ele>1311.38</ele>
        <time>2013-08-29T05:54:59Z</time>
      </trkpt>
      <trkpt lat="44.73878" lon="6.24683">
        <ele>1311.38</ele>
        <time>2013-08-29T05:55:00Z</time>
      </trkpt>
      <trkpt lat="44.73887" lon="6.24687">
        <ele>1312.34</ele>
        <time>2013-08-29T05:55:13Z</time>
      </trkpt>
      <trkpt lat="44.73893" lon="6.24692">
        <ele>1312.82</ele>
        <time>2013-08-29T05:55:27Z</time>
      </trkpt>
      <trkpt lat="44.73903" lon="6.24694">
        <ele>1315.22</ele>
        <time>2013-08-29T05:55:39Z</time>
      </trkpt>
      <trkpt lat="44.73909" lon="6.24696">
        <ele>1316.18</ele>
        <time>2013-08-29T05:55:53Z</time>
      </trkpt>
      <trkpt lat="44.73919" lon="6.24694">
        <ele>1318.1</ele>
        <time>2013-08-29T05:56:07Z</time>
      </trkpt>
      <trkpt lat="44.73911" lon="6.24691">
        <ele>1320.51</ele>
        <time>2013-08-29T05:56:21Z</time>
      </trkpt>
      <trkpt lat="44.73906" lon="6.24685">
        <ele>1320.51</ele>
        <time>2013-08-29T05:56:31Z</time>
      </trkpt>
      <trkpt lat="44.73903" lon="6.24678">
        <ele>1321.95</ele>
        <time>2013-08-29T05:56:39Z</time>
      </trkpt>
      <trkpt lat="44.73897" lon="6.2467">
        <ele>1322.91</ele>
        <time>2013-08-29T05:56:51Z</time>
      </trkpt>
      <trkpt lat="44.73891" lon="6.24663">
        <ele>1324.83</ele>
        <time>2013-08-29T05:57:01Z</time>
      </trkpt>
      <trkpt lat="44.73896" lon="6.24659">
        <ele>1326.28</ele>
        <time>2013-08-29T05:57:12Z</time>
      </trkpt>
      <trkpt lat="44.73903" lon="6.24665">
        <ele>1327.24</ele>
        <time>2013-08-29T05:57:25Z</time>
      </trkpt>
      <trkpt lat="44.73912" lon="6.24673">
        <ele>1329.16</ele>
        <time>2013-08-29T05:57:41Z</time>
      </trkpt>
      <trkpt lat="44.73917" lon="6.24675">
        <ele>1330.12</ele>
        <time>2013-08-29T05:57:46Z</time>
      </trkpt>
      <trkpt lat="44.73926" lon="6.24673">
        <ele>1330.6</ele>
        <time>2013-08-29T05:58:02Z</time>
      </trkpt>
      <trkpt lat="44.73934" lon="6.24676">
        <ele>1332.52</ele>
        <time>2013-08-29T05:58:15Z</time>
      </trkpt>
      <trkpt lat="44.73941" lon="6.24679">
        <ele>1333.49</ele>
        <time>2013-08-29T05:58:27Z</time>
      </trkpt>
      <trkpt lat="44.73949" lon="6.2468">
        <ele>1335.89</ele>
        <time>2013-08-29T05:58:38Z</time>
      </trkpt>
      <trkpt lat="44.73959" lon="6.24682">
        <ele>1336.37</ele>
        <time>2013-08-29T05:58:50Z</time>
      </trkpt>
      <trkpt lat="44.73962" lon="6.24685">
        <ele>1337.33</ele>
        <time>2013-08-29T05:58:57Z</time>
      </trkpt>
      <trkpt lat="44.73971" lon="6.24688">
        <ele>1338.29</ele>
        <time>2013-08-29T05:59:09Z</time>
      </trkpt>
      <trkpt lat="44.7398" lon="6.24691">
        <ele>1340.7</ele>
        <time>2013-08-29T05:59:23Z</time>
      </trkpt>
      <trkpt lat="44.73985" lon="6.24695">
        <ele>1340.7</ele>
        <time>2013-08-29T05:59:36Z</time>
      </trkpt>
      <trkpt lat="44.73985" lon="6.24695">
        <ele>1340.7</ele>
        <time>2013-08-29T05:59:37Z</time>
      </trkpt>
      <trkpt lat="44.7399" lon="6.24702">
        <ele>1343.1</ele>
        <time>2013-08-29T05:59:50Z</time>
      </trkpt>
      <trkpt lat="44.73991" lon="6.24701">
        <ele>1343.58</ele>
        <time>2013-08-29T05:59:53Z</time>
      </trkpt>
      <trkpt lat="44.73992" lon="6.24691">
        <ele>1344.54</ele>
        <time>2013-08-29T06:00:07Z</time>
      </trkpt>
      <trkpt lat="44.73992" lon="6.24689">
        <ele>1345.02</ele>
        <time>2013-08-29T06:00:10Z</time>
      </trkpt>
      <trkpt lat="44.73994" lon="6.2468">
        <ele>1345.98</ele>
        <time>2013-08-29T06:00:21Z</time>
      </trkpt>
      <trkpt lat="44.73994" lon="6.24682">
        <ele>1346.46</ele>
        <time>2013-08-29T06:00:26Z</time>
      </trkpt>
      <trkpt lat="44.74" lon="6.24687">
        <ele>1348.39</ele>
        <time>2013-08-29T06:00:38Z</time>
      </trkpt>
      <trkpt lat="44.74002" lon="6.2469">
        <ele>1349.83</ele>
        <time>2013-08-29T06:00:47Z</time>
      </trkpt>
      <trkpt lat="44.74003" lon="6.2468">
        <ele>1351.27</ele>
        <time>2013-08-29T06:01:01Z</time>
      </trkpt>
      <trkpt lat="44.74008" lon="6.24677">
        <ele>1352.71</ele>
        <time>2013-08-29T06:01:08Z</time>
      </trkpt>
      <trkpt lat="44.74012" lon="6.24684">
        <ele>1354.63</ele>
        <time>2013-08-29T06:01:21Z</time>
      </trkpt>
      <trkpt lat="44.74013" lon="6.24691">
        <ele>1353.67</ele>
        <time>2013-08-29T06:01:33Z</time>
      </trkpt>
      <trkpt lat="44.74017" lon="6.24696">
        <ele>1355.12</ele>
        <time>2013-08-29T06:01:39Z</time>
      </trkpt>
      <trkpt lat="44.74032" lon="6.24699">
        <ele>1355.12</ele>
        <time>2013-08-29T06:01:52Z</time>
      </trkpt>
      <trkpt lat="44.74036" lon="6.24702">
        <ele>1355.6</ele>
        <time>2013-08-29T06:02:06Z</time>
      </trkpt>
      <trkpt lat="44.74048" lon="6.2471">
        <ele>1358</ele>
        <time>2013-08-29T06:02:21Z</time>
      </trkpt>
      <trkpt lat="44.74054" lon="6.24716">
        <ele>1358.48</ele>
        <time>2013-08-29T06:02:31Z</time>
      </trkpt>
      <trkpt lat="44.74062" lon="6.24723">
        <ele>1360.4</ele>
        <time>2013-08-29T06:02:43Z</time>
      </trkpt>
      <trkpt lat="44.74068" lon="6.24728">
        <ele>1362.33</ele>
        <time>2013-08-29T06:02:56Z</time>
      </trkpt>
      <trkpt lat="44.74075" lon="6.2473">
        <ele>1363.29</ele>
        <time>2013-08-29T06:03:07Z</time>
      </trkpt>
      <trkpt lat="44.74082" lon="6.24733">
        <ele>1364.73</ele>
        <time>2013-08-29T06:03:20Z</time>
      </trkpt>
      <trkpt lat="44.7409" lon="6.24738">
        <ele>1367.61</ele>
        <time>2013-08-29T06:03:33Z</time>
      </trkpt>
      <trkpt lat="44.74097" lon="6.24741">
        <ele>1366.65</ele>
        <time>2013-08-29T06:03:47Z</time>
      </trkpt>
      <trkpt lat="44.741" lon="6.24743">
        <ele>1367.61</ele>
        <time>2013-08-29T06:03:53Z</time>
      </trkpt>
      <trkpt lat="44.74103" lon="6.24743">
        <ele>1367.61</ele>
        <time>2013-08-29T06:03:56Z</time>
      </trkpt>
      <trkpt lat="44.74106" lon="6.24741">
        <ele>1369.05</ele>
        <time>2013-08-29T06:04:00Z</time>
      </trkpt>
      <trkpt lat="44.74116" lon="6.24742">
        <ele>1370.5</ele>
        <time>2013-08-29T06:04:12Z</time>
      </trkpt>
      <trkpt lat="44.7412" lon="6.24744">
        <ele>1370.98</ele>
        <time>2013-08-29T06:04:23Z</time>
      </trkpt>
      <trkpt lat="44.74126" lon="6.24748">
        <ele>1371.94</ele>
        <time>2013-08-29T06:04:35Z</time>
      </trkpt>
      <trkpt lat="44.74134" lon="6.24752">
        <ele>1372.9</ele>
        <time>2013-08-29T06:04:47Z</time>
      </trkpt>
      <trkpt lat="44.74138" lon="6.24754">
        <ele>1372.9</ele>
        <time>2013-08-29T06:04:55Z</time>
      </trkpt>
      <trkpt lat="44.74141" lon="6.24755">
        <ele>1374.82</ele>
        <time>2013-08-29T06:04:59Z</time>
      </trkpt>
      <trkpt lat="44.7415" lon="6.24759">
        <ele>1374.82</ele>
        <time>2013-08-29T06:05:14Z</time>
      </trkpt>
      <trkpt lat="44.74159" lon="6.24763">
        <ele>1376.75</ele>
        <time>2013-08-29T06:05:28Z</time>
      </trkpt>
      <trkpt lat="44.74166" lon="6.24764">
        <ele>1378.67</ele>
        <time>2013-08-29T06:05:40Z</time>
      </trkpt>
      <trkpt lat="44.74175" lon="6.24763">
        <ele>1378.67</ele>
        <time>2013-08-29T06:05:54Z</time>
      </trkpt>
      <trkpt lat="44.74176" lon="6.24763">
        <ele>1379.15</ele>
        <time>2013-08-29T06:05:55Z</time>
      </trkpt>
      <trkpt lat="44.74185" lon="6.24762">
        <ele>1380.11</ele>
        <time>2013-08-29T06:06:06Z</time>
      </trkpt>
      <trkpt lat="44.74194" lon="6.24764">
        <ele>1381.55</ele>
        <time>2013-08-29T06:06:19Z</time>
      </trkpt>
      <trkpt lat="44.742" lon="6.24765">
        <ele>1382.03</ele>
        <time>2013-08-29T06:06:30Z</time>
      </trkpt>
      <trkpt lat="44.74206" lon="6.24768">
        <ele>1383.47</ele>
        <time>2013-08-29T06:06:40Z</time>
      </trkpt>
      <trkpt lat="44.74216" lon="6.24768">
        <ele>1384.92</ele>
        <time>2013-08-29T06:06:55Z</time>
      </trkpt>
      <trkpt lat="44.74223" lon="6.24765">
        <ele>1383.96</ele>
        <time>2013-08-29T06:07:09Z</time>
      </trkpt>
      <trkpt lat="44.74228" lon="6.24766">
        <ele>1384.44</ele>
        <time>2013-08-29T06:07:17Z</time>
      </trkpt>
      <trkpt lat="44.74233" lon="6.24765">
        <ele>1385.88</ele>
        <time>2013-08-29T06:07:24Z</time>
      </trkpt>
      <trkpt lat="44.74233" lon="6.24766">
        <ele>1385.88</ele>
        <time>2013-08-29T06:07:44Z</time>
      </trkpt>
      <trkpt lat="44.74233" lon="6.24766">
        <ele>1385.4</ele>
        <time>2013-08-29T06:07:51Z</time>
      </trkpt>
      <trkpt lat="44.74233" lon="6.24766">
        <ele>1385.4</ele>
        <time>2013-08-29T06:08:13Z</time>
      </trkpt>
      <trkpt lat="44.74233" lon="6.24766">
        <ele>1386.36</ele>
        <time>2013-08-29T06:08:18Z</time>
      </trkpt>
      <trkpt lat="44.74233" lon="6.24766">
        <ele>1385.4</ele>
        <time>2013-08-29T06:09:26Z</time>
      </trkpt>
      <trkpt lat="44.74235" lon="6.24765">
        <ele>1385.4</ele>
        <time>2013-08-29T06:09:36Z</time>
      </trkpt>
      <trkpt lat="44.74237" lon="6.24765">
        <ele>1386.36</ele>
        <time>2013-08-29T06:09:50Z</time>
      </trkpt>
      <trkpt lat="44.7424" lon="6.24765">
        <ele>1387.8</ele>
        <time>2013-08-29T06:10:11Z</time>
      </trkpt>
      <trkpt lat="44.74245" lon="6.24761">
        <ele>1389.72</ele>
        <time>2013-08-29T06:10:21Z</time>
      </trkpt>
      <trkpt lat="44.74252" lon="6.24756">
        <ele>1390.2</ele>
        <time>2013-08-29T06:10:37Z</time>
      </trkpt>
      <trkpt lat="44.74258" lon="6.24755">
        <ele>1391.17</ele>
        <time>2013-08-29T06:10:48Z</time>
      </trkpt>
      <trkpt lat="44.74259" lon="6.24755">
        <ele>1390.2</ele>
        <time>2013-08-29T06:10:50Z</time>
      </trkpt>
      <trkpt lat="44.74262" lon="6.24755">
        <ele>1391.65</ele>
        <time>2013-08-29T06:10:53Z</time>
      </trkpt>
      <trkpt lat="44.74274" lon="6.24749">
        <ele>1392.13</ele>
        <time>2013-08-29T06:11:08Z</time>
      </trkpt>
      <trkpt lat="44.74283" lon="6.24748">
        <ele>1395.01</ele>
        <time>2013-08-29T06:11:22Z</time>
      </trkpt>
      <trkpt lat="44.74285" lon="6.24747">
        <ele>1395.49</ele>
        <time>2013-08-29T06:11:26Z</time>
      </trkpt>
      <trkpt lat="44.74293" lon="6.24742">
        <ele>1397.41</ele>
        <time>2013-08-29T06:11:39Z</time>
      </trkpt>
      <trkpt lat="44.74299" lon="6.24739">
        <ele>1400.3</ele>
        <time>2013-08-29T06:11:51Z</time>
      </trkpt>
      <trkpt lat="44.74307" lon="6.24735">
        <ele>1400.78</ele>
        <time>2013-08-29T06:12:05Z</time>
      </trkpt>
      <trkpt lat="44.74309" lon="6.24735">
        <ele>1400.78</ele>
        <time>2013-08-29T06:12:09Z</time>
      </trkpt>
      <trkpt lat="44.74321" lon="6.24731">
        <ele>1402.7</ele>
        <time>2013-08-29T06:12:24Z</time>
      </trkpt>
      <trkpt lat="44.74333" lon="6.24721">
        <ele>1405.1</ele>
        <time>2013-08-29T06:12:41Z</time>
      </trkpt>
      <trkpt lat="44.74341" lon="6.24716">
        <ele>1407.51</ele>
        <time>2013-08-29T06:12:56Z</time>
      </trkpt>
      <trkpt lat="44.74348" lon="6.24722">
        <ele>1406.55</ele>
        <time>2013-08-29T06:13:08Z</time>
      </trkpt>
      <trkpt lat="44.74351" lon="6.24725">
        <ele>1408.95</ele>
        <time>2013-08-29T06:13:13Z</time>
      </trkpt>
      <trkpt lat="44.74361" lon="6.2473">
        <ele>1407.99</ele>
        <time>2013-08-29T06:13:28Z</time>
      </trkpt>
      <trkpt lat="44.74371" lon="6.24732">
        <ele>1409.91</ele>
        <time>2013-08-29T06:13:44Z</time>
      </trkpt>
      <trkpt lat="44.74384" lon="6.24731">
        <ele>1409.91</ele>
        <time>2013-08-29T06:13:58Z</time>
      </trkpt>
      <trkpt lat="44.74391" lon="6.24734">
        <ele>1411.83</ele>
        <time>2013-08-29T06:14:10Z</time>
      </trkpt>
      <trkpt lat="44.744" lon="6.2474">
        <ele>1411.83</ele>
        <time>2013-08-29T06:14:23Z</time>
      </trkpt>
      <trkpt lat="44.74405" lon="6.24743">
        <ele>1410.87</ele>
        <time>2013-08-29T06:14:29Z</time>
      </trkpt>
      <trkpt lat="44.74412" lon="6.24748">
        <ele>1413.76</ele>
        <time>2013-08-29T06:14:42Z</time>
      </trkpt>
      <trkpt lat="44.74423" lon="6.24753">
        <ele>1414.72</ele>
        <time>2013-08-29T06:14:55Z</time>
      </trkpt>
      <trkpt lat="44.74433" lon="6.24754">
        <ele>1415.68</ele>
        <time>2013-08-29T06:15:07Z</time>
      </trkpt>
      <trkpt lat="44.74434" lon="6.24754">
        <ele>1416.16</ele>
        <time>2013-08-29T06:15:09Z</time>
      </trkpt>
      <trkpt lat="44.74441" lon="6.2476">
        <ele>1415.2</ele>
        <time>2013-08-29T06:15:20Z</time>
      </trkpt>
      <trkpt lat="44.74445" lon="6.24761">
        <ele>1416.64</ele>
        <time>2013-08-29T06:15:25Z</time>
      </trkpt>
      <trkpt lat="44.74455" lon="6.24766">
        <ele>1418.08</ele>
        <time>2013-08-29T06:15:40Z</time>
      </trkpt>
      <trkpt lat="44.74466" lon="6.2477">
        <ele>1418.56</ele>
        <time>2013-08-29T06:15:56Z</time>
      </trkpt>
      <trkpt lat="44.74471" lon="6.24773">
        <ele>1419.04</ele>
        <time>2013-08-29T06:16:05Z</time>
      </trkpt>
      <trkpt lat="44.7448" lon="6.24777">
        <ele>1420</ele>
        <time>2013-08-29T06:16:16Z</time>
      </trkpt>
      <trkpt lat="44.74481" lon="6.24778">
        <ele>1420.49</ele>
        <time>2013-08-29T06:16:18Z</time>
      </trkpt>
      <trkpt lat="44.74491" lon="6.24784">
        <ele>1420.49</ele>
        <time>2013-08-29T06:16:32Z</time>
      </trkpt>
      <trkpt lat="44.745" lon="6.2479">
        <ele>1421.93</ele>
        <time>2013-08-29T06:16:46Z</time>
      </trkpt>
      <trkpt lat="44.74502" lon="6.24791">
        <ele>1421.93</ele>
        <time>2013-08-29T06:16:48Z</time>
      </trkpt>
      <trkpt lat="44.74511" lon="6.24799">
        <ele>1424.33</ele>
        <time>2013-08-29T06:17:01Z</time>
      </trkpt>
      <trkpt lat="44.74517" lon="6.24797">
        <ele>1424.33</ele>
        <time>2013-08-29T06:17:13Z</time>
      </trkpt>
      <trkpt lat="44.7452" lon="6.24808">
        <ele>1425.29</ele>
        <time>2013-08-29T06:17:27Z</time>
      </trkpt>
      <trkpt lat="44.74529" lon="6.24814">
        <ele>1425.77</ele>
        <time>2013-08-29T06:17:41Z</time>
      </trkpt>
      <trkpt lat="44.74538" lon="6.24817">
        <ele>1424.81</ele>
        <time>2013-08-29T06:17:52Z</time>
      </trkpt>
      <trkpt lat="44.74548" lon="6.24817">
        <ele>1426.25</ele>
        <time>2013-08-29T06:18:05Z</time>
      </trkpt>
      <trkpt lat="44.74557" lon="6.24818">
        <ele>1427.21</ele>
        <time>2013-08-29T06:18:16Z</time>
      </trkpt>
      <trkpt lat="44.74566" lon="6.24819">
        <ele>1428.66</ele>
        <time>2013-08-29T06:18:28Z</time>
      </trkpt>
      <trkpt lat="44.74574" lon="6.24822">
        <ele>1429.14</ele>
        <time>2013-08-29T06:18:41Z</time>
      </trkpt>
      <trkpt lat="44.74582" lon="6.24831">
        <ele>1428.66</ele>
        <time>2013-08-29T06:18:54Z</time>
      </trkpt>
      <trkpt lat="44.74587" lon="6.24833">
        <ele>1429.62</ele>
        <time>2013-08-29T06:19:02Z</time>
      </trkpt>
      <trkpt lat="44.74599" lon="6.24839">
        <ele>1429.62</ele>
        <time>2013-08-29T06:19:15Z</time>
      </trkpt>
      <trkpt lat="44.74603" lon="6.24837">
        <ele>1430.1</ele>
        <time>2013-08-29T06:19:21Z</time>
      </trkpt>
      <trkpt lat="44.74607" lon="6.24839">
        <ele>1430.58</ele>
        <time>2013-08-29T06:19:27Z</time>
      </trkpt>
      <trkpt lat="44.74617" lon="6.24841">
        <ele>1430.58</ele>
        <time>2013-08-29T06:19:40Z</time>
      </trkpt>
      <trkpt lat="44.74625" lon="6.2484">
        <ele>1430.58</ele>
        <time>2013-08-29T06:19:48Z</time>
      </trkpt>
      <trkpt lat="44.74636" lon="6.24838">
        <ele>1432.02</ele>
        <time>2013-08-29T06:20:01Z</time>
      </trkpt>
      <trkpt lat="44.74636" lon="6.24838">
        <ele>1432.5</ele>
        <time>2013-08-29T06:20:02Z</time>
      </trkpt>
      <trkpt lat="44.74644" lon="6.2484">
        <ele>1432.5</ele>
        <time>2013-08-29T06:20:12Z</time>
      </trkpt>
      <trkpt lat="44.74647" lon="6.2484">
        <ele>1431.54</ele>
        <time>2013-08-29T06:20:15Z</time>
      </trkpt>
      <trkpt lat="44.74653" lon="6.24841">
        <ele>1431.54</ele>
        <time>2013-08-29T06:20:23Z</time>
      </trkpt>
      <trkpt lat="44.74666" lon="6.24838">
        <ele>1432.5</ele>
        <time>2013-08-29T06:20:37Z</time>
      </trkpt>
      <trkpt lat="44.74673" lon="6.24837">
        <ele>1432.5</ele>
        <time>2013-08-29T06:20:45Z</time>
      </trkpt>
      <trkpt lat="44.74684" lon="6.24837">
        <ele>1432.5</ele>
        <time>2013-08-29T06:20:58Z</time>
      </trkpt>
      <trkpt lat="44.74694" lon="6.24837">
        <ele>1434.42</ele>
        <time>2013-08-29T06:21:12Z</time>
      </trkpt>
      <trkpt lat="44.74702" lon="6.24833">
        <ele>1433.94</ele>
        <time>2013-08-29T06:21:26Z</time>
      </trkpt>
      <trkpt lat="44.74712" lon="6.24829">
        <ele>1433.94</ele>
        <time>2013-08-29T06:21:39Z</time>
      </trkpt>
      <trkpt lat="44.74716" lon="6.24827">
        <ele>1434.91</ele>
        <time>2013-08-29T06:21:45Z</time>
      </trkpt>
      <trkpt lat="44.74727" lon="6.24829">
        <ele>1434.42</ele>
        <time>2013-08-29T06:21:59Z</time>
      </trkpt>
      <trkpt lat="44.74734" lon="6.24828">
        <ele>1435.39</ele>
        <time>2013-08-29T06:22:09Z</time>
      </trkpt>
      <trkpt lat="44.74743" lon="6.24828">
        <ele>1435.87</ele>
        <time>2013-08-29T06:22:23Z</time>
      </trkpt>
      <trkpt lat="44.74746" lon="6.24828">
        <ele>1435.87</ele>
        <time>2013-08-29T06:22:27Z</time>
      </trkpt>
      <trkpt lat="44.74753" lon="6.24828">
        <ele>1436.83</ele>
        <time>2013-08-29T06:22:39Z</time>
      </trkpt>
      <trkpt lat="44.74754" lon="6.24828">
        <ele>1437.79</ele>
        <time>2013-08-29T06:22:40Z</time>
      </trkpt>
      <trkpt lat="44.74757" lon="6.24829">
        <ele>1435.87</ele>
        <time>2013-08-29T06:22:43Z</time>
      </trkpt>
      <trkpt lat="44.74761" lon="6.24831">
        <ele>1438.75</ele>
        <time>2013-08-29T06:22:51Z</time>
      </trkpt>
      <trkpt lat="44.7477" lon="6.24838">
        <ele>1439.71</ele>
        <time>2013-08-29T06:23:04Z</time>
      </trkpt>
      <trkpt lat="44.74776" lon="6.24841">
        <ele>1439.71</ele>
        <time>2013-08-29T06:23:13Z</time>
      </trkpt>
      <trkpt lat="44.74785" lon="6.24845">
        <ele>1442.11</ele>
        <time>2013-08-29T06:23:27Z</time>
      </trkpt>
      <trkpt lat="44.74791" lon="6.24849">
        <ele>1443.56</ele>
        <time>2013-08-29T06:23:40Z</time>
      </trkpt>
      <trkpt lat="44.74794" lon="6.24846">
        <ele>1445.96</ele>
        <time>2013-08-29T06:23:52Z</time>
      </trkpt>
      <trkpt lat="44.74793" lon="6.24842">
        <ele>1445.48</ele>
        <time>2013-08-29T06:23:56Z</time>
      </trkpt>
      <trkpt lat="44.74793" lon="6.24837">
        <ele>1446.44</ele>
        <time>2013-08-29T06:24:04Z</time>
      </trkpt>
      <trkpt lat="44.74799" lon="6.24839">
        <ele>1449.81</ele>
        <time>2013-08-29T06:24:16Z</time>
      </trkpt>
      <trkpt lat="44.74805" lon="6.24838">
        <ele>1450.77</ele>
        <time>2013-08-29T06:24:27Z</time>
      </trkpt>
      <trkpt lat="44.74813" lon="6.24839">
        <ele>1451.25</ele>
        <time>2013-08-29T06:24:40Z</time>
      </trkpt>
      <trkpt lat="44.74819" lon="6.24838">
        <ele>1454.61</ele>
        <time>2013-08-29T06:24:52Z</time>
      </trkpt>
      <trkpt lat="44.74829" lon="6.24844">
        <ele>1454.13</ele>
        <time>2013-08-29T06:25:06Z</time>
      </trkpt>
      <trkpt lat="44.74834" lon="6.24848">
        <ele>1457.02</ele>
        <time>2013-08-29T06:25:18Z</time>
      </trkpt>
      <trkpt lat="44.74837" lon="6.24856">
        <ele>1457.5</ele>
        <time>2013-08-29T06:25:29Z</time>
      </trkpt>
      <trkpt lat="44.74843" lon="6.24857">
        <ele>1459.9</ele>
        <time>2013-08-29T06:25:41Z</time>
      </trkpt>
      <trkpt lat="44.74842" lon="6.24852">
        <ele>1459.9</ele>
        <time>2013-08-29T06:25:54Z</time>
      </trkpt>
      <trkpt lat="44.74842" lon="6.2485">
        <ele>1461.82</ele>
        <time>2013-08-29T06:25:59Z</time>
      </trkpt>
      <trkpt lat="44.74845" lon="6.24853">
        <ele>1463.26</ele>
        <time>2013-08-29T06:26:10Z</time>
      </trkpt>
      <trkpt lat="44.7485" lon="6.24859">
        <ele>1464.71</ele>
        <time>2013-08-29T06:26:23Z</time>
      </trkpt>
      <trkpt lat="44.74855" lon="6.2486">
        <ele>1467.59</ele>
        <time>2013-08-29T06:26:33Z</time>
      </trkpt>
      <trkpt lat="44.74854" lon="6.24851">
        <ele>1468.07</ele>
        <time>2013-08-29T06:26:46Z</time>
      </trkpt>
      <trkpt lat="44.74856" lon="6.2485">
        <ele>1469.51</ele>
        <time>2013-08-29T06:27:03Z</time>
      </trkpt>
      <trkpt lat="44.7486" lon="6.24853">
        <ele>1471.44</ele>
        <time>2013-08-29T06:27:15Z</time>
      </trkpt>
      <trkpt lat="44.74867" lon="6.24855">
        <ele>1473.84</ele>
        <time>2013-08-29T06:27:29Z</time>
      </trkpt>
      <trkpt lat="44.74871" lon="6.24859">
        <ele>1475.28</ele>
        <time>2013-08-29T06:27:36Z</time>
      </trkpt>
      <trkpt lat="44.74876" lon="6.24867">
        <ele>1475.28</ele>
        <time>2013-08-29T06:27:49Z</time>
      </trkpt>
      <trkpt lat="44.74882" lon="6.24873">
        <ele>1478.65</ele>
        <time>2013-08-29T06:28:01Z</time>
      </trkpt>
      <trkpt lat="44.74883" lon="6.24874">
        <ele>1478.16</ele>
        <time>2013-08-29T06:28:02Z</time>
      </trkpt>
      <trkpt lat="44.74892" lon="6.24881">
        <ele>1480.09</ele>
        <time>2013-08-29T06:28:16Z</time>
      </trkpt>
      <trkpt lat="44.74899" lon="6.24886">
        <ele>1481.05</ele>
        <time>2013-08-29T06:28:29Z</time>
      </trkpt>
      <trkpt lat="44.74905" lon="6.24889">
        <ele>1482.49</ele>
        <time>2013-08-29T06:28:41Z</time>
      </trkpt>
      <trkpt lat="44.74905" lon="6.24882">
        <ele>1484.89</ele>
        <time>2013-08-29T06:28:54Z</time>
      </trkpt>
      <trkpt lat="44.74903" lon="6.24875">
        <ele>1485.37</ele>
        <time>2013-08-29T06:29:05Z</time>
      </trkpt>
      <trkpt lat="44.74901" lon="6.24864">
        <ele>1488.26</ele>
        <time>2013-08-29T06:29:19Z</time>
      </trkpt>
      <trkpt lat="44.74902" lon="6.24855">
        <ele>1490.18</ele>
        <time>2013-08-29T06:29:30Z</time>
      </trkpt>
      <trkpt lat="44.74907" lon="6.24866">
        <ele>1490.66</ele>
        <time>2013-08-29T06:29:44Z</time>
      </trkpt>
      <trkpt lat="44.7491" lon="6.24866">
        <ele>1491.62</ele>
        <time>2013-08-29T06:29:50Z</time>
      </trkpt>
      <trkpt lat="44.74919" lon="6.24872">
        <ele>1492.1</ele>
        <time>2013-08-29T06:30:03Z</time>
      </trkpt>
      <trkpt lat="44.74925" lon="6.24878">
        <ele>1493.55</ele>
        <time>2013-08-29T06:30:14Z</time>
      </trkpt>
      <trkpt lat="44.74929" lon="6.2488">
        <ele>1495.47</ele>
        <time>2013-08-29T06:30:22Z</time>
      </trkpt>
      <trkpt lat="44.74936" lon="6.24883">
        <ele>1496.43</ele>
        <time>2013-08-29T06:30:36Z</time>
      </trkpt>
      <trkpt lat="44.74938" lon="6.24884">
        <ele>1497.87</ele>
        <time>2013-08-29T06:30:39Z</time>
      </trkpt>
      <trkpt lat="44.74942" lon="6.24885">
        <ele>1499.31</ele>
        <time>2013-08-29T06:30:46Z</time>
      </trkpt>
      <trkpt lat="44.74949" lon="6.24894">
        <ele>1499.79</ele>
        <time>2013-08-29T06:30:59Z</time>
      </trkpt>
      <trkpt lat="44.74956" lon="6.24898">
        <ele>1501.24</ele>
        <time>2013-08-29T06:31:12Z</time>
      </trkpt>
      <trkpt lat="44.74957" lon="6.24897">
        <ele>1502.68</ele>
        <time>2013-08-29T06:31:16Z</time>
      </trkpt>
      <trkpt lat="44.74955" lon="6.24889">
        <ele>1503.16</ele>
        <time>2013-08-29T06:31:26Z</time>
      </trkpt>
      <trkpt lat="44.74958" lon="6.24888">
        <ele>1505.08</ele>
        <time>2013-08-29T06:31:35Z</time>
      </trkpt>
      <trkpt lat="44.74963" lon="6.24894">
        <ele>1505.08</ele>
        <time>2013-08-29T06:31:47Z</time>
      </trkpt>
      <trkpt lat="44.7497" lon="6.24899">
        <ele>1507</ele>
        <time>2013-08-29T06:32:00Z</time>
      </trkpt>
      <trkpt lat="44.74978" lon="6.24904">
        <ele>1509.41</ele>
        <time>2013-08-29T06:32:15Z</time>
      </trkpt>
      <trkpt lat="44.7498" lon="6.24904">
        <ele>1508.93</ele>
        <time>2013-08-29T06:32:17Z</time>
      </trkpt>
      <trkpt lat="44.74983" lon="6.24905">
        <ele>1509.89</ele>
        <time>2013-08-29T06:32:22Z</time>
      </trkpt>
      <trkpt lat="44.74984" lon="6.24901">
        <ele>1511.33</ele>
        <time>2013-08-29T06:32:28Z</time>
      </trkpt>
      <trkpt lat="44.74979" lon="6.24894">
        <ele>1512.77</ele>
        <time>2013-08-29T06:32:38Z</time>
      </trkpt>
      <trkpt lat="44.74977" lon="6.24889">
        <ele>1513.73</ele>
        <time>2013-08-29T06:32:51Z</time>
      </trkpt>
      <trkpt lat="44.74979" lon="6.24887">
        <ele>1515.66</ele>
        <time>2013-08-29T06:33:03Z</time>
      </trkpt>
      <trkpt lat="44.7498" lon="6.24888">
        <ele>1516.14</ele>
        <time>2013-08-29T06:33:05Z</time>
      </trkpt>
      <trkpt lat="44.74988" lon="6.24892">
        <ele>1517.1</ele>
        <time>2013-08-29T06:33:19Z</time>
      </trkpt>
      <trkpt lat="44.74995" lon="6.24897">
        <ele>1519.02</ele>
        <time>2013-08-29T06:33:32Z</time>
      </trkpt>
      <trkpt lat="44.74999" lon="6.24898">
        <ele>1519.98</ele>
        <time>2013-08-29T06:33:37Z</time>
      </trkpt>
      <trkpt lat="44.75004" lon="6.24899">
        <ele>1520.46</ele>
        <time>2013-08-29T06:33:46Z</time>
      </trkpt>
      <trkpt lat="44.75005" lon="6.24901">
        <ele>1520.46</ele>
        <time>2013-08-29T06:33:51Z</time>
      </trkpt>
      <trkpt lat="44.75012" lon="6.24906">
        <ele>1522.39</ele>
        <time>2013-08-29T06:34:03Z</time>
      </trkpt>
      <trkpt lat="44.75014" lon="6.24906">
        <ele>1524.31</ele>
        <time>2013-08-29T06:34:06Z</time>
      </trkpt>
      <trkpt lat="44.75019" lon="6.2491">
        <ele>1524.79</ele>
        <time>2013-08-29T06:34:19Z</time>
      </trkpt>
      <trkpt lat="44.75026" lon="6.24917">
        <ele>1526.71</ele>
        <time>2013-08-29T06:34:31Z</time>
      </trkpt>
      <trkpt lat="44.75032" lon="6.24926">
        <ele>1528.63</ele>
        <time>2013-08-29T06:34:43Z</time>
      </trkpt>
      <trkpt lat="44.75037" lon="6.24935">
        <ele>1529.11</ele>
        <time>2013-08-29T06:34:58Z</time>
      </trkpt>
      <trkpt lat="44.75041" lon="6.24939">
        <ele>1531.04</ele>
        <time>2013-08-29T06:35:10Z</time>
      </trkpt>
      <trkpt lat="44.75041" lon="6.24934">
        <ele>1532</ele>
        <time>2013-08-29T06:35:18Z</time>
      </trkpt>
      <trkpt lat="44.75042" lon="6.24923">
        <ele>1532.96</ele>
        <time>2013-08-29T06:35:30Z</time>
      </trkpt>
      <trkpt lat="44.75043" lon="6.24911">
        <ele>1535.36</ele>
        <time>2013-08-29T06:35:43Z</time>
      </trkpt>
      <trkpt lat="44.75043" lon="6.24902">
        <ele>1536.32</ele>
        <time>2013-08-29T06:35:53Z</time>
      </trkpt>
      <trkpt lat="44.75041" lon="6.24899">
        <ele>1538.25</ele>
        <time>2013-08-29T06:35:59Z</time>
      </trkpt>
      <trkpt lat="44.75042" lon="6.24898">
        <ele>1538.25</ele>
        <time>2013-08-29T06:36:09Z</time>
      </trkpt>
      <trkpt lat="44.75046" lon="6.24905">
        <ele>1540.17</ele>
        <time>2013-08-29T06:36:23Z</time>
      </trkpt>
      <trkpt lat="44.7505" lon="6.24913">
        <ele>1541.61</ele>
        <time>2013-08-29T06:36:36Z</time>
      </trkpt>
      <trkpt lat="44.75052" lon="6.24915">
        <ele>1540.65</ele>
        <time>2013-08-29T06:36:38Z</time>
      </trkpt>
      <trkpt lat="44.75059" lon="6.24922">
        <ele>1542.57</ele>
        <time>2013-08-29T06:36:50Z</time>
      </trkpt>
      <trkpt lat="44.75064" lon="6.24923">
        <ele>1544.01</ele>
        <time>2013-08-29T06:36:58Z</time>
      </trkpt>
      <trkpt lat="44.75074" lon="6.24927">
        <ele>1546.42</ele>
        <time>2013-08-29T06:37:12Z</time>
      </trkpt>
      <trkpt lat="44.75075" lon="6.24928">
        <ele>1546.42</ele>
        <time>2013-08-29T06:37:13Z</time>
      </trkpt>
      <trkpt lat="44.75077" lon="6.24929">
        <ele>1545.94</ele>
        <time>2013-08-29T06:37:17Z</time>
      </trkpt>
      <trkpt lat="44.75085" lon="6.24937">
        <ele>1547.38</ele>
        <time>2013-08-29T06:37:32Z</time>
      </trkpt>
      <trkpt lat="44.75086" lon="6.24937">
        <ele>1548.34</ele>
        <time>2013-08-29T06:37:33Z</time>
      </trkpt>
      <trkpt lat="44.75096" lon="6.24938">
        <ele>1549.78</ele>
        <time>2013-08-29T06:37:46Z</time>
      </trkpt>
      <trkpt lat="44.75103" lon="6.24935">
        <ele>1551.22</ele>
        <time>2013-08-29T06:37:59Z</time>
      </trkpt>
      <trkpt lat="44.75107" lon="6.24936">
        <ele>1552.67</ele>
        <time>2013-08-29T06:38:05Z</time>
      </trkpt>
      <trkpt lat="44.75112" lon="6.24933">
        <ele>1554.59</ele>
        <time>2013-08-29T06:38:12Z</time>
      </trkpt>
      <trkpt lat="44.75118" lon="6.24929">
        <ele>1554.11</ele>
        <time>2013-08-29T06:38:25Z</time>
      </trkpt>
      <trkpt lat="44.75126" lon="6.24926">
        <ele>1556.51</ele>
        <time>2013-08-29T06:38:37Z</time>
      </trkpt>
      <trkpt lat="44.75134" lon="6.24926">
        <ele>1557.47</ele>
        <time>2013-08-29T06:38:48Z</time>
      </trkpt>
      <trkpt lat="44.7514" lon="6.24929">
        <ele>1558.92</ele>
        <time>2013-08-29T06:39:00Z</time>
      </trkpt>
      <trkpt lat="44.75146" lon="6.24935">
        <ele>1559.88</ele>
        <time>2013-08-29T06:39:11Z</time>
      </trkpt>
      <trkpt lat="44.75155" lon="6.2494">
        <ele>1562.28</ele>
        <time>2013-08-29T06:39:24Z</time>
      </trkpt>
      <trkpt lat="44.75165" lon="6.24941">
        <ele>1562.76</ele>
        <time>2013-08-29T06:39:37Z</time>
      </trkpt>
      <trkpt lat="44.75167" lon="6.24941">
        <ele>1564.2</ele>
        <time>2013-08-29T06:39:39Z</time>
      </trkpt>
      <trkpt lat="44.75177" lon="6.24937">
        <ele>1563.72</ele>
        <time>2013-08-29T06:39:52Z</time>
      </trkpt>
      <trkpt lat="44.75188" lon="6.24934">
        <ele>1565.16</ele>
        <time>2013-08-29T06:40:05Z</time>
      </trkpt>
      <trkpt lat="44.75192" lon="6.24932">
        <ele>1565.64</ele>
        <time>2013-08-29T06:40:10Z</time>
      </trkpt>
      <trkpt lat="44.75194" lon="6.24931">
        <ele>1566.61</ele>
        <time>2013-08-29T06:40:12Z</time>
      </trkpt>
      <trkpt lat="44.75199" lon="6.24922">
        <ele>1566.12</ele>
        <time>2013-08-29T06:40:27Z</time>
      </trkpt>
      <trkpt lat="44.75203" lon="6.24929">
        <ele>1566.61</ele>
        <time>2013-08-29T06:40:37Z</time>
      </trkpt>
      <trkpt lat="44.75206" lon="6.24931">
        <ele>1567.57</ele>
        <time>2013-08-29T06:40:41Z</time>
      </trkpt>
      <trkpt lat="44.75215" lon="6.24931">
        <ele>1568.53</ele>
        <time>2013-08-29T06:40:53Z</time>
      </trkpt>
      <trkpt lat="44.75218" lon="6.2493">
        <ele>1569.01</ele>
        <time>2013-08-29T06:40:57Z</time>
      </trkpt>
      <trkpt lat="44.75228" lon="6.24924">
        <ele>1570.93</ele>
        <time>2013-08-29T06:41:11Z</time>
      </trkpt>
      <trkpt lat="44.75235" lon="6.24923">
        <ele>1572.85</ele>
        <time>2013-08-29T06:41:24Z</time>
      </trkpt>
      <trkpt lat="44.75243" lon="6.24927">
        <ele>1574.3</ele>
        <time>2013-08-29T06:41:38Z</time>
      </trkpt>
      <trkpt lat="44.75252" lon="6.24927">
        <ele>1577.18</ele>
        <time>2013-08-29T06:41:50Z</time>
      </trkpt>
      <trkpt lat="44.75261" lon="6.24927">
        <ele>1578.62</ele>
        <time>2013-08-29T06:42:05Z</time>
      </trkpt>
      <trkpt lat="44.75265" lon="6.24924">
        <ele>1579.1</ele>
        <time>2013-08-29T06:42:19Z</time>
      </trkpt>
      <trkpt lat="44.75263" lon="6.24921">
        <ele>1579.1</ele>
        <time>2013-08-29T06:42:23Z</time>
      </trkpt>
      <trkpt lat="44.75259" lon="6.24915">
        <ele>1582.47</ele>
        <time>2013-08-29T06:42:32Z</time>
      </trkpt>
      <trkpt lat="44.75257" lon="6.24913">
        <ele>1580.54</ele>
        <time>2013-08-29T06:42:34Z</time>
      </trkpt>
      <trkpt lat="44.75256" lon="6.24912">
        <ele>1581.03</ele>
        <time>2013-08-29T06:42:35Z</time>
      </trkpt>
      <trkpt lat="44.75252" lon="6.24901">
        <ele>1582.47</ele>
        <time>2013-08-29T06:42:47Z</time>
      </trkpt>
      <trkpt lat="44.75245" lon="6.24889">
        <ele>1583.91</ele>
        <time>2013-08-29T06:43:03Z</time>
      </trkpt>
      <trkpt lat="44.75254" lon="6.2489">
        <ele>1585.83</ele>
        <time>2013-08-29T06:43:16Z</time>
      </trkpt>
      <trkpt lat="44.75255" lon="6.2489">
        <ele>1586.31</ele>
        <time>2013-08-29T06:43:17Z</time>
      </trkpt>
      <trkpt lat="44.7526" lon="6.24892">
        <ele>1588.24</ele>
        <time>2013-08-29T06:43:23Z</time>
      </trkpt>
      <trkpt lat="44.75268" lon="6.24891">
        <ele>1589.68</ele>
        <time>2013-08-29T06:43:35Z</time>
      </trkpt>
      <trkpt lat="44.75269" lon="6.24892">
        <ele>1589.68</ele>
        <time>2013-08-29T06:43:36Z</time>
      </trkpt>
      <trkpt lat="44.75277" lon="6.24893">
        <ele>1589.68</ele>
        <time>2013-08-29T06:43:48Z</time>
      </trkpt>
      <trkpt lat="44.75287" lon="6.24896">
        <ele>1592.08</ele>
        <time>2013-08-29T06:44:02Z</time>
      </trkpt>
      <trkpt lat="44.75296" lon="6.249">
        <ele>1594</ele>
        <time>2013-08-29T06:44:15Z</time>
      </trkpt>
      <trkpt lat="44.75295" lon="6.24893">
        <ele>1594</ele>
        <time>2013-08-29T06:44:22Z</time>
      </trkpt>
      <trkpt lat="44.75292" lon="6.24888">
        <ele>1594.48</ele>
        <time>2013-08-29T06:44:27Z</time>
      </trkpt>
      <trkpt lat="44.75286" lon="6.24878">
        <ele>1595.93</ele>
        <time>2013-08-29T06:44:40Z</time>
      </trkpt>
      <trkpt lat="44.75283" lon="6.24874">
        <ele>1596.89</ele>
        <time>2013-08-29T06:44:46Z</time>
      </trkpt>
      <trkpt lat="44.75279" lon="6.24868">
        <ele>1597.37</ele>
        <time>2013-08-29T06:44:53Z</time>
      </trkpt>
      <trkpt lat="44.75278" lon="6.24864">
        <ele>1598.81</ele>
        <time>2013-08-29T06:44:58Z</time>
      </trkpt>
      <trkpt lat="44.75271" lon="6.24854">
        <ele>1600.25</ele>
        <time>2013-08-29T06:45:12Z</time>
      </trkpt>
      <trkpt lat="44.75277" lon="6.24854">
        <ele>1601.69</ele>
        <time>2013-08-29T06:45:25Z</time>
      </trkpt>
      <trkpt lat="44.75286" lon="6.24854">
        <ele>1603.14</ele>
        <time>2013-08-29T06:45:37Z</time>
      </trkpt>
      <trkpt lat="44.75295" lon="6.24859">
        <ele>1605.06</ele>
        <time>2013-08-29T06:45:50Z</time>
      </trkpt>
      <trkpt lat="44.75296" lon="6.24858">
        <ele>1605.06</ele>
        <time>2013-08-29T06:45:51Z</time>
      </trkpt>
      <trkpt lat="44.75303" lon="6.24861">
        <ele>1607.46</ele>
        <time>2013-08-29T06:46:04Z</time>
      </trkpt>
      <trkpt lat="44.753" lon="6.24854">
        <ele>1607.94</ele>
        <time>2013-08-29T06:46:15Z</time>
      </trkpt>
      <trkpt lat="44.75295" lon="6.24846">
        <ele>1608.42</ele>
        <time>2013-08-29T06:46:26Z</time>
      </trkpt>
      <trkpt lat="44.75293" lon="6.24844">
        <ele>1609.86</ele>
        <time>2013-08-29T06:46:31Z</time>
      </trkpt>
      <trkpt lat="44.75292" lon="6.24842">
        <ele>1609.38</ele>
        <time>2013-08-29T06:46:33Z</time>
      </trkpt>
      <trkpt lat="44.75292" lon="6.24839">
        <ele>1610.83</ele>
        <time>2013-08-29T06:46:36Z</time>
      </trkpt>
      <trkpt lat="44.75283" lon="6.24832">
        <ele>1611.79</ele>
        <time>2013-08-29T06:46:52Z</time>
      </trkpt>
      <trkpt lat="44.75284" lon="6.24831">
        <ele>1613.23</ele>
        <time>2013-08-29T06:47:06Z</time>
      </trkpt>
      <trkpt lat="44.7529" lon="6.24831">
        <ele>1615.63</ele>
        <time>2013-08-29T06:47:15Z</time>
      </trkpt>
      <trkpt lat="44.75294" lon="6.24829">
        <ele>1615.15</ele>
        <time>2013-08-29T06:47:20Z</time>
      </trkpt>
      <trkpt lat="44.753" lon="6.2483">
        <ele>1616.59</ele>
        <time>2013-08-29T06:47:32Z</time>
      </trkpt>
      <trkpt lat="44.7531" lon="6.24833">
        <ele>1618.04</ele>
        <time>2013-08-29T06:47:44Z</time>
      </trkpt>
      <trkpt lat="44.7532" lon="6.24832">
        <ele>1620.44</ele>
        <time>2013-08-29T06:47:58Z</time>
      </trkpt>
      <trkpt lat="44.75321" lon="6.24827">
        <ele>1621.4</ele>
        <time>2013-08-29T06:48:10Z</time>
      </trkpt>
      <trkpt lat="44.75315" lon="6.24822">
        <ele>1622.36</ele>
        <time>2013-08-29T06:48:23Z</time>
      </trkpt>
      <trkpt lat="44.75311" lon="6.24814">
        <ele>1623.32</ele>
        <time>2013-08-29T06:48:34Z</time>
      </trkpt>
      <trkpt lat="44.75304" lon="6.24806">
        <ele>1625.25</ele>
        <time>2013-08-29T06:48:48Z</time>
      </trkpt>
      <trkpt lat="44.753" lon="6.24799">
        <ele>1626.21</ele>
        <time>2013-08-29T06:48:59Z</time>
      </trkpt>
      <trkpt lat="44.75301" lon="6.24799">
        <ele>1627.65</ele>
        <time>2013-08-29T06:49:02Z</time>
      </trkpt>
      <trkpt lat="44.75302" lon="6.24799">
        <ele>1626.69</ele>
        <time>2013-08-29T06:49:03Z</time>
      </trkpt>
      <trkpt lat="44.75308" lon="6.24799">
        <ele>1627.65</ele>
        <time>2013-08-29T06:49:14Z</time>
      </trkpt>
      <trkpt lat="44.75316" lon="6.24802">
        <ele>1631.01</ele>
        <time>2013-08-29T06:49:28Z</time>
      </trkpt>
      <trkpt lat="44.75324" lon="6.24803">
        <ele>1631.49</ele>
        <time>2013-08-29T06:49:39Z</time>
      </trkpt>
      <trkpt lat="44.75331" lon="6.24802">
        <ele>1631.98</ele>
        <time>2013-08-29T06:49:49Z</time>
      </trkpt>
      <trkpt lat="44.75335" lon="6.24803">
        <ele>1632.94</ele>
        <time>2013-08-29T06:49:56Z</time>
      </trkpt>
      <trkpt lat="44.75336" lon="6.24801">
        <ele>1634.86</ele>
        <time>2013-08-29T06:50:09Z</time>
      </trkpt>
      <trkpt lat="44.75334" lon="6.24799">
        <ele>1635.82</ele>
        <time>2013-08-29T06:50:17Z</time>
      </trkpt>
      <trkpt lat="44.75328" lon="6.2479">
        <ele>1638.7</ele>
        <time>2013-08-29T06:50:32Z</time>
      </trkpt>
      <trkpt lat="44.75324" lon="6.24786">
        <ele>1640.15</ele>
        <time>2013-08-29T06:50:46Z</time>
      </trkpt>
      <trkpt lat="44.75326" lon="6.24786">
        <ele>1641.59</ele>
        <time>2013-08-29T06:50:56Z</time>
      </trkpt>
      <trkpt lat="44.75334" lon="6.24787">
        <ele>1642.07</ele>
        <time>2013-08-29T06:51:09Z</time>
      </trkpt>
      <trkpt lat="44.75337" lon="6.24788">
        <ele>1643.51</ele>
        <time>2013-08-29T06:51:13Z</time>
      </trkpt>
      <trkpt lat="44.75339" lon="6.24789">
        <ele>1642.07</ele>
        <time>2013-08-29T06:51:17Z</time>
      </trkpt>
      <trkpt lat="44.7534" lon="6.24784">
        <ele>1644.47</ele>
        <time>2013-08-29T06:51:28Z</time>
      </trkpt>
      <trkpt lat="44.75336" lon="6.2478">
        <ele>1644.47</ele>
        <time>2013-08-29T06:51:42Z</time>
      </trkpt>
      <trkpt lat="44.7533" lon="6.24773">
        <ele>1646.4</ele>
        <time>2013-08-29T06:51:55Z</time>
      </trkpt>
      <trkpt lat="44.7533" lon="6.24769">
        <ele>1648.32</ele>
        <time>2013-08-29T06:52:06Z</time>
      </trkpt>
      <trkpt lat="44.75336" lon="6.24768">
        <ele>1649.28</ele>
        <time>2013-08-29T06:52:15Z</time>
      </trkpt>
      <trkpt lat="44.75341" lon="6.24765">
        <ele>1650.24</ele>
        <time>2013-08-29T06:52:22Z</time>
      </trkpt>
      <trkpt lat="44.75349" lon="6.24761">
        <ele>1651.68</ele>
        <time>2013-08-29T06:52:34Z</time>
      </trkpt>
      <trkpt lat="44.75352" lon="6.2476">
        <ele>1653.6</ele>
        <time>2013-08-29T06:52:38Z</time>
      </trkpt>
      <trkpt lat="44.75359" lon="6.24756">
        <ele>1653.6</ele>
        <time>2013-08-29T06:52:48Z</time>
      </trkpt>
      <trkpt lat="44.75354" lon="6.24753">
        <ele>1655.53</ele>
        <time>2013-08-29T06:53:00Z</time>
      </trkpt>
      <trkpt lat="44.75347" lon="6.24752">
        <ele>1657.93</ele>
        <time>2013-08-29T06:53:12Z</time>
      </trkpt>
      <trkpt lat="44.75344" lon="6.2475">
        <ele>1658.89</ele>
        <time>2013-08-29T06:53:17Z</time>
      </trkpt>
      <trkpt lat="44.7534" lon="6.24747">
        <ele>1659.85</ele>
        <time>2013-08-29T06:53:22Z</time>
      </trkpt>
      <trkpt lat="44.75333" lon="6.24744">
        <ele>1659.85</ele>
        <time>2013-08-29T06:53:34Z</time>
      </trkpt>
      <trkpt lat="44.75325" lon="6.24742">
        <ele>1659.37</ele>
        <time>2013-08-29T06:53:45Z</time>
      </trkpt>
      <trkpt lat="44.75319" lon="6.24739">
        <ele>1663.22</ele>
        <time>2013-08-29T06:53:56Z</time>
      </trkpt>
      <trkpt lat="44.7532" lon="6.24738">
        <ele>1663.7</ele>
        <time>2013-08-29T06:53:58Z</time>
      </trkpt>
      <trkpt lat="44.75323" lon="6.24739">
        <ele>1663.7</ele>
        <time>2013-08-29T06:54:02Z</time>
      </trkpt>
      <trkpt lat="44.75327" lon="6.24737">
        <ele>1663.22</ele>
        <time>2013-08-29T06:54:08Z</time>
      </trkpt>
      <trkpt lat="44.75328" lon="6.24735">
        <ele>1664.66</ele>
        <time>2013-08-29T06:54:10Z</time>
      </trkpt>
      <trkpt lat="44.75331" lon="6.24733">
        <ele>1665.14</ele>
        <time>2013-08-29T06:54:15Z</time>
      </trkpt>
      <trkpt lat="44.75334" lon="6.24733">
        <ele>1665.14</ele>
        <time>2013-08-29T06:54:19Z</time>
      </trkpt>
      <trkpt lat="44.75344" lon="6.24733">
        <ele>1666.58</ele>
        <time>2013-08-29T06:54:31Z</time>
      </trkpt>
      <trkpt lat="44.7535" lon="6.24731">
        <ele>1668.02</ele>
        <time>2013-08-29T06:54:41Z</time>
      </trkpt>
      <trkpt lat="44.75358" lon="6.24727">
        <ele>1668.02</ele>
        <time>2013-08-29T06:54:51Z</time>
      </trkpt>
      <trkpt lat="44.75367" lon="6.24721">
        <ele>1670.43</ele>
        <time>2013-08-29T06:55:05Z</time>
      </trkpt>
      <trkpt lat="44.75368" lon="6.24719">
        <ele>1672.83</ele>
        <time>2013-08-29T06:55:18Z</time>
      </trkpt>
      <trkpt lat="44.75361" lon="6.24719">
        <ele>1674.27</ele>
        <time>2013-08-29T06:55:29Z</time>
      </trkpt>
      <trkpt lat="44.75358" lon="6.24716">
        <ele>1676.2</ele>
        <time>2013-08-29T06:55:36Z</time>
      </trkpt>
      <trkpt lat="44.75358" lon="6.24715">
        <ele>1674.75</ele>
        <time>2013-08-29T06:55:38Z</time>
      </trkpt>
      <trkpt lat="44.75356" lon="6.24714">
        <ele>1675.72</ele>
        <time>2013-08-29T06:55:40Z</time>
      </trkpt>
      <trkpt lat="44.75351" lon="6.24712">
        <ele>1677.16</ele>
        <time>2013-08-29T06:55:48Z</time>
      </trkpt>
      <trkpt lat="44.75351" lon="6.24709">
        <ele>1678.12</ele>
        <time>2013-08-29T06:55:56Z</time>
      </trkpt>
      <trkpt lat="44.75354" lon="6.24708">
        <ele>1677.64</ele>
        <time>2013-08-29T06:56:00Z</time>
      </trkpt>
      <trkpt lat="44.75357" lon="6.24708">
        <ele>1678.6</ele>
        <time>2013-08-29T06:56:05Z</time>
      </trkpt>
      <trkpt lat="44.75365" lon="6.24704">
        <ele>1680.52</ele>
        <time>2013-08-29T06:56:17Z</time>
      </trkpt>
      <trkpt lat="44.75375" lon="6.24701">
        <ele>1681.48</ele>
        <time>2013-08-29T06:56:30Z</time>
      </trkpt>
      <trkpt lat="44.75382" lon="6.24699">
        <ele>1682.44</ele>
        <time>2013-08-29T06:56:41Z</time>
      </trkpt>
      <trkpt lat="44.75391" lon="6.24691">
        <ele>1685.33</ele>
        <time>2013-08-29T06:56:55Z</time>
      </trkpt>
      <trkpt lat="44.75392" lon="6.2469">
        <ele>1684.37</ele>
        <time>2013-08-29T06:56:57Z</time>
      </trkpt>
      <trkpt lat="44.75397" lon="6.2468">
        <ele>1686.77</ele>
        <time>2013-08-29T06:57:09Z</time>
      </trkpt>
      <trkpt lat="44.75401" lon="6.24672">
        <ele>1686.29</ele>
        <time>2013-08-29T06:57:22Z</time>
      </trkpt>
      <trkpt lat="44.75403" lon="6.24671">
        <ele>1687.73</ele>
        <time>2013-08-29T06:57:25Z</time>
      </trkpt>
      <trkpt lat="44.75399" lon="6.24671">
        <ele>1689.65</ele>
        <time>2013-08-29T06:57:37Z</time>
      </trkpt>
      <trkpt lat="44.75395" lon="6.24672">
        <ele>1690.62</ele>
        <time>2013-08-29T06:57:43Z</time>
      </trkpt>
      <trkpt lat="44.7539" lon="6.24676">
        <ele>1691.58</ele>
        <time>2013-08-29T06:57:50Z</time>
      </trkpt>
      <trkpt lat="44.75384" lon="6.24678">
        <ele>1693.02</ele>
        <time>2013-08-29T06:58:01Z</time>
      </trkpt>
      <trkpt lat="44.75377" lon="6.24678">
        <ele>1694.46</ele>
        <time>2013-08-29T06:58:13Z</time>
      </trkpt>
      <trkpt lat="44.7537" lon="6.24675">
        <ele>1695.42</ele>
        <time>2013-08-29T06:58:26Z</time>
      </trkpt>
      <trkpt lat="44.75377" lon="6.24671">
        <ele>1696.86</ele>
        <time>2013-08-29T06:58:37Z</time>
      </trkpt>
      <trkpt lat="44.75382" lon="6.24667">
        <ele>1699.27</ele>
        <time>2013-08-29T06:58:49Z</time>
      </trkpt>
      <trkpt lat="44.75384" lon="6.24663">
        <ele>1701.67</ele>
        <time>2013-08-29T06:59:00Z</time>
      </trkpt>
      <trkpt lat="44.75387" lon="6.24657">
        <ele>1702.15</ele>
        <time>2013-08-29T06:59:10Z</time>
      </trkpt>
      <trkpt lat="44.75391" lon="6.24651">
        <ele>1704.07</ele>
        <time>2013-08-29T06:59:22Z</time>
      </trkpt>
      <trkpt lat="44.75387" lon="6.2465">
        <ele>1705.52</ele>
        <time>2013-08-29T06:59:32Z</time>
      </trkpt>
      <trkpt lat="44.75386" lon="6.2465">
        <ele>1705.04</ele>
        <time>2013-08-29T06:59:34Z</time>
      </trkpt>
      <trkpt lat="44.75381" lon="6.24653">
        <ele>1706</ele>
        <time>2013-08-29T06:59:43Z</time>
      </trkpt>
      <trkpt lat="44.75375" lon="6.24652">
        <ele>1708.4</ele>
        <time>2013-08-29T06:59:54Z</time>
      </trkpt>
      <trkpt lat="44.75374" lon="6.24652">
        <ele>1708.88</ele>
        <time>2013-08-29T06:59:58Z</time>
      </trkpt>
      <trkpt lat="44.75367" lon="6.24652">
        <ele>1710.32</ele>
        <time>2013-08-29T07:00:10Z</time>
      </trkpt>
      <trkpt lat="44.75361" lon="6.24651">
        <ele>1712.25</ele>
        <time>2013-08-29T07:00:23Z</time>
      </trkpt>
      <trkpt lat="44.75363" lon="6.2465">
        <ele>1713.21</ele>
        <time>2013-08-29T07:00:34Z</time>
      </trkpt>
      <trkpt lat="44.75366" lon="6.24645">
        <ele>1716.09</ele>
        <time>2013-08-29T07:00:44Z</time>
      </trkpt>
      <trkpt lat="44.7537" lon="6.24641">
        <ele>1716.57</ele>
        <time>2013-08-29T07:00:54Z</time>
      </trkpt>
      <trkpt lat="44.75372" lon="6.24639">
        <ele>1718.01</ele>
        <time>2013-08-29T07:01:00Z</time>
      </trkpt>
      <trkpt lat="44.75369" lon="6.24636">
        <ele>1719.46</ele>
        <time>2013-08-29T07:01:11Z</time>
      </trkpt>
      <trkpt lat="44.75364" lon="6.24636">
        <ele>1720.42</ele>
        <time>2013-08-29T07:01:22Z</time>
      </trkpt>
      <trkpt lat="44.75356" lon="6.24638">
        <ele>1721.38</ele>
        <time>2013-08-29T07:01:34Z</time>
      </trkpt>
      <trkpt lat="44.75349" lon="6.24645">
        <ele>1721.86</ele>
        <time>2013-08-29T07:01:47Z</time>
      </trkpt>
      <trkpt lat="44.75347" lon="6.24643">
        <ele>1722.82</ele>
        <time>2013-08-29T07:02:00Z</time>
      </trkpt>
      <trkpt lat="44.75347" lon="6.24638">
        <ele>1725.22</ele>
        <time>2013-08-29T07:02:12Z</time>
      </trkpt>
      <trkpt lat="44.75348" lon="6.24636">
        <ele>1725.7</ele>
        <time>2013-08-29T07:02:18Z</time>
      </trkpt>
      <trkpt lat="44.75352" lon="6.24632">
        <ele>1727.15</ele>
        <time>2013-08-29T07:02:30Z</time>
      </trkpt>
      <trkpt lat="44.75356" lon="6.24628">
        <ele>1728.11</ele>
        <time>2013-08-29T07:02:42Z</time>
      </trkpt>
      <trkpt lat="44.75361" lon="6.24623">
        <ele>1730.03</ele>
        <time>2013-08-29T07:02:54Z</time>
      </trkpt>
      <trkpt lat="44.75365" lon="6.24616">
        <ele>1731.95</ele>
        <time>2013-08-29T07:03:09Z</time>
      </trkpt>
      <trkpt lat="44.75361" lon="6.24614">
        <ele>1732.91</ele>
        <time>2013-08-29T07:03:17Z</time>
      </trkpt>
      <trkpt lat="44.75356" lon="6.24613">
        <ele>1734.84</ele>
        <time>2013-08-29T07:03:28Z</time>
      </trkpt>
      <trkpt lat="44.75352" lon="6.24613">
        <ele>1737.24</ele>
        <time>2013-08-29T07:03:40Z</time>
      </trkpt>
      <trkpt lat="44.75357" lon="6.24607">
        <ele>1737.72</ele>
        <time>2013-08-29T07:03:52Z</time>
      </trkpt>
      <trkpt lat="44.75358" lon="6.24605">
        <ele>1739.16</ele>
        <time>2013-08-29T07:03:57Z</time>
      </trkpt>
      <trkpt lat="44.7536" lon="6.24601">
        <ele>1740.12</ele>
        <time>2013-08-29T07:04:03Z</time>
      </trkpt>
      <trkpt lat="44.7536" lon="6.24597">
        <ele>1740.6</ele>
        <time>2013-08-29T07:04:15Z</time>
      </trkpt>
      <trkpt lat="44.75354" lon="6.24601">
        <ele>1743.01</ele>
        <time>2013-08-29T07:04:28Z</time>
      </trkpt>
      <trkpt lat="44.75347" lon="6.24604">
        <ele>1743.49</ele>
        <time>2013-08-29T07:04:39Z</time>
      </trkpt>
      <trkpt lat="44.75345" lon="6.24605">
        <ele>1745.41</ele>
        <time>2013-08-29T07:04:42Z</time>
      </trkpt>
      <trkpt lat="44.75343" lon="6.24604">
        <ele>1745.41</ele>
        <time>2013-08-29T07:04:48Z</time>
      </trkpt>
      <trkpt lat="44.75344" lon="6.24603">
        <ele>1744.93</ele>
        <time>2013-08-29T07:04:49Z</time>
      </trkpt>
      <trkpt lat="44.75349" lon="6.24596">
        <ele>1747.81</ele>
        <time>2013-08-29T07:05:00Z</time>
      </trkpt>
      <trkpt lat="44.75345" lon="6.24595">
        <ele>1748.78</ele>
        <time>2013-08-29T07:05:12Z</time>
      </trkpt>
      <trkpt lat="44.75339" lon="6.24596">
        <ele>1748.78</ele>
        <time>2013-08-29T07:05:22Z</time>
      </trkpt>
      <trkpt lat="44.75338" lon="6.24596">
        <ele>1750.22</ele>
        <time>2013-08-29T07:05:23Z</time>
      </trkpt>
      <trkpt lat="44.75336" lon="6.24597">
        <ele>1751.18</ele>
        <time>2013-08-29T07:05:25Z</time>
      </trkpt>
      <trkpt lat="44.75329" lon="6.24598">
        <ele>1753.1</ele>
        <time>2013-08-29T07:05:37Z</time>
      </trkpt>
      <trkpt lat="44.75329" lon="6.24598">
        <ele>1753.1</ele>
        <time>2013-08-29T07:05:38Z</time>
      </trkpt>
      <trkpt lat="44.75323" lon="6.24602">
        <ele>1753.58</ele>
        <time>2013-08-29T07:05:47Z</time>
      </trkpt>
      <trkpt lat="44.75321" lon="6.24602">
        <ele>1755.02</ele>
        <time>2013-08-29T07:05:51Z</time>
      </trkpt>
      <trkpt lat="44.75319" lon="6.24603">
        <ele>1754.54</ele>
        <time>2013-08-29T07:05:55Z</time>
      </trkpt>
      <trkpt lat="44.75316" lon="6.24605">
        <ele>1755.5</ele>
        <time>2013-08-29T07:05:59Z</time>
      </trkpt>
      <trkpt lat="44.75309" lon="6.24607">
        <ele>1757.43</ele>
        <time>2013-08-29T07:06:09Z</time>
      </trkpt>
      <trkpt lat="44.75301" lon="6.24609">
        <ele>1757.43</ele>
        <time>2013-08-29T07:06:21Z</time>
      </trkpt>
      <trkpt lat="44.75297" lon="6.2461">
        <ele>1758.39</ele>
        <time>2013-08-29T07:06:31Z</time>
      </trkpt>
      <trkpt lat="44.75289" lon="6.24617">
        <ele>1759.83</ele>
        <time>2013-08-29T07:06:43Z</time>
      </trkpt>
      <trkpt lat="44.75281" lon="6.2462">
        <ele>1761.75</ele>
        <time>2013-08-29T07:06:56Z</time>
      </trkpt>
      <trkpt lat="44.75278" lon="6.24622">
        <ele>1762.71</ele>
        <time>2013-08-29T07:07:00Z</time>
      </trkpt>
      <trkpt lat="44.7527" lon="6.24629">
        <ele>1763.68</ele>
        <time>2013-08-29T07:07:12Z</time>
      </trkpt>
      <trkpt lat="44.75264" lon="6.24635">
        <ele>1765.12</ele>
        <time>2013-08-29T07:07:21Z</time>
      </trkpt>
      <trkpt lat="44.75262" lon="6.24636">
        <ele>1764.16</ele>
        <time>2013-08-29T07:07:23Z</time>
      </trkpt>
      <trkpt lat="44.75252" lon="6.24639">
        <ele>1765.6</ele>
        <time>2013-08-29T07:07:35Z</time>
      </trkpt>
      <trkpt lat="44.75246" lon="6.24639">
        <ele>1766.08</ele>
        <time>2013-08-29T07:07:47Z</time>
      </trkpt>
      <trkpt lat="44.7524" lon="6.24642">
        <ele>1767.52</ele>
        <time>2013-08-29T07:07:57Z</time>
      </trkpt>
      <trkpt lat="44.75238" lon="6.24641">
        <ele>1768.96</ele>
        <time>2013-08-29T07:08:08Z</time>
      </trkpt>
      <trkpt lat="44.75235" lon="6.24639">
        <ele>1771.85</ele>
        <time>2013-08-29T07:08:18Z</time>
      </trkpt>
      <trkpt lat="44.75231" lon="6.24641">
        <ele>1773.77</ele>
        <time>2013-08-29T07:08:27Z</time>
      </trkpt>
      <trkpt lat="44.75233" lon="6.24635">
        <ele>1775.21</ele>
        <time>2013-08-29T07:08:39Z</time>
      </trkpt>
      <trkpt lat="44.75232" lon="6.24635">
        <ele>1774.25</ele>
        <time>2013-08-29T07:08:42Z</time>
      </trkpt>
      <trkpt lat="44.75229" lon="6.24636">
        <ele>1774.73</ele>
        <time>2013-08-29T07:08:46Z</time>
      </trkpt>
      <trkpt lat="44.75221" lon="6.24636">
        <ele>1776.65</ele>
        <time>2013-08-29T07:08:59Z</time>
      </trkpt>
      <trkpt lat="44.75219" lon="6.24636">
        <ele>1776.65</ele>
        <time>2013-08-29T07:09:01Z</time>
      </trkpt>
      <trkpt lat="44.75216" lon="6.24634">
        <ele>1779.06</ele>
        <time>2013-08-29T07:09:06Z</time>
      </trkpt>
      <trkpt lat="44.7521" lon="6.24635">
        <ele>1779.06</ele>
        <time>2013-08-29T07:09:15Z</time>
      </trkpt>
      <trkpt lat="44.75208" lon="6.24632">
        <ele>1778.58</ele>
        <time>2013-08-29T07:09:29Z</time>
      </trkpt>
      <trkpt lat="44.75208" lon="6.2463">
        <ele>1779.06</ele>
        <time>2013-08-29T07:09:40Z</time>
      </trkpt>
      <trkpt lat="44.7521" lon="6.24631">
        <ele>1780.5</ele>
        <time>2013-08-29T07:09:50Z</time>
      </trkpt>
      <trkpt lat="44.75211" lon="6.24631">
        <ele>1779.54</ele>
        <time>2013-08-29T07:09:53Z</time>
      </trkpt>
      <trkpt lat="44.75219" lon="6.24627">
        <ele>1781.46</ele>
        <time>2013-08-29T07:10:04Z</time>
      </trkpt>
      <trkpt lat="44.75222" lon="6.24628">
        <ele>1783.38</ele>
        <time>2013-08-29T07:10:09Z</time>
      </trkpt>
      <trkpt lat="44.75225" lon="6.24629">
        <ele>1783.86</ele>
        <time>2013-08-29T07:10:15Z</time>
      </trkpt>
      <trkpt lat="44.75228" lon="6.24624">
        <ele>1785.31</ele>
        <time>2013-08-29T07:10:25Z</time>
      </trkpt>
      <trkpt lat="44.75226" lon="6.24624">
        <ele>1784.34</ele>
        <time>2013-08-29T07:10:27Z</time>
      </trkpt>
      <trkpt lat="44.75219" lon="6.2462">
        <ele>1786.27</ele>
        <time>2013-08-29T07:10:40Z</time>
      </trkpt>
      <trkpt lat="44.75212" lon="6.24614">
        <ele>1788.67</ele>
        <time>2013-08-29T07:10:53Z</time>
      </trkpt>
      <trkpt lat="44.75208" lon="6.24609">
        <ele>1791.55</ele>
        <time>2013-08-29T07:11:05Z</time>
      </trkpt>
      <trkpt lat="44.75207" lon="6.24608">
        <ele>1788.67</ele>
        <time>2013-08-29T07:11:09Z</time>
      </trkpt>
      <trkpt lat="44.7521" lon="6.24607">
        <ele>1791.55</ele>
        <time>2013-08-29T07:11:25Z</time>
      </trkpt>
      <trkpt lat="44.75216" lon="6.24609">
        <ele>1793.48</ele>
        <time>2013-08-29T07:11:35Z</time>
      </trkpt>
      <trkpt lat="44.75219" lon="6.2461">
        <ele>1794.44</ele>
        <time>2013-08-29T07:11:40Z</time>
      </trkpt>
      <trkpt lat="44.75222" lon="6.24611">
        <ele>1794.44</ele>
        <time>2013-08-29T07:11:45Z</time>
      </trkpt>
      <trkpt lat="44.75218" lon="6.24605">
        <ele>1794.92</ele>
        <time>2013-08-29T07:11:57Z</time>
      </trkpt>
      <trkpt lat="44.75216" lon="6.24601">
        <ele>1795.4</ele>
        <time>2013-08-29T07:12:02Z</time>
      </trkpt>
      <trkpt lat="44.75211" lon="6.24591">
        <ele>1797.32</ele>
        <time>2013-08-29T07:12:15Z</time>
      </trkpt>
      <trkpt lat="44.7521" lon="6.24581">
        <ele>1799.24</ele>
        <time>2013-08-29T07:12:27Z</time>
      </trkpt>
      <trkpt lat="44.7521" lon="6.24578">
        <ele>1800.21</ele>
        <time>2013-08-29T07:12:30Z</time>
      </trkpt>
      <trkpt lat="44.75207" lon="6.24573">
        <ele>1800.69</ele>
        <time>2013-08-29T07:12:35Z</time>
      </trkpt>
      <trkpt lat="44.75205" lon="6.24563">
        <ele>1802.13</ele>
        <time>2013-08-29T07:12:47Z</time>
      </trkpt>
      <trkpt lat="44.75203" lon="6.24554">
        <ele>1804.53</ele>
        <time>2013-08-29T07:13:00Z</time>
      </trkpt>
      <trkpt lat="44.75205" lon="6.24549">
        <ele>1805.97</ele>
        <time>2013-08-29T07:13:14Z</time>
      </trkpt>
      <trkpt lat="44.75206" lon="6.24551">
        <ele>1805.97</ele>
        <time>2013-08-29T07:13:17Z</time>
      </trkpt>
      <trkpt lat="44.75211" lon="6.2456">
        <ele>1807.9</ele>
        <time>2013-08-29T07:13:30Z</time>
      </trkpt>
      <trkpt lat="44.75213" lon="6.24561">
        <ele>1808.38</ele>
        <time>2013-08-29T07:13:33Z</time>
      </trkpt>
      <trkpt lat="44.75218" lon="6.24569">
        <ele>1809.34</ele>
        <time>2013-08-29T07:13:47Z</time>
      </trkpt>
      <trkpt lat="44.75219" lon="6.2457">
        <ele>1809.34</ele>
        <time>2013-08-29T07:13:54Z</time>
      </trkpt>
      <trkpt lat="44.7522" lon="6.24571">
        <ele>1807.9</ele>
        <time>2013-08-29T07:14:21Z</time>
      </trkpt>
      <trkpt lat="44.7522" lon="6.24571">
        <ele>1807.9</ele>
        <time>2013-08-29T07:15:39Z</time>
      </trkpt>
      <trkpt lat="44.7522" lon="6.24571">
        <ele>1808.86</ele>
        <time>2013-08-29T07:16:43Z</time>
      </trkpt>
      <trkpt lat="44.7522" lon="6.24571">
        <ele>1809.34</ele>
        <time>2013-08-29T07:17:33Z</time>
      </trkpt>
      <trkpt lat="44.75219" lon="6.24571">
        <ele>1809.82</ele>
        <time>2013-08-29T07:17:59Z</time>
      </trkpt>
      <trkpt lat="44.7522" lon="6.2457">
        <ele>1809.82</ele>
        <time>2013-08-29T07:18:19Z</time>
      </trkpt>
      <trkpt lat="44.7522" lon="6.24573">
        <ele>1810.3</ele>
        <time>2013-08-29T07:18:34Z</time>
      </trkpt>
      <trkpt lat="44.75227" lon="6.24577">
        <ele>1810.78</ele>
        <time>2013-08-29T07:18:50Z</time>
      </trkpt>
      <trkpt lat="44.75232" lon="6.24582">
        <ele>1812.7</ele>
        <time>2013-08-29T07:19:01Z</time>
      </trkpt>
      <trkpt lat="44.75241" lon="6.24585">
        <ele>1814.15</ele>
        <time>2013-08-29T07:19:15Z</time>
      </trkpt>
      <trkpt lat="44.75246" lon="6.24584">
        <ele>1817.03</ele>
        <time>2013-08-29T07:19:26Z</time>
      </trkpt>
      <trkpt lat="44.75248" lon="6.24584">
        <ele>1816.07</ele>
        <time>2013-08-29T07:19:31Z</time>
      </trkpt>
      <trkpt lat="44.75254" lon="6.24576">
        <ele>1817.51</ele>
        <time>2013-08-29T07:19:43Z</time>
      </trkpt>
      <trkpt lat="44.75257" lon="6.24571">
        <ele>1817.03</ele>
        <time>2013-08-29T07:19:49Z</time>
      </trkpt>
      <trkpt lat="44.75264" lon="6.24563">
        <ele>1818.95</ele>
        <time>2013-08-29T07:19:58Z</time>
      </trkpt>
      <trkpt lat="44.75274" lon="6.24558">
        <ele>1819.43</ele>
        <time>2013-08-29T07:20:12Z</time>
      </trkpt>
      <trkpt lat="44.75283" lon="6.24556">
        <ele>1821.35</ele>
        <time>2013-08-29T07:20:24Z</time>
      </trkpt>
      <trkpt lat="44.75291" lon="6.24552">
        <ele>1821.35</ele>
        <time>2013-08-29T07:20:36Z</time>
      </trkpt>
      <trkpt lat="44.75302" lon="6.24547">
        <ele>1822.8</ele>
        <time>2013-08-29T07:20:50Z</time>
      </trkpt>
      <trkpt lat="44.7531" lon="6.24539">
        <ele>1823.28</ele>
        <time>2013-08-29T07:21:01Z</time>
      </trkpt>
      <trkpt lat="44.7532" lon="6.2453">
        <ele>1824.24</ele>
        <time>2013-08-29T07:21:14Z</time>
      </trkpt>
      <trkpt lat="44.75328" lon="6.2452">
        <ele>1826.64</ele>
        <time>2013-08-29T07:21:27Z</time>
      </trkpt>
      <trkpt lat="44.75329" lon="6.24518">
        <ele>1827.6</ele>
        <time>2013-08-29T07:21:29Z</time>
      </trkpt>
      <trkpt lat="44.7533" lon="6.24517">
        <ele>1826.16</ele>
        <time>2013-08-29T07:21:30Z</time>
      </trkpt>
      <trkpt lat="44.75335" lon="6.24512">
        <ele>1824.72</ele>
        <time>2013-08-29T07:21:37Z</time>
      </trkpt>
      <trkpt lat="44.75342" lon="6.24513">
        <ele>1825.68</ele>
        <time>2013-08-29T07:21:48Z</time>
      </trkpt>
      <trkpt lat="44.75344" lon="6.24511">
        <ele>1825.2</ele>
        <time>2013-08-29T07:21:51Z</time>
      </trkpt>
      <trkpt lat="44.75351" lon="6.24504">
        <ele>1824.24</ele>
        <time>2013-08-29T07:22:02Z</time>
      </trkpt>
      <trkpt lat="44.75355" lon="6.24507">
        <ele>1821.84</ele>
        <time>2013-08-29T07:22:12Z</time>
      </trkpt>
      <trkpt lat="44.75359" lon="6.24507">
        <ele>1820.87</ele>
        <time>2013-08-29T07:22:25Z</time>
      </trkpt>
      <trkpt lat="44.7536" lon="6.24507">
        <ele>1822.32</ele>
        <time>2013-08-29T07:22:27Z</time>
      </trkpt>
      <trkpt lat="44.75367" lon="6.24501">
        <ele>1824.24</ele>
        <time>2013-08-29T07:22:40Z</time>
      </trkpt>
      <trkpt lat="44.75371" lon="6.24498">
        <ele>1825.68</ele>
        <time>2013-08-29T07:22:58Z</time>
      </trkpt>
      <trkpt lat="44.75372" lon="6.24498">
        <ele>1826.64</ele>
        <time>2013-08-29T07:22:59Z</time>
      </trkpt>
      <trkpt lat="44.75379" lon="6.24496">
        <ele>1827.6</ele>
        <time>2013-08-29T07:23:11Z</time>
      </trkpt>
      <trkpt lat="44.75387" lon="6.24491">
        <ele>1827.12</ele>
        <time>2013-08-29T07:23:23Z</time>
      </trkpt>
      <trkpt lat="44.75395" lon="6.24484">
        <ele>1827.12</ele>
        <time>2013-08-29T07:23:32Z</time>
      </trkpt>
      <trkpt lat="44.75406" lon="6.24474">
        <ele>1827.6</ele>
        <time>2013-08-29T07:23:46Z</time>
      </trkpt>
      <trkpt lat="44.75417" lon="6.24473">
        <ele>1829.53</ele>
        <time>2013-08-29T07:24:01Z</time>
      </trkpt>
      <trkpt lat="44.75418" lon="6.24473">
        <ele>1829.05</ele>
        <time>2013-08-29T07:24:03Z</time>
      </trkpt>
      <trkpt lat="44.75424" lon="6.2447">
        <ele>1830.49</ele>
        <time>2013-08-29T07:24:12Z</time>
      </trkpt>
      <trkpt lat="44.75425" lon="6.24461">
        <ele>1829.53</ele>
        <time>2013-08-29T07:24:18Z</time>
      </trkpt>
      <trkpt lat="44.75433" lon="6.24458">
        <ele>1830.01</ele>
        <time>2013-08-29T07:24:30Z</time>
      </trkpt>
      <trkpt lat="44.75439" lon="6.24465">
        <ele>1829.53</ele>
        <time>2013-08-29T07:24:41Z</time>
      </trkpt>
      <trkpt lat="44.75442" lon="6.24474">
        <ele>1830.01</ele>
        <time>2013-08-29T07:24:52Z</time>
      </trkpt>
      <trkpt lat="44.75448" lon="6.24472">
        <ele>1831.45</ele>
        <time>2013-08-29T07:25:02Z</time>
      </trkpt>
      <trkpt lat="44.75448" lon="6.24472">
        <ele>1831.45</ele>
        <time>2013-08-29T07:25:03Z</time>
      </trkpt>
      <trkpt lat="44.75458" lon="6.24465">
        <ele>1830.97</ele>
        <time>2013-08-29T07:25:15Z</time>
      </trkpt>
      <trkpt lat="44.75467" lon="6.24469">
        <ele>1829.53</ele>
        <time>2013-08-29T07:25:26Z</time>
      </trkpt>
      <trkpt lat="44.75475" lon="6.24467">
        <ele>1830.01</ele>
        <time>2013-08-29T07:25:37Z</time>
      </trkpt>
      <trkpt lat="44.75483" lon="6.24465">
        <ele>1829.05</ele>
        <time>2013-08-29T07:25:49Z</time>
      </trkpt>
      <trkpt lat="44.75485" lon="6.24465">
        <ele>1831.45</ele>
        <time>2013-08-29T07:25:58Z</time>
      </trkpt>
      <trkpt lat="44.75485" lon="6.24465">
        <ele>1831.93</ele>
        <time>2013-08-29T07:26:02Z</time>
      </trkpt>
      <trkpt lat="44.7549" lon="6.24474">
        <ele>1833.85</ele>
        <time>2013-08-29T07:26:12Z</time>
      </trkpt>
      <trkpt lat="44.75493" lon="6.24478">
        <ele>1832.89</ele>
        <time>2013-08-29T07:26:18Z</time>
      </trkpt>
      <trkpt lat="44.75497" lon="6.24478">
        <ele>1832.89</ele>
        <time>2013-08-29T07:26:23Z</time>
      </trkpt>
      <trkpt lat="44.755" lon="6.2448">
        <ele>1833.85</ele>
        <time>2013-08-29T07:26:28Z</time>
      </trkpt>
      <trkpt lat="44.7551" lon="6.24481">
        <ele>1836.74</ele>
        <time>2013-08-29T07:26:40Z</time>
      </trkpt>
      <trkpt lat="44.75514" lon="6.24479">
        <ele>1837.7</ele>
        <time>2013-08-29T07:26:45Z</time>
      </trkpt>
      <trkpt lat="44.75523" lon="6.24479">
        <ele>1838.18</ele>
        <time>2013-08-29T07:26:57Z</time>
      </trkpt>
      <trkpt lat="44.75531" lon="6.24482">
        <ele>1838.18</ele>
        <time>2013-08-29T07:27:10Z</time>
      </trkpt>
      <trkpt lat="44.75542" lon="6.24482">
        <ele>1841.06</ele>
        <time>2013-08-29T07:27:24Z</time>
      </trkpt>
      <trkpt lat="44.75551" lon="6.24484">
        <ele>1841.06</ele>
        <time>2013-08-29T07:27:36Z</time>
      </trkpt>
      <trkpt lat="44.75559" lon="6.24488">
        <ele>1843.95</ele>
        <time>2013-08-29T07:27:49Z</time>
      </trkpt>
      <trkpt lat="44.75566" lon="6.24495">
        <ele>1843.95</ele>
        <time>2013-08-29T07:28:01Z</time>
      </trkpt>
      <trkpt lat="44.75568" lon="6.24499">
        <ele>1845.39</ele>
        <time>2013-08-29T07:28:06Z</time>
      </trkpt>
      <trkpt lat="44.75574" lon="6.24511">
        <ele>1845.87</ele>
        <time>2013-08-29T07:28:20Z</time>
      </trkpt>
      <trkpt lat="44.75577" lon="6.24513">
        <ele>1847.31</ele>
        <time>2013-08-29T07:28:23Z</time>
      </trkpt>
      <trkpt lat="44.75578" lon="6.24512">
        <ele>1848.75</ele>
        <time>2013-08-29T07:28:37Z</time>
      </trkpt>
      <trkpt lat="44.75581" lon="6.2451">
        <ele>1850.19</ele>
        <time>2013-08-29T07:28:49Z</time>
      </trkpt>
      <trkpt lat="44.75585" lon="6.24514">
        <ele>1851.16</ele>
        <time>2013-08-29T07:29:00Z</time>
      </trkpt>
      <trkpt lat="44.75587" lon="6.24513">
        <ele>1852.12</ele>
        <time>2013-08-29T07:29:03Z</time>
      </trkpt>
      <trkpt lat="44.75596" lon="6.24517">
        <ele>1852.6</ele>
        <time>2013-08-29T07:29:17Z</time>
      </trkpt>
      <trkpt lat="44.75605" lon="6.2452">
        <ele>1854.52</ele>
        <time>2013-08-29T07:29:32Z</time>
      </trkpt>
      <trkpt lat="44.75608" lon="6.24519">
        <ele>1856.92</ele>
        <time>2013-08-29T07:29:43Z</time>
      </trkpt>
      <trkpt lat="44.75608" lon="6.24519">
        <ele>1858.85</ele>
        <time>2013-08-29T07:29:56Z</time>
      </trkpt>
      <trkpt lat="44.75609" lon="6.24505">
        <ele>1859.81</ele>
        <time>2013-08-29T07:30:07Z</time>
      </trkpt>
      <trkpt lat="44.75609" lon="6.24502">
        <ele>1861.25</ele>
        <time>2013-08-29T07:30:11Z</time>
      </trkpt>
      <trkpt lat="44.75607" lon="6.24492">
        <ele>1862.21</ele>
        <time>2013-08-29T07:30:22Z</time>
      </trkpt>
      <trkpt lat="44.75607" lon="6.24489">
        <ele>1863.65</ele>
        <time>2013-08-29T07:30:37Z</time>
      </trkpt>
      <trkpt lat="44.75614" lon="6.24485">
        <ele>1865.58</ele>
        <time>2013-08-29T07:30:49Z</time>
      </trkpt>
      <trkpt lat="44.75621" lon="6.24483">
        <ele>1868.46</ele>
        <time>2013-08-29T07:31:04Z</time>
      </trkpt>
      <trkpt lat="44.75624" lon="6.24482">
        <ele>1869.9</ele>
        <time>2013-08-29T07:31:17Z</time>
      </trkpt>
      <trkpt lat="44.75628" lon="6.24483">
        <ele>1871.82</ele>
        <time>2013-08-29T07:31:30Z</time>
      </trkpt>
      <trkpt lat="44.75637" lon="6.24482">
        <ele>1872.3</ele>
        <time>2013-08-29T07:31:42Z</time>
      </trkpt>
      <trkpt lat="44.75636" lon="6.24479">
        <ele>1873.75</ele>
        <time>2013-08-29T07:31:49Z</time>
      </trkpt>
      <trkpt lat="44.75631" lon="6.24473">
        <ele>1874.23</ele>
        <time>2013-08-29T07:32:02Z</time>
      </trkpt>
      <trkpt lat="44.75626" lon="6.2447">
        <ele>1876.15</ele>
        <time>2013-08-29T07:32:10Z</time>
      </trkpt>
      <trkpt lat="44.75623" lon="6.24466">
        <ele>1877.11</ele>
        <time>2013-08-29T07:32:18Z</time>
      </trkpt>
      <trkpt lat="44.7562" lon="6.24458">
        <ele>1879.03</ele>
        <time>2013-08-29T07:32:33Z</time>
      </trkpt>
      <trkpt lat="44.75617" lon="6.24453">
        <ele>1879.51</ele>
        <time>2013-08-29T07:32:48Z</time>
      </trkpt>
      <trkpt lat="44.75618" lon="6.24455">
        <ele>1881.44</ele>
        <time>2013-08-29T07:32:51Z</time>
      </trkpt>
      <trkpt lat="44.75617" lon="6.24457">
        <ele>1882.4</ele>
        <time>2013-08-29T07:32:58Z</time>
      </trkpt>
      <trkpt lat="44.75622" lon="6.24458">
        <ele>1883.84</ele>
        <time>2013-08-29T07:33:14Z</time>
      </trkpt>
      <trkpt lat="44.75625" lon="6.24459">
        <ele>1885.76</ele>
        <time>2013-08-29T07:33:27Z</time>
      </trkpt>
      <trkpt lat="44.75627" lon="6.24454">
        <ele>1886.72</ele>
        <time>2013-08-29T07:33:37Z</time>
      </trkpt>
      <trkpt lat="44.75622" lon="6.24445">
        <ele>1889.13</ele>
        <time>2013-08-29T07:33:52Z</time>
      </trkpt>
      <trkpt lat="44.7562" lon="6.24435">
        <ele>1891.05</ele>
        <time>2013-08-29T07:34:05Z</time>
      </trkpt>
      <trkpt lat="44.75621" lon="6.24432">
        <ele>1892.49</ele>
        <time>2013-08-29T07:34:17Z</time>
      </trkpt>
      <trkpt lat="44.75622" lon="6.24432">
        <ele>1892.97</ele>
        <time>2013-08-29T07:34:18Z</time>
      </trkpt>
      <trkpt lat="44.75623" lon="6.24433">
        <ele>1894.9</ele>
        <time>2013-08-29T07:34:31Z</time>
      </trkpt>
      <trkpt lat="44.75627" lon="6.24436">
        <ele>1896.34</ele>
        <time>2013-08-29T07:34:40Z</time>
      </trkpt>
      <trkpt lat="44.7563" lon="6.24437">
        <ele>1896.82</ele>
        <time>2013-08-29T07:34:52Z</time>
      </trkpt>
      <trkpt lat="44.7563" lon="6.24437">
        <ele>1898.74</ele>
        <time>2013-08-29T07:35:05Z</time>
      </trkpt>
      <trkpt lat="44.7563" lon="6.24437">
        <ele>1900.66</ele>
        <time>2013-08-29T07:35:19Z</time>
      </trkpt>
      <trkpt lat="44.75628" lon="6.24421">
        <ele>1902.11</ele>
        <time>2013-08-29T07:35:31Z</time>
      </trkpt>
      <trkpt lat="44.75627" lon="6.24417">
        <ele>1904.51</ele>
        <time>2013-08-29T07:35:45Z</time>
      </trkpt>
      <trkpt lat="44.75624" lon="6.24414">
        <ele>1905.47</ele>
        <time>2013-08-29T07:35:56Z</time>
      </trkpt>
      <trkpt lat="44.75624" lon="6.24414">
        <ele>1906.91</ele>
        <time>2013-08-29T07:36:01Z</time>
      </trkpt>
      <trkpt lat="44.75624" lon="6.24414">
        <ele>1906.43</ele>
        <time>2013-08-29T07:36:04Z</time>
      </trkpt>
      <trkpt lat="44.75627" lon="6.24419">
        <ele>1907.87</ele>
        <time>2013-08-29T07:36:17Z</time>
      </trkpt>
      <trkpt lat="44.75634" lon="6.24419">
        <ele>1909.8</ele>
        <time>2013-08-29T07:36:28Z</time>
      </trkpt>
      <trkpt lat="44.75641" lon="6.24418">
        <ele>1912.68</ele>
        <time>2013-08-29T07:36:41Z</time>
      </trkpt>
      <trkpt lat="44.75647" lon="6.24416">
        <ele>1913.16</ele>
        <time>2013-08-29T07:36:51Z</time>
      </trkpt>
      <trkpt lat="44.7565" lon="6.24417">
        <ele>1915.08</ele>
        <time>2013-08-29T07:37:01Z</time>
      </trkpt>
      <trkpt lat="44.75648" lon="6.24409">
        <ele>1915.56</ele>
        <time>2013-08-29T07:37:16Z</time>
      </trkpt>
      <trkpt lat="44.75643" lon="6.24401">
        <ele>1917.01</ele>
        <time>2013-08-29T07:37:28Z</time>
      </trkpt>
      <trkpt lat="44.75637" lon="6.24393">
        <ele>1918.93</ele>
        <time>2013-08-29T07:37:41Z</time>
      </trkpt>
      <trkpt lat="44.75632" lon="6.24383">
        <ele>1921.81</ele>
        <time>2013-08-29T07:37:55Z</time>
      </trkpt>
      <trkpt lat="44.75626" lon="6.24372">
        <ele>1924.22</ele>
        <time>2013-08-29T07:38:09Z</time>
      </trkpt>
      <trkpt lat="44.75626" lon="6.24371">
        <ele>1924.22</ele>
        <time>2013-08-29T07:38:10Z</time>
      </trkpt>
      <trkpt lat="44.75621" lon="6.24365">
        <ele>1925.18</ele>
        <time>2013-08-29T07:38:24Z</time>
      </trkpt>
      <trkpt lat="44.75626" lon="6.2437">
        <ele>1928.54</ele>
        <time>2013-08-29T07:38:36Z</time>
      </trkpt>
      <trkpt lat="44.75632" lon="6.24376">
        <ele>1928.54</ele>
        <time>2013-08-29T07:38:48Z</time>
      </trkpt>
      <trkpt lat="44.75638" lon="6.24377">
        <ele>1930.46</ele>
        <time>2013-08-29T07:39:00Z</time>
      </trkpt>
      <trkpt lat="44.75647" lon="6.24376">
        <ele>1932.39</ele>
        <time>2013-08-29T07:39:13Z</time>
      </trkpt>
      <trkpt lat="44.75644" lon="6.24372">
        <ele>1934.31</ele>
        <time>2013-08-29T07:39:23Z</time>
      </trkpt>
      <trkpt lat="44.75637" lon="6.24365">
        <ele>1934.79</ele>
        <time>2013-08-29T07:39:39Z</time>
      </trkpt>
      <trkpt lat="44.75633" lon="6.24356">
        <ele>1936.23</ele>
        <time>2013-08-29T07:39:52Z</time>
      </trkpt>
      <trkpt lat="44.75629" lon="6.24351">
        <ele>1937.19</ele>
        <time>2013-08-29T07:40:05Z</time>
      </trkpt>
      <trkpt lat="44.7563" lon="6.24352">
        <ele>1939.12</ele>
        <time>2013-08-29T07:40:18Z</time>
      </trkpt>
      <trkpt lat="44.75642" lon="6.24355">
        <ele>1940.56</ele>
        <time>2013-08-29T07:40:32Z</time>
      </trkpt>
      <trkpt lat="44.75643" lon="6.24354">
        <ele>1942.96</ele>
        <time>2013-08-29T07:40:44Z</time>
      </trkpt>
      <trkpt lat="44.7564" lon="6.2435">
        <ele>1943.92</ele>
        <time>2013-08-29T07:40:50Z</time>
      </trkpt>
      <trkpt lat="44.75635" lon="6.24339">
        <ele>1945.36</ele>
        <time>2013-08-29T07:41:03Z</time>
      </trkpt>
      <trkpt lat="44.75632" lon="6.24329">
        <ele>1947.29</ele>
        <time>2013-08-29T07:41:15Z</time>
      </trkpt>
      <trkpt lat="44.75632" lon="6.24334">
        <ele>1948.25</ele>
        <time>2013-08-29T07:41:27Z</time>
      </trkpt>
      <trkpt lat="44.75633" lon="6.24336">
        <ele>1951.13</ele>
        <time>2013-08-29T07:41:40Z</time>
      </trkpt>
      <trkpt lat="44.75633" lon="6.24336">
        <ele>1952.57</ele>
        <time>2013-08-29T07:41:54Z</time>
      </trkpt>
      <trkpt lat="44.75644" lon="6.24328">
        <ele>1953.54</ele>
        <time>2013-08-29T07:42:05Z</time>
      </trkpt>
      <trkpt lat="44.75652" lon="6.24327">
        <ele>1953.54</ele>
        <time>2013-08-29T07:42:16Z</time>
      </trkpt>
      <trkpt lat="44.75661" lon="6.24332">
        <ele>1953.54</ele>
        <time>2013-08-29T07:42:28Z</time>
      </trkpt>
      <trkpt lat="44.75673" lon="6.24334">
        <ele>1955.46</ele>
        <time>2013-08-29T07:42:42Z</time>
      </trkpt>
      <trkpt lat="44.75676" lon="6.24333">
        <ele>1956.42</ele>
        <time>2013-08-29T07:42:57Z</time>
      </trkpt>
      <trkpt lat="44.75678" lon="6.24334">
        <ele>1958.34</ele>
        <time>2013-08-29T07:43:09Z</time>
      </trkpt>
      <trkpt lat="44.75683" lon="6.24335">
        <ele>1960.75</ele>
        <time>2013-08-29T07:43:22Z</time>
      </trkpt>
      <trkpt lat="44.75687" lon="6.24341">
        <ele>1961.71</ele>
        <time>2013-08-29T07:43:34Z</time>
      </trkpt>
      <trkpt lat="44.75695" lon="6.24346">
        <ele>1963.63</ele>
        <time>2013-08-29T07:43:48Z</time>
      </trkpt>
      <trkpt lat="44.75697" lon="6.24347">
        <ele>1965.07</ele>
        <time>2013-08-29T07:44:01Z</time>
      </trkpt>
      <trkpt lat="44.75698" lon="6.24348">
        <ele>1966.51</ele>
        <time>2013-08-29T07:44:06Z</time>
      </trkpt>
      <trkpt lat="44.75698" lon="6.24349">
        <ele>1967.48</ele>
        <time>2013-08-29T07:44:19Z</time>
      </trkpt>
      <trkpt lat="44.75708" lon="6.24355">
        <ele>1969.88</ele>
        <time>2013-08-29T07:44:33Z</time>
      </trkpt>
      <trkpt lat="44.75711" lon="6.24357">
        <ele>1969.88</ele>
        <time>2013-08-29T07:44:37Z</time>
      </trkpt>
      <trkpt lat="44.75719" lon="6.2436">
        <ele>1970.84</ele>
        <time>2013-08-29T07:44:43Z</time>
      </trkpt>
      <trkpt lat="44.75725" lon="6.24359">
        <ele>1973.24</ele>
        <time>2013-08-29T07:44:56Z</time>
      </trkpt>
      <trkpt lat="44.75724" lon="6.24357">
        <ele>1973.72</ele>
        <time>2013-08-29T07:45:11Z</time>
      </trkpt>
      <trkpt lat="44.75723" lon="6.24349">
        <ele>1976.13</ele>
        <time>2013-08-29T07:45:22Z</time>
      </trkpt>
      <trkpt lat="44.75723" lon="6.24349">
        <ele>1977.09</ele>
        <time>2013-08-29T07:45:39Z</time>
      </trkpt>
      <trkpt lat="44.75726" lon="6.24352">
        <ele>1976.61</ele>
        <time>2013-08-29T07:45:44Z</time>
      </trkpt>
      <trkpt lat="44.7573" lon="6.24351">
        <ele>1979.01</ele>
        <time>2013-08-29T07:45:51Z</time>
      </trkpt>
      <trkpt lat="44.7573" lon="6.24351">
        <ele>1979.97</ele>
        <time>2013-08-29T07:45:59Z</time>
      </trkpt>
      <trkpt lat="44.75731" lon="6.2435">
        <ele>1981.9</ele>
        <time>2013-08-29T07:46:15Z</time>
      </trkpt>
      <trkpt lat="44.75735" lon="6.24353">
        <ele>1982.86</ele>
        <time>2013-08-29T07:46:29Z</time>
      </trkpt>
      <trkpt lat="44.75735" lon="6.24353">
        <ele>1985.74</ele>
        <time>2013-08-29T07:46:40Z</time>
      </trkpt>
      <trkpt lat="44.7574" lon="6.24354">
        <ele>1986.7</ele>
        <time>2013-08-29T07:46:54Z</time>
      </trkpt>
      <trkpt lat="44.75743" lon="6.24353">
        <ele>1989.59</ele>
        <time>2013-08-29T07:47:04Z</time>
      </trkpt>
      <trkpt lat="44.75745" lon="6.24354">
        <ele>1990.55</ele>
        <time>2013-08-29T07:47:15Z</time>
      </trkpt>
      <trkpt lat="44.75755" lon="6.24347">
        <ele>1991.99</ele>
        <time>2013-08-29T07:47:26Z</time>
      </trkpt>
      <trkpt lat="44.7576" lon="6.24348">
        <ele>1992.95</ele>
        <time>2013-08-29T07:47:40Z</time>
      </trkpt>
      <trkpt lat="44.75765" lon="6.24349">
        <ele>1994.87</ele>
        <time>2013-08-29T07:47:48Z</time>
      </trkpt>
      <trkpt lat="44.75768" lon="6.24353">
        <ele>1995.83</ele>
        <time>2013-08-29T07:48:01Z</time>
      </trkpt>
      <trkpt lat="44.75771" lon="6.24359">
        <ele>1996.32</ele>
        <time>2013-08-29T07:48:07Z</time>
      </trkpt>
      <trkpt lat="44.75778" lon="6.24367">
        <ele>1998.24</ele>
        <time>2013-08-29T07:48:20Z</time>
      </trkpt>
      <trkpt lat="44.75782" lon="6.24368">
        <ele>1999.2</ele>
        <time>2013-08-29T07:48:26Z</time>
      </trkpt>
      <trkpt lat="44.7579" lon="6.24371">
        <ele>1999.68</ele>
        <time>2013-08-29T07:48:39Z</time>
      </trkpt>
      <trkpt lat="44.75794" lon="6.24374">
        <ele>2000.64</ele>
        <time>2013-08-29T07:48:55Z</time>
      </trkpt>
      <trkpt lat="44.75795" lon="6.24381">
        <ele>1999.68</ele>
        <time>2013-08-29T07:49:08Z</time>
      </trkpt>
      <trkpt lat="44.75792" lon="6.24386">
        <ele>2002.08</ele>
        <time>2013-08-29T07:49:14Z</time>
      </trkpt>
      <trkpt lat="44.75792" lon="6.24394">
        <ele>2002.56</ele>
        <time>2013-08-29T07:49:21Z</time>
      </trkpt>
      <trkpt lat="44.75794" lon="6.24407">
        <ele>2004.01</ele>
        <time>2013-08-29T07:49:33Z</time>
      </trkpt>
      <trkpt lat="44.75803" lon="6.24411">
        <ele>2006.41</ele>
        <time>2013-08-29T07:49:47Z</time>
      </trkpt>
      <trkpt lat="44.7581" lon="6.24405">
        <ele>2007.37</ele>
        <time>2013-08-29T07:50:00Z</time>
      </trkpt>
      <trkpt lat="44.75809" lon="6.24402">
        <ele>2007.85</ele>
        <time>2013-08-29T07:50:04Z</time>
      </trkpt>
      <trkpt lat="44.75808" lon="6.24398">
        <ele>2006.89</ele>
        <time>2013-08-29T07:50:07Z</time>
      </trkpt>
      <trkpt lat="44.75807" lon="6.24395">
        <ele>2008.33</ele>
        <time>2013-08-29T07:50:10Z</time>
      </trkpt>
      <trkpt lat="44.75807" lon="6.24393">
        <ele>2008.33</ele>
        <time>2013-08-29T07:50:19Z</time>
      </trkpt>
      <trkpt lat="44.75807" lon="6.24393">
        <ele>2008.33</ele>
        <time>2013-08-29T07:50:20Z</time>
      </trkpt>
      <trkpt lat="44.75808" lon="6.24392">
        <ele>2008.33</ele>
        <time>2013-08-29T07:50:42Z</time>
      </trkpt>
      <trkpt lat="44.75808" lon="6.24392">
        <ele>2008.81</ele>
        <time>2013-08-29T07:50:54Z</time>
      </trkpt>
      <trkpt lat="44.75808" lon="6.24392">
        <ele>2008.81</ele>
        <time>2013-08-29T07:51:59Z</time>
      </trkpt>
      <trkpt lat="44.75808" lon="6.24393">
        <ele>2012.66</ele>
        <time>2013-08-29T07:53:14Z</time>
      </trkpt>
      <trkpt lat="44.75808" lon="6.24393">
        <ele>2010.73</ele>
        <time>2013-08-29T07:53:15Z</time>
      </trkpt>
      <trkpt lat="44.75808" lon="6.24393">
        <ele>2006.89</ele>
        <time>2013-08-29T07:53:21Z</time>
      </trkpt>
      <trkpt lat="44.75808" lon="6.24393">
        <ele>2001.6</ele>
        <time>2013-08-29T07:53:34Z</time>
      </trkpt>
      <trkpt lat="44.75808" lon="6.24393">
        <ele>2011.22</ele>
        <time>2013-08-29T07:53:35Z</time>
      </trkpt>
      <trkpt lat="44.75808" lon="6.24393">
        <ele>2008.33</ele>
        <time>2013-08-29T07:53:38Z</time>
      </trkpt>
      <trkpt lat="44.75808" lon="6.24393">
        <ele>2007.85</ele>
        <time>2013-08-29T07:54:14Z</time>
      </trkpt>
      <trkpt lat="44.75808" lon="6.24393">
        <ele>2008.81</ele>
        <time>2013-08-29T07:54:16Z</time>
      </trkpt>
      <trkpt lat="44.75808" lon="6.24394">
        <ele>2008.81</ele>
        <time>2013-08-29T07:56:24Z</time>
      </trkpt>
      <trkpt lat="44.75808" lon="6.24394">
        <ele>2012.66</ele>
        <time>2013-08-29T07:56:43Z</time>
      </trkpt>
      <trkpt lat="44.75808" lon="6.24394">
        <ele>2008.81</ele>
        <time>2013-08-29T07:56:44Z</time>
      </trkpt>
      <trkpt lat="44.75808" lon="6.24394">
        <ele>2010.25</ele>
        <time>2013-08-29T07:56:56Z</time>
      </trkpt>
      <trkpt lat="44.75808" lon="6.24394">
        <ele>2009.29</ele>
        <time>2013-08-29T07:56:58Z</time>
      </trkpt>
      <trkpt lat="44.75808" lon="6.24394">
        <ele>2012.66</ele>
        <time>2013-08-29T07:57:05Z</time>
      </trkpt>
      <trkpt lat="44.75808" lon="6.24394">
        <ele>2010.73</ele>
        <time>2013-08-29T07:57:06Z</time>
      </trkpt>
      <trkpt lat="44.75808" lon="6.24394">
        <ele>2004.01</ele>
        <time>2013-08-29T07:57:07Z</time>
      </trkpt>
      <trkpt lat="44.75808" lon="6.24394">
        <ele>2009.29</ele>
        <time>2013-08-29T07:57:08Z</time>
      </trkpt>
      <trkpt lat="44.75808" lon="6.24394">
        <ele>2000.64</ele>
        <time>2013-08-29T07:57:12Z</time>
      </trkpt>
      <trkpt lat="44.75808" lon="6.24394">
        <ele>2013.14</ele>
        <time>2013-08-29T07:57:13Z</time>
      </trkpt>
      <trkpt lat="44.75808" lon="6.24394">
        <ele>1997.76</ele>
        <time>2013-08-29T07:57:15Z</time>
      </trkpt>
      <trkpt lat="44.75808" lon="6.24394">
        <ele>2008.33</ele>
        <time>2013-08-29T07:57:16Z</time>
      </trkpt>
      <trkpt lat="44.75808" lon="6.24394">
        <ele>2013.62</ele>
        <time>2013-08-29T07:57:17Z</time>
      </trkpt>
      <trkpt lat="44.75808" lon="6.24394">
        <ele>2010.25</ele>
        <time>2013-08-29T07:57:18Z</time>
      </trkpt>
      <trkpt lat="44.75808" lon="6.24395">
        <ele>2007.37</ele>
        <time>2013-08-29T07:57:38Z</time>
      </trkpt>
      <trkpt lat="44.75808" lon="6.24397">
        <ele>2008.33</ele>
        <time>2013-08-29T07:58:12Z</time>
      </trkpt>
      <trkpt lat="44.75808" lon="6.24396">
        <ele>2008.33</ele>
        <time>2013-08-29T07:58:53Z</time>
      </trkpt>
      <trkpt lat="44.75808" lon="6.24396">
        <ele>2009.29</ele>
        <time>2013-08-29T08:00:40Z</time>
      </trkpt>
      <trkpt lat="44.75808" lon="6.24395">
        <ele>2007.37</ele>
        <time>2013-08-29T08:00:49Z</time>
      </trkpt>
      <trkpt lat="44.75808" lon="6.24395">
        <ele>2008.81</ele>
        <time>2013-08-29T08:01:19Z</time>
      </trkpt>
      <trkpt lat="44.75807" lon="6.24395">
        <ele>2008.33</ele>
        <time>2013-08-29T08:02:32Z</time>
      </trkpt>
      <trkpt lat="44.75808" lon="6.24389">
        <ele>2009.29</ele>
        <time>2013-08-29T08:02:45Z</time>
      </trkpt>
      <trkpt lat="44.7581" lon="6.24388">
        <ele>2010.25</ele>
        <time>2013-08-29T08:03:00Z</time>
      </trkpt>
      <trkpt lat="44.75814" lon="6.24394">
        <ele>2012.66</ele>
        <time>2013-08-29T08:03:13Z</time>
      </trkpt>
      <trkpt lat="44.75814" lon="6.24394">
        <ele>2013.14</ele>
        <time>2013-08-29T08:03:14Z</time>
      </trkpt>
      <trkpt lat="44.75816" lon="6.24384">
        <ele>2014.58</ele>
        <time>2013-08-29T08:03:24Z</time>
      </trkpt>
      <trkpt lat="44.75818" lon="6.2438">
        <ele>2015.06</ele>
        <time>2013-08-29T08:03:32Z</time>
      </trkpt>
      <trkpt lat="44.7582" lon="6.2438">
        <ele>2016.5</ele>
        <time>2013-08-29T08:03:45Z</time>
      </trkpt>
      <trkpt lat="44.75819" lon="6.24382">
        <ele>2016.98</ele>
        <time>2013-08-29T08:03:46Z</time>
      </trkpt>
      <trkpt lat="44.75818" lon="6.24392">
        <ele>2016.5</ele>
        <time>2013-08-29T08:03:55Z</time>
      </trkpt>
      <trkpt lat="44.75823" lon="6.24384">
        <ele>2017.94</ele>
        <time>2013-08-29T08:04:02Z</time>
      </trkpt>
      <trkpt lat="44.75824" lon="6.24381">
        <ele>2018.91</ele>
        <time>2013-08-29T08:04:05Z</time>
      </trkpt>
      <trkpt lat="44.75825" lon="6.24378">
        <ele>2019.87</ele>
        <time>2013-08-29T08:04:07Z</time>
      </trkpt>
      <trkpt lat="44.75825" lon="6.24378">
        <ele>2019.39</ele>
        <time>2013-08-29T08:04:10Z</time>
      </trkpt>
      <trkpt lat="44.75828" lon="6.24376">
        <ele>2020.35</ele>
        <time>2013-08-29T08:04:21Z</time>
      </trkpt>
      <trkpt lat="44.75828" lon="6.24385">
        <ele>2022.75</ele>
        <time>2013-08-29T08:04:34Z</time>
      </trkpt>
      <trkpt lat="44.75832" lon="6.24381">
        <ele>2023.71</ele>
        <time>2013-08-29T08:04:42Z</time>
      </trkpt>
      <trkpt lat="44.75835" lon="6.24372">
        <ele>2024.19</ele>
        <time>2013-08-29T08:04:53Z</time>
      </trkpt>
      <trkpt lat="44.75837" lon="6.24366">
        <ele>2027.56</ele>
        <time>2013-08-29T08:05:04Z</time>
      </trkpt>
      <trkpt lat="44.75838" lon="6.2436">
        <ele>2027.56</ele>
        <time>2013-08-29T08:05:09Z</time>
      </trkpt>
      <trkpt lat="44.75839" lon="6.24354">
        <ele>2027.56</ele>
        <time>2013-08-29T08:05:19Z</time>
      </trkpt>
      <trkpt lat="44.7584" lon="6.24351">
        <ele>2030.44</ele>
        <time>2013-08-29T08:05:28Z</time>
      </trkpt>
      <trkpt lat="44.75841" lon="6.24355">
        <ele>2031.88</ele>
        <time>2013-08-29T08:05:43Z</time>
      </trkpt>
      <trkpt lat="44.75843" lon="6.24358">
        <ele>2033.33</ele>
        <time>2013-08-29T08:05:48Z</time>
      </trkpt>
      <trkpt lat="44.75845" lon="6.24364">
        <ele>2034.29</ele>
        <time>2013-08-29T08:06:03Z</time>
      </trkpt>
      <trkpt lat="44.75849" lon="6.24369">
        <ele>2037.17</ele>
        <time>2013-08-29T08:06:12Z</time>
      </trkpt>
      <trkpt lat="44.75856" lon="6.24374">
        <ele>2038.13</ele>
        <time>2013-08-29T08:06:26Z</time>
      </trkpt>
      <trkpt lat="44.75859" lon="6.24376">
        <ele>2038.61</ele>
        <time>2013-08-29T08:06:31Z</time>
      </trkpt>
      <trkpt lat="44.75864" lon="6.24385">
        <ele>2041.5</ele>
        <time>2013-08-29T08:06:46Z</time>
      </trkpt>
      <trkpt lat="44.75868" lon="6.24391">
        <ele>2042.46</ele>
        <time>2013-08-29T08:07:00Z</time>
      </trkpt>
      <trkpt lat="44.7587" lon="6.24382">
        <ele>2043.42</ele>
        <time>2013-08-29T08:07:13Z</time>
      </trkpt>
      <trkpt lat="44.75869" lon="6.24374">
        <ele>2044.38</ele>
        <time>2013-08-29T08:07:22Z</time>
      </trkpt>
      <trkpt lat="44.75868" lon="6.24364">
        <ele>2046.3</ele>
        <time>2013-08-29T08:07:34Z</time>
      </trkpt>
      <trkpt lat="44.75867" lon="6.24355">
        <ele>2048.23</ele>
        <time>2013-08-29T08:07:42Z</time>
      </trkpt>
      <trkpt lat="44.75865" lon="6.24347">
        <ele>2048.71</ele>
        <time>2013-08-29T08:07:51Z</time>
      </trkpt>
      <trkpt lat="44.75868" lon="6.24334">
        <ele>2050.63</ele>
        <time>2013-08-29T08:08:03Z</time>
      </trkpt>
      <trkpt lat="44.7587" lon="6.24331">
        <ele>2052.07</ele>
        <time>2013-08-29T08:08:15Z</time>
      </trkpt>
      <trkpt lat="44.75874" lon="6.2432">
        <ele>2054.47</ele>
        <time>2013-08-29T08:08:31Z</time>
      </trkpt>
      <trkpt lat="44.75877" lon="6.24315">
        <ele>2055.44</ele>
        <time>2013-08-29T08:08:44Z</time>
      </trkpt>
      <trkpt lat="44.75881" lon="6.24308">
        <ele>2058.32</ele>
        <time>2013-08-29T08:08:56Z</time>
      </trkpt>
      <trkpt lat="44.75881" lon="6.24308">
        <ele>2060.24</ele>
        <time>2013-08-29T08:09:07Z</time>
      </trkpt>
      <trkpt lat="44.75879" lon="6.24311">
        <ele>2060.24</ele>
        <time>2013-08-29T08:09:20Z</time>
      </trkpt>
      <trkpt lat="44.75881" lon="6.24314">
        <ele>2061.68</ele>
        <time>2013-08-29T08:09:32Z</time>
      </trkpt>
      <trkpt lat="44.75889" lon="6.24341">
        <ele>2064.09</ele>
        <time>2013-08-29T08:09:47Z</time>
      </trkpt>
      <trkpt lat="44.75894" lon="6.2435">
        <ele>2066.01</ele>
        <time>2013-08-29T08:10:01Z</time>
      </trkpt>
      <trkpt lat="44.75901" lon="6.2436">
        <ele>2066.49</ele>
        <time>2013-08-29T08:10:15Z</time>
      </trkpt>
      <trkpt lat="44.75904" lon="6.24367">
        <ele>2069.38</ele>
        <time>2013-08-29T08:10:24Z</time>
      </trkpt>
      <trkpt lat="44.75906" lon="6.24373">
        <ele>2070.34</ele>
        <time>2013-08-29T08:10:32Z</time>
      </trkpt>
      <trkpt lat="44.75909" lon="6.24382">
        <ele>2071.3</ele>
        <time>2013-08-29T08:10:45Z</time>
      </trkpt>
      <trkpt lat="44.75912" lon="6.24392">
        <ele>2073.22</ele>
        <time>2013-08-29T08:10:56Z</time>
      </trkpt>
      <trkpt lat="44.75916" lon="6.24401">
        <ele>2073.7</ele>
        <time>2013-08-29T08:11:07Z</time>
      </trkpt>
      <trkpt lat="44.75919" lon="6.24404">
        <ele>2075.62</ele>
        <time>2013-08-29T08:11:10Z</time>
      </trkpt>
      <trkpt lat="44.75925" lon="6.24408">
        <ele>2077.55</ele>
        <time>2013-08-29T08:11:19Z</time>
      </trkpt>
      <trkpt lat="44.75934" lon="6.24411">
        <ele>2078.03</ele>
        <time>2013-08-29T08:11:32Z</time>
      </trkpt>
      <trkpt lat="44.75935" lon="6.24407">
        <ele>2079.95</ele>
        <time>2013-08-29T08:11:40Z</time>
      </trkpt>
      <trkpt lat="44.75932" lon="6.24398">
        <ele>2080.43</ele>
        <time>2013-08-29T08:11:54Z</time>
      </trkpt>
      <trkpt lat="44.75938" lon="6.24397">
        <ele>2081.87</ele>
        <time>2013-08-29T08:12:03Z</time>
      </trkpt>
      <trkpt lat="44.75944" lon="6.24405">
        <ele>2083.79</ele>
        <time>2013-08-29T08:12:16Z</time>
      </trkpt>
      <trkpt lat="44.75946" lon="6.2441">
        <ele>2084.28</ele>
        <time>2013-08-29T08:12:22Z</time>
      </trkpt>
      <trkpt lat="44.75952" lon="6.24419">
        <ele>2083.79</ele>
        <time>2013-08-29T08:12:34Z</time>
      </trkpt>
      <trkpt lat="44.75955" lon="6.24426">
        <ele>2087.16</ele>
        <time>2013-08-29T08:12:42Z</time>
      </trkpt>
      <trkpt lat="44.75958" lon="6.24434">
        <ele>2088.12</ele>
        <time>2013-08-29T08:12:53Z</time>
      </trkpt>
      <trkpt lat="44.75962" lon="6.24444">
        <ele>2089.56</ele>
        <time>2013-08-29T08:13:05Z</time>
      </trkpt>
      <trkpt lat="44.75963" lon="6.24446">
        <ele>2089.08</ele>
        <time>2013-08-29T08:13:08Z</time>
      </trkpt>
      <trkpt lat="44.75968" lon="6.24453">
        <ele>2091</ele>
        <time>2013-08-29T08:13:22Z</time>
      </trkpt>
      <trkpt lat="44.75968" lon="6.24453">
        <ele>2091</ele>
        <time>2013-08-29T08:13:29Z</time>
      </trkpt>
      <trkpt lat="44.75967" lon="6.24443">
        <ele>2093.89</ele>
        <time>2013-08-29T08:13:40Z</time>
      </trkpt>
      <trkpt lat="44.75967" lon="6.24437">
        <ele>2092.93</ele>
        <time>2013-08-29T08:13:47Z</time>
      </trkpt>
      <trkpt lat="44.75966" lon="6.24431">
        <ele>2094.37</ele>
        <time>2013-08-29T08:13:56Z</time>
      </trkpt>
      <trkpt lat="44.75969" lon="6.24423">
        <ele>2095.81</ele>
        <time>2013-08-29T08:14:06Z</time>
      </trkpt>
      <trkpt lat="44.75971" lon="6.24421">
        <ele>2095.33</ele>
        <time>2013-08-29T08:14:10Z</time>
      </trkpt>
      <trkpt lat="44.75973" lon="6.24429">
        <ele>2096.77</ele>
        <time>2013-08-29T08:14:22Z</time>
      </trkpt>
      <trkpt lat="44.75977" lon="6.24438">
        <ele>2098.21</ele>
        <time>2013-08-29T08:14:34Z</time>
      </trkpt>
      <trkpt lat="44.75979" lon="6.2444">
        <ele>2098.7</ele>
        <time>2013-08-29T08:14:38Z</time>
      </trkpt>
      <trkpt lat="44.75984" lon="6.24442">
        <ele>2099.66</ele>
        <time>2013-08-29T08:14:45Z</time>
      </trkpt>
      <trkpt lat="44.75991" lon="6.24451">
        <ele>2101.1</ele>
        <time>2013-08-29T08:14:56Z</time>
      </trkpt>
      <trkpt lat="44.75996" lon="6.24456">
        <ele>2101.58</ele>
        <time>2013-08-29T08:15:04Z</time>
      </trkpt>
      <trkpt lat="44.76" lon="6.24459">
        <ele>2103.02</ele>
        <time>2013-08-29T08:15:10Z</time>
      </trkpt>
      <trkpt lat="44.76008" lon="6.24464">
        <ele>2103.98</ele>
        <time>2013-08-29T08:15:21Z</time>
      </trkpt>
      <trkpt lat="44.76016" lon="6.24465">
        <ele>2104.94</ele>
        <time>2013-08-29T08:15:32Z</time>
      </trkpt>
      <trkpt lat="44.76022" lon="6.24463">
        <ele>2106.87</ele>
        <time>2013-08-29T08:15:44Z</time>
      </trkpt>
      <trkpt lat="44.7603" lon="6.24464">
        <ele>2108.79</ele>
        <time>2013-08-29T08:15:55Z</time>
      </trkpt>
      <trkpt lat="44.76034" lon="6.24466">
        <ele>2109.27</ele>
        <time>2013-08-29T08:16:08Z</time>
      </trkpt>
      <trkpt lat="44.7603" lon="6.24457">
        <ele>2111.19</ele>
        <time>2013-08-29T08:16:22Z</time>
      </trkpt>
      <trkpt lat="44.76029" lon="6.24455">
        <ele>2111.19</ele>
        <time>2013-08-29T08:16:24Z</time>
      </trkpt>
      <trkpt lat="44.76022" lon="6.24445">
        <ele>2112.63</ele>
        <time>2013-08-29T08:16:37Z</time>
      </trkpt>
      <trkpt lat="44.76023" lon="6.24447">
        <ele>2113.6</ele>
        <time>2013-08-29T08:16:45Z</time>
      </trkpt>
      <trkpt lat="44.76026" lon="6.2445">
        <ele>2114.08</ele>
        <time>2013-08-29T08:16:55Z</time>
      </trkpt>
      <trkpt lat="44.7603" lon="6.24453">
        <ele>2115.52</ele>
        <time>2013-08-29T08:17:05Z</time>
      </trkpt>
      <trkpt lat="44.76032" lon="6.24458">
        <ele>2116</ele>
        <time>2013-08-29T08:17:16Z</time>
      </trkpt>
      <trkpt lat="44.76033" lon="6.24465">
        <ele>2117.44</ele>
        <time>2013-08-29T08:17:28Z</time>
      </trkpt>
      <trkpt lat="44.76038" lon="6.2447">
        <ele>2119.36</ele>
        <time>2013-08-29T08:17:41Z</time>
      </trkpt>
      <trkpt lat="44.76041" lon="6.2447">
        <ele>2119.36</ele>
        <time>2013-08-29T08:17:48Z</time>
      </trkpt>
      <trkpt lat="44.76046" lon="6.24471">
        <ele>2119.84</ele>
        <time>2013-08-29T08:17:53Z</time>
      </trkpt>
      <trkpt lat="44.76055" lon="6.24473">
        <ele>2120.81</ele>
        <time>2013-08-29T08:18:03Z</time>
      </trkpt>
      <trkpt lat="44.76061" lon="6.2448">
        <ele>2122.25</ele>
        <time>2013-08-29T08:18:17Z</time>
      </trkpt>
      <trkpt lat="44.76064" lon="6.2449">
        <ele>2123.69</ele>
        <time>2013-08-29T08:18:31Z</time>
      </trkpt>
      <trkpt lat="44.7607" lon="6.24503">
        <ele>2124.65</ele>
        <time>2013-08-29T08:18:45Z</time>
      </trkpt>
      <trkpt lat="44.76077" lon="6.2451">
        <ele>2125.61</ele>
        <time>2013-08-29T08:18:59Z</time>
      </trkpt>
      <trkpt lat="44.76082" lon="6.24516">
        <ele>2128.02</ele>
        <time>2013-08-29T08:19:11Z</time>
      </trkpt>
      <trkpt lat="44.76087" lon="6.24518">
        <ele>2128.02</ele>
        <time>2013-08-29T08:19:25Z</time>
      </trkpt>
      <trkpt lat="44.761" lon="6.24524">
        <ele>2129.94</ele>
        <time>2013-08-29T08:19:37Z</time>
      </trkpt>
      <trkpt lat="44.76104" lon="6.24526">
        <ele>2129.46</ele>
        <time>2013-08-29T08:19:47Z</time>
      </trkpt>
      <trkpt lat="44.76104" lon="6.24526">
        <ele>2129.94</ele>
        <time>2013-08-29T08:19:57Z</time>
      </trkpt>
      <trkpt lat="44.76118" lon="6.24529">
        <ele>2132.82</ele>
        <time>2013-08-29T08:20:09Z</time>
      </trkpt>
      <trkpt lat="44.7613" lon="6.24531">
        <ele>2132.34</ele>
        <time>2013-08-29T08:20:20Z</time>
      </trkpt>
      <trkpt lat="44.7614" lon="6.24534">
        <ele>2135.23</ele>
        <time>2013-08-29T08:20:33Z</time>
      </trkpt>
      <trkpt lat="44.76144" lon="6.24538">
        <ele>2135.71</ele>
        <time>2013-08-29T08:20:39Z</time>
      </trkpt>
      <trkpt lat="44.76148" lon="6.24542">
        <ele>2135.71</ele>
        <time>2013-08-29T08:20:46Z</time>
      </trkpt>
      <trkpt lat="44.76155" lon="6.24545">
        <ele>2136.67</ele>
        <time>2013-08-29T08:20:58Z</time>
      </trkpt>
      <trkpt lat="44.76164" lon="6.24547">
        <ele>2138.59</ele>
        <time>2013-08-29T08:21:09Z</time>
      </trkpt>
      <trkpt lat="44.76172" lon="6.2455">
        <ele>2139.55</ele>
        <time>2013-08-29T08:21:21Z</time>
      </trkpt>
      <trkpt lat="44.7618" lon="6.24553">
        <ele>2141.47</ele>
        <time>2013-08-29T08:21:32Z</time>
      </trkpt>
      <trkpt lat="44.76188" lon="6.24556">
        <ele>2141.95</ele>
        <time>2013-08-29T08:21:43Z</time>
      </trkpt>
      <trkpt lat="44.76195" lon="6.24563">
        <ele>2143.88</ele>
        <time>2013-08-29T08:21:56Z</time>
      </trkpt>
      <trkpt lat="44.76196" lon="6.24563">
        <ele>2143.88</ele>
        <time>2013-08-29T08:21:57Z</time>
      </trkpt>
      <trkpt lat="44.76205" lon="6.24569">
        <ele>2144.84</ele>
        <time>2013-08-29T08:22:09Z</time>
      </trkpt>
      <trkpt lat="44.76214" lon="6.24572">
        <ele>2146.28</ele>
        <time>2013-08-29T08:22:21Z</time>
      </trkpt>
      <trkpt lat="44.76218" lon="6.24579">
        <ele>2146.76</ele>
        <time>2013-08-29T08:22:35Z</time>
      </trkpt>
      <trkpt lat="44.76219" lon="6.24579">
        <ele>2147.24</ele>
        <time>2013-08-29T08:22:36Z</time>
      </trkpt>
      <trkpt lat="44.76224" lon="6.24585">
        <ele>2147.72</ele>
        <time>2013-08-29T08:22:47Z</time>
      </trkpt>
      <trkpt lat="44.76225" lon="6.24587">
        <ele>2149.16</ele>
        <time>2013-08-29T08:22:50Z</time>
      </trkpt>
      <trkpt lat="44.76228" lon="6.24596">
        <ele>2151.09</ele>
        <time>2013-08-29T08:23:04Z</time>
      </trkpt>
      <trkpt lat="44.76228" lon="6.24599">
        <ele>2152.53</ele>
        <time>2013-08-29T08:23:17Z</time>
      </trkpt>
      <trkpt lat="44.76232" lon="6.24601">
        <ele>2155.89</ele>
        <time>2013-08-29T08:23:25Z</time>
      </trkpt>
      <trkpt lat="44.76237" lon="6.24604">
        <ele>2155.89</ele>
        <time>2013-08-29T08:23:39Z</time>
      </trkpt>
      <trkpt lat="44.76244" lon="6.24609">
        <ele>2157.82</ele>
        <time>2013-08-29T08:23:50Z</time>
      </trkpt>
      <trkpt lat="44.76256" lon="6.24618">
        <ele>2158.3</ele>
        <time>2013-08-29T08:24:02Z</time>
      </trkpt>
      <trkpt lat="44.76262" lon="6.24623">
        <ele>2160.22</ele>
        <time>2013-08-29T08:24:15Z</time>
      </trkpt>
      <trkpt lat="44.76264" lon="6.24629">
        <ele>2161.18</ele>
        <time>2013-08-29T08:24:27Z</time>
      </trkpt>
      <trkpt lat="44.76272" lon="6.24636">
        <ele>2163.1</ele>
        <time>2013-08-29T08:24:37Z</time>
      </trkpt>
      <trkpt lat="44.76277" lon="6.24641">
        <ele>2162.14</ele>
        <time>2013-08-29T08:24:47Z</time>
      </trkpt>
      <trkpt lat="44.76278" lon="6.24643">
        <ele>2164.55</ele>
        <time>2013-08-29T08:24:55Z</time>
      </trkpt>
      <trkpt lat="44.7628" lon="6.24647">
        <ele>2165.51</ele>
        <time>2013-08-29T08:25:06Z</time>
      </trkpt>
      <trkpt lat="44.7628" lon="6.24647">
        <ele>2165.51</ele>
        <time>2013-08-29T08:25:07Z</time>
      </trkpt>
      <trkpt lat="44.76288" lon="6.2465">
        <ele>2165.51</ele>
        <time>2013-08-29T08:25:21Z</time>
      </trkpt>
      <trkpt lat="44.76291" lon="6.24652">
        <ele>2168.87</ele>
        <time>2013-08-29T08:25:26Z</time>
      </trkpt>
      <trkpt lat="44.76293" lon="6.24653">
        <ele>2165.99</ele>
        <time>2013-08-29T08:25:28Z</time>
      </trkpt>
      <trkpt lat="44.76293" lon="6.24653">
        <ele>2166.95</ele>
        <time>2013-08-29T08:25:29Z</time>
      </trkpt>
      <trkpt lat="44.76302" lon="6.24662">
        <ele>2168.87</ele>
        <time>2013-08-29T08:25:42Z</time>
      </trkpt>
      <trkpt lat="44.76308" lon="6.24668">
        <ele>2170.79</ele>
        <time>2013-08-29T08:25:53Z</time>
      </trkpt>
      <trkpt lat="44.76319" lon="6.24674">
        <ele>2172.72</ele>
        <time>2013-08-29T08:26:07Z</time>
      </trkpt>
      <trkpt lat="44.76325" lon="6.24675">
        <ele>2173.68</ele>
        <time>2013-08-29T08:26:20Z</time>
      </trkpt>
      <trkpt lat="44.76331" lon="6.24679">
        <ele>2174.64</ele>
        <time>2013-08-29T08:26:31Z</time>
      </trkpt>
      <trkpt lat="44.76338" lon="6.24683">
        <ele>2177.04</ele>
        <time>2013-08-29T08:26:44Z</time>
      </trkpt>
      <trkpt lat="44.76346" lon="6.24687">
        <ele>2180.41</ele>
        <time>2013-08-29T08:26:58Z</time>
      </trkpt>
      <trkpt lat="44.76351" lon="6.24691">
        <ele>2180.89</ele>
        <time>2013-08-29T08:27:07Z</time>
      </trkpt>
      <trkpt lat="44.76356" lon="6.24697">
        <ele>2181.37</ele>
        <time>2013-08-29T08:27:20Z</time>
      </trkpt>
      <trkpt lat="44.7636" lon="6.24703">
        <ele>2182.81</ele>
        <time>2013-08-29T08:27:29Z</time>
      </trkpt>
      <trkpt lat="44.7636" lon="6.24704">
        <ele>2182.81</ele>
        <time>2013-08-29T08:27:42Z</time>
      </trkpt>
      <trkpt lat="44.76362" lon="6.24709">
        <ele>2185.69</ele>
        <time>2013-08-29T08:27:58Z</time>
      </trkpt>
      <trkpt lat="44.76362" lon="6.24709">
        <ele>2185.21</ele>
        <time>2013-08-29T08:27:59Z</time>
      </trkpt>
      <trkpt lat="44.76364" lon="6.24722">
        <ele>2185.69</ele>
        <time>2013-08-29T08:28:18Z</time>
      </trkpt>
      <trkpt lat="44.76366" lon="6.24731">
        <ele>2187.62</ele>
        <time>2013-08-29T08:28:31Z</time>
      </trkpt>
      <trkpt lat="44.76375" lon="6.24736">
        <ele>2190.98</ele>
        <time>2013-08-29T08:28:44Z</time>
      </trkpt>
      <trkpt lat="44.76375" lon="6.24736">
        <ele>2190.02</ele>
        <time>2013-08-29T08:28:45Z</time>
      </trkpt>
      <trkpt lat="44.76375" lon="6.24733">
        <ele>2192.9</ele>
        <time>2013-08-29T08:28:58Z</time>
      </trkpt>
      <trkpt lat="44.76382" lon="6.24731">
        <ele>2193.87</ele>
        <time>2013-08-29T08:29:08Z</time>
      </trkpt>
      <trkpt lat="44.76383" lon="6.24731">
        <ele>2192.9</ele>
        <time>2013-08-29T08:29:10Z</time>
      </trkpt>
      <trkpt lat="44.76385" lon="6.24733">
        <ele>2195.31</ele>
        <time>2013-08-29T08:29:20Z</time>
      </trkpt>
      <trkpt lat="44.76385" lon="6.24732">
        <ele>2197.71</ele>
        <time>2013-08-29T08:29:33Z</time>
      </trkpt>
      <trkpt lat="44.76388" lon="6.24732">
        <ele>2199.15</ele>
        <time>2013-08-29T08:29:44Z</time>
      </trkpt>
      <trkpt lat="44.76388" lon="6.24732">
        <ele>2199.15</ele>
        <time>2013-08-29T08:29:45Z</time>
      </trkpt>
      <trkpt lat="44.76391" lon="6.24735">
        <ele>2202.04</ele>
        <time>2013-08-29T08:30:00Z</time>
      </trkpt>
      <trkpt lat="44.76393" lon="6.24736">
        <ele>2201.56</ele>
        <time>2013-08-29T08:30:10Z</time>
      </trkpt>
      <trkpt lat="44.764" lon="6.24738">
        <ele>2202.52</ele>
        <time>2013-08-29T08:30:20Z</time>
      </trkpt>
      <trkpt lat="44.76408" lon="6.2474">
        <ele>2204.44</ele>
        <time>2013-08-29T08:30:32Z</time>
      </trkpt>
      <trkpt lat="44.76408" lon="6.24749">
        <ele>2206.36</ele>
        <time>2013-08-29T08:30:45Z</time>
      </trkpt>
      <trkpt lat="44.7641" lon="6.2475">
        <ele>2207.81</ele>
        <time>2013-08-29T08:30:50Z</time>
      </trkpt>
      <trkpt lat="44.76412" lon="6.2476">
        <ele>2208.77</ele>
        <time>2013-08-29T08:31:06Z</time>
      </trkpt>
      <trkpt lat="44.76413" lon="6.2476">
        <ele>2209.73</ele>
        <time>2013-08-29T08:31:08Z</time>
      </trkpt>
      <trkpt lat="44.76411" lon="6.24759">
        <ele>2210.69</ele>
        <time>2013-08-29T08:31:23Z</time>
      </trkpt>
      <trkpt lat="44.76411" lon="6.24756">
        <ele>2212.61</ele>
        <time>2013-08-29T08:31:33Z</time>
      </trkpt>
      <trkpt lat="44.76414" lon="6.24748">
        <ele>2213.09</ele>
        <time>2013-08-29T08:31:45Z</time>
      </trkpt>
      <trkpt lat="44.76416" lon="6.24743">
        <ele>2215.01</ele>
        <time>2013-08-29T08:31:50Z</time>
      </trkpt>
      <trkpt lat="44.76419" lon="6.24743">
        <ele>2215.98</ele>
        <time>2013-08-29T08:32:03Z</time>
      </trkpt>
      <trkpt lat="44.7642" lon="6.24747">
        <ele>2216.94</ele>
        <time>2013-08-29T08:32:16Z</time>
      </trkpt>
      <trkpt lat="44.76423" lon="6.24743">
        <ele>2218.86</ele>
        <time>2013-08-29T08:32:33Z</time>
      </trkpt>
      <trkpt lat="44.76424" lon="6.24745">
        <ele>2220.78</ele>
        <time>2013-08-29T08:32:47Z</time>
      </trkpt>
      <trkpt lat="44.76426" lon="6.24746">
        <ele>2222.22</ele>
        <time>2013-08-29T08:32:52Z</time>
      </trkpt>
      <trkpt lat="44.7643" lon="6.24749">
        <ele>2222.71</ele>
        <time>2013-08-29T08:33:06Z</time>
      </trkpt>
      <trkpt lat="44.76433" lon="6.24758">
        <ele>2224.15</ele>
        <time>2013-08-29T08:33:18Z</time>
      </trkpt>
      <trkpt lat="44.76436" lon="6.24765">
        <ele>2227.51</ele>
        <time>2013-08-29T08:33:29Z</time>
      </trkpt>
      <trkpt lat="44.76437" lon="6.24773">
        <ele>2228.47</ele>
        <time>2013-08-29T08:33:42Z</time>
      </trkpt>
      <trkpt lat="44.76438" lon="6.24784">
        <ele>2230.88</ele>
        <time>2013-08-29T08:33:56Z</time>
      </trkpt>
      <trkpt lat="44.76439" lon="6.24785">
        <ele>2230.88</ele>
        <time>2013-08-29T08:33:57Z</time>
      </trkpt>
      <trkpt lat="44.76441" lon="6.24794">
        <ele>2231.84</ele>
        <time>2013-08-29T08:34:07Z</time>
      </trkpt>
      <trkpt lat="44.76441" lon="6.24796">
        <ele>2232.8</ele>
        <time>2013-08-29T08:34:12Z</time>
      </trkpt>
      <trkpt lat="44.76443" lon="6.24799">
        <ele>2233.28</ele>
        <time>2013-08-29T08:34:18Z</time>
      </trkpt>
      <trkpt lat="44.76447" lon="6.24808">
        <ele>2235.68</ele>
        <time>2013-08-29T08:34:32Z</time>
      </trkpt>
      <trkpt lat="44.76453" lon="6.24819">
        <ele>2236.64</ele>
        <time>2013-08-29T08:34:45Z</time>
      </trkpt>
      <trkpt lat="44.76458" lon="6.24825">
        <ele>2239.05</ele>
        <time>2013-08-29T08:35:00Z</time>
      </trkpt>
      <trkpt lat="44.76463" lon="6.24831">
        <ele>2239.53</ele>
        <time>2013-08-29T08:35:14Z</time>
      </trkpt>
      <trkpt lat="44.76463" lon="6.24831">
        <ele>2240.49</ele>
        <time>2013-08-29T08:35:16Z</time>
      </trkpt>
      <trkpt lat="44.76467" lon="6.24837">
        <ele>2240.49</ele>
        <time>2013-08-29T08:35:24Z</time>
      </trkpt>
      <trkpt lat="44.76468" lon="6.24839">
        <ele>2241.93</ele>
        <time>2013-08-29T08:35:27Z</time>
      </trkpt>
      <trkpt lat="44.76471" lon="6.24845">
        <ele>2240.97</ele>
        <time>2013-08-29T08:35:39Z</time>
      </trkpt>
      <trkpt lat="44.76472" lon="6.24852">
        <ele>2242.89</ele>
        <time>2013-08-29T08:35:50Z</time>
      </trkpt>
      <trkpt lat="44.76473" lon="6.24855">
        <ele>2241.93</ele>
        <time>2013-08-29T08:35:57Z</time>
      </trkpt>
      <trkpt lat="44.76473" lon="6.24855">
        <ele>2242.41</ele>
        <time>2013-08-29T08:36:11Z</time>
      </trkpt>
      <trkpt lat="44.76471" lon="6.24863">
        <ele>2242.89</ele>
        <time>2013-08-29T08:36:25Z</time>
      </trkpt>
      <trkpt lat="44.76464" lon="6.24872">
        <ele>2244.82</ele>
        <time>2013-08-29T08:36:41Z</time>
      </trkpt>
      <trkpt lat="44.76461" lon="6.24874">
        <ele>2246.26</ele>
        <time>2013-08-29T08:36:44Z</time>
      </trkpt>
      <trkpt lat="44.76461" lon="6.24874">
        <ele>2244.82</ele>
        <time>2013-08-29T08:36:45Z</time>
      </trkpt>
      <trkpt lat="44.76459" lon="6.24876">
        <ele>2245.78</ele>
        <time>2013-08-29T08:36:55Z</time>
      </trkpt>
      <trkpt lat="44.76459" lon="6.24878">
        <ele>2246.74</ele>
        <time>2013-08-29T08:36:58Z</time>
      </trkpt>
      <trkpt lat="44.76465" lon="6.24884">
        <ele>2246.74</ele>
        <time>2013-08-29T08:37:11Z</time>
      </trkpt>
      <trkpt lat="44.76468" lon="6.24887">
        <ele>2246.74</ele>
        <time>2013-08-29T08:37:15Z</time>
      </trkpt>
      <trkpt lat="44.76471" lon="6.2489">
        <ele>2247.22</ele>
        <time>2013-08-29T08:37:20Z</time>
      </trkpt>
      <trkpt lat="44.76473" lon="6.2489">
        <ele>2248.66</ele>
        <time>2013-08-29T08:37:22Z</time>
      </trkpt>
      <trkpt lat="44.76473" lon="6.2489">
        <ele>2247.7</ele>
        <time>2013-08-29T08:37:23Z</time>
      </trkpt>
      <trkpt lat="44.76474" lon="6.24891">
        <ele>2247.22</ele>
        <time>2013-08-29T08:37:27Z</time>
      </trkpt>
      <trkpt lat="44.76473" lon="6.24892">
        <ele>2248.66</ele>
        <time>2013-08-29T08:37:28Z</time>
      </trkpt>
      <trkpt lat="44.76469" lon="6.24894">
        <ele>2248.66</ele>
        <time>2013-08-29T08:37:35Z</time>
      </trkpt>
      <trkpt lat="44.76468" lon="6.24896">
        <ele>2250.1</ele>
        <time>2013-08-29T08:37:38Z</time>
      </trkpt>
      <trkpt lat="44.76467" lon="6.24898">
        <ele>2249.62</ele>
        <time>2013-08-29T08:37:41Z</time>
      </trkpt>
      <trkpt lat="44.76465" lon="6.24904">
        <ele>2251.54</ele>
        <time>2013-08-29T08:37:50Z</time>
      </trkpt>
      <trkpt lat="44.76464" lon="6.24905">
        <ele>2250.1</ele>
        <time>2013-08-29T08:37:51Z</time>
      </trkpt>
      <trkpt lat="44.76463" lon="6.24906">
        <ele>2251.54</ele>
        <time>2013-08-29T08:37:53Z</time>
      </trkpt>
      <trkpt lat="44.76461" lon="6.24909">
        <ele>2251.54</ele>
        <time>2013-08-29T08:37:58Z</time>
      </trkpt>
      <trkpt lat="44.76451" lon="6.24914">
        <ele>2252.51</ele>
        <time>2013-08-29T08:38:07Z</time>
      </trkpt>
      <trkpt lat="44.76449" lon="6.24914">
        <ele>2251.06</ele>
        <time>2013-08-29T08:38:09Z</time>
      </trkpt>
      <trkpt lat="44.76434" lon="6.2492">
        <ele>2253.47</ele>
        <time>2013-08-29T08:38:23Z</time>
      </trkpt>
      <trkpt lat="44.76431" lon="6.24922">
        <ele>2254.43</ele>
        <time>2013-08-29T08:38:27Z</time>
      </trkpt>
      <trkpt lat="44.76429" lon="6.24922">
        <ele>2252.99</ele>
        <time>2013-08-29T08:38:33Z</time>
      </trkpt>
      <trkpt lat="44.76429" lon="6.24922">
        <ele>2253.95</ele>
        <time>2013-08-29T08:38:34Z</time>
      </trkpt>
      <trkpt lat="44.76429" lon="6.24922">
        <ele>2253.47</ele>
        <time>2013-08-29T08:38:35Z</time>
      </trkpt>
      <trkpt lat="44.76429" lon="6.24922">
        <ele>2254.91</ele>
        <time>2013-08-29T08:38:37Z</time>
      </trkpt>
      <trkpt lat="44.76429" lon="6.24922">
        <ele>2254.91</ele>
        <time>2013-08-29T08:38:53Z</time>
      </trkpt>
      <trkpt lat="44.76429" lon="6.24922">
        <ele>2253.47</ele>
        <time>2013-08-29T08:38:54Z</time>
      </trkpt>
      <trkpt lat="44.76429" lon="6.24922">
        <ele>2254.91</ele>
        <time>2013-08-29T08:39:04Z</time>
      </trkpt>
      <trkpt lat="44.76398" lon="6.24914">
        <ele>2254.91</ele>
        <time>2013-08-29T08:39:40Z</time>
      </trkpt>
      <trkpt lat="44.76398" lon="6.24914">
        <ele>2253.47</ele>
        <time>2013-08-29T08:39:41Z</time>
      </trkpt>
      <trkpt lat="44.76393" lon="6.24911">
        <ele>2254.91</ele>
        <time>2013-08-29T08:40:02Z</time>
      </trkpt>
      <trkpt lat="44.76393" lon="6.24911">
        <ele>2254.43</ele>
        <time>2013-08-29T08:40:04Z</time>
      </trkpt>
      <trkpt lat="44.76394" lon="6.24916">
        <ele>2254.43</ele>
        <time>2013-08-29T08:40:39Z</time>
      </trkpt>
      <trkpt lat="44.76392" lon="6.24915">
        <ele>2252.51</ele>
        <time>2013-08-29T08:40:49Z</time>
      </trkpt>
      <trkpt lat="44.76392" lon="6.24915">
        <ele>2254.43</ele>
        <time>2013-08-29T08:40:50Z</time>
      </trkpt>
      <trkpt lat="44.76392" lon="6.24915">
        <ele>2252.51</ele>
        <time>2013-08-29T08:40:52Z</time>
      </trkpt>
      <trkpt lat="44.76392" lon="6.24915">
        <ele>2254.43</ele>
        <time>2013-08-29T08:41:06Z</time>
      </trkpt>
      <trkpt lat="44.76392" lon="6.24915">
        <ele>2254.43</ele>
        <time>2013-08-29T08:41:28Z</time>
      </trkpt>
      <trkpt lat="44.76392" lon="6.24915">
        <ele>2252.99</ele>
        <time>2013-08-29T08:41:29Z</time>
      </trkpt>
      <trkpt lat="44.76392" lon="6.24915">
        <ele>2253.95</ele>
        <time>2013-08-29T08:41:39Z</time>
      </trkpt>
      <trkpt lat="44.76392" lon="6.24915">
        <ele>2252.51</ele>
        <time>2013-08-29T08:42:03Z</time>
      </trkpt>
      <trkpt lat="44.76392" lon="6.24915">
        <ele>2254.43</ele>
        <time>2013-08-29T08:42:06Z</time>
      </trkpt>
      <trkpt lat="44.7639" lon="6.24914">
        <ele>2254.43</ele>
        <time>2013-08-29T08:42:21Z</time>
      </trkpt>
      <trkpt lat="44.7639" lon="6.24912">
        <ele>2254.43</ele>
        <time>2013-08-29T08:42:33Z</time>
      </trkpt>
      <trkpt lat="44.7639" lon="6.24912">
        <ele>2253.95</ele>
        <time>2013-08-29T08:42:44Z</time>
      </trkpt>
      <trkpt lat="44.76389" lon="6.24911">
        <ele>2253.95</ele>
        <time>2013-08-29T08:43:03Z</time>
      </trkpt>
      <trkpt lat="44.76389" lon="6.24911">
        <ele>2252.99</ele>
        <time>2013-08-29T08:43:23Z</time>
      </trkpt>
      <trkpt lat="44.76389" lon="6.2491">
        <ele>2254.43</ele>
        <time>2013-08-29T08:43:53Z</time>
      </trkpt>
      <trkpt lat="44.76389" lon="6.2491">
        <ele>2254.43</ele>
        <time>2013-08-29T08:43:59Z</time>
      </trkpt>
      <trkpt lat="44.76384" lon="6.24915">
        <ele>2257.79</ele>
        <time>2013-08-29T08:44:09Z</time>
      </trkpt>
      <trkpt lat="44.76382" lon="6.24916">
        <ele>2256.35</ele>
        <time>2013-08-29T08:44:11Z</time>
      </trkpt>
      <trkpt lat="44.76377" lon="6.24926">
        <ele>2259.24</ele>
        <time>2013-08-29T08:44:24Z</time>
      </trkpt>
      <trkpt lat="44.76374" lon="6.2493">
        <ele>2258.75</ele>
        <time>2013-08-29T08:44:32Z</time>
      </trkpt>
      <trkpt lat="44.76364" lon="6.24937">
        <ele>2261.16</ele>
        <time>2013-08-29T08:44:42Z</time>
      </trkpt>
      <trkpt lat="44.76361" lon="6.24938">
        <ele>2261.16</ele>
        <time>2013-08-29T08:44:45Z</time>
      </trkpt>
      <trkpt lat="44.76353" lon="6.24947">
        <ele>2262.12</ele>
        <time>2013-08-29T08:44:59Z</time>
      </trkpt>
      <trkpt lat="44.76351" lon="6.24957">
        <ele>2263.08</ele>
        <time>2013-08-29T08:45:13Z</time>
      </trkpt>
      <trkpt lat="44.76351" lon="6.24962">
        <ele>2264.04</ele>
        <time>2013-08-29T08:45:19Z</time>
      </trkpt>
      <trkpt lat="44.76354" lon="6.24965">
        <ele>2265</ele>
        <time>2013-08-29T08:45:27Z</time>
      </trkpt>
      <trkpt lat="44.76361" lon="6.24959">
        <ele>2266.93</ele>
        <time>2013-08-29T08:45:41Z</time>
      </trkpt>
      <trkpt lat="44.76361" lon="6.24959">
        <ele>2265.96</ele>
        <time>2013-08-29T08:45:42Z</time>
      </trkpt>
      <trkpt lat="44.76373" lon="6.24958">
        <ele>2267.89</ele>
        <time>2013-08-29T08:45:55Z</time>
      </trkpt>
      <trkpt lat="44.76378" lon="6.24961">
        <ele>2268.85</ele>
        <time>2013-08-29T08:46:02Z</time>
      </trkpt>
      <trkpt lat="44.76381" lon="6.24963">
        <ele>2268.85</ele>
        <time>2013-08-29T08:46:05Z</time>
      </trkpt>
      <trkpt lat="44.76386" lon="6.24966">
        <ele>2268.85</ele>
        <time>2013-08-29T08:46:12Z</time>
      </trkpt>
      <trkpt lat="44.76386" lon="6.24968">
        <ele>2270.29</ele>
        <time>2013-08-29T08:46:14Z</time>
      </trkpt>
      <trkpt lat="44.7639" lon="6.24971">
        <ele>2271.25</ele>
        <time>2013-08-29T08:46:20Z</time>
      </trkpt>
      <trkpt lat="44.76395" lon="6.24973">
        <ele>2273.17</ele>
        <time>2013-08-29T08:46:26Z</time>
      </trkpt>
      <trkpt lat="44.76398" lon="6.24977">
        <ele>2273.17</ele>
        <time>2013-08-29T08:46:35Z</time>
      </trkpt>
      <trkpt lat="44.76398" lon="6.24979">
        <ele>2274.62</ele>
        <time>2013-08-29T08:46:45Z</time>
      </trkpt>
      <trkpt lat="44.76398" lon="6.24985">
        <ele>2275.58</ele>
        <time>2013-08-29T08:46:51Z</time>
      </trkpt>
      <trkpt lat="44.764" lon="6.24993">
        <ele>2277.5</ele>
        <time>2013-08-29T08:47:04Z</time>
      </trkpt>
      <trkpt lat="44.764" lon="6.24995">
        <ele>2276.54</ele>
        <time>2013-08-29T08:47:05Z</time>
      </trkpt>
      <trkpt lat="44.76399" lon="6.25">
        <ele>2277.98</ele>
        <time>2013-08-29T08:47:09Z</time>
      </trkpt>
      <trkpt lat="44.76399" lon="6.25006">
        <ele>2277.02</ele>
        <time>2013-08-29T08:47:15Z</time>
      </trkpt>
      <trkpt lat="44.76394" lon="6.25007">
        <ele>2278.46</ele>
        <time>2013-08-29T08:47:22Z</time>
      </trkpt>
      <trkpt lat="44.76391" lon="6.25007">
        <ele>2280.38</ele>
        <time>2013-08-29T08:47:25Z</time>
      </trkpt>
      <trkpt lat="44.76387" lon="6.25007">
        <ele>2279.42</ele>
        <time>2013-08-29T08:47:29Z</time>
      </trkpt>
      <trkpt lat="44.7638" lon="6.2501">
        <ele>2279.42</ele>
        <time>2013-08-29T08:47:40Z</time>
      </trkpt>
      <trkpt lat="44.76375" lon="6.25016">
        <ele>2281.83</ele>
        <time>2013-08-29T08:47:52Z</time>
      </trkpt>
      <trkpt lat="44.76371" lon="6.25018">
        <ele>2281.83</ele>
        <time>2013-08-29T08:47:57Z</time>
      </trkpt>
      <trkpt lat="44.76363" lon="6.25023">
        <ele>2283.75</ele>
        <time>2013-08-29T08:48:08Z</time>
      </trkpt>
      <trkpt lat="44.76359" lon="6.2503">
        <ele>2282.31</ele>
        <time>2013-08-29T08:48:14Z</time>
      </trkpt>
      <trkpt lat="44.76353" lon="6.25036">
        <ele>2285.67</ele>
        <time>2013-08-29T08:48:29Z</time>
      </trkpt>
      <trkpt lat="44.76353" lon="6.25037">
        <ele>2285.19</ele>
        <time>2013-08-29T08:48:31Z</time>
      </trkpt>
      <trkpt lat="44.7636" lon="6.2504">
        <ele>2287.11</ele>
        <time>2013-08-29T08:48:44Z</time>
      </trkpt>
      <trkpt lat="44.76362" lon="6.2504">
        <ele>2288.08</ele>
        <time>2013-08-29T08:48:46Z</time>
      </trkpt>
      <trkpt lat="44.76363" lon="6.2504">
        <ele>2288.08</ele>
        <time>2013-08-29T08:48:49Z</time>
      </trkpt>
      <trkpt lat="44.76366" lon="6.25041">
        <ele>2289.04</ele>
        <time>2013-08-29T08:48:54Z</time>
      </trkpt>
      <trkpt lat="44.76373" lon="6.25043">
        <ele>2289.52</ele>
        <time>2013-08-29T08:49:02Z</time>
      </trkpt>
      <trkpt lat="44.76377" lon="6.25046">
        <ele>2289.04</ele>
        <time>2013-08-29T08:49:07Z</time>
      </trkpt>
      <trkpt lat="44.76378" lon="6.25048">
        <ele>2291.44</ele>
        <time>2013-08-29T08:49:09Z</time>
      </trkpt>
      <trkpt lat="44.76378" lon="6.25053">
        <ele>2291.44</ele>
        <time>2013-08-29T08:49:15Z</time>
      </trkpt>
      <trkpt lat="44.76368" lon="6.25056">
        <ele>2292.4</ele>
        <time>2013-08-29T08:49:28Z</time>
      </trkpt>
      <trkpt lat="44.76364" lon="6.25068">
        <ele>2293.36</ele>
        <time>2013-08-29T08:49:39Z</time>
      </trkpt>
      <trkpt lat="44.76359" lon="6.25081">
        <ele>2294.32</ele>
        <time>2013-08-29T08:49:52Z</time>
      </trkpt>
      <trkpt lat="44.76359" lon="6.25081">
        <ele>2294.32</ele>
        <time>2013-08-29T08:49:57Z</time>
      </trkpt>
      <trkpt lat="44.76356" lon="6.25093">
        <ele>2295.28</ele>
        <time>2013-08-29T08:50:10Z</time>
      </trkpt>
      <trkpt lat="44.76354" lon="6.25102">
        <ele>2298.17</ele>
        <time>2013-08-29T08:50:23Z</time>
      </trkpt>
      <trkpt lat="44.76354" lon="6.25103">
        <ele>2298.17</ele>
        <time>2013-08-29T08:50:32Z</time>
      </trkpt>
      <trkpt lat="44.76354" lon="6.25103">
        <ele>2300.09</ele>
        <time>2013-08-29T08:50:33Z</time>
      </trkpt>
      <trkpt lat="44.76354" lon="6.25103">
        <ele>2298.65</ele>
        <time>2013-08-29T08:50:34Z</time>
      </trkpt>
      <trkpt lat="44.76354" lon="6.25104">
        <ele>2300.57</ele>
        <time>2013-08-29T08:50:36Z</time>
      </trkpt>
      <trkpt lat="44.76354" lon="6.25104">
        <ele>2302.01</ele>
        <time>2013-08-29T08:50:48Z</time>
      </trkpt>
      <trkpt lat="44.76358" lon="6.25106">
        <ele>2302.49</ele>
        <time>2013-08-29T08:51:01Z</time>
      </trkpt>
      <trkpt lat="44.76363" lon="6.25113">
        <ele>2304.9</ele>
        <time>2013-08-29T08:51:16Z</time>
      </trkpt>
      <trkpt lat="44.76359" lon="6.25123">
        <ele>2306.82</ele>
        <time>2013-08-29T08:51:31Z</time>
      </trkpt>
      <trkpt lat="44.76349" lon="6.25137">
        <ele>2308.74</ele>
        <time>2013-08-29T08:51:44Z</time>
      </trkpt>
      <trkpt lat="44.76351" lon="6.25137">
        <ele>2307.3</ele>
        <time>2013-08-29T08:51:47Z</time>
      </trkpt>
      <trkpt lat="44.76351" lon="6.25137">
        <ele>2309.22</ele>
        <time>2013-08-29T08:51:48Z</time>
      </trkpt>
      <trkpt lat="44.76359" lon="6.25135">
        <ele>2312.11</ele>
        <time>2013-08-29T08:52:00Z</time>
      </trkpt>
      <trkpt lat="44.7636" lon="6.25135">
        <ele>2311.15</ele>
        <time>2013-08-29T08:52:02Z</time>
      </trkpt>
      <trkpt lat="44.76365" lon="6.25137">
        <ele>2312.59</ele>
        <time>2013-08-29T08:52:10Z</time>
      </trkpt>
      <trkpt lat="44.7637" lon="6.25142">
        <ele>2313.07</ele>
        <time>2013-08-29T08:52:21Z</time>
      </trkpt>
      <trkpt lat="44.76378" lon="6.25148">
        <ele>2315.47</ele>
        <time>2013-08-29T08:52:34Z</time>
      </trkpt>
      <trkpt lat="44.76383" lon="6.25153">
        <ele>2315.95</ele>
        <time>2013-08-29T08:52:44Z</time>
      </trkpt>
      <trkpt lat="44.76386" lon="6.25158">
        <ele>2317.4</ele>
        <time>2013-08-29T08:52:52Z</time>
      </trkpt>
      <trkpt lat="44.76372" lon="6.25163">
        <ele>2318.84</ele>
        <time>2013-08-29T08:53:04Z</time>
      </trkpt>
      <trkpt lat="44.76373" lon="6.25166">
        <ele>2320.76</ele>
        <time>2013-08-29T08:53:07Z</time>
      </trkpt>
      <trkpt lat="44.76374" lon="6.25169">
        <ele>2321.24</ele>
        <time>2013-08-29T08:53:11Z</time>
      </trkpt>
      <trkpt lat="44.76375" lon="6.25172">
        <ele>2321.72</ele>
        <time>2013-08-29T08:53:14Z</time>
      </trkpt>
      <trkpt lat="44.76376" lon="6.25178">
        <ele>2322.68</ele>
        <time>2013-08-29T08:53:21Z</time>
      </trkpt>
      <trkpt lat="44.76376" lon="6.25184">
        <ele>2321.24</ele>
        <time>2013-08-29T08:53:28Z</time>
      </trkpt>
      <trkpt lat="44.76376" lon="6.25184">
        <ele>2323.16</ele>
        <time>2013-08-29T08:53:29Z</time>
      </trkpt>
      <trkpt lat="44.76373" lon="6.25187">
        <ele>2323.16</ele>
        <time>2013-08-29T08:53:38Z</time>
      </trkpt>
      <trkpt lat="44.76372" lon="6.25188">
        <ele>2324.61</ele>
        <time>2013-08-29T08:53:40Z</time>
      </trkpt>
      <trkpt lat="44.76369" lon="6.25189">
        <ele>2326.05</ele>
        <time>2013-08-29T08:53:47Z</time>
      </trkpt>
      <trkpt lat="44.76365" lon="6.25187">
        <ele>2327.97</ele>
        <time>2013-08-29T08:54:00Z</time>
      </trkpt>
      <trkpt lat="44.76364" lon="6.25187">
        <ele>2326.53</ele>
        <time>2013-08-29T08:54:01Z</time>
      </trkpt>
      <trkpt lat="44.76362" lon="6.25188">
        <ele>2328.45</ele>
        <time>2013-08-29T08:54:04Z</time>
      </trkpt>
      <trkpt lat="44.7636" lon="6.25188">
        <ele>2328.93</ele>
        <time>2013-08-29T08:54:09Z</time>
      </trkpt>
      <trkpt lat="44.76356" lon="6.2519">
        <ele>2329.89</ele>
        <time>2013-08-29T08:54:17Z</time>
      </trkpt>
      <trkpt lat="44.76349" lon="6.25189">
        <ele>2331.81</ele>
        <time>2013-08-29T08:54:30Z</time>
      </trkpt>
      <trkpt lat="44.76342" lon="6.25183">
        <ele>2333.74</ele>
        <time>2013-08-29T08:54:43Z</time>
      </trkpt>
      <trkpt lat="44.76339" lon="6.25183">
        <ele>2334.7</ele>
        <time>2013-08-29T08:54:48Z</time>
      </trkpt>
      <trkpt lat="44.76335" lon="6.2518">
        <ele>2333.74</ele>
        <time>2013-08-29T08:54:58Z</time>
      </trkpt>
      <trkpt lat="44.76335" lon="6.2518">
        <ele>2337.1</ele>
        <time>2013-08-29T08:54:59Z</time>
      </trkpt>
      <trkpt lat="44.76335" lon="6.2518">
        <ele>2337.1</ele>
        <time>2013-08-29T08:55:00Z</time>
      </trkpt>
      <trkpt lat="44.76335" lon="6.2518">
        <ele>2336.62</ele>
        <time>2013-08-29T08:55:01Z</time>
      </trkpt>
      <trkpt lat="44.76334" lon="6.2518">
        <ele>2337.1</ele>
        <time>2013-08-29T08:55:12Z</time>
      </trkpt>
      <trkpt lat="44.76331" lon="6.25181">
        <ele>2338.54</ele>
        <time>2013-08-29T08:55:24Z</time>
      </trkpt>
      <trkpt lat="44.76331" lon="6.25181">
        <ele>2339.51</ele>
        <time>2013-08-29T08:55:42Z</time>
      </trkpt>
      <trkpt lat="44.76326" lon="6.25186">
        <ele>2340.95</ele>
        <time>2013-08-29T08:55:52Z</time>
      </trkpt>
      <trkpt lat="44.76321" lon="6.25194">
        <ele>2342.39</ele>
        <time>2013-08-29T08:56:00Z</time>
      </trkpt>
      <trkpt lat="44.76313" lon="6.25206">
        <ele>2342.87</ele>
        <time>2013-08-29T08:56:12Z</time>
      </trkpt>
      <trkpt lat="44.76309" lon="6.25214">
        <ele>2343.83</ele>
        <time>2013-08-29T08:56:19Z</time>
      </trkpt>
      <trkpt lat="44.76305" lon="6.25226">
        <ele>2342.87</ele>
        <time>2013-08-29T08:56:29Z</time>
      </trkpt>
      <trkpt lat="44.76305" lon="6.25229">
        <ele>2343.83</ele>
        <time>2013-08-29T08:56:32Z</time>
      </trkpt>
      <trkpt lat="44.76305" lon="6.25229">
        <ele>2344.79</ele>
        <time>2013-08-29T08:56:43Z</time>
      </trkpt>
      <trkpt lat="44.76303" lon="6.25233">
        <ele>2346.23</ele>
        <time>2013-08-29T08:56:56Z</time>
      </trkpt>
      <trkpt lat="44.76298" lon="6.25239">
        <ele>2346.72</ele>
        <time>2013-08-29T08:57:04Z</time>
      </trkpt>
      <trkpt lat="44.76295" lon="6.25245">
        <ele>2346.72</ele>
        <time>2013-08-29T08:57:18Z</time>
      </trkpt>
      <trkpt lat="44.76295" lon="6.25245">
        <ele>2346.72</ele>
        <time>2013-08-29T08:57:40Z</time>
      </trkpt>
      <trkpt lat="44.76295" lon="6.25245">
        <ele>2348.64</ele>
        <time>2013-08-29T08:57:41Z</time>
      </trkpt>
      <trkpt lat="44.76295" lon="6.25245">
        <ele>2348.64</ele>
        <time>2013-08-29T08:57:46Z</time>
      </trkpt>
      <trkpt lat="44.76295" lon="6.25245">
        <ele>2349.12</ele>
        <time>2013-08-29T08:57:50Z</time>
      </trkpt>
      <trkpt lat="44.76294" lon="6.25246">
        <ele>2347.2</ele>
        <time>2013-08-29T08:57:52Z</time>
      </trkpt>
      <trkpt lat="44.76292" lon="6.25249">
        <ele>2349.12</ele>
        <time>2013-08-29T08:58:08Z</time>
      </trkpt>
      <trkpt lat="44.76287" lon="6.25261">
        <ele>2350.56</ele>
        <time>2013-08-29T08:58:19Z</time>
      </trkpt>
      <trkpt lat="44.76282" lon="6.25272">
        <ele>2352</ele>
        <time>2013-08-29T08:58:31Z</time>
      </trkpt>
      <trkpt lat="44.76283" lon="6.25279">
        <ele>2354.41</ele>
        <time>2013-08-29T08:58:44Z</time>
      </trkpt>
      <trkpt lat="44.76286" lon="6.25278">
        <ele>2357.29</ele>
        <time>2013-08-29T08:58:54Z</time>
      </trkpt>
      <trkpt lat="44.76286" lon="6.25278">
        <ele>2357.29</ele>
        <time>2013-08-29T08:58:55Z</time>
      </trkpt>
      <trkpt lat="44.76286" lon="6.25278">
        <ele>2355.85</ele>
        <time>2013-08-29T08:58:56Z</time>
      </trkpt>
      <trkpt lat="44.76287" lon="6.25279">
        <ele>2357.77</ele>
        <time>2013-08-29T08:59:10Z</time>
      </trkpt>
      <trkpt lat="44.76294" lon="6.25281">
        <ele>2360.17</ele>
        <time>2013-08-29T08:59:22Z</time>
      </trkpt>
      <trkpt lat="44.76304" lon="6.25278">
        <ele>2361.14</ele>
        <time>2013-08-29T08:59:34Z</time>
      </trkpt>
      <trkpt lat="44.76305" lon="6.25278">
        <ele>2362.58</ele>
        <time>2013-08-29T08:59:36Z</time>
      </trkpt>
      <trkpt lat="44.7631" lon="6.2528">
        <ele>2364.02</ele>
        <time>2013-08-29T08:59:47Z</time>
      </trkpt>
      <trkpt lat="44.76319" lon="6.25279">
        <ele>2365.46</ele>
        <time>2013-08-29T08:59:58Z</time>
      </trkpt>
      <trkpt lat="44.76321" lon="6.25278">
        <ele>2366.42</ele>
        <time>2013-08-29T09:00:01Z</time>
      </trkpt>
      <trkpt lat="44.76329" lon="6.25279">
        <ele>2367.86</ele>
        <time>2013-08-29T09:00:12Z</time>
      </trkpt>
      <trkpt lat="44.76334" lon="6.25278">
        <ele>2369.31</ele>
        <time>2013-08-29T09:00:21Z</time>
      </trkpt>
      <trkpt lat="44.76335" lon="6.25278">
        <ele>2367.86</ele>
        <time>2013-08-29T09:00:22Z</time>
      </trkpt>
      <trkpt lat="44.76338" lon="6.25279">
        <ele>2370.27</ele>
        <time>2013-08-29T09:00:28Z</time>
      </trkpt>
      <trkpt lat="44.76343" lon="6.25279">
        <ele>2370.27</ele>
        <time>2013-08-29T09:00:37Z</time>
      </trkpt>
      <trkpt lat="44.76349" lon="6.2528">
        <ele>2371.71</ele>
        <time>2013-08-29T09:00:51Z</time>
      </trkpt>
      <trkpt lat="44.7635" lon="6.2528">
        <ele>2373.15</ele>
        <time>2013-08-29T09:00:52Z</time>
      </trkpt>
      <trkpt lat="44.76351" lon="6.25281">
        <ele>2373.63</ele>
        <time>2013-08-29T09:00:58Z</time>
      </trkpt>
      <trkpt lat="44.76359" lon="6.25285">
        <ele>2374.59</ele>
        <time>2013-08-29T09:01:10Z</time>
      </trkpt>
      <trkpt lat="44.76362" lon="6.25285">
        <ele>2376.04</ele>
        <time>2013-08-29T09:01:17Z</time>
      </trkpt>
      <trkpt lat="44.76363" lon="6.25285">
        <ele>2376.52</ele>
        <time>2013-08-29T09:01:18Z</time>
      </trkpt>
      <trkpt lat="44.76369" lon="6.25285">
        <ele>2378.44</ele>
        <time>2013-08-29T09:01:31Z</time>
      </trkpt>
      <trkpt lat="44.76378" lon="6.25286">
        <ele>2379.4</ele>
        <time>2013-08-29T09:01:44Z</time>
      </trkpt>
      <trkpt lat="44.76387" lon="6.25287">
        <ele>2379.88</ele>
        <time>2013-08-29T09:01:56Z</time>
      </trkpt>
      <trkpt lat="44.76388" lon="6.25287">
        <ele>2381.8</ele>
        <time>2013-08-29T09:01:57Z</time>
      </trkpt>
      <trkpt lat="44.76391" lon="6.25287">
        <ele>2380.36</ele>
        <time>2013-08-29T09:02:03Z</time>
      </trkpt>
      <trkpt lat="44.76396" lon="6.25287">
        <ele>2382.76</ele>
        <time>2013-08-29T09:02:10Z</time>
      </trkpt>
      <trkpt lat="44.76399" lon="6.25289">
        <ele>2382.28</ele>
        <time>2013-08-29T09:02:14Z</time>
      </trkpt>
      <trkpt lat="44.7641" lon="6.25292">
        <ele>2384.21</ele>
        <time>2013-08-29T09:02:29Z</time>
      </trkpt>
      <trkpt lat="44.76422" lon="6.25294">
        <ele>2386.13</ele>
        <time>2013-08-29T09:02:42Z</time>
      </trkpt>
      <trkpt lat="44.76439" lon="6.25287">
        <ele>2388.05</ele>
        <time>2013-08-29T09:02:56Z</time>
      </trkpt>
      <trkpt lat="44.76454" lon="6.25284">
        <ele>2389.49</ele>
        <time>2013-08-29T09:03:08Z</time>
      </trkpt>
      <trkpt lat="44.7646" lon="6.25286">
        <ele>2391.42</ele>
        <time>2013-08-29T09:03:22Z</time>
      </trkpt>
      <trkpt lat="44.76461" lon="6.25288">
        <ele>2391.9</ele>
        <time>2013-08-29T09:03:30Z</time>
      </trkpt>
      <trkpt lat="44.76461" lon="6.25291">
        <ele>2392.86</ele>
        <time>2013-08-29T09:03:42Z</time>
      </trkpt>
      <trkpt lat="44.7646" lon="6.25295">
        <ele>2393.82</ele>
        <time>2013-08-29T09:03:46Z</time>
      </trkpt>
      <trkpt lat="44.76459" lon="6.25296">
        <ele>2392.86</ele>
        <time>2013-08-29T09:03:47Z</time>
      </trkpt>
      <trkpt lat="44.76459" lon="6.25303">
        <ele>2395.74</ele>
        <time>2013-08-29T09:04:00Z</time>
      </trkpt>
      <trkpt lat="44.76466" lon="6.25302">
        <ele>2397.18</ele>
        <time>2013-08-29T09:04:12Z</time>
      </trkpt>
      <trkpt lat="44.76473" lon="6.25301">
        <ele>2398.63</ele>
        <time>2013-08-29T09:04:24Z</time>
      </trkpt>
      <trkpt lat="44.76482" lon="6.25301">
        <ele>2398.15</ele>
        <time>2013-08-29T09:04:37Z</time>
      </trkpt>
      <trkpt lat="44.76483" lon="6.253">
        <ele>2400.07</ele>
        <time>2013-08-29T09:04:39Z</time>
      </trkpt>
      <trkpt lat="44.76494" lon="6.25299">
        <ele>2401.03</ele>
        <time>2013-08-29T09:04:53Z</time>
      </trkpt>
      <trkpt lat="44.765" lon="6.25301">
        <ele>2403.91</ele>
        <time>2013-08-29T09:05:06Z</time>
      </trkpt>
      <trkpt lat="44.76504" lon="6.25305">
        <ele>2404.39</ele>
        <time>2013-08-29T09:05:18Z</time>
      </trkpt>
      <trkpt lat="44.76504" lon="6.25304">
        <ele>2405.84</ele>
        <time>2013-08-29T09:05:30Z</time>
      </trkpt>
      <trkpt lat="44.76513" lon="6.25301">
        <ele>2406.8</ele>
        <time>2013-08-29T09:05:45Z</time>
      </trkpt>
      <trkpt lat="44.76517" lon="6.25302">
        <ele>2408.72</ele>
        <time>2013-08-29T09:05:58Z</time>
      </trkpt>
      <trkpt lat="44.76524" lon="6.25307">
        <ele>2410.64</ele>
        <time>2013-08-29T09:06:13Z</time>
      </trkpt>
      <trkpt lat="44.76528" lon="6.25316">
        <ele>2412.09</ele>
        <time>2013-08-29T09:06:27Z</time>
      </trkpt>
      <trkpt lat="44.76532" lon="6.2532">
        <ele>2413.05</ele>
        <time>2013-08-29T09:06:36Z</time>
      </trkpt>
      <trkpt lat="44.76532" lon="6.25332">
        <ele>2414.01</ele>
        <time>2013-08-29T09:06:51Z</time>
      </trkpt>
      <trkpt lat="44.76532" lon="6.25333">
        <ele>2415.93</ele>
        <time>2013-08-29T09:06:57Z</time>
      </trkpt>
      <trkpt lat="44.76533" lon="6.2533">
        <ele>2416.89</ele>
        <time>2013-08-29T09:07:11Z</time>
      </trkpt>
      <trkpt lat="44.76535" lon="6.25328">
        <ele>2417.85</ele>
        <time>2013-08-29T09:07:16Z</time>
      </trkpt>
      <trkpt lat="44.76546" lon="6.25326">
        <ele>2421.22</ele>
        <time>2013-08-29T09:07:28Z</time>
      </trkpt>
      <trkpt lat="44.76554" lon="6.25325">
        <ele>2421.22</ele>
        <time>2013-08-29T09:07:40Z</time>
      </trkpt>
      <trkpt lat="44.76562" lon="6.2533">
        <ele>2423.62</ele>
        <time>2013-08-29T09:07:55Z</time>
      </trkpt>
      <trkpt lat="44.76568" lon="6.25335">
        <ele>2424.1</ele>
        <time>2013-08-29T09:08:08Z</time>
      </trkpt>
      <trkpt lat="44.76565" lon="6.25339">
        <ele>2426.02</ele>
        <time>2013-08-29T09:08:20Z</time>
      </trkpt>
      <trkpt lat="44.7656" lon="6.25345">
        <ele>2426.5</ele>
        <time>2013-08-29T09:08:32Z</time>
      </trkpt>
      <trkpt lat="44.76567" lon="6.2535">
        <ele>2428.91</ele>
        <time>2013-08-29T09:08:49Z</time>
      </trkpt>
      <trkpt lat="44.76576" lon="6.25352">
        <ele>2431.31</ele>
        <time>2013-08-29T09:09:04Z</time>
      </trkpt>
      <trkpt lat="44.76583" lon="6.25351">
        <ele>2433.23</ele>
        <time>2013-08-29T09:09:17Z</time>
      </trkpt>
      <trkpt lat="44.76584" lon="6.25351">
        <ele>2433.71</ele>
        <time>2013-08-29T09:09:26Z</time>
      </trkpt>
      <trkpt lat="44.76584" lon="6.25352">
        <ele>2433.23</ele>
        <time>2013-08-29T09:10:12Z</time>
      </trkpt>
      <trkpt lat="44.76587" lon="6.2535">
        <ele>2434.2</ele>
        <time>2013-08-29T09:11:46Z</time>
      </trkpt>
      <trkpt lat="44.76588" lon="6.25349">
        <ele>2434.2</ele>
        <time>2013-08-29T09:11:47Z</time>
      </trkpt>
      <trkpt lat="44.76595" lon="6.25345">
        <ele>2435.64</ele>
        <time>2013-08-29T09:12:00Z</time>
      </trkpt>
      <trkpt lat="44.766" lon="6.25348">
        <ele>2436.6</ele>
        <time>2013-08-29T09:12:13Z</time>
      </trkpt>
      <trkpt lat="44.76596" lon="6.25355">
        <ele>2438.04</ele>
        <time>2013-08-29T09:12:26Z</time>
      </trkpt>
      <trkpt lat="44.76594" lon="6.25363">
        <ele>2439</ele>
        <time>2013-08-29T09:12:39Z</time>
      </trkpt>
      <trkpt lat="44.76597" lon="6.25362">
        <ele>2440.44</ele>
        <time>2013-08-29T09:12:46Z</time>
      </trkpt>
      <trkpt lat="44.76605" lon="6.25361">
        <ele>2441.41</ele>
        <time>2013-08-29T09:13:00Z</time>
      </trkpt>
      <trkpt lat="44.76608" lon="6.25359">
        <ele>2442.85</ele>
        <time>2013-08-29T09:13:06Z</time>
      </trkpt>
      <trkpt lat="44.76614" lon="6.25355">
        <ele>2443.81</ele>
        <time>2013-08-29T09:13:19Z</time>
      </trkpt>
      <trkpt lat="44.7662" lon="6.25352">
        <ele>2445.73</ele>
        <time>2013-08-29T09:13:34Z</time>
      </trkpt>
      <trkpt lat="44.76623" lon="6.25344">
        <ele>2446.69</ele>
        <time>2013-08-29T09:13:48Z</time>
      </trkpt>
      <trkpt lat="44.76631" lon="6.25334">
        <ele>2448.62</ele>
        <time>2013-08-29T09:14:02Z</time>
      </trkpt>
      <trkpt lat="44.76632" lon="6.25335">
        <ele>2448.62</ele>
        <time>2013-08-29T09:14:04Z</time>
      </trkpt>
      <trkpt lat="44.76633" lon="6.25342">
        <ele>2450.54</ele>
        <time>2013-08-29T09:14:16Z</time>
      </trkpt>
      <trkpt lat="44.76633" lon="6.25349">
        <ele>2451.5</ele>
        <time>2013-08-29T09:14:27Z</time>
      </trkpt>
      <trkpt lat="44.7664" lon="6.25343">
        <ele>2453.9</ele>
        <time>2013-08-29T09:14:42Z</time>
      </trkpt>
      <trkpt lat="44.76647" lon="6.25341">
        <ele>2455.34</ele>
        <time>2013-08-29T09:14:55Z</time>
      </trkpt>
      <trkpt lat="44.76651" lon="6.25342">
        <ele>2456.31</ele>
        <time>2013-08-29T09:15:07Z</time>
      </trkpt>
      <trkpt lat="44.7665" lon="6.2535">
        <ele>2457.75</ele>
        <time>2013-08-29T09:15:20Z</time>
      </trkpt>
      <trkpt lat="44.76647" lon="6.2536">
        <ele>2460.63</ele>
        <time>2013-08-29T09:15:34Z</time>
      </trkpt>
      <trkpt lat="44.76652" lon="6.25357">
        <ele>2461.59</ele>
        <time>2013-08-29T09:15:49Z</time>
      </trkpt>
      <trkpt lat="44.76656" lon="6.25355">
        <ele>2463.04</ele>
        <time>2013-08-29T09:15:55Z</time>
      </trkpt>
      <trkpt lat="44.76662" lon="6.2535">
        <ele>2464.48</ele>
        <time>2013-08-29T09:16:09Z</time>
      </trkpt>
      <trkpt lat="44.76667" lon="6.25347">
        <ele>2466.4</ele>
        <time>2013-08-29T09:16:23Z</time>
      </trkpt>
      <trkpt lat="44.76669" lon="6.25346">
        <ele>2466.88</ele>
        <time>2013-08-29T09:16:26Z</time>
      </trkpt>
      <trkpt lat="44.76674" lon="6.25345">
        <ele>2470.24</ele>
        <time>2013-08-29T09:16:39Z</time>
      </trkpt>
      <trkpt lat="44.76673" lon="6.25355">
        <ele>2470.24</ele>
        <time>2013-08-29T09:16:52Z</time>
      </trkpt>
      <trkpt lat="44.76672" lon="6.25362">
        <ele>2470.73</ele>
        <time>2013-08-29T09:17:05Z</time>
      </trkpt>
      <trkpt lat="44.76671" lon="6.25365">
        <ele>2472.17</ele>
        <time>2013-08-29T09:17:08Z</time>
      </trkpt>
      <trkpt lat="44.76667" lon="6.25372">
        <ele>2473.61</ele>
        <time>2013-08-29T09:17:20Z</time>
      </trkpt>
      <trkpt lat="44.76673" lon="6.25371">
        <ele>2475.53</ele>
        <time>2013-08-29T09:17:35Z</time>
      </trkpt>
      <trkpt lat="44.76679" lon="6.25369">
        <ele>2477.45</ele>
        <time>2013-08-29T09:17:47Z</time>
      </trkpt>
      <trkpt lat="44.76685" lon="6.25364">
        <ele>2479.38</ele>
        <time>2013-08-29T09:18:01Z</time>
      </trkpt>
      <trkpt lat="44.76688" lon="6.2536">
        <ele>2479.86</ele>
        <time>2013-08-29T09:18:14Z</time>
      </trkpt>
      <trkpt lat="44.7669" lon="6.25357">
        <ele>2482.74</ele>
        <time>2013-08-29T09:18:23Z</time>
      </trkpt>
      <trkpt lat="44.76694" lon="6.25353">
        <ele>2482.74</ele>
        <time>2013-08-29T09:18:35Z</time>
      </trkpt>
      <trkpt lat="44.76699" lon="6.2535">
        <ele>2485.63</ele>
        <time>2013-08-29T09:18:48Z</time>
      </trkpt>
      <trkpt lat="44.76699" lon="6.25353">
        <ele>2486.11</ele>
        <time>2013-08-29T09:19:00Z</time>
      </trkpt>
      <trkpt lat="44.76699" lon="6.25357">
        <ele>2486.59</ele>
        <time>2013-08-29T09:19:06Z</time>
      </trkpt>
      <trkpt lat="44.76701" lon="6.25359">
        <ele>2488.03</ele>
        <time>2013-08-29T09:19:11Z</time>
      </trkpt>
      <trkpt lat="44.76702" lon="6.25361">
        <ele>2489.47</ele>
        <time>2013-08-29T09:19:14Z</time>
      </trkpt>
      <trkpt lat="44.76707" lon="6.25367">
        <ele>2489.95</ele>
        <time>2013-08-29T09:19:26Z</time>
      </trkpt>
      <trkpt lat="44.76711" lon="6.2537">
        <ele>2489.47</ele>
        <time>2013-08-29T09:19:38Z</time>
      </trkpt>
      <trkpt lat="44.76717" lon="6.25375">
        <ele>2487.55</ele>
        <time>2013-08-29T09:19:50Z</time>
      </trkpt>
      <trkpt lat="44.76725" lon="6.25377">
        <ele>2485.63</ele>
        <time>2013-08-29T09:20:04Z</time>
      </trkpt>
      <trkpt lat="44.76735" lon="6.25376">
        <ele>2486.59</ele>
        <time>2013-08-29T09:20:17Z</time>
      </trkpt>
      <trkpt lat="44.76739" lon="6.25375">
        <ele>2488.03</ele>
        <time>2013-08-29T09:20:22Z</time>
      </trkpt>
      <trkpt lat="44.76751" lon="6.25368">
        <ele>2487.55</ele>
        <time>2013-08-29T09:20:38Z</time>
      </trkpt>
      <trkpt lat="44.76759" lon="6.25361">
        <ele>2485.15</ele>
        <time>2013-08-29T09:20:52Z</time>
      </trkpt>
      <trkpt lat="44.76764" lon="6.25353">
        <ele>2486.11</ele>
        <time>2013-08-29T09:21:02Z</time>
      </trkpt>
      <trkpt lat="44.76765" lon="6.2535">
        <ele>2487.55</ele>
        <time>2013-08-29T09:21:05Z</time>
      </trkpt>
      <trkpt lat="44.76772" lon="6.25347">
        <ele>2488.03</ele>
        <time>2013-08-29T09:21:17Z</time>
      </trkpt>
      <trkpt lat="44.7678" lon="6.2534">
        <ele>2488.99</ele>
        <time>2013-08-29T09:21:30Z</time>
      </trkpt>
      <trkpt lat="44.76788" lon="6.25334">
        <ele>2490.43</ele>
        <time>2013-08-29T09:21:44Z</time>
      </trkpt>
      <trkpt lat="44.76796" lon="6.2533">
        <ele>2491.87</ele>
        <time>2013-08-29T09:21:55Z</time>
      </trkpt>
      <trkpt lat="44.76806" lon="6.25324">
        <ele>2492.84</ele>
        <time>2013-08-29T09:22:09Z</time>
      </trkpt>
      <trkpt lat="44.76817" lon="6.25319">
        <ele>2493.32</ele>
        <time>2013-08-29T09:22:24Z</time>
      </trkpt>
      <trkpt lat="44.76818" lon="6.25318">
        <ele>2493.32</ele>
        <time>2013-08-29T09:22:25Z</time>
      </trkpt>
      <trkpt lat="44.76825" lon="6.25308">
        <ele>2493.32</ele>
        <time>2013-08-29T09:22:38Z</time>
      </trkpt>
      <trkpt lat="44.76832" lon="6.25299">
        <ele>2495.24</ele>
        <time>2013-08-29T09:22:50Z</time>
      </trkpt>
      <trkpt lat="44.76839" lon="6.25291">
        <ele>2494.28</ele>
        <time>2013-08-29T09:23:03Z</time>
      </trkpt>
      <trkpt lat="44.76843" lon="6.25284">
        <ele>2495.72</ele>
        <time>2013-08-29T09:23:13Z</time>
      </trkpt>
      <trkpt lat="44.76848" lon="6.25278">
        <ele>2496.68</ele>
        <time>2013-08-29T09:23:24Z</time>
      </trkpt>
      <trkpt lat="44.7685" lon="6.25267">
        <ele>2498.12</ele>
        <time>2013-08-29T09:23:37Z</time>
      </trkpt>
      <trkpt lat="44.76852" lon="6.25263">
        <ele>2499.08</ele>
        <time>2013-08-29T09:23:41Z</time>
      </trkpt>
      <trkpt lat="44.76855" lon="6.25254">
        <ele>2500.05</ele>
        <time>2013-08-29T09:23:55Z</time>
      </trkpt>
      <trkpt lat="44.76861" lon="6.25245">
        <ele>2501.97</ele>
        <time>2013-08-29T09:24:10Z</time>
      </trkpt>
      <trkpt lat="44.76863" lon="6.25242">
        <ele>2504.37</ele>
        <time>2013-08-29T09:24:13Z</time>
      </trkpt>
      <trkpt lat="44.76866" lon="6.25234">
        <ele>2505.33</ele>
        <time>2013-08-29T09:24:25Z</time>
      </trkpt>
      <trkpt lat="44.76867" lon="6.25233">
        <ele>2505.81</ele>
        <time>2013-08-29T09:24:27Z</time>
      </trkpt>
      <trkpt lat="44.76871" lon="6.25223">
        <ele>2506.77</ele>
        <time>2013-08-29T09:24:39Z</time>
      </trkpt>
      <trkpt lat="44.76873" lon="6.2522">
        <ele>2506.77</ele>
        <time>2013-08-29T09:24:43Z</time>
      </trkpt>
      <trkpt lat="44.76874" lon="6.25216">
        <ele>2508.7</ele>
        <time>2013-08-29T09:24:56Z</time>
      </trkpt>
      <trkpt lat="44.76875" lon="6.25215">
        <ele>2509.66</ele>
        <time>2013-08-29T09:25:08Z</time>
      </trkpt>
      <trkpt lat="44.76875" lon="6.25207">
        <ele>2513.02</ele>
        <time>2013-08-29T09:25:20Z</time>
      </trkpt>
      <trkpt lat="44.76874" lon="6.25206">
        <ele>2511.58</ele>
        <time>2013-08-29T09:25:23Z</time>
      </trkpt>
      <trkpt lat="44.76872" lon="6.25193">
        <ele>2513.98</ele>
        <time>2013-08-29T09:25:37Z</time>
      </trkpt>
      <trkpt lat="44.76871" lon="6.25186">
        <ele>2516.39</ele>
        <time>2013-08-29T09:25:49Z</time>
      </trkpt>
      <trkpt lat="44.76871" lon="6.25186">
        <ele>2515.43</ele>
        <time>2013-08-29T09:25:52Z</time>
      </trkpt>
      <trkpt lat="44.76871" lon="6.25183">
        <ele>2516.87</ele>
        <time>2013-08-29T09:25:55Z</time>
      </trkpt>
      <trkpt lat="44.76869" lon="6.25181">
        <ele>2517.35</ele>
        <time>2013-08-29T09:26:06Z</time>
      </trkpt>
      <trkpt lat="44.76867" lon="6.25175">
        <ele>2519.27</ele>
        <time>2013-08-29T09:26:16Z</time>
      </trkpt>
      <trkpt lat="44.76868" lon="6.25167">
        <ele>2519.75</ele>
        <time>2013-08-29T09:26:24Z</time>
      </trkpt>
      <trkpt lat="44.76869" lon="6.25158">
        <ele>2519.75</ele>
        <time>2013-08-29T09:26:29Z</time>
      </trkpt>
      <trkpt lat="44.76871" lon="6.25145">
        <ele>2521.19</ele>
        <time>2013-08-29T09:26:41Z</time>
      </trkpt>
      <trkpt lat="44.76875" lon="6.25135">
        <ele>2522.16</ele>
        <time>2013-08-29T09:26:54Z</time>
      </trkpt>
      <trkpt lat="44.76877" lon="6.25133">
        <ele>2523.6</ele>
        <time>2013-08-29T09:26:58Z</time>
      </trkpt>
      <trkpt lat="44.76882" lon="6.25132">
        <ele>2525.52</ele>
        <time>2013-08-29T09:27:10Z</time>
      </trkpt>
      <trkpt lat="44.76884" lon="6.25136">
        <ele>2526.96</ele>
        <time>2013-08-29T09:27:24Z</time>
      </trkpt>
      <trkpt lat="44.76885" lon="6.25135">
        <ele>2527.92</ele>
        <time>2013-08-29T09:27:41Z</time>
      </trkpt>
      <trkpt lat="44.76887" lon="6.25133">
        <ele>2526.96</ele>
        <time>2013-08-29T09:28:10Z</time>
      </trkpt>
      <trkpt lat="44.76886" lon="6.25133">
        <ele>2528.4</ele>
        <time>2013-08-29T09:28:50Z</time>
      </trkpt>
      <trkpt lat="44.76889" lon="6.25131">
        <ele>2528.89</ele>
        <time>2013-08-29T09:29:02Z</time>
      </trkpt>
      <trkpt lat="44.76889" lon="6.25139">
        <ele>2529.85</ele>
        <time>2013-08-29T09:29:12Z</time>
      </trkpt>
      <trkpt lat="44.7689" lon="6.25146">
        <ele>2532.73</ele>
        <time>2013-08-29T09:29:23Z</time>
      </trkpt>
      <trkpt lat="44.76893" lon="6.25145">
        <ele>2533.21</ele>
        <time>2013-08-29T09:29:36Z</time>
      </trkpt>
      <trkpt lat="44.76898" lon="6.25139">
        <ele>2536.1</ele>
        <time>2013-08-29T09:29:49Z</time>
      </trkpt>
      <trkpt lat="44.76899" lon="6.25138">
        <ele>2537.06</ele>
        <time>2013-08-29T09:29:52Z</time>
      </trkpt>
      <trkpt lat="44.76906" lon="6.25129">
        <ele>2538.5</ele>
        <time>2013-08-29T09:30:06Z</time>
      </trkpt>
      <trkpt lat="44.76909" lon="6.25118">
        <ele>2539.94</ele>
        <time>2013-08-29T09:30:19Z</time>
      </trkpt>
      <trkpt lat="44.76906" lon="6.25111">
        <ele>2541.86</ele>
        <time>2013-08-29T09:30:31Z</time>
      </trkpt>
      <trkpt lat="44.7691" lon="6.25098">
        <ele>2540.9</ele>
        <time>2013-08-29T09:30:43Z</time>
      </trkpt>
      <trkpt lat="44.76923" lon="6.25093">
        <ele>2539.46</ele>
        <time>2013-08-29T09:31:00Z</time>
      </trkpt>
      <trkpt lat="44.76931" lon="6.25093">
        <ele>2537.54</ele>
        <time>2013-08-29T09:31:14Z</time>
      </trkpt>
      <trkpt lat="44.76933" lon="6.25094">
        <ele>2537.06</ele>
        <time>2013-08-29T09:31:16Z</time>
      </trkpt>
      <trkpt lat="44.76942" lon="6.25099">
        <ele>2536.58</ele>
        <time>2013-08-29T09:31:30Z</time>
      </trkpt>
      <trkpt lat="44.76946" lon="6.251">
        <ele>2536.1</ele>
        <time>2013-08-29T09:31:48Z</time>
      </trkpt>
      <trkpt lat="44.76954" lon="6.251">
        <ele>2533.21</ele>
        <time>2013-08-29T09:32:04Z</time>
      </trkpt>
      <trkpt lat="44.76959" lon="6.25096">
        <ele>2533.69</ele>
        <time>2013-08-29T09:32:16Z</time>
      </trkpt>
      <trkpt lat="44.76957" lon="6.25087">
        <ele>2533.69</ele>
        <time>2013-08-29T09:32:24Z</time>
      </trkpt>
      <trkpt lat="44.76957" lon="6.25083">
        <ele>2535.13</ele>
        <time>2013-08-29T09:32:29Z</time>
      </trkpt>
      <trkpt lat="44.76958" lon="6.25082">
        <ele>2535.13</ele>
        <time>2013-08-29T09:32:43Z</time>
      </trkpt>
      <trkpt lat="44.76959" lon="6.25081">
        <ele>2534.65</ele>
        <time>2013-08-29T09:32:57Z</time>
      </trkpt>
      <trkpt lat="44.7696" lon="6.25081">
        <ele>2533.69</ele>
        <time>2013-08-29T09:33:15Z</time>
      </trkpt>
      <trkpt lat="44.76961" lon="6.25081">
        <ele>2534.17</ele>
        <time>2013-08-29T09:33:43Z</time>
      </trkpt>
      <trkpt lat="44.76962" lon="6.25082">
        <ele>2533.21</ele>
        <time>2013-08-29T09:33:55Z</time>
      </trkpt>
      <trkpt lat="44.76961" lon="6.25082">
        <ele>2533.69</ele>
        <time>2013-08-29T09:34:15Z</time>
      </trkpt>
      <trkpt lat="44.76962" lon="6.25083">
        <ele>2534.65</ele>
        <time>2013-08-29T09:34:28Z</time>
      </trkpt>
      <trkpt lat="44.76962" lon="6.25083">
        <ele>2532.73</ele>
        <time>2013-08-29T09:34:47Z</time>
      </trkpt>
      <trkpt lat="44.76962" lon="6.25083">
        <ele>2534.17</ele>
        <time>2013-08-29T09:34:49Z</time>
      </trkpt>
      <trkpt lat="44.76962" lon="6.25083">
        <ele>2533.21</ele>
        <time>2013-08-29T09:35:13Z</time>
      </trkpt>
      <trkpt lat="44.76963" lon="6.25084">
        <ele>2534.17</ele>
        <time>2013-08-29T09:35:22Z</time>
      </trkpt>
      <trkpt lat="44.76961" lon="6.25086">
        <ele>2533.21</ele>
        <time>2013-08-29T09:35:27Z</time>
      </trkpt>
      <trkpt lat="44.76961" lon="6.25085">
        <ele>2533.21</ele>
        <time>2013-08-29T09:35:54Z</time>
      </trkpt>
      <trkpt lat="44.76961" lon="6.25086">
        <ele>2533.21</ele>
        <time>2013-08-29T09:36:18Z</time>
      </trkpt>
      <trkpt lat="44.76961" lon="6.25084">
        <ele>2533.21</ele>
        <time>2013-08-29T09:36:36Z</time>
      </trkpt>
      <trkpt lat="44.76957" lon="6.25081">
        <ele>2536.1</ele>
        <time>2013-08-29T09:36:46Z</time>
      </trkpt>
      <trkpt lat="44.76957" lon="6.25082">
        <ele>2533.69</ele>
        <time>2013-08-29T09:36:50Z</time>
      </trkpt>
      <trkpt lat="44.76953" lon="6.25083">
        <ele>2536.58</ele>
        <time>2013-08-29T09:37:01Z</time>
      </trkpt>
      <trkpt lat="44.76947" lon="6.25082">
        <ele>2535.13</ele>
        <time>2013-08-29T09:37:13Z</time>
      </trkpt>
      <trkpt lat="44.76943" lon="6.25076">
        <ele>2536.1</ele>
        <time>2013-08-29T09:37:24Z</time>
      </trkpt>
      <trkpt lat="44.76937" lon="6.25067">
        <ele>2536.1</ele>
        <time>2013-08-29T09:37:37Z</time>
      </trkpt>
      <trkpt lat="44.76931" lon="6.25057">
        <ele>2537.06</ele>
        <time>2013-08-29T09:37:50Z</time>
      </trkpt>
      <trkpt lat="44.7693" lon="6.25055">
        <ele>2537.54</ele>
        <time>2013-08-29T09:37:52Z</time>
      </trkpt>
      <trkpt lat="44.76927" lon="6.25048">
        <ele>2538.02</ele>
        <time>2013-08-29T09:38:02Z</time>
      </trkpt>
      <trkpt lat="44.76924" lon="6.25035">
        <ele>2539.46</ele>
        <time>2013-08-29T09:38:16Z</time>
      </trkpt>
      <trkpt lat="44.76923" lon="6.25026">
        <ele>2540.42</ele>
        <time>2013-08-29T09:38:29Z</time>
      </trkpt>
      <trkpt lat="44.76922" lon="6.2502">
        <ele>2541.86</ele>
        <time>2013-08-29T09:38:34Z</time>
      </trkpt>
      <trkpt lat="44.76923" lon="6.25004">
        <ele>2542.34</ele>
        <time>2013-08-29T09:38:47Z</time>
      </trkpt>
      <trkpt lat="44.76927" lon="6.24995">
        <ele>2544.75</ele>
        <time>2013-08-29T09:38:59Z</time>
      </trkpt>
      <trkpt lat="44.76929" lon="6.24987">
        <ele>2546.19</ele>
        <time>2013-08-29T09:39:07Z</time>
      </trkpt>
      <trkpt lat="44.76928" lon="6.24984">
        <ele>2544.27</ele>
        <time>2013-08-29T09:39:09Z</time>
      </trkpt>
      <trkpt lat="44.76928" lon="6.24979">
        <ele>2545.71</ele>
        <time>2013-08-29T09:39:13Z</time>
      </trkpt>
      <trkpt lat="44.76928" lon="6.24963">
        <ele>2546.67</ele>
        <time>2013-08-29T09:39:25Z</time>
      </trkpt>
      <trkpt lat="44.76932" lon="6.24958">
        <ele>2545.23</ele>
        <time>2013-08-29T09:39:32Z</time>
      </trkpt>
      <trkpt lat="44.76937" lon="6.24947">
        <ele>2544.27</ele>
        <time>2013-08-29T09:39:45Z</time>
      </trkpt>
      <trkpt lat="44.76941" lon="6.24933">
        <ele>2544.27</ele>
        <time>2013-08-29T09:39:57Z</time>
      </trkpt>
      <trkpt lat="44.76943" lon="6.24922">
        <ele>2543.31</ele>
        <time>2013-08-29T09:40:09Z</time>
      </trkpt>
      <trkpt lat="44.76943" lon="6.24919">
        <ele>2542.82</ele>
        <time>2013-08-29T09:40:11Z</time>
      </trkpt>
      <trkpt lat="44.76948" lon="6.24909">
        <ele>2541.86</ele>
        <time>2013-08-29T09:40:22Z</time>
      </trkpt>
      <trkpt lat="44.76948" lon="6.24898">
        <ele>2541.38</ele>
        <time>2013-08-29T09:40:34Z</time>
      </trkpt>
      <trkpt lat="44.76949" lon="6.24892">
        <ele>2542.34</ele>
        <time>2013-08-29T09:40:39Z</time>
      </trkpt>
      <trkpt lat="44.76953" lon="6.24884">
        <ele>2543.79</ele>
        <time>2013-08-29T09:40:51Z</time>
      </trkpt>
      <trkpt lat="44.76953" lon="6.24879">
        <ele>2544.75</ele>
        <time>2013-08-29T09:41:02Z</time>
      </trkpt>
      <trkpt lat="44.76951" lon="6.2487">
        <ele>2546.19</ele>
        <time>2013-08-29T09:41:13Z</time>
      </trkpt>
      <trkpt lat="44.76954" lon="6.24865">
        <ele>2547.15</ele>
        <time>2013-08-29T09:41:20Z</time>
      </trkpt>
      <trkpt lat="44.76964" lon="6.24858">
        <ele>2547.63</ele>
        <time>2013-08-29T09:41:33Z</time>
      </trkpt>
      <trkpt lat="44.76967" lon="6.24855">
        <ele>2545.71</ele>
        <time>2013-08-29T09:41:40Z</time>
      </trkpt>
      <trkpt lat="44.76967" lon="6.24851">
        <ele>2547.63</ele>
        <time>2013-08-29T09:41:43Z</time>
      </trkpt>
      <trkpt lat="44.76969" lon="6.24834">
        <ele>2548.11</ele>
        <time>2013-08-29T09:41:57Z</time>
      </trkpt>
      <trkpt lat="44.7697" lon="6.24825">
        <ele>2548.59</ele>
        <time>2013-08-29T09:42:09Z</time>
      </trkpt>
      <trkpt lat="44.7697" lon="6.24824">
        <ele>2545.71</ele>
        <time>2013-08-29T09:42:22Z</time>
      </trkpt>
      <trkpt lat="44.76977" lon="6.24817">
        <ele>2546.19</ele>
        <time>2013-08-29T09:42:35Z</time>
      </trkpt>
      <trkpt lat="44.76985" lon="6.24812">
        <ele>2544.27</ele>
        <time>2013-08-29T09:42:48Z</time>
      </trkpt>
      <trkpt lat="44.76986" lon="6.24812">
        <ele>2546.19</ele>
        <time>2013-08-29T09:42:53Z</time>
      </trkpt>
      <trkpt lat="44.7699" lon="6.24809">
        <ele>2542.34</ele>
        <time>2013-08-29T09:43:03Z</time>
      </trkpt>
      <trkpt lat="44.76991" lon="6.24809">
        <ele>2542.82</ele>
        <time>2013-08-29T09:43:04Z</time>
      </trkpt>
      <trkpt lat="44.76996" lon="6.248">
        <ele>2542.82</ele>
        <time>2013-08-29T09:43:15Z</time>
      </trkpt>
      <trkpt lat="44.77001" lon="6.24797">
        <ele>2545.23</ele>
        <time>2013-08-29T09:43:24Z</time>
      </trkpt>
      <trkpt lat="44.77006" lon="6.24792">
        <ele>2545.23</ele>
        <time>2013-08-29T09:43:32Z</time>
      </trkpt>
      <trkpt lat="44.7701" lon="6.24784">
        <ele>2545.23</ele>
        <time>2013-08-29T09:43:45Z</time>
      </trkpt>
      <trkpt lat="44.77011" lon="6.2478">
        <ele>2546.19</ele>
        <time>2013-08-29T09:43:50Z</time>
      </trkpt>
      <trkpt lat="44.77014" lon="6.24772">
        <ele>2545.71</ele>
        <time>2013-08-29T09:43:59Z</time>
      </trkpt>
      <trkpt lat="44.77015" lon="6.24771">
        <ele>2546.67</ele>
        <time>2013-08-29T09:44:02Z</time>
      </trkpt>
      <trkpt lat="44.77019" lon="6.24763">
        <ele>2547.63</ele>
        <time>2013-08-29T09:44:17Z</time>
      </trkpt>
      <trkpt lat="44.77019" lon="6.24757">
        <ele>2548.59</ele>
        <time>2013-08-29T09:44:30Z</time>
      </trkpt>
      <trkpt lat="44.7702" lon="6.2475">
        <ele>2551</ele>
        <time>2013-08-29T09:44:42Z</time>
      </trkpt>
      <trkpt lat="44.77024" lon="6.24747">
        <ele>2551</ele>
        <time>2013-08-29T09:44:52Z</time>
      </trkpt>
      <trkpt lat="44.77027" lon="6.24747">
        <ele>2554.84</ele>
        <time>2013-08-29T09:45:01Z</time>
      </trkpt>
      <trkpt lat="44.77034" lon="6.24752">
        <ele>2554.84</ele>
        <time>2013-08-29T09:45:18Z</time>
      </trkpt>
      <trkpt lat="44.77035" lon="6.24753">
        <ele>2556.76</ele>
        <time>2013-08-29T09:45:23Z</time>
      </trkpt>
      <trkpt lat="44.77037" lon="6.24755">
        <ele>2558.69</ele>
        <time>2013-08-29T09:45:28Z</time>
      </trkpt>
      <trkpt lat="44.77043" lon="6.24764">
        <ele>2559.65</ele>
        <time>2013-08-29T09:45:42Z</time>
      </trkpt>
      <trkpt lat="44.77045" lon="6.24765">
        <ele>2561.09</ele>
        <time>2013-08-29T09:45:46Z</time>
      </trkpt>
      <trkpt lat="44.77048" lon="6.2476">
        <ele>2562.53</ele>
        <time>2013-08-29T09:45:58Z</time>
      </trkpt>
      <trkpt lat="44.77054" lon="6.24758">
        <ele>2563.49</ele>
        <time>2013-08-29T09:46:09Z</time>
      </trkpt>
      <trkpt lat="44.77056" lon="6.24755">
        <ele>2565.42</ele>
        <time>2013-08-29T09:46:13Z</time>
      </trkpt>
      <trkpt lat="44.77061" lon="6.2475">
        <ele>2566.38</ele>
        <time>2013-08-29T09:46:22Z</time>
      </trkpt>
      <trkpt lat="44.77071" lon="6.24747">
        <ele>2565.42</ele>
        <time>2013-08-29T09:46:35Z</time>
      </trkpt>
      <trkpt lat="44.77075" lon="6.24742">
        <ele>2564.45</ele>
        <time>2013-08-29T09:46:47Z</time>
      </trkpt>
      <trkpt lat="44.77077" lon="6.24735">
        <ele>2564.45</ele>
        <time>2013-08-29T09:46:57Z</time>
      </trkpt>
      <trkpt lat="44.77082" lon="6.24724">
        <ele>2563.97</ele>
        <time>2013-08-29T09:47:10Z</time>
      </trkpt>
      <trkpt lat="44.77088" lon="6.24716">
        <ele>2564.45</ele>
        <time>2013-08-29T09:47:21Z</time>
      </trkpt>
      <trkpt lat="44.77091" lon="6.24704">
        <ele>2565.9</ele>
        <time>2013-08-29T09:47:34Z</time>
      </trkpt>
      <trkpt lat="44.77089" lon="6.24694">
        <ele>2566.86</ele>
        <time>2013-08-29T09:47:46Z</time>
      </trkpt>
      <trkpt lat="44.77086" lon="6.24687">
        <ele>2567.82</ele>
        <time>2013-08-29T09:47:57Z</time>
      </trkpt>
      <trkpt lat="44.77085" lon="6.24685">
        <ele>2568.3</ele>
        <time>2013-08-29T09:48:01Z</time>
      </trkpt>
      <trkpt lat="44.77085" lon="6.24684">
        <ele>2569.74</ele>
        <time>2013-08-29T09:48:03Z</time>
      </trkpt>
      <trkpt lat="44.77084" lon="6.24678">
        <ele>2570.22</ele>
        <time>2013-08-29T09:48:17Z</time>
      </trkpt>
      <trkpt lat="44.77083" lon="6.24674">
        <ele>2571.18</ele>
        <time>2013-08-29T09:48:30Z</time>
      </trkpt>
      <trkpt lat="44.77085" lon="6.24667">
        <ele>2570.22</ele>
        <time>2013-08-29T09:48:48Z</time>
      </trkpt>
      <trkpt lat="44.77086" lon="6.2466">
        <ele>2570.22</ele>
        <time>2013-08-29T09:48:59Z</time>
      </trkpt>
      <trkpt lat="44.77086" lon="6.24651">
        <ele>2572.63</ele>
        <time>2013-08-29T09:49:10Z</time>
      </trkpt>
      <trkpt lat="44.77086" lon="6.24644">
        <ele>2573.59</ele>
        <time>2013-08-29T09:49:18Z</time>
      </trkpt>
      <trkpt lat="44.77087" lon="6.2464">
        <ele>2574.07</ele>
        <time>2013-08-29T09:49:34Z</time>
      </trkpt>
      <trkpt lat="44.7709" lon="6.24632">
        <ele>2570.22</ele>
        <time>2013-08-29T09:49:52Z</time>
      </trkpt>
      <trkpt lat="44.77093" lon="6.24629">
        <ele>2570.22</ele>
        <time>2013-08-29T09:50:05Z</time>
      </trkpt>
      <trkpt lat="44.77094" lon="6.24628">
        <ele>2567.34</ele>
        <time>2013-08-29T09:50:16Z</time>
      </trkpt>
      <trkpt lat="44.77095" lon="6.24623">
        <ele>2566.38</ele>
        <time>2013-08-29T09:50:35Z</time>
      </trkpt>
      <trkpt lat="44.77099" lon="6.24622">
        <ele>2564.45</ele>
        <time>2013-08-29T09:50:48Z</time>
      </trkpt>
      <trkpt lat="44.77104" lon="6.24615">
        <ele>2563.49</ele>
        <time>2013-08-29T09:51:01Z</time>
      </trkpt>
      <trkpt lat="44.77103" lon="6.24606">
        <ele>2565.9</ele>
        <time>2013-08-29T09:51:14Z</time>
      </trkpt>
      <trkpt lat="44.7711" lon="6.24607">
        <ele>2564.93</ele>
        <time>2013-08-29T09:51:26Z</time>
      </trkpt>
      <trkpt lat="44.77112" lon="6.24605">
        <ele>2563.97</ele>
        <time>2013-08-29T09:51:44Z</time>
      </trkpt>
      <trkpt lat="44.77111" lon="6.24603">
        <ele>2564.93</ele>
        <time>2013-08-29T09:52:32Z</time>
      </trkpt>
      <trkpt lat="44.77114" lon="6.24601">
        <ele>2563.97</ele>
        <time>2013-08-29T09:52:59Z</time>
      </trkpt>
      <trkpt lat="44.77118" lon="6.24602">
        <ele>2563.49</ele>
        <time>2013-08-29T09:53:04Z</time>
      </trkpt>
      <trkpt lat="44.7712" lon="6.24602">
        <ele>2563.01</ele>
        <time>2013-08-29T09:53:06Z</time>
      </trkpt>
      <trkpt lat="44.77126" lon="6.24604">
        <ele>2562.05</ele>
        <time>2013-08-29T09:53:14Z</time>
      </trkpt>
      <trkpt lat="44.77127" lon="6.24608">
        <ele>2562.53</ele>
        <time>2013-08-29T09:53:21Z</time>
      </trkpt>
      <trkpt lat="44.77127" lon="6.24613">
        <ele>2564.45</ele>
        <time>2013-08-29T09:53:24Z</time>
      </trkpt>
      <trkpt lat="44.77132" lon="6.24626">
        <ele>2564.45</ele>
        <time>2013-08-29T09:53:36Z</time>
      </trkpt>
      <trkpt lat="44.77133" lon="6.24643">
        <ele>2563.01</ele>
        <time>2013-08-29T09:53:48Z</time>
      </trkpt>
      <trkpt lat="44.77136" lon="6.24645">
        <ele>2563.49</ele>
        <time>2013-08-29T09:54:00Z</time>
      </trkpt>
      <trkpt lat="44.77138" lon="6.2465">
        <ele>2562.53</ele>
        <time>2013-08-29T09:54:08Z</time>
      </trkpt>
      <trkpt lat="44.77146" lon="6.24655">
        <ele>2563.01</ele>
        <time>2013-08-29T09:54:20Z</time>
      </trkpt>
      <trkpt lat="44.77153" lon="6.24655">
        <ele>2563.01</ele>
        <time>2013-08-29T09:54:33Z</time>
      </trkpt>
      <trkpt lat="44.77159" lon="6.24655">
        <ele>2562.05</ele>
        <time>2013-08-29T09:54:44Z</time>
      </trkpt>
      <trkpt lat="44.77167" lon="6.24656">
        <ele>2562.05</ele>
        <time>2013-08-29T09:54:55Z</time>
      </trkpt>
      <trkpt lat="44.77171" lon="6.24655">
        <ele>2563.49</ele>
        <time>2013-08-29T09:55:05Z</time>
      </trkpt>
      <trkpt lat="44.77179" lon="6.24653">
        <ele>2563.01</ele>
        <time>2013-08-29T09:55:15Z</time>
      </trkpt>
      <trkpt lat="44.77179" lon="6.24656">
        <ele>2563.97</ele>
        <time>2013-08-29T09:55:21Z</time>
      </trkpt>
      <trkpt lat="44.77176" lon="6.24662">
        <ele>2565.42</ele>
        <time>2013-08-29T09:55:27Z</time>
      </trkpt>
      <trkpt lat="44.77181" lon="6.24666">
        <ele>2563.01</ele>
        <time>2013-08-29T09:55:38Z</time>
      </trkpt>
      <trkpt lat="44.77181" lon="6.24666">
        <ele>2563.97</ele>
        <time>2013-08-29T09:55:39Z</time>
      </trkpt>
      <trkpt lat="44.77183" lon="6.24666">
        <ele>2563.49</ele>
        <time>2013-08-29T09:55:52Z</time>
      </trkpt>
      <trkpt lat="44.77185" lon="6.24672">
        <ele>2564.93</ele>
        <time>2013-08-29T09:55:59Z</time>
      </trkpt>
      <trkpt lat="44.77188" lon="6.24678">
        <ele>2564.45</ele>
        <time>2013-08-29T09:56:06Z</time>
      </trkpt>
      <trkpt lat="44.77192" lon="6.24682">
        <ele>2563.49</ele>
        <time>2013-08-29T09:56:14Z</time>
      </trkpt>
      <trkpt lat="44.77197" lon="6.24686">
        <ele>2564.93</ele>
        <time>2013-08-29T09:56:28Z</time>
      </trkpt>
      <trkpt lat="44.77199" lon="6.24688">
        <ele>2565.42</ele>
        <time>2013-08-29T09:56:33Z</time>
      </trkpt>
      <trkpt lat="44.77205" lon="6.24691">
        <ele>2565.9</ele>
        <time>2013-08-29T09:56:45Z</time>
      </trkpt>
      <trkpt lat="44.77212" lon="6.24695">
        <ele>2566.38</ele>
        <time>2013-08-29T09:56:57Z</time>
      </trkpt>
      <trkpt lat="44.77218" lon="6.24704">
        <ele>2568.3</ele>
        <time>2013-08-29T09:57:10Z</time>
      </trkpt>
      <trkpt lat="44.77221" lon="6.24709">
        <ele>2567.82</ele>
        <time>2013-08-29T09:57:24Z</time>
      </trkpt>
      <trkpt lat="44.77221" lon="6.2471">
        <ele>2567.34</ele>
        <time>2013-08-29T09:57:28Z</time>
      </trkpt>
      <trkpt lat="44.77221" lon="6.24709">
        <ele>2567.82</ele>
        <time>2013-08-29T09:57:34Z</time>
      </trkpt>
      <trkpt lat="44.77228" lon="6.24716">
        <ele>2566.86</ele>
        <time>2013-08-29T09:57:48Z</time>
      </trkpt>
      <trkpt lat="44.7723" lon="6.2472">
        <ele>2566.86</ele>
        <time>2013-08-29T09:58:00Z</time>
      </trkpt>
      <trkpt lat="44.7723" lon="6.2472">
        <ele>2567.34</ele>
        <time>2013-08-29T09:58:01Z</time>
      </trkpt>
      <trkpt lat="44.77236" lon="6.2473">
        <ele>2565.42</ele>
        <time>2013-08-29T09:58:15Z</time>
      </trkpt>
      <trkpt lat="44.77235" lon="6.2473">
        <ele>2565.9</ele>
        <time>2013-08-29T09:58:46Z</time>
      </trkpt>
      <trkpt lat="44.77235" lon="6.2473">
        <ele>2565.9</ele>
        <time>2013-08-29T09:59:15Z</time>
      </trkpt>
      <trkpt lat="44.77235" lon="6.24729">
        <ele>2566.38</ele>
        <time>2013-08-29T09:59:47Z</time>
      </trkpt>
      <trkpt lat="44.77235" lon="6.24729">
        <ele>2565.9</ele>
        <time>2013-08-29T09:59:53Z</time>
      </trkpt>
      <trkpt lat="44.77235" lon="6.24729">
        <ele>2565.9</ele>
        <time>2013-08-29T10:00:23Z</time>
      </trkpt>
      <trkpt lat="44.77238" lon="6.24734">
        <ele>2565.9</ele>
        <time>2013-08-29T10:00:27Z</time>
      </trkpt>
      <trkpt lat="44.77239" lon="6.24739">
        <ele>2564.45</ele>
        <time>2013-08-29T10:00:30Z</time>
      </trkpt>
      <trkpt lat="44.77239" lon="6.24744">
        <ele>2563.97</ele>
        <time>2013-08-29T10:00:34Z</time>
      </trkpt>
      <trkpt lat="44.77247" lon="6.24754">
        <ele>2563.97</ele>
        <time>2013-08-29T10:00:48Z</time>
      </trkpt>
      <trkpt lat="44.77258" lon="6.24759">
        <ele>2563.97</ele>
        <time>2013-08-29T10:01:00Z</time>
      </trkpt>
      <trkpt lat="44.77261" lon="6.2476">
        <ele>2562.05</ele>
        <time>2013-08-29T10:01:04Z</time>
      </trkpt>
      <trkpt lat="44.77268" lon="6.2476">
        <ele>2563.97</ele>
        <time>2013-08-29T10:01:10Z</time>
      </trkpt>
      <trkpt lat="44.7727" lon="6.24759">
        <ele>2562.53</ele>
        <time>2013-08-29T10:01:12Z</time>
      </trkpt>
      <trkpt lat="44.77275" lon="6.24758">
        <ele>2562.05</ele>
        <time>2013-08-29T10:01:16Z</time>
      </trkpt>
      <trkpt lat="44.77282" lon="6.24754">
        <ele>2562.53</ele>
        <time>2013-08-29T10:01:24Z</time>
      </trkpt>
      <trkpt lat="44.77291" lon="6.24754">
        <ele>2562.53</ele>
        <time>2013-08-29T10:01:34Z</time>
      </trkpt>
      <trkpt lat="44.77296" lon="6.24756">
        <ele>2563.49</ele>
        <time>2013-08-29T10:01:39Z</time>
      </trkpt>
      <trkpt lat="44.77299" lon="6.24756">
        <ele>2563.49</ele>
        <time>2013-08-29T10:01:42Z</time>
      </trkpt>
      <trkpt lat="44.77304" lon="6.24757">
        <ele>2562.53</ele>
        <time>2013-08-29T10:01:48Z</time>
      </trkpt>
      <trkpt lat="44.77314" lon="6.24758">
        <ele>2563.01</ele>
        <time>2013-08-29T10:01:59Z</time>
      </trkpt>
      <trkpt lat="44.77317" lon="6.24757">
        <ele>2563.49</ele>
        <time>2013-08-29T10:02:03Z</time>
      </trkpt>
      <trkpt lat="44.77322" lon="6.24756">
        <ele>2563.97</ele>
        <time>2013-08-29T10:02:09Z</time>
      </trkpt>
      <trkpt lat="44.77333" lon="6.24754">
        <ele>2562.53</ele>
        <time>2013-08-29T10:02:24Z</time>
      </trkpt>
      <trkpt lat="44.77339" lon="6.24753">
        <ele>2561.57</ele>
        <time>2013-08-29T10:02:32Z</time>
      </trkpt>
      <trkpt lat="44.77351" lon="6.24759">
        <ele>2562.05</ele>
        <time>2013-08-29T10:02:45Z</time>
      </trkpt>
      <trkpt lat="44.77359" lon="6.24759">
        <ele>2562.05</ele>
        <time>2013-08-29T10:02:57Z</time>
      </trkpt>
      <trkpt lat="44.77367" lon="6.24761">
        <ele>2562.05</ele>
        <time>2013-08-29T10:03:10Z</time>
      </trkpt>
      <trkpt lat="44.77373" lon="6.24759">
        <ele>2561.09</ele>
        <time>2013-08-29T10:03:22Z</time>
      </trkpt>
      <trkpt lat="44.77374" lon="6.24756">
        <ele>2561.09</ele>
        <time>2013-08-29T10:03:25Z</time>
      </trkpt>
      <trkpt lat="44.77374" lon="6.24755">
        <ele>2563.49</ele>
        <time>2013-08-29T10:03:30Z</time>
      </trkpt>
      <trkpt lat="44.77374" lon="6.24756">
        <ele>2559.65</ele>
        <time>2013-08-29T10:03:32Z</time>
      </trkpt>
      <trkpt lat="44.77374" lon="6.24756">
        <ele>2559.65</ele>
        <time>2013-08-29T10:03:33Z</time>
      </trkpt>
      <trkpt lat="44.77374" lon="6.24756">
        <ele>2561.09</ele>
        <time>2013-08-29T10:04:09Z</time>
      </trkpt>
      <trkpt lat="44.77374" lon="6.24755">
        <ele>2559.65</ele>
        <time>2013-08-29T10:04:28Z</time>
      </trkpt>
      <trkpt lat="44.77376" lon="6.24756">
        <ele>2560.61</ele>
        <time>2013-08-29T10:04:30Z</time>
      </trkpt>
      <trkpt lat="44.77382" lon="6.24762">
        <ele>2561.57</ele>
        <time>2013-08-29T10:04:40Z</time>
      </trkpt>
      <trkpt lat="44.77388" lon="6.24774">
        <ele>2561.57</ele>
        <time>2013-08-29T10:04:52Z</time>
      </trkpt>
      <trkpt lat="44.77397" lon="6.24783">
        <ele>2563.01</ele>
        <time>2013-08-29T10:05:05Z</time>
      </trkpt>
      <trkpt lat="44.774" lon="6.24794">
        <ele>2563.01</ele>
        <time>2013-08-29T10:05:15Z</time>
      </trkpt>
      <trkpt lat="44.774" lon="6.24812">
        <ele>2564.45</ele>
        <time>2013-08-29T10:05:29Z</time>
      </trkpt>
      <trkpt lat="44.77396" lon="6.24827">
        <ele>2564.93</ele>
        <time>2013-08-29T10:05:43Z</time>
      </trkpt>
      <trkpt lat="44.77394" lon="6.24829">
        <ele>2566.38</ele>
        <time>2013-08-29T10:05:46Z</time>
      </trkpt>
      <trkpt lat="44.77393" lon="6.24831">
        <ele>2565.9</ele>
        <time>2013-08-29T10:05:48Z</time>
      </trkpt>
      <trkpt lat="44.77389" lon="6.24839">
        <ele>2565.9</ele>
        <time>2013-08-29T10:05:56Z</time>
      </trkpt>
      <trkpt lat="44.77386" lon="6.24842">
        <ele>2565.9</ele>
        <time>2013-08-29T10:05:59Z</time>
      </trkpt>
      <trkpt lat="44.77384" lon="6.24844">
        <ele>2565.9</ele>
        <time>2013-08-29T10:06:01Z</time>
      </trkpt>
      <trkpt lat="44.77382" lon="6.24847">
        <ele>2566.86</ele>
        <time>2013-08-29T10:06:04Z</time>
      </trkpt>
      <trkpt lat="44.77373" lon="6.24856">
        <ele>2567.34</ele>
        <time>2013-08-29T10:06:16Z</time>
      </trkpt>
      <trkpt lat="44.7737" lon="6.24866">
        <ele>2568.3</ele>
        <time>2013-08-29T10:06:28Z</time>
      </trkpt>
      <trkpt lat="44.7737" lon="6.24869">
        <ele>2568.3</ele>
        <time>2013-08-29T10:06:30Z</time>
      </trkpt>
      <trkpt lat="44.77369" lon="6.24877">
        <ele>2567.34</ele>
        <time>2013-08-29T10:06:35Z</time>
      </trkpt>
      <trkpt lat="44.77365" lon="6.24891">
        <ele>2567.82</ele>
        <time>2013-08-29T10:06:46Z</time>
      </trkpt>
      <trkpt lat="44.77364" lon="6.24895">
        <ele>2566.86</ele>
        <time>2013-08-29T10:06:50Z</time>
      </trkpt>
      <trkpt lat="44.7736" lon="6.24908">
        <ele>2568.3</ele>
        <time>2013-08-29T10:07:00Z</time>
      </trkpt>
      <trkpt lat="44.77359" lon="6.24916">
        <ele>2569.74</ele>
        <time>2013-08-29T10:07:12Z</time>
      </trkpt>
      <trkpt lat="44.77364" lon="6.24921">
        <ele>2573.11</ele>
        <time>2013-08-29T10:07:24Z</time>
      </trkpt>
      <trkpt lat="44.77366" lon="6.24922">
        <ele>2574.55</ele>
        <time>2013-08-29T10:07:36Z</time>
      </trkpt>
      <trkpt lat="44.77371" lon="6.24926">
        <ele>2576.95</ele>
        <time>2013-08-29T10:07:49Z</time>
      </trkpt>
      <trkpt lat="44.77375" lon="6.24926">
        <ele>2577.91</ele>
        <time>2013-08-29T10:08:02Z</time>
      </trkpt>
      <trkpt lat="44.77375" lon="6.24929">
        <ele>2579.35</ele>
        <time>2013-08-29T10:08:06Z</time>
      </trkpt>
      <trkpt lat="44.7738" lon="6.24929">
        <ele>2578.39</ele>
        <time>2013-08-29T10:08:13Z</time>
      </trkpt>
      <trkpt lat="44.77383" lon="6.2493">
        <ele>2580.32</ele>
        <time>2013-08-29T10:08:19Z</time>
      </trkpt>
      <trkpt lat="44.77388" lon="6.24937">
        <ele>2580.8</ele>
        <time>2013-08-29T10:08:32Z</time>
      </trkpt>
      <trkpt lat="44.77391" lon="6.24945">
        <ele>2583.2</ele>
        <time>2013-08-29T10:08:43Z</time>
      </trkpt>
      <trkpt lat="44.77395" lon="6.24949">
        <ele>2584.16</ele>
        <time>2013-08-29T10:08:54Z</time>
      </trkpt>
      <trkpt lat="44.77399" lon="6.24952">
        <ele>2583.2</ele>
        <time>2013-08-29T10:09:05Z</time>
      </trkpt>
      <trkpt lat="44.77399" lon="6.24951">
        <ele>2586.08</ele>
        <time>2013-08-29T10:09:08Z</time>
      </trkpt>
      <trkpt lat="44.77405" lon="6.24953">
        <ele>2588.01</ele>
        <time>2013-08-29T10:09:19Z</time>
      </trkpt>
      <trkpt lat="44.77409" lon="6.24954">
        <ele>2588.97</ele>
        <time>2013-08-29T10:09:31Z</time>
      </trkpt>
      <trkpt lat="44.7741" lon="6.24953">
        <ele>2589.45</ele>
        <time>2013-08-29T10:09:33Z</time>
      </trkpt>
      <trkpt lat="44.77412" lon="6.24953">
        <ele>2588.97</ele>
        <time>2013-08-29T10:09:35Z</time>
      </trkpt>
      <trkpt lat="44.77416" lon="6.24954">
        <ele>2591.37</ele>
        <time>2013-08-29T10:09:45Z</time>
      </trkpt>
      <trkpt lat="44.77415" lon="6.24959">
        <ele>2592.33</ele>
        <time>2013-08-29T10:09:52Z</time>
      </trkpt>
      <trkpt lat="44.77418" lon="6.24965">
        <ele>2593.77</ele>
        <time>2013-08-29T10:10:04Z</time>
      </trkpt>
      <trkpt lat="44.77427" lon="6.24967">
        <ele>2595.7</ele>
        <time>2013-08-29T10:10:18Z</time>
      </trkpt>
      <trkpt lat="44.77429" lon="6.24969">
        <ele>2594.25</ele>
        <time>2013-08-29T10:10:21Z</time>
      </trkpt>
      <trkpt lat="44.77431" lon="6.24971">
        <ele>2596.18</ele>
        <time>2013-08-29T10:10:33Z</time>
      </trkpt>
      <trkpt lat="44.77436" lon="6.24972">
        <ele>2598.1</ele>
        <time>2013-08-29T10:10:45Z</time>
      </trkpt>
      <trkpt lat="44.77441" lon="6.24972">
        <ele>2599.06</ele>
        <time>2013-08-29T10:10:56Z</time>
      </trkpt>
      <trkpt lat="44.77447" lon="6.24967">
        <ele>2599.54</ele>
        <time>2013-08-29T10:11:07Z</time>
      </trkpt>
      <trkpt lat="44.77453" lon="6.24963">
        <ele>2600.5</ele>
        <time>2013-08-29T10:11:17Z</time>
      </trkpt>
      <trkpt lat="44.77461" lon="6.24965">
        <ele>2602.43</ele>
        <time>2013-08-29T10:11:29Z</time>
      </trkpt>
      <trkpt lat="44.77468" lon="6.24964">
        <ele>2603.87</ele>
        <time>2013-08-29T10:11:41Z</time>
      </trkpt>
      <trkpt lat="44.77471" lon="6.24965">
        <ele>2605.31</ele>
        <time>2013-08-29T10:11:47Z</time>
      </trkpt>
      <trkpt lat="44.77473" lon="6.24962">
        <ele>2606.75</ele>
        <time>2013-08-29T10:11:55Z</time>
      </trkpt>
      <trkpt lat="44.77479" lon="6.24967">
        <ele>2608.19</ele>
        <time>2013-08-29T10:12:08Z</time>
      </trkpt>
      <trkpt lat="44.77484" lon="6.24971">
        <ele>2609.16</ele>
        <time>2013-08-29T10:12:23Z</time>
      </trkpt>
      <trkpt lat="44.77487" lon="6.24968">
        <ele>2612.04</ele>
        <time>2013-08-29T10:12:36Z</time>
      </trkpt>
      <trkpt lat="44.77491" lon="6.24967">
        <ele>2613.96</ele>
        <time>2013-08-29T10:12:49Z</time>
      </trkpt>
      <trkpt lat="44.77496" lon="6.24968">
        <ele>2616.85</ele>
        <time>2013-08-29T10:12:59Z</time>
      </trkpt>
      <trkpt lat="44.77498" lon="6.24971">
        <ele>2616.37</ele>
        <time>2013-08-29T10:13:05Z</time>
      </trkpt>
      <trkpt lat="44.77504" lon="6.24972">
        <ele>2617.33</ele>
        <time>2013-08-29T10:13:15Z</time>
      </trkpt>
      <trkpt lat="44.77504" lon="6.24972">
        <ele>2617.81</ele>
        <time>2013-08-29T10:13:36Z</time>
      </trkpt>
      <trkpt lat="44.77502" lon="6.2497">
        <ele>2618.29</ele>
        <time>2013-08-29T10:13:54Z</time>
      </trkpt>
      <trkpt lat="44.77502" lon="6.2497">
        <ele>2618.29</ele>
        <time>2013-08-29T10:14:25Z</time>
      </trkpt>
      <trkpt lat="44.77502" lon="6.2497">
        <ele>2617.81</ele>
        <time>2013-08-29T10:14:27Z</time>
      </trkpt>
      <trkpt lat="44.77503" lon="6.24969">
        <ele>2617.33</ele>
        <time>2013-08-29T10:14:42Z</time>
      </trkpt>
      <trkpt lat="44.77503" lon="6.2497">
        <ele>2616.85</ele>
        <time>2013-08-29T10:15:01Z</time>
      </trkpt>
      <trkpt lat="44.77503" lon="6.2497">
        <ele>2617.81</ele>
        <time>2013-08-29T10:15:18Z</time>
      </trkpt>
      <trkpt lat="44.77503" lon="6.2497">
        <ele>2617.81</ele>
        <time>2013-08-29T10:16:00Z</time>
      </trkpt>
      <trkpt lat="44.77504" lon="6.24969">
        <ele>2618.77</ele>
        <time>2013-08-29T10:16:14Z</time>
      </trkpt>
      <trkpt lat="44.77504" lon="6.24969">
        <ele>2617.33</ele>
        <time>2013-08-29T10:16:16Z</time>
      </trkpt>
      <trkpt lat="44.77505" lon="6.24967">
        <ele>2619.73</ele>
        <time>2013-08-29T10:16:32Z</time>
      </trkpt>
      <trkpt lat="44.77506" lon="6.24959">
        <ele>2619.73</ele>
        <time>2013-08-29T10:16:41Z</time>
      </trkpt>
      <trkpt lat="44.77505" lon="6.2495">
        <ele>2623.09</ele>
        <time>2013-08-29T10:16:52Z</time>
      </trkpt>
      <trkpt lat="44.77504" lon="6.24944">
        <ele>2625.02</ele>
        <time>2013-08-29T10:17:05Z</time>
      </trkpt>
      <trkpt lat="44.77507" lon="6.24939">
        <ele>2627.42</ele>
        <time>2013-08-29T10:17:12Z</time>
      </trkpt>
      <trkpt lat="44.77514" lon="6.24935">
        <ele>2628.38</ele>
        <time>2013-08-29T10:17:23Z</time>
      </trkpt>
      <trkpt lat="44.77514" lon="6.24934">
        <ele>2629.34</ele>
        <time>2013-08-29T10:17:43Z</time>
      </trkpt>
      <trkpt lat="44.77514" lon="6.24934">
        <ele>2628.86</ele>
        <time>2013-08-29T10:17:51Z</time>
      </trkpt>
      <trkpt lat="44.77514" lon="6.24936">
        <ele>2627.9</ele>
        <time>2013-08-29T10:18:02Z</time>
      </trkpt>
      <trkpt lat="44.77514" lon="6.24936">
        <ele>2627.9</ele>
        <time>2013-08-29T10:18:03Z</time>
      </trkpt>
      <trkpt lat="44.77514" lon="6.24936">
        <ele>2627.42</ele>
        <time>2013-08-29T10:19:35Z</time>
      </trkpt>
      <trkpt lat="44.77514" lon="6.24936">
        <ele>2633.67</ele>
        <time>2013-08-29T10:21:29Z</time>
      </trkpt>
      <trkpt lat="44.77514" lon="6.24936">
        <ele>2628.38</ele>
        <time>2013-08-29T10:21:30Z</time>
      </trkpt>
      <trkpt lat="44.77514" lon="6.24936">
        <ele>2624.54</ele>
        <time>2013-08-29T10:21:33Z</time>
      </trkpt>
      <trkpt lat="44.77514" lon="6.24936">
        <ele>2627.9</ele>
        <time>2013-08-29T10:21:34Z</time>
      </trkpt>
      <trkpt lat="44.77514" lon="6.24936">
        <ele>2634.63</ele>
        <time>2013-08-29T10:21:37Z</time>
      </trkpt>
      <trkpt lat="44.77514" lon="6.24936">
        <ele>2633.19</ele>
        <time>2013-08-29T10:21:38Z</time>
      </trkpt>
      <trkpt lat="44.77514" lon="6.24936">
        <ele>2628.86</ele>
        <time>2013-08-29T10:21:39Z</time>
      </trkpt>
      <trkpt lat="44.77514" lon="6.24936">
        <ele>2627.9</ele>
        <time>2013-08-29T10:21:58Z</time>
      </trkpt>
      <trkpt lat="44.77514" lon="6.24936">
        <ele>2628.38</ele>
        <time>2013-08-29T10:22:13Z</time>
      </trkpt>
      <trkpt lat="44.77515" lon="6.24936">
        <ele>2628.38</ele>
        <time>2013-08-29T10:23:38Z</time>
      </trkpt>
      <trkpt lat="44.77515" lon="6.24935">
        <ele>2628.38</ele>
        <time>2013-08-29T10:24:34Z</time>
      </trkpt>
      <trkpt lat="44.77514" lon="6.24936">
        <ele>2629.82</ele>
        <time>2013-08-29T10:24:50Z</time>
      </trkpt>
      <trkpt lat="44.77514" lon="6.24937">
        <ele>2629.34</ele>
        <time>2013-08-29T10:25:08Z</time>
      </trkpt>
      <trkpt lat="44.77515" lon="6.24936">
        <ele>2629.34</ele>
        <time>2013-08-29T10:25:37Z</time>
      </trkpt>
      <trkpt lat="44.77514" lon="6.24936">
        <ele>2627.9</ele>
        <time>2013-08-29T10:26:10Z</time>
      </trkpt>
      <trkpt lat="44.77514" lon="6.24936">
        <ele>2628.38</ele>
        <time>2013-08-29T10:26:25Z</time>
      </trkpt>
      <trkpt lat="44.7751" lon="6.24936">
        <ele>2626.46</ele>
        <time>2013-08-29T10:26:35Z</time>
      </trkpt>
      <trkpt lat="44.77507" lon="6.24938">
        <ele>2625.5</ele>
        <time>2013-08-29T10:26:47Z</time>
      </trkpt>
      <trkpt lat="44.77506" lon="6.24941">
        <ele>2624.06</ele>
        <time>2013-08-29T10:26:54Z</time>
      </trkpt>
      <trkpt lat="44.77506" lon="6.24948">
        <ele>2622.13</ele>
        <time>2013-08-29T10:27:06Z</time>
      </trkpt>
      <trkpt lat="44.77507" lon="6.24961">
        <ele>2620.21</ele>
        <time>2013-08-29T10:27:19Z</time>
      </trkpt>
      <trkpt lat="44.77507" lon="6.24966">
        <ele>2618.29</ele>
        <time>2013-08-29T10:27:30Z</time>
      </trkpt>
      <trkpt lat="44.77505" lon="6.2497">
        <ele>2617.81</ele>
        <time>2013-08-29T10:27:44Z</time>
      </trkpt>
      <trkpt lat="44.77504" lon="6.24972">
        <ele>2616.37</ele>
        <time>2013-08-29T10:27:50Z</time>
      </trkpt>
      <trkpt lat="44.77498" lon="6.24975">
        <ele>2615.4</ele>
        <time>2013-08-29T10:28:01Z</time>
      </trkpt>
      <trkpt lat="44.77494" lon="6.2497">
        <ele>2613.48</ele>
        <time>2013-08-29T10:28:13Z</time>
      </trkpt>
      <trkpt lat="44.77492" lon="6.2497">
        <ele>2612.52</ele>
        <time>2013-08-29T10:28:17Z</time>
      </trkpt>
      <trkpt lat="44.7749" lon="6.24971">
        <ele>2611.56</ele>
        <time>2013-08-29T10:28:35Z</time>
      </trkpt>
      <trkpt lat="44.77486" lon="6.24976">
        <ele>2609.64</ele>
        <time>2013-08-29T10:28:47Z</time>
      </trkpt>
      <trkpt lat="44.77485" lon="6.24975">
        <ele>2608.19</ele>
        <time>2013-08-29T10:28:49Z</time>
      </trkpt>
      <trkpt lat="44.77479" lon="6.24969">
        <ele>2606.27</ele>
        <time>2013-08-29T10:29:01Z</time>
      </trkpt>
      <trkpt lat="44.77475" lon="6.24965">
        <ele>2605.79</ele>
        <time>2013-08-29T10:29:12Z</time>
      </trkpt>
      <trkpt lat="44.77471" lon="6.2496">
        <ele>2605.31</ele>
        <time>2013-08-29T10:29:22Z</time>
      </trkpt>
      <trkpt lat="44.77467" lon="6.24958">
        <ele>2601.95</ele>
        <time>2013-08-29T10:29:33Z</time>
      </trkpt>
      <trkpt lat="44.7746" lon="6.24958">
        <ele>2600.5</ele>
        <time>2013-08-29T10:29:45Z</time>
      </trkpt>
      <trkpt lat="44.77458" lon="6.24958">
        <ele>2598.58</ele>
        <time>2013-08-29T10:29:58Z</time>
      </trkpt>
      <trkpt lat="44.77457" lon="6.24956">
        <ele>2596.66</ele>
        <time>2013-08-29T10:30:10Z</time>
      </trkpt>
      <trkpt lat="44.77451" lon="6.24947">
        <ele>2593.77</ele>
        <time>2013-08-29T10:30:22Z</time>
      </trkpt>
      <trkpt lat="44.77446" lon="6.24943">
        <ele>2592.33</ele>
        <time>2013-08-29T10:30:28Z</time>
      </trkpt>
      <trkpt lat="44.77436" lon="6.24936">
        <ele>2589.93</ele>
        <time>2013-08-29T10:30:39Z</time>
      </trkpt>
      <trkpt lat="44.77435" lon="6.24935">
        <ele>2589.93</ele>
        <time>2013-08-29T10:30:40Z</time>
      </trkpt>
      <trkpt lat="44.77427" lon="6.24934">
        <ele>2588.01</ele>
        <time>2013-08-29T10:30:51Z</time>
      </trkpt>
      <trkpt lat="44.77423" lon="6.24929">
        <ele>2586.56</ele>
        <time>2013-08-29T10:31:01Z</time>
      </trkpt>
      <trkpt lat="44.77418" lon="6.24929">
        <ele>2583.2</ele>
        <time>2013-08-29T10:31:11Z</time>
      </trkpt>
      <trkpt lat="44.77417" lon="6.24929">
        <ele>2583.2</ele>
        <time>2013-08-29T10:31:12Z</time>
      </trkpt>
      <trkpt lat="44.77417" lon="6.24929">
        <ele>2583.68</ele>
        <time>2013-08-29T10:31:13Z</time>
      </trkpt>
      <trkpt lat="44.77413" lon="6.24924">
        <ele>2581.28</ele>
        <time>2013-08-29T10:31:21Z</time>
      </trkpt>
      <trkpt lat="44.77408" lon="6.24919">
        <ele>2579.35</ele>
        <time>2013-08-29T10:31:32Z</time>
      </trkpt>
      <trkpt lat="44.77404" lon="6.24914">
        <ele>2578.39</ele>
        <time>2013-08-29T10:31:43Z</time>
      </trkpt>
      <trkpt lat="44.77399" lon="6.24903">
        <ele>2576.47</ele>
        <time>2013-08-29T10:31:54Z</time>
      </trkpt>
      <trkpt lat="44.77398" lon="6.24901">
        <ele>2574.55</ele>
        <time>2013-08-29T10:32:04Z</time>
      </trkpt>
      <trkpt lat="44.77399" lon="6.24899">
        <ele>2575.03</ele>
        <time>2013-08-29T10:32:15Z</time>
      </trkpt>
      <trkpt lat="44.77398" lon="6.24899">
        <ele>2573.59</ele>
        <time>2013-08-29T10:32:21Z</time>
      </trkpt>
      <trkpt lat="44.77396" lon="6.24895">
        <ele>2573.11</ele>
        <time>2013-08-29T10:32:24Z</time>
      </trkpt>
      <trkpt lat="44.77396" lon="6.24891">
        <ele>2571.66</ele>
        <time>2013-08-29T10:32:26Z</time>
      </trkpt>
      <trkpt lat="44.77393" lon="6.24882">
        <ele>2571.66</ele>
        <time>2013-08-29T10:32:37Z</time>
      </trkpt>
      <trkpt lat="44.77393" lon="6.24882">
        <ele>2570.7</ele>
        <time>2013-08-29T10:32:40Z</time>
      </trkpt>
      <trkpt lat="44.77392" lon="6.24878">
        <ele>2571.18</ele>
        <time>2013-08-29T10:32:52Z</time>
      </trkpt>
      <trkpt lat="44.77391" lon="6.24876">
        <ele>2569.74</ele>
        <time>2013-08-29T10:33:08Z</time>
      </trkpt>
      <trkpt lat="44.77391" lon="6.24876">
        <ele>2569.26</ele>
        <time>2013-08-29T10:33:25Z</time>
      </trkpt>
      <trkpt lat="44.77391" lon="6.2487">
        <ele>2567.34</ele>
        <time>2013-08-29T10:33:43Z</time>
      </trkpt>
      <trkpt lat="44.77389" lon="6.24863">
        <ele>2566.86</ele>
        <time>2013-08-29T10:33:55Z</time>
      </trkpt>
      <trkpt lat="44.7739" lon="6.24861">
        <ele>2566.86</ele>
        <time>2013-08-29T10:34:16Z</time>
      </trkpt>
      <trkpt lat="44.77388" lon="6.2486">
        <ele>2566.86</ele>
        <time>2013-08-29T10:34:58Z</time>
      </trkpt>
      <trkpt lat="44.77388" lon="6.24859">
        <ele>2566.86</ele>
        <time>2013-08-29T10:35:18Z</time>
      </trkpt>
      <trkpt lat="44.77388" lon="6.2486">
        <ele>2566.38</ele>
        <time>2013-08-29T10:35:35Z</time>
      </trkpt>
      <trkpt lat="44.77388" lon="6.2486">
        <ele>2565.9</ele>
        <time>2013-08-29T10:35:55Z</time>
      </trkpt>
      <trkpt lat="44.77387" lon="6.2486">
        <ele>2565.9</ele>
        <time>2013-08-29T10:36:37Z</time>
      </trkpt>
      <trkpt lat="44.77387" lon="6.2486">
        <ele>2565.9</ele>
        <time>2013-08-29T10:37:13Z</time>
      </trkpt>
      <trkpt lat="44.77387" lon="6.24862">
        <ele>2566.86</ele>
        <time>2013-08-29T10:38:37Z</time>
      </trkpt>
      <trkpt lat="44.77387" lon="6.24862">
        <ele>2565.9</ele>
        <time>2013-08-29T10:38:39Z</time>
      </trkpt>
      <trkpt lat="44.77387" lon="6.24863">
        <ele>2566.86</ele>
        <time>2013-08-29T10:39:35Z</time>
      </trkpt>
      <trkpt lat="44.77386" lon="6.24861">
        <ele>2564.93</ele>
        <time>2013-08-29T10:44:46Z</time>
      </trkpt>
      <trkpt lat="44.77386" lon="6.24861">
        <ele>2564.93</ele>
        <time>2013-08-29T10:47:21Z</time>
      </trkpt>
      <trkpt lat="44.77386" lon="6.24861">
        <ele>2565.42</ele>
        <time>2013-08-29T10:47:38Z</time>
      </trkpt>
      <trkpt lat="44.77386" lon="6.24859">
        <ele>2564.45</ele>
        <time>2013-08-29T10:51:45Z</time>
      </trkpt>
      <trkpt lat="44.77386" lon="6.24859">
        <ele>2564.45</ele>
        <time>2013-08-29T10:51:58Z</time>
      </trkpt>
      <trkpt lat="44.77386" lon="6.24859">
        <ele>2565.9</ele>
        <time>2013-08-29T10:52:00Z</time>
      </trkpt>
      <trkpt lat="44.77386" lon="6.24859">
        <ele>2564.93</ele>
        <time>2013-08-29T10:52:43Z</time>
      </trkpt>
      <trkpt lat="44.77386" lon="6.24859">
        <ele>2566.38</ele>
        <time>2013-08-29T10:53:08Z</time>
      </trkpt>
      <trkpt lat="44.77386" lon="6.2486">
        <ele>2566.38</ele>
        <time>2013-08-29T10:55:04Z</time>
      </trkpt>
      <trkpt lat="44.77386" lon="6.2486">
        <ele>2565.9</ele>
        <time>2013-08-29T10:55:33Z</time>
      </trkpt>
      <trkpt lat="44.77386" lon="6.24859">
        <ele>2565.9</ele>
        <time>2013-08-29T10:57:07Z</time>
      </trkpt>
      <trkpt lat="44.77387" lon="6.24859">
        <ele>2565.9</ele>
        <time>2013-08-29T10:58:19Z</time>
      </trkpt>
      <trkpt lat="44.77387" lon="6.24858">
        <ele>2565.9</ele>
        <time>2013-08-29T10:58:50Z</time>
      </trkpt>
      <trkpt lat="44.77387" lon="6.24858">
        <ele>2566.38</ele>
        <time>2013-08-29T10:59:09Z</time>
      </trkpt>
      <trkpt lat="44.77387" lon="6.24858">
        <ele>2564.93</ele>
        <time>2013-08-29T10:59:32Z</time>
      </trkpt>
      <trkpt lat="44.77387" lon="6.24858">
        <ele>2566.38</ele>
        <time>2013-08-29T10:59:33Z</time>
      </trkpt>
      <trkpt lat="44.77387" lon="6.24858">
        <ele>2566.38</ele>
        <time>2013-08-29T11:00:52Z</time>
      </trkpt>
      <trkpt lat="44.77387" lon="6.24858">
        <ele>2564.93</ele>
        <time>2013-08-29T11:01:20Z</time>
      </trkpt>
      <trkpt lat="44.77387" lon="6.24858">
        <ele>2564.93</ele>
        <time>2013-08-29T11:01:34Z</time>
      </trkpt>
      <trkpt lat="44.77387" lon="6.24858">
        <ele>2566.38</ele>
        <time>2013-08-29T11:01:36Z</time>
      </trkpt>
      <trkpt lat="44.77368" lon="6.2485">
        <ele>2565.42</ele>
        <time>2013-08-29T11:03:09Z</time>
      </trkpt>
      <trkpt lat="44.77355" lon="6.24851">
        <ele>2564.45</ele>
        <time>2013-08-29T11:03:27Z</time>
      </trkpt>
      <trkpt lat="44.7735" lon="6.24851">
        <ele>2563.49</ele>
        <time>2013-08-29T11:04:12Z</time>
      </trkpt>
      <trkpt lat="44.77344" lon="6.24852">
        <ele>2565.42</ele>
        <time>2013-08-29T11:04:31Z</time>
      </trkpt>
      <trkpt lat="44.77344" lon="6.24852">
        <ele>2565.9</ele>
        <time>2013-08-29T11:04:36Z</time>
      </trkpt>
      <trkpt lat="44.77344" lon="6.24852">
        <ele>2565.42</ele>
        <time>2013-08-29T11:05:06Z</time>
      </trkpt>
      <trkpt lat="44.77343" lon="6.24851">
        <ele>2565.9</ele>
        <time>2013-08-29T11:05:59Z</time>
      </trkpt>
      <trkpt lat="44.77344" lon="6.24851">
        <ele>2564.45</ele>
        <time>2013-08-29T11:07:00Z</time>
      </trkpt>
      <trkpt lat="44.77344" lon="6.24851">
        <ele>2563.97</ele>
        <time>2013-08-29T11:07:03Z</time>
      </trkpt>
      <trkpt lat="44.77344" lon="6.24851">
        <ele>2565.42</ele>
        <time>2013-08-29T11:07:04Z</time>
      </trkpt>
      <trkpt lat="44.77344" lon="6.24852">
        <ele>2566.38</ele>
        <time>2013-08-29T11:07:21Z</time>
      </trkpt>
      <trkpt lat="44.77344" lon="6.24852">
        <ele>2565.9</ele>
        <time>2013-08-29T11:07:52Z</time>
      </trkpt>
      <trkpt lat="44.77344" lon="6.24852">
        <ele>2563.97</ele>
        <time>2013-08-29T11:08:27Z</time>
      </trkpt>
      <trkpt lat="44.77343" lon="6.24852">
        <ele>2563.01</ele>
        <time>2013-08-29T11:08:30Z</time>
      </trkpt>
      <trkpt lat="44.77343" lon="6.24852">
        <ele>2564.93</ele>
        <time>2013-08-29T11:09:02Z</time>
      </trkpt>
      <trkpt lat="44.77343" lon="6.24852">
        <ele>2564.93</ele>
        <time>2013-08-29T11:09:33Z</time>
      </trkpt>
      <trkpt lat="44.77343" lon="6.24852">
        <ele>2565.9</ele>
        <time>2013-08-29T11:09:41Z</time>
      </trkpt>
      <trkpt lat="44.77343" lon="6.24852">
        <ele>2563.97</ele>
        <time>2013-08-29T11:09:42Z</time>
      </trkpt>
      <trkpt lat="44.77342" lon="6.24851">
        <ele>2565.42</ele>
        <time>2013-08-29T11:10:45Z</time>
      </trkpt>
      <trkpt lat="44.77342" lon="6.24851">
        <ele>2565.42</ele>
        <time>2013-08-29T11:10:48Z</time>
      </trkpt>
      <trkpt lat="44.77343" lon="6.24852">
        <ele>2563.49</ele>
        <time>2013-08-29T11:11:47Z</time>
      </trkpt>
      <trkpt lat="44.77343" lon="6.24853">
        <ele>2565.9</ele>
        <time>2013-08-29T11:12:48Z</time>
      </trkpt>
      <trkpt lat="44.77344" lon="6.24853">
        <ele>2565.42</ele>
        <time>2013-08-29T11:13:26Z</time>
      </trkpt>
      <trkpt lat="44.77344" lon="6.24853">
        <ele>2563.97</ele>
        <time>2013-08-29T11:13:28Z</time>
      </trkpt>
      <trkpt lat="44.77344" lon="6.24853">
        <ele>2563.97</ele>
        <time>2013-08-29T11:13:36Z</time>
      </trkpt>
      <trkpt lat="44.77344" lon="6.24853">
        <ele>2563.97</ele>
        <time>2013-08-29T11:13:46Z</time>
      </trkpt>
      <trkpt lat="44.77345" lon="6.24854">
        <ele>2563.49</ele>
        <time>2013-08-29T11:13:53Z</time>
      </trkpt>
      <trkpt lat="44.77345" lon="6.24854">
        <ele>2564.93</ele>
        <time>2013-08-29T11:14:07Z</time>
      </trkpt>
      <trkpt lat="44.77345" lon="6.24854">
        <ele>2563.97</ele>
        <time>2013-08-29T11:14:12Z</time>
      </trkpt>
      <trkpt lat="44.77345" lon="6.24854">
        <ele>2565.42</ele>
        <time>2013-08-29T11:14:14Z</time>
      </trkpt>
      <trkpt lat="44.77345" lon="6.24854">
        <ele>2565.42</ele>
        <time>2013-08-29T11:14:17Z</time>
      </trkpt>
      <trkpt lat="44.77351" lon="6.24854">
        <ele>2564.93</ele>
        <time>2013-08-29T11:14:32Z</time>
      </trkpt>
      <trkpt lat="44.77351" lon="6.24854">
        <ele>2565.9</ele>
        <time>2013-08-29T11:14:38Z</time>
      </trkpt>
      <trkpt lat="44.77354" lon="6.24854">
        <ele>2564.93</ele>
        <time>2013-08-29T11:15:14Z</time>
      </trkpt>
      <trkpt lat="44.77354" lon="6.24856">
        <ele>2565.42</ele>
        <time>2013-08-29T11:16:58Z</time>
      </trkpt>
      <trkpt lat="44.77354" lon="6.24856">
        <ele>2563.97</ele>
        <time>2013-08-29T11:17:12Z</time>
      </trkpt>
      <trkpt lat="44.77354" lon="6.24856">
        <ele>2563.97</ele>
        <time>2013-08-29T11:17:31Z</time>
      </trkpt>
      <trkpt lat="44.77354" lon="6.24856">
        <ele>2564.93</ele>
        <time>2013-08-29T11:17:36Z</time>
      </trkpt>
      <trkpt lat="44.77355" lon="6.24856">
        <ele>2563.97</ele>
        <time>2013-08-29T11:17:50Z</time>
      </trkpt>
      <trkpt lat="44.77355" lon="6.24856">
        <ele>2563.97</ele>
        <time>2013-08-29T11:18:09Z</time>
      </trkpt>
      <trkpt lat="44.77355" lon="6.24859">
        <ele>2565.42</ele>
        <time>2013-08-29T11:18:41Z</time>
      </trkpt>
      <trkpt lat="44.77355" lon="6.24859">
        <ele>2563.97</ele>
        <time>2013-08-29T11:18:42Z</time>
      </trkpt>
      <trkpt lat="44.77355" lon="6.24859">
        <ele>2565.42</ele>
        <time>2013-08-29T11:19:09Z</time>
      </trkpt>
      <trkpt lat="44.77354" lon="6.2486">
        <ele>2563.97</ele>
        <time>2013-08-29T11:19:10Z</time>
      </trkpt>
      <trkpt lat="44.77354" lon="6.2486">
        <ele>2565.42</ele>
        <time>2013-08-29T11:19:27Z</time>
      </trkpt>
      <trkpt lat="44.77355" lon="6.24861">
        <ele>2564.45</ele>
        <time>2013-08-29T11:19:58Z</time>
      </trkpt>
      <trkpt lat="44.77355" lon="6.24861">
        <ele>2563.97</ele>
        <time>2013-08-29T11:20:12Z</time>
      </trkpt>
      <trkpt lat="44.77355" lon="6.24861">
        <ele>2563.49</ele>
        <time>2013-08-29T11:20:18Z</time>
      </trkpt>
      <trkpt lat="44.77355" lon="6.24861">
        <ele>2563.97</ele>
        <time>2013-08-29T11:20:21Z</time>
      </trkpt>
      <trkpt lat="44.77355" lon="6.24862">
        <ele>2566.38</ele>
        <time>2013-08-29T11:20:26Z</time>
      </trkpt>
      <trkpt lat="44.77355" lon="6.24862">
        <ele>2564.93</ele>
        <time>2013-08-29T11:20:27Z</time>
      </trkpt>
      <trkpt lat="44.77355" lon="6.24862">
        <ele>2565.42</ele>
        <time>2013-08-29T11:20:38Z</time>
      </trkpt>
      <trkpt lat="44.77355" lon="6.24862">
        <ele>2566.38</ele>
        <time>2013-08-29T11:20:51Z</time>
      </trkpt>
      <trkpt lat="44.77355" lon="6.24862">
        <ele>2563.97</ele>
        <time>2013-08-29T11:20:57Z</time>
      </trkpt>
      <trkpt lat="44.77355" lon="6.24862">
        <ele>2565.9</ele>
        <time>2013-08-29T11:21:17Z</time>
      </trkpt>
      <trkpt lat="44.77355" lon="6.24862">
        <ele>2563.97</ele>
        <time>2013-08-29T11:21:25Z</time>
      </trkpt>
      <trkpt lat="44.77355" lon="6.24862">
        <ele>2565.9</ele>
        <time>2013-08-29T11:21:33Z</time>
      </trkpt>
      <trkpt lat="44.77355" lon="6.24862">
        <ele>2563.49</ele>
        <time>2013-08-29T11:21:39Z</time>
      </trkpt>
      <trkpt lat="44.77355" lon="6.24862">
        <ele>2564.93</ele>
        <time>2013-08-29T11:21:40Z</time>
      </trkpt>
      <trkpt lat="44.77355" lon="6.24863">
        <ele>2565.9</ele>
        <time>2013-08-29T11:22:12Z</time>
      </trkpt>
      <trkpt lat="44.77355" lon="6.24871">
        <ele>2563.49</ele>
        <time>2013-08-29T11:22:21Z</time>
      </trkpt>
      <trkpt lat="44.77358" lon="6.24871">
        <ele>2565.42</ele>
        <time>2013-08-29T11:22:30Z</time>
      </trkpt>
      <trkpt lat="44.77361" lon="6.24871">
        <ele>2565.42</ele>
        <time>2013-08-29T11:22:40Z</time>
      </trkpt>
      <trkpt lat="44.77362" lon="6.24869">
        <ele>2563.49</ele>
        <time>2013-08-29T11:22:51Z</time>
      </trkpt>
      <trkpt lat="44.77363" lon="6.24869">
        <ele>2565.9</ele>
        <time>2013-08-29T11:22:55Z</time>
      </trkpt>
      <trkpt lat="44.77362" lon="6.24869">
        <ele>2563.01</ele>
        <time>2013-08-29T11:23:07Z</time>
      </trkpt>
      <trkpt lat="44.77362" lon="6.24868">
        <ele>2563.01</ele>
        <time>2013-08-29T11:23:21Z</time>
      </trkpt>
      <trkpt lat="44.77362" lon="6.24866">
        <ele>2564.93</ele>
        <time>2013-08-29T11:23:27Z</time>
      </trkpt>
      <trkpt lat="44.77362" lon="6.24868">
        <ele>2565.9</ele>
        <time>2013-08-29T11:23:30Z</time>
      </trkpt>
      <trkpt lat="44.77363" lon="6.24873">
        <ele>2563.49</ele>
        <time>2013-08-29T11:23:38Z</time>
      </trkpt>
      <trkpt lat="44.77362" lon="6.24873">
        <ele>2564.93</ele>
        <time>2013-08-29T11:23:39Z</time>
      </trkpt>
      <trkpt lat="44.77365" lon="6.24862">
        <ele>2564.45</ele>
        <time>2013-08-29T11:23:47Z</time>
      </trkpt>
      <trkpt lat="44.77368" lon="6.24857">
        <ele>2565.42</ele>
        <time>2013-08-29T11:24:00Z</time>
      </trkpt>
      <trkpt lat="44.77362" lon="6.24862">
        <ele>2563.97</ele>
        <time>2013-08-29T11:24:17Z</time>
      </trkpt>
      <trkpt lat="44.77365" lon="6.24859">
        <ele>2563.97</ele>
        <time>2013-08-29T11:24:30Z</time>
      </trkpt>
      <trkpt lat="44.7737" lon="6.24853">
        <ele>2563.49</ele>
        <time>2013-08-29T11:24:47Z</time>
      </trkpt>
      <trkpt lat="44.77375" lon="6.24852">
        <ele>2562.53</ele>
        <time>2013-08-29T11:24:56Z</time>
      </trkpt>
      <trkpt lat="44.77376" lon="6.24853">
        <ele>2563.97</ele>
        <time>2013-08-29T11:24:57Z</time>
      </trkpt>
      <trkpt lat="44.77379" lon="6.24848">
        <ele>2562.53</ele>
        <time>2013-08-29T11:25:05Z</time>
      </trkpt>
      <trkpt lat="44.77383" lon="6.24844">
        <ele>2562.05</ele>
        <time>2013-08-29T11:25:11Z</time>
      </trkpt>
      <trkpt lat="44.77392" lon="6.24833">
        <ele>2562.53</ele>
        <time>2013-08-29T11:25:23Z</time>
      </trkpt>
      <trkpt lat="44.77394" lon="6.2482">
        <ele>2563.49</ele>
        <time>2013-08-29T11:25:34Z</time>
      </trkpt>
      <trkpt lat="44.77393" lon="6.24819">
        <ele>2561.09</ele>
        <time>2013-08-29T11:25:36Z</time>
      </trkpt>
      <trkpt lat="44.77394" lon="6.24814">
        <ele>2560.61</ele>
        <time>2013-08-29T11:25:45Z</time>
      </trkpt>
      <trkpt lat="44.77395" lon="6.24812">
        <ele>2561.57</ele>
        <time>2013-08-29T11:25:47Z</time>
      </trkpt>
      <trkpt lat="44.77396" lon="6.24806">
        <ele>2561.57</ele>
        <time>2013-08-29T11:25:53Z</time>
      </trkpt>
      <trkpt lat="44.77398" lon="6.24794">
        <ele>2561.09</ele>
        <time>2013-08-29T11:26:04Z</time>
      </trkpt>
      <trkpt lat="44.77395" lon="6.24785">
        <ele>2560.13</ele>
        <time>2013-08-29T11:26:15Z</time>
      </trkpt>
      <trkpt lat="44.77393" lon="6.24781">
        <ele>2560.13</ele>
        <time>2013-08-29T11:26:19Z</time>
      </trkpt>
      <trkpt lat="44.77391" lon="6.24777">
        <ele>2559.65</ele>
        <time>2013-08-29T11:26:24Z</time>
      </trkpt>
      <trkpt lat="44.77389" lon="6.24773">
        <ele>2559.65</ele>
        <time>2013-08-29T11:26:29Z</time>
      </trkpt>
      <trkpt lat="44.77382" lon="6.24766">
        <ele>2559.65</ele>
        <time>2013-08-29T11:26:38Z</time>
      </trkpt>
      <trkpt lat="44.7738" lon="6.24762">
        <ele>2557.73</ele>
        <time>2013-08-29T11:26:41Z</time>
      </trkpt>
      <trkpt lat="44.77372" lon="6.24752">
        <ele>2558.69</ele>
        <time>2013-08-29T11:26:53Z</time>
      </trkpt>
      <trkpt lat="44.77365" lon="6.2476">
        <ele>2558.69</ele>
        <time>2013-08-29T11:27:05Z</time>
      </trkpt>
      <trkpt lat="44.77355" lon="6.24763">
        <ele>2559.65</ele>
        <time>2013-08-29T11:27:19Z</time>
      </trkpt>
      <trkpt lat="44.7735" lon="6.24759">
        <ele>2560.13</ele>
        <time>2013-08-29T11:27:27Z</time>
      </trkpt>
      <trkpt lat="44.77342" lon="6.24753">
        <ele>2559.65</ele>
        <time>2013-08-29T11:27:40Z</time>
      </trkpt>
      <trkpt lat="44.77333" lon="6.24749">
        <ele>2561.09</ele>
        <time>2013-08-29T11:27:51Z</time>
      </trkpt>
      <trkpt lat="44.7733" lon="6.24746">
        <ele>2560.61</ele>
        <time>2013-08-29T11:27:57Z</time>
      </trkpt>
      <trkpt lat="44.7732" lon="6.24751">
        <ele>2561.09</ele>
        <time>2013-08-29T11:28:09Z</time>
      </trkpt>
      <trkpt lat="44.77319" lon="6.24752">
        <ele>2559.65</ele>
        <time>2013-08-29T11:28:11Z</time>
      </trkpt>
      <trkpt lat="44.77318" lon="6.24753">
        <ele>2560.13</ele>
        <time>2013-08-29T11:28:12Z</time>
      </trkpt>
      <trkpt lat="44.77314" lon="6.24757">
        <ele>2558.69</ele>
        <time>2013-08-29T11:28:18Z</time>
      </trkpt>
      <trkpt lat="44.7731" lon="6.24758">
        <ele>2560.61</ele>
        <time>2013-08-29T11:28:23Z</time>
      </trkpt>
      <trkpt lat="44.77299" lon="6.24755">
        <ele>2560.61</ele>
        <time>2013-08-29T11:28:35Z</time>
      </trkpt>
      <trkpt lat="44.77292" lon="6.24752">
        <ele>2558.69</ele>
        <time>2013-08-29T11:28:43Z</time>
      </trkpt>
      <trkpt lat="44.77281" lon="6.24755">
        <ele>2559.17</ele>
        <time>2013-08-29T11:28:56Z</time>
      </trkpt>
      <trkpt lat="44.77278" lon="6.24758">
        <ele>2561.09</ele>
        <time>2013-08-29T11:29:00Z</time>
      </trkpt>
      <trkpt lat="44.77264" lon="6.2476">
        <ele>2559.65</ele>
        <time>2013-08-29T11:29:14Z</time>
      </trkpt>
      <trkpt lat="44.77256" lon="6.24755">
        <ele>2560.13</ele>
        <time>2013-08-29T11:29:24Z</time>
      </trkpt>
      <trkpt lat="44.77249" lon="6.24749">
        <ele>2562.05</ele>
        <time>2013-08-29T11:29:31Z</time>
      </trkpt>
      <trkpt lat="44.77245" lon="6.24736">
        <ele>2560.61</ele>
        <time>2013-08-29T11:29:42Z</time>
      </trkpt>
      <trkpt lat="44.77245" lon="6.24729">
        <ele>2560.61</ele>
        <time>2013-08-29T11:29:48Z</time>
      </trkpt>
      <trkpt lat="44.77243" lon="6.24727">
        <ele>2562.05</ele>
        <time>2013-08-29T11:29:50Z</time>
      </trkpt>
      <trkpt lat="44.77242" lon="6.24727">
        <ele>2562.53</ele>
        <time>2013-08-29T11:29:51Z</time>
      </trkpt>
      <trkpt lat="44.77241" lon="6.24725">
        <ele>2562.53</ele>
        <time>2013-08-29T11:29:53Z</time>
      </trkpt>
      <trkpt lat="44.77241" lon="6.24722">
        <ele>2563.01</ele>
        <time>2013-08-29T11:29:55Z</time>
      </trkpt>
      <trkpt lat="44.77239" lon="6.24719">
        <ele>2563.97</ele>
        <time>2013-08-29T11:29:59Z</time>
      </trkpt>
      <trkpt lat="44.77235" lon="6.24713">
        <ele>2563.97</ele>
        <time>2013-08-29T11:30:06Z</time>
      </trkpt>
      <trkpt lat="44.77232" lon="6.2471">
        <ele>2563.49</ele>
        <time>2013-08-29T11:30:09Z</time>
      </trkpt>
      <trkpt lat="44.77223" lon="6.24698">
        <ele>2563.97</ele>
        <time>2013-08-29T11:30:22Z</time>
      </trkpt>
      <trkpt lat="44.77217" lon="6.24691">
        <ele>2561.57</ele>
        <time>2013-08-29T11:30:34Z</time>
      </trkpt>
      <trkpt lat="44.77214" lon="6.24687">
        <ele>2563.97</ele>
        <time>2013-08-29T11:30:38Z</time>
      </trkpt>
      <trkpt lat="44.77211" lon="6.24685">
        <ele>2559.65</ele>
        <time>2013-08-29T11:30:41Z</time>
      </trkpt>
      <trkpt lat="44.77211" lon="6.24684">
        <ele>2562.05</ele>
        <time>2013-08-29T11:30:42Z</time>
      </trkpt>
      <trkpt lat="44.7721" lon="6.24684">
        <ele>2561.57</ele>
        <time>2013-08-29T11:30:43Z</time>
      </trkpt>
      <trkpt lat="44.77207" lon="6.24687">
        <ele>2561.57</ele>
        <time>2013-08-29T11:30:46Z</time>
      </trkpt>
      <trkpt lat="44.77204" lon="6.24686">
        <ele>2560.13</ele>
        <time>2013-08-29T11:30:50Z</time>
      </trkpt>
      <trkpt lat="44.77195" lon="6.2468">
        <ele>2560.13</ele>
        <time>2013-08-29T11:31:04Z</time>
      </trkpt>
      <trkpt lat="44.77191" lon="6.24675">
        <ele>2560.13</ele>
        <time>2013-08-29T11:31:12Z</time>
      </trkpt>
      <trkpt lat="44.77186" lon="6.2467">
        <ele>2561.57</ele>
        <time>2013-08-29T11:31:25Z</time>
      </trkpt>
      <trkpt lat="44.77179" lon="6.24667">
        <ele>2563.49</ele>
        <time>2013-08-29T11:31:36Z</time>
      </trkpt>
      <trkpt lat="44.77172" lon="6.2467">
        <ele>2563.49</ele>
        <time>2013-08-29T11:31:49Z</time>
      </trkpt>
      <trkpt lat="44.7717" lon="6.24668">
        <ele>2560.13</ele>
        <time>2013-08-29T11:31:53Z</time>
      </trkpt>
      <trkpt lat="44.77168" lon="6.24666">
        <ele>2561.09</ele>
        <time>2013-08-29T11:31:55Z</time>
      </trkpt>
      <trkpt lat="44.77163" lon="6.24663">
        <ele>2560.61</ele>
        <time>2013-08-29T11:32:00Z</time>
      </trkpt>
      <trkpt lat="44.77155" lon="6.24661">
        <ele>2560.13</ele>
        <time>2013-08-29T11:32:11Z</time>
      </trkpt>
      <trkpt lat="44.77148" lon="6.24662">
        <ele>2558.69</ele>
        <time>2013-08-29T11:32:19Z</time>
      </trkpt>
      <trkpt lat="44.77145" lon="6.24666">
        <ele>2560.13</ele>
        <time>2013-08-29T11:32:23Z</time>
      </trkpt>
      <trkpt lat="44.77142" lon="6.2467">
        <ele>2559.17</ele>
        <time>2013-08-29T11:32:28Z</time>
      </trkpt>
      <trkpt lat="44.77141" lon="6.2467">
        <ele>2560.13</ele>
        <time>2013-08-29T11:32:30Z</time>
      </trkpt>
      <trkpt lat="44.77134" lon="6.24676">
        <ele>2561.09</ele>
        <time>2013-08-29T11:32:43Z</time>
      </trkpt>
      <trkpt lat="44.77133" lon="6.24677">
        <ele>2561.57</ele>
        <time>2013-08-29T11:32:45Z</time>
      </trkpt>
      <trkpt lat="44.7713" lon="6.2468">
        <ele>2560.61</ele>
        <time>2013-08-29T11:32:50Z</time>
      </trkpt>
      <trkpt lat="44.77124" lon="6.24683">
        <ele>2560.61</ele>
        <time>2013-08-29T11:33:01Z</time>
      </trkpt>
      <trkpt lat="44.77123" lon="6.24685">
        <ele>2561.57</ele>
        <time>2013-08-29T11:33:04Z</time>
      </trkpt>
      <trkpt lat="44.77119" lon="6.24685">
        <ele>2561.57</ele>
        <time>2013-08-29T11:33:08Z</time>
      </trkpt>
      <trkpt lat="44.77112" lon="6.24692">
        <ele>2561.09</ele>
        <time>2013-08-29T11:33:21Z</time>
      </trkpt>
      <trkpt lat="44.77112" lon="6.24692">
        <ele>2560.13</ele>
        <time>2013-08-29T11:33:23Z</time>
      </trkpt>
      <trkpt lat="44.77109" lon="6.24688">
        <ele>2559.17</ele>
        <time>2013-08-29T11:33:34Z</time>
      </trkpt>
      <trkpt lat="44.77108" lon="6.24687">
        <ele>2560.13</ele>
        <time>2013-08-29T11:33:36Z</time>
      </trkpt>
      <trkpt lat="44.77107" lon="6.24687">
        <ele>2558.69</ele>
        <time>2013-08-29T11:33:37Z</time>
      </trkpt>
      <trkpt lat="44.77107" lon="6.24687">
        <ele>2559.17</ele>
        <time>2013-08-29T11:33:43Z</time>
      </trkpt>
      <trkpt lat="44.77107" lon="6.24687">
        <ele>2558.69</ele>
        <time>2013-08-29T11:33:50Z</time>
      </trkpt>
      <trkpt lat="44.77104" lon="6.24692">
        <ele>2561.09</ele>
        <time>2013-08-29T11:33:56Z</time>
      </trkpt>
      <trkpt lat="44.77104" lon="6.24692">
        <ele>2559.17</ele>
        <time>2013-08-29T11:33:57Z</time>
      </trkpt>
      <trkpt lat="44.771" lon="6.247">
        <ele>2559.17</ele>
        <time>2013-08-29T11:34:05Z</time>
      </trkpt>
      <trkpt lat="44.77092" lon="6.24707">
        <ele>2558.69</ele>
        <time>2013-08-29T11:34:14Z</time>
      </trkpt>
      <trkpt lat="44.7709" lon="6.2471">
        <ele>2559.65</ele>
        <time>2013-08-29T11:34:17Z</time>
      </trkpt>
      <trkpt lat="44.77084" lon="6.24716">
        <ele>2559.17</ele>
        <time>2013-08-29T11:34:24Z</time>
      </trkpt>
      <trkpt lat="44.77083" lon="6.24716">
        <ele>2559.17</ele>
        <time>2013-08-29T11:34:25Z</time>
      </trkpt>
      <trkpt lat="44.77077" lon="6.2473">
        <ele>2560.13</ele>
        <time>2013-08-29T11:34:38Z</time>
      </trkpt>
      <trkpt lat="44.77077" lon="6.24732">
        <ele>2558.21</ele>
        <time>2013-08-29T11:34:40Z</time>
      </trkpt>
      <trkpt lat="44.77075" lon="6.24736">
        <ele>2559.17</ele>
        <time>2013-08-29T11:34:43Z</time>
      </trkpt>
      <trkpt lat="44.77074" lon="6.24739">
        <ele>2557.73</ele>
        <time>2013-08-29T11:34:46Z</time>
      </trkpt>
      <trkpt lat="44.77073" lon="6.24742">
        <ele>2560.13</ele>
        <time>2013-08-29T11:34:48Z</time>
      </trkpt>
      <trkpt lat="44.77071" lon="6.24745">
        <ele>2559.17</ele>
        <time>2013-08-29T11:34:52Z</time>
      </trkpt>
      <trkpt lat="44.7707" lon="6.24746">
        <ele>2560.13</ele>
        <time>2013-08-29T11:34:53Z</time>
      </trkpt>
      <trkpt lat="44.77069" lon="6.24748">
        <ele>2561.57</ele>
        <time>2013-08-29T11:34:55Z</time>
      </trkpt>
      <trkpt lat="44.77066" lon="6.24752">
        <ele>2562.05</ele>
        <time>2013-08-29T11:35:00Z</time>
      </trkpt>
      <trkpt lat="44.77065" lon="6.24754">
        <ele>2561.09</ele>
        <time>2013-08-29T11:35:01Z</time>
      </trkpt>
      <trkpt lat="44.77064" lon="6.24751">
        <ele>2561.09</ele>
        <time>2013-08-29T11:35:04Z</time>
      </trkpt>
      <trkpt lat="44.77061" lon="6.2475">
        <ele>2561.09</ele>
        <time>2013-08-29T11:35:12Z</time>
      </trkpt>
      <trkpt lat="44.77057" lon="6.24753">
        <ele>2561.09</ele>
        <time>2013-08-29T11:35:18Z</time>
      </trkpt>
      <trkpt lat="44.77054" lon="6.24757">
        <ele>2559.17</ele>
        <time>2013-08-29T11:35:25Z</time>
      </trkpt>
      <trkpt lat="44.77048" lon="6.24757">
        <ele>2554.84</ele>
        <time>2013-08-29T11:35:35Z</time>
      </trkpt>
      <trkpt lat="44.77046" lon="6.24759">
        <ele>2556.76</ele>
        <time>2013-08-29T11:35:41Z</time>
      </trkpt>
      <trkpt lat="44.77045" lon="6.24757">
        <ele>2554.84</ele>
        <time>2013-08-29T11:35:44Z</time>
      </trkpt>
      <trkpt lat="44.7704" lon="6.2475">
        <ele>2551.48</ele>
        <time>2013-08-29T11:35:56Z</time>
      </trkpt>
      <trkpt lat="44.7704" lon="6.24751">
        <ele>2551.48</ele>
        <time>2013-08-29T11:35:57Z</time>
      </trkpt>
      <trkpt lat="44.77035" lon="6.24747">
        <ele>2549.55</ele>
        <time>2013-08-29T11:36:09Z</time>
      </trkpt>
      <trkpt lat="44.77032" lon="6.24742">
        <ele>2546.19</ele>
        <time>2013-08-29T11:36:19Z</time>
      </trkpt>
      <trkpt lat="44.77027" lon="6.24744">
        <ele>2546.19</ele>
        <time>2013-08-29T11:36:30Z</time>
      </trkpt>
      <trkpt lat="44.77027" lon="6.24756">
        <ele>2543.79</ele>
        <time>2013-08-29T11:36:42Z</time>
      </trkpt>
      <trkpt lat="44.77024" lon="6.24763">
        <ele>2540.42</ele>
        <time>2013-08-29T11:36:53Z</time>
      </trkpt>
      <trkpt lat="44.77021" lon="6.24767">
        <ele>2540.42</ele>
        <time>2013-08-29T11:36:57Z</time>
      </trkpt>
      <trkpt lat="44.7702" lon="6.24771">
        <ele>2539.94</ele>
        <time>2013-08-29T11:37:00Z</time>
      </trkpt>
      <trkpt lat="44.77019" lon="6.24773">
        <ele>2540.9</ele>
        <time>2013-08-29T11:37:02Z</time>
      </trkpt>
      <trkpt lat="44.77015" lon="6.24778">
        <ele>2540.9</ele>
        <time>2013-08-29T11:37:06Z</time>
      </trkpt>
      <trkpt lat="44.77013" lon="6.24787">
        <ele>2538.98</ele>
        <time>2013-08-29T11:37:12Z</time>
      </trkpt>
      <trkpt lat="44.77005" lon="6.24796">
        <ele>2538.5</ele>
        <time>2013-08-29T11:37:23Z</time>
      </trkpt>
      <trkpt lat="44.77003" lon="6.248">
        <ele>2538.02</ele>
        <time>2013-08-29T11:37:29Z</time>
      </trkpt>
      <trkpt lat="44.76999" lon="6.24804">
        <ele>2537.06</ele>
        <time>2013-08-29T11:37:34Z</time>
      </trkpt>
      <trkpt lat="44.76994" lon="6.24808">
        <ele>2537.54</ele>
        <time>2013-08-29T11:37:40Z</time>
      </trkpt>
      <trkpt lat="44.76992" lon="6.24812">
        <ele>2539.94</ele>
        <time>2013-08-29T11:37:44Z</time>
      </trkpt>
      <trkpt lat="44.76985" lon="6.24808">
        <ele>2540.42</ele>
        <time>2013-08-29T11:37:56Z</time>
      </trkpt>
      <trkpt lat="44.76983" lon="6.24809">
        <ele>2540.42</ele>
        <time>2013-08-29T11:37:58Z</time>
      </trkpt>
      <trkpt lat="44.76979" lon="6.24813">
        <ele>2540.42</ele>
        <time>2013-08-29T11:38:03Z</time>
      </trkpt>
      <trkpt lat="44.76972" lon="6.24814">
        <ele>2539.94</ele>
        <time>2013-08-29T11:38:10Z</time>
      </trkpt>
      <trkpt lat="44.7697" lon="6.24814">
        <ele>2540.9</ele>
        <time>2013-08-29T11:38:12Z</time>
      </trkpt>
      <trkpt lat="44.76968" lon="6.24814">
        <ele>2539.94</ele>
        <time>2013-08-29T11:38:15Z</time>
      </trkpt>
      <trkpt lat="44.76961" lon="6.24817">
        <ele>2541.86</ele>
        <time>2013-08-29T11:38:25Z</time>
      </trkpt>
      <trkpt lat="44.7696" lon="6.24817">
        <ele>2541.38</ele>
        <time>2013-08-29T11:38:27Z</time>
      </trkpt>
      <trkpt lat="44.76956" lon="6.24821">
        <ele>2545.23</ele>
        <time>2013-08-29T11:38:33Z</time>
      </trkpt>
      <trkpt lat="44.76954" lon="6.24823">
        <ele>2543.79</ele>
        <time>2013-08-29T11:38:35Z</time>
      </trkpt>
      <trkpt lat="44.76951" lon="6.24828">
        <ele>2544.75</ele>
        <time>2013-08-29T11:38:40Z</time>
      </trkpt>
      <trkpt lat="44.76952" lon="6.24842">
        <ele>2542.82</ele>
        <time>2013-08-29T11:38:50Z</time>
      </trkpt>
      <trkpt lat="44.76954" lon="6.24852">
        <ele>2541.86</ele>
        <time>2013-08-29T11:39:01Z</time>
      </trkpt>
      <trkpt lat="44.76956" lon="6.24866">
        <ele>2541.38</ele>
        <time>2013-08-29T11:39:12Z</time>
      </trkpt>
      <trkpt lat="44.76956" lon="6.24873">
        <ele>2539.94</ele>
        <time>2013-08-29T11:39:17Z</time>
      </trkpt>
      <trkpt lat="44.76955" lon="6.24876">
        <ele>2541.38</ele>
        <time>2013-08-29T11:39:21Z</time>
      </trkpt>
      <trkpt lat="44.76955" lon="6.24877">
        <ele>2540.42</ele>
        <time>2013-08-29T11:39:22Z</time>
      </trkpt>
      <trkpt lat="44.76957" lon="6.24878">
        <ele>2538.02</ele>
        <time>2013-08-29T11:39:32Z</time>
      </trkpt>
      <trkpt lat="44.76957" lon="6.24878">
        <ele>2538.98</ele>
        <time>2013-08-29T11:39:33Z</time>
      </trkpt>
      <trkpt lat="44.76957" lon="6.2488">
        <ele>2538.5</ele>
        <time>2013-08-29T11:39:38Z</time>
      </trkpt>
      <trkpt lat="44.76954" lon="6.24885">
        <ele>2537.06</ele>
        <time>2013-08-29T11:39:50Z</time>
      </trkpt>
      <trkpt lat="44.76953" lon="6.24888">
        <ele>2536.58</ele>
        <time>2013-08-29T11:39:58Z</time>
      </trkpt>
      <trkpt lat="44.76952" lon="6.24891">
        <ele>2535.13</ele>
        <time>2013-08-29T11:40:01Z</time>
      </trkpt>
      <trkpt lat="44.76953" lon="6.24894">
        <ele>2536.1</ele>
        <time>2013-08-29T11:40:05Z</time>
      </trkpt>
      <trkpt lat="44.76953" lon="6.24902">
        <ele>2536.58</ele>
        <time>2013-08-29T11:40:14Z</time>
      </trkpt>
      <trkpt lat="44.76949" lon="6.24908">
        <ele>2537.06</ele>
        <time>2013-08-29T11:40:24Z</time>
      </trkpt>
      <trkpt lat="44.76948" lon="6.24914">
        <ele>2537.06</ele>
        <time>2013-08-29T11:40:29Z</time>
      </trkpt>
      <trkpt lat="44.76946" lon="6.24924">
        <ele>2538.02</ele>
        <time>2013-08-29T11:40:37Z</time>
      </trkpt>
      <trkpt lat="44.76946" lon="6.24928">
        <ele>2538.02</ele>
        <time>2013-08-29T11:40:40Z</time>
      </trkpt>
      <trkpt lat="44.76943" lon="6.24935">
        <ele>2537.54</ele>
        <time>2013-08-29T11:40:46Z</time>
      </trkpt>
      <trkpt lat="44.76943" lon="6.24937">
        <ele>2536.58</ele>
        <time>2013-08-29T11:40:48Z</time>
      </trkpt>
      <trkpt lat="44.76942" lon="6.2494">
        <ele>2538.02</ele>
        <time>2013-08-29T11:40:51Z</time>
      </trkpt>
      <trkpt lat="44.7694" lon="6.24946">
        <ele>2539.46</ele>
        <time>2013-08-29T11:40:58Z</time>
      </trkpt>
      <trkpt lat="44.76934" lon="6.24957">
        <ele>2540.42</ele>
        <time>2013-08-29T11:41:10Z</time>
      </trkpt>
      <trkpt lat="44.76931" lon="6.24964">
        <ele>2539.94</ele>
        <time>2013-08-29T11:41:18Z</time>
      </trkpt>
      <trkpt lat="44.76932" lon="6.24973">
        <ele>2538.98</ele>
        <time>2013-08-29T11:41:32Z</time>
      </trkpt>
      <trkpt lat="44.76933" lon="6.24979">
        <ele>2540.42</ele>
        <time>2013-08-29T11:41:45Z</time>
      </trkpt>
      <trkpt lat="44.76932" lon="6.24987">
        <ele>2538.5</ele>
        <time>2013-08-29T11:41:52Z</time>
      </trkpt>
      <trkpt lat="44.76928" lon="6.24998">
        <ele>2536.58</ele>
        <time>2013-08-29T11:42:05Z</time>
      </trkpt>
      <trkpt lat="44.76929" lon="6.24999">
        <ele>2537.06</ele>
        <time>2013-08-29T11:42:06Z</time>
      </trkpt>
      <trkpt lat="44.76928" lon="6.25013">
        <ele>2535.61</ele>
        <time>2013-08-29T11:42:16Z</time>
      </trkpt>
      <trkpt lat="44.76928" lon="6.25019">
        <ele>2535.13</ele>
        <time>2013-08-29T11:42:20Z</time>
      </trkpt>
      <trkpt lat="44.7693" lon="6.2503">
        <ele>2535.13</ele>
        <time>2013-08-29T11:42:30Z</time>
      </trkpt>
      <trkpt lat="44.7693" lon="6.25033">
        <ele>2532.73</ele>
        <time>2013-08-29T11:42:32Z</time>
      </trkpt>
      <trkpt lat="44.76931" lon="6.25036">
        <ele>2533.21</ele>
        <time>2013-08-29T11:42:35Z</time>
      </trkpt>
      <trkpt lat="44.76931" lon="6.25046">
        <ele>2533.21</ele>
        <time>2013-08-29T11:42:42Z</time>
      </trkpt>
      <trkpt lat="44.76934" lon="6.25052">
        <ele>2532.25</ele>
        <time>2013-08-29T11:42:48Z</time>
      </trkpt>
      <trkpt lat="44.76938" lon="6.25057">
        <ele>2531.29</ele>
        <time>2013-08-29T11:42:55Z</time>
      </trkpt>
      <trkpt lat="44.7694" lon="6.25059">
        <ele>2529.37</ele>
        <time>2013-08-29T11:42:57Z</time>
      </trkpt>
      <trkpt lat="44.76941" lon="6.25064">
        <ele>2531.29</ele>
        <time>2013-08-29T11:43:00Z</time>
      </trkpt>
      <trkpt lat="44.76942" lon="6.25067">
        <ele>2530.33</ele>
        <time>2013-08-29T11:43:02Z</time>
      </trkpt>
      <trkpt lat="44.76945" lon="6.25073">
        <ele>2528.89</ele>
        <time>2013-08-29T11:43:07Z</time>
      </trkpt>
      <trkpt lat="44.76948" lon="6.25075">
        <ele>2529.37</ele>
        <time>2013-08-29T11:43:10Z</time>
      </trkpt>
      <trkpt lat="44.76948" lon="6.25078">
        <ele>2530.33</ele>
        <time>2013-08-29T11:43:12Z</time>
      </trkpt>
      <trkpt lat="44.76957" lon="6.25082">
        <ele>2529.37</ele>
        <time>2013-08-29T11:43:21Z</time>
      </trkpt>
      <trkpt lat="44.76961" lon="6.25088">
        <ele>2526.96</ele>
        <time>2013-08-29T11:43:30Z</time>
      </trkpt>
      <trkpt lat="44.76962" lon="6.25089">
        <ele>2526.96</ele>
        <time>2013-08-29T11:43:31Z</time>
      </trkpt>
      <trkpt lat="44.76962" lon="6.2509">
        <ele>2528.89</ele>
        <time>2013-08-29T11:43:33Z</time>
      </trkpt>
      <trkpt lat="44.76963" lon="6.2509">
        <ele>2527.44</ele>
        <time>2013-08-29T11:43:34Z</time>
      </trkpt>
      <trkpt lat="44.76964" lon="6.25091">
        <ele>2528.4</ele>
        <time>2013-08-29T11:43:36Z</time>
      </trkpt>
      <trkpt lat="44.76964" lon="6.25094">
        <ele>2525.52</ele>
        <time>2013-08-29T11:43:38Z</time>
      </trkpt>
      <trkpt lat="44.76964" lon="6.25094">
        <ele>2527.92</ele>
        <time>2013-08-29T11:43:39Z</time>
      </trkpt>
      <trkpt lat="44.76963" lon="6.25095">
        <ele>2528.4</ele>
        <time>2013-08-29T11:43:43Z</time>
      </trkpt>
      <trkpt lat="44.7696" lon="6.25096">
        <ele>2527.44</ele>
        <time>2013-08-29T11:43:48Z</time>
      </trkpt>
      <trkpt lat="44.76952" lon="6.25098">
        <ele>2529.37</ele>
        <time>2013-08-29T11:44:01Z</time>
      </trkpt>
      <trkpt lat="44.76947" lon="6.251">
        <ele>2531.29</ele>
        <time>2013-08-29T11:44:12Z</time>
      </trkpt>
      <trkpt lat="44.76942" lon="6.25096">
        <ele>2530.33</ele>
        <time>2013-08-29T11:44:24Z</time>
      </trkpt>
      <trkpt lat="44.76938" lon="6.25094">
        <ele>2532.25</ele>
        <time>2013-08-29T11:44:28Z</time>
      </trkpt>
      <trkpt lat="44.76935" lon="6.25094">
        <ele>2531.77</ele>
        <time>2013-08-29T11:44:32Z</time>
      </trkpt>
      <trkpt lat="44.76928" lon="6.2509">
        <ele>2534.17</ele>
        <time>2013-08-29T11:44:44Z</time>
      </trkpt>
      <trkpt lat="44.7692" lon="6.25091">
        <ele>2533.21</ele>
        <time>2013-08-29T11:44:55Z</time>
      </trkpt>
      <trkpt lat="44.76914" lon="6.25093">
        <ele>2533.69</ele>
        <time>2013-08-29T11:45:00Z</time>
      </trkpt>
      <trkpt lat="44.76909" lon="6.25099">
        <ele>2536.58</ele>
        <time>2013-08-29T11:45:11Z</time>
      </trkpt>
      <trkpt lat="44.76912" lon="6.25112">
        <ele>2534.17</ele>
        <time>2013-08-29T11:45:21Z</time>
      </trkpt>
      <trkpt lat="44.76913" lon="6.25113">
        <ele>2534.17</ele>
        <time>2013-08-29T11:45:22Z</time>
      </trkpt>
      <trkpt lat="44.76914" lon="6.25115">
        <ele>2535.13</ele>
        <time>2013-08-29T11:45:24Z</time>
      </trkpt>
      <trkpt lat="44.76914" lon="6.25119">
        <ele>2534.65</ele>
        <time>2013-08-29T11:45:27Z</time>
      </trkpt>
      <trkpt lat="44.76912" lon="6.25123">
        <ele>2533.69</ele>
        <time>2013-08-29T11:45:32Z</time>
      </trkpt>
      <trkpt lat="44.76908" lon="6.25128">
        <ele>2534.17</ele>
        <time>2013-08-29T11:45:37Z</time>
      </trkpt>
      <trkpt lat="44.76905" lon="6.25132">
        <ele>2533.69</ele>
        <time>2013-08-29T11:45:42Z</time>
      </trkpt>
      <trkpt lat="44.76904" lon="6.25134">
        <ele>2532.25</ele>
        <time>2013-08-29T11:45:44Z</time>
      </trkpt>
      <trkpt lat="44.76899" lon="6.2514">
        <ele>2527.92</ele>
        <time>2013-08-29T11:45:54Z</time>
      </trkpt>
      <trkpt lat="44.76896" lon="6.25143">
        <ele>2527.92</ele>
        <time>2013-08-29T11:46:01Z</time>
      </trkpt>
      <trkpt lat="44.76893" lon="6.25147">
        <ele>2524.56</ele>
        <time>2013-08-29T11:46:08Z</time>
      </trkpt>
      <trkpt lat="44.76892" lon="6.25143">
        <ele>2527.92</ele>
        <time>2013-08-29T11:46:12Z</time>
      </trkpt>
      <trkpt lat="44.76893" lon="6.25141">
        <ele>2524.56</ele>
        <time>2013-08-29T11:46:17Z</time>
      </trkpt>
      <trkpt lat="44.76892" lon="6.25131">
        <ele>2522.16</ele>
        <time>2013-08-29T11:46:29Z</time>
      </trkpt>
      <trkpt lat="44.76892" lon="6.2513">
        <ele>2523.12</ele>
        <time>2013-08-29T11:46:30Z</time>
      </trkpt>
      <trkpt lat="44.76888" lon="6.25132">
        <ele>2520.23</ele>
        <time>2013-08-29T11:46:40Z</time>
      </trkpt>
      <trkpt lat="44.76885" lon="6.25135">
        <ele>2518.79</ele>
        <time>2013-08-29T11:46:44Z</time>
      </trkpt>
      <trkpt lat="44.76885" lon="6.25134">
        <ele>2521.68</ele>
        <time>2013-08-29T11:46:45Z</time>
      </trkpt>
      <trkpt lat="44.76884" lon="6.25134">
        <ele>2519.75</ele>
        <time>2013-08-29T11:46:46Z</time>
      </trkpt>
      <trkpt lat="44.76883" lon="6.25128">
        <ele>2517.83</ele>
        <time>2013-08-29T11:46:55Z</time>
      </trkpt>
      <trkpt lat="44.76882" lon="6.2513">
        <ele>2517.35</ele>
        <time>2013-08-29T11:46:57Z</time>
      </trkpt>
      <trkpt lat="44.76878" lon="6.25132">
        <ele>2516.39</ele>
        <time>2013-08-29T11:47:06Z</time>
      </trkpt>
      <trkpt lat="44.76875" lon="6.25138">
        <ele>2514.95</ele>
        <time>2013-08-29T11:47:13Z</time>
      </trkpt>
      <trkpt lat="44.76873" lon="6.25149">
        <ele>2513.5</ele>
        <time>2013-08-29T11:47:26Z</time>
      </trkpt>
      <trkpt lat="44.76872" lon="6.2516">
        <ele>2513.98</ele>
        <time>2013-08-29T11:47:37Z</time>
      </trkpt>
      <trkpt lat="44.76872" lon="6.25162">
        <ele>2512.06</ele>
        <time>2013-08-29T11:47:40Z</time>
      </trkpt>
      <trkpt lat="44.76873" lon="6.25165">
        <ele>2513.02</ele>
        <time>2013-08-29T11:47:42Z</time>
      </trkpt>
      <trkpt lat="44.76873" lon="6.25175">
        <ele>2511.1</ele>
        <time>2013-08-29T11:47:54Z</time>
      </trkpt>
      <trkpt lat="44.76874" lon="6.25177">
        <ele>2512.06</ele>
        <time>2013-08-29T11:47:57Z</time>
      </trkpt>
      <trkpt lat="44.76874" lon="6.25178">
        <ele>2508.7</ele>
        <time>2013-08-29T11:48:03Z</time>
      </trkpt>
      <trkpt lat="44.76874" lon="6.25178">
        <ele>2509.18</ele>
        <time>2013-08-29T11:48:06Z</time>
      </trkpt>
      <trkpt lat="44.76874" lon="6.25182">
        <ele>2507.74</ele>
        <time>2013-08-29T11:48:13Z</time>
      </trkpt>
      <trkpt lat="44.76874" lon="6.25185">
        <ele>2507.74</ele>
        <time>2013-08-29T11:48:17Z</time>
      </trkpt>
      <trkpt lat="44.76875" lon="6.25189">
        <ele>2505.81</ele>
        <time>2013-08-29T11:48:23Z</time>
      </trkpt>
      <trkpt lat="44.76875" lon="6.25191">
        <ele>2506.77</ele>
        <time>2013-08-29T11:48:25Z</time>
      </trkpt>
      <trkpt lat="44.76876" lon="6.25194">
        <ele>2504.85</ele>
        <time>2013-08-29T11:48:28Z</time>
      </trkpt>
      <trkpt lat="44.76876" lon="6.25194">
        <ele>2506.77</ele>
        <time>2013-08-29T11:48:29Z</time>
      </trkpt>
      <trkpt lat="44.76876" lon="6.25195">
        <ele>2503.41</ele>
        <time>2013-08-29T11:48:30Z</time>
      </trkpt>
      <trkpt lat="44.76876" lon="6.25196">
        <ele>2503.41</ele>
        <time>2013-08-29T11:48:31Z</time>
      </trkpt>
      <trkpt lat="44.76878" lon="6.25201">
        <ele>2505.33</ele>
        <time>2013-08-29T11:48:42Z</time>
      </trkpt>
      <trkpt lat="44.76878" lon="6.25201">
        <ele>2503.41</ele>
        <time>2013-08-29T11:48:43Z</time>
      </trkpt>
      <trkpt lat="44.76878" lon="6.25202">
        <ele>2504.37</ele>
        <time>2013-08-29T11:48:46Z</time>
      </trkpt>
      <trkpt lat="44.76878" lon="6.25204">
        <ele>2504.85</ele>
        <time>2013-08-29T11:48:50Z</time>
      </trkpt>
      <trkpt lat="44.76878" lon="6.25204">
        <ele>2502.45</ele>
        <time>2013-08-29T11:48:52Z</time>
      </trkpt>
      <trkpt lat="44.76878" lon="6.25204">
        <ele>2501.01</ele>
        <time>2013-08-29T11:48:56Z</time>
      </trkpt>
      <trkpt lat="44.76878" lon="6.25204">
        <ele>2502.45</ele>
        <time>2013-08-29T11:48:57Z</time>
      </trkpt>
      <trkpt lat="44.76878" lon="6.25206">
        <ele>2501.01</ele>
        <time>2013-08-29T11:48:59Z</time>
      </trkpt>
      <trkpt lat="44.76877" lon="6.2521">
        <ele>2501.97</ele>
        <time>2013-08-29T11:49:05Z</time>
      </trkpt>
      <trkpt lat="44.76878" lon="6.25211">
        <ele>2500.53</ele>
        <time>2013-08-29T11:49:06Z</time>
      </trkpt>
      <trkpt lat="44.76875" lon="6.25217">
        <ele>2500.53</ele>
        <time>2013-08-29T11:49:15Z</time>
      </trkpt>
      <trkpt lat="44.76872" lon="6.25221">
        <ele>2500.53</ele>
        <time>2013-08-29T11:49:21Z</time>
      </trkpt>
      <trkpt lat="44.76872" lon="6.25221">
        <ele>2497.64</ele>
        <time>2013-08-29T11:49:22Z</time>
      </trkpt>
      <trkpt lat="44.76872" lon="6.25221">
        <ele>2499.57</ele>
        <time>2013-08-29T11:49:23Z</time>
      </trkpt>
      <trkpt lat="44.76871" lon="6.25223">
        <ele>2497.64</ele>
        <time>2013-08-29T11:49:26Z</time>
      </trkpt>
      <trkpt lat="44.76868" lon="6.2523">
        <ele>2496.68</ele>
        <time>2013-08-29T11:49:33Z</time>
      </trkpt>
      <trkpt lat="44.76864" lon="6.25238">
        <ele>2494.28</ele>
        <time>2013-08-29T11:49:41Z</time>
      </trkpt>
      <trkpt lat="44.76863" lon="6.25239">
        <ele>2496.68</ele>
        <time>2013-08-29T11:49:42Z</time>
      </trkpt>
      <trkpt lat="44.76863" lon="6.25239">
        <ele>2494.28</ele>
        <time>2013-08-29T11:49:43Z</time>
      </trkpt>
      <trkpt lat="44.76863" lon="6.2524">
        <ele>2497.16</ele>
        <time>2013-08-29T11:49:44Z</time>
      </trkpt>
      <trkpt lat="44.76862" lon="6.25243">
        <ele>2494.28</ele>
        <time>2013-08-29T11:49:46Z</time>
      </trkpt>
      <trkpt lat="44.7686" lon="6.25245">
        <ele>2493.8</ele>
        <time>2013-08-29T11:49:50Z</time>
      </trkpt>
      <trkpt lat="44.76859" lon="6.25247">
        <ele>2495.24</ele>
        <time>2013-08-29T11:49:52Z</time>
      </trkpt>
      <trkpt lat="44.76859" lon="6.25248">
        <ele>2493.32</ele>
        <time>2013-08-29T11:49:53Z</time>
      </trkpt>
      <trkpt lat="44.76856" lon="6.25251">
        <ele>2493.32</ele>
        <time>2013-08-29T11:49:57Z</time>
      </trkpt>
      <trkpt lat="44.76853" lon="6.25257">
        <ele>2492.84</ele>
        <time>2013-08-29T11:50:02Z</time>
      </trkpt>
      <trkpt lat="44.7685" lon="6.25269">
        <ele>2490.43</ele>
        <time>2013-08-29T11:50:14Z</time>
      </trkpt>
      <trkpt lat="44.76848" lon="6.25277">
        <ele>2488.99</ele>
        <time>2013-08-29T11:50:23Z</time>
      </trkpt>
      <trkpt lat="44.76846" lon="6.2528">
        <ele>2488.51</ele>
        <time>2013-08-29T11:50:28Z</time>
      </trkpt>
      <trkpt lat="44.76845" lon="6.25281">
        <ele>2489.47</ele>
        <time>2013-08-29T11:50:29Z</time>
      </trkpt>
      <trkpt lat="44.76844" lon="6.25283">
        <ele>2488.99</ele>
        <time>2013-08-29T11:50:31Z</time>
      </trkpt>
      <trkpt lat="44.76841" lon="6.25287">
        <ele>2487.07</ele>
        <time>2013-08-29T11:50:37Z</time>
      </trkpt>
      <trkpt lat="44.7684" lon="6.25289">
        <ele>2486.59</ele>
        <time>2013-08-29T11:50:39Z</time>
      </trkpt>
      <trkpt lat="44.76834" lon="6.25298">
        <ele>2488.03</ele>
        <time>2013-08-29T11:50:49Z</time>
      </trkpt>
      <trkpt lat="44.76823" lon="6.25307">
        <ele>2488.03</ele>
        <time>2013-08-29T11:51:03Z</time>
      </trkpt>
      <trkpt lat="44.76822" lon="6.25312">
        <ele>2487.55</ele>
        <time>2013-08-29T11:51:13Z</time>
      </trkpt>
      <trkpt lat="44.76813" lon="6.25316">
        <ele>2485.63</ele>
        <time>2013-08-29T11:51:25Z</time>
      </trkpt>
      <trkpt lat="44.76807" lon="6.25321">
        <ele>2486.11</ele>
        <time>2013-08-29T11:51:32Z</time>
      </trkpt>
      <trkpt lat="44.76795" lon="6.25326">
        <ele>2485.15</ele>
        <time>2013-08-29T11:51:45Z</time>
      </trkpt>
      <trkpt lat="44.76791" lon="6.25329">
        <ele>2484.18</ele>
        <time>2013-08-29T11:51:50Z</time>
      </trkpt>
      <trkpt lat="44.76783" lon="6.25336">
        <ele>2483.22</ele>
        <time>2013-08-29T11:52:01Z</time>
      </trkpt>
      <trkpt lat="44.7678" lon="6.25337">
        <ele>2482.74</ele>
        <time>2013-08-29T11:52:04Z</time>
      </trkpt>
      <trkpt lat="44.76772" lon="6.25345">
        <ele>2479.86</ele>
        <time>2013-08-29T11:52:16Z</time>
      </trkpt>
      <trkpt lat="44.76764" lon="6.25356">
        <ele>2479.38</ele>
        <time>2013-08-29T11:52:27Z</time>
      </trkpt>
      <trkpt lat="44.76752" lon="6.25366">
        <ele>2481.3</ele>
        <time>2013-08-29T11:52:40Z</time>
      </trkpt>
      <trkpt lat="44.76751" lon="6.25366">
        <ele>2480.82</ele>
        <time>2013-08-29T11:52:41Z</time>
      </trkpt>
      <trkpt lat="44.76738" lon="6.25372">
        <ele>2480.82</ele>
        <time>2013-08-29T11:52:56Z</time>
      </trkpt>
      <trkpt lat="44.76732" lon="6.25375">
        <ele>2481.78</ele>
        <time>2013-08-29T11:53:04Z</time>
      </trkpt>
      <trkpt lat="44.76722" lon="6.25376">
        <ele>2481.78</ele>
        <time>2013-08-29T11:53:16Z</time>
      </trkpt>
      <trkpt lat="44.76714" lon="6.25373">
        <ele>2484.66</ele>
        <time>2013-08-29T11:53:27Z</time>
      </trkpt>
      <trkpt lat="44.76709" lon="6.25369">
        <ele>2484.66</ele>
        <time>2013-08-29T11:53:40Z</time>
      </trkpt>
      <trkpt lat="44.76709" lon="6.25369">
        <ele>2485.15</ele>
        <time>2013-08-29T11:53:44Z</time>
      </trkpt>
      <trkpt lat="44.76704" lon="6.25363">
        <ele>2484.18</ele>
        <time>2013-08-29T11:53:53Z</time>
      </trkpt>
      <trkpt lat="44.76703" lon="6.25356">
        <ele>2481.78</ele>
        <time>2013-08-29T11:54:04Z</time>
      </trkpt>
      <trkpt lat="44.76703" lon="6.25355">
        <ele>2481.78</ele>
        <time>2013-08-29T11:54:05Z</time>
      </trkpt>
      <trkpt lat="44.76701" lon="6.25349">
        <ele>2480.82</ele>
        <time>2013-08-29T11:54:16Z</time>
      </trkpt>
      <trkpt lat="44.76697" lon="6.2535">
        <ele>2478.42</ele>
        <time>2013-08-29T11:54:24Z</time>
      </trkpt>
      <trkpt lat="44.76694" lon="6.25351">
        <ele>2476.01</ele>
        <time>2013-08-29T11:54:39Z</time>
      </trkpt>
      <trkpt lat="44.76691" lon="6.25353">
        <ele>2473.61</ele>
        <time>2013-08-29T11:54:46Z</time>
      </trkpt>
      <trkpt lat="44.76685" lon="6.25361">
        <ele>2474.09</ele>
        <time>2013-08-29T11:54:58Z</time>
      </trkpt>
      <trkpt lat="44.76679" lon="6.25365">
        <ele>2470.24</ele>
        <time>2013-08-29T11:55:10Z</time>
      </trkpt>
      <trkpt lat="44.76676" lon="6.25367">
        <ele>2469.28</ele>
        <time>2013-08-29T11:55:15Z</time>
      </trkpt>
      <trkpt lat="44.76675" lon="6.25368">
        <ele>2469.76</ele>
        <time>2013-08-29T11:55:17Z</time>
      </trkpt>
      <trkpt lat="44.76668" lon="6.2537">
        <ele>2468.8</ele>
        <time>2013-08-29T11:55:27Z</time>
      </trkpt>
      <trkpt lat="44.76664" lon="6.25368">
        <ele>2465.92</ele>
        <time>2013-08-29T11:55:33Z</time>
      </trkpt>
      <trkpt lat="44.76667" lon="6.25365">
        <ele>2468.32</ele>
        <time>2013-08-29T11:55:37Z</time>
      </trkpt>
      <trkpt lat="44.76669" lon="6.25362">
        <ele>2467.36</ele>
        <time>2013-08-29T11:55:42Z</time>
      </trkpt>
      <trkpt lat="44.76671" lon="6.2536">
        <ele>2465.44</ele>
        <time>2013-08-29T11:55:45Z</time>
      </trkpt>
      <trkpt lat="44.76671" lon="6.25359">
        <ele>2466.4</ele>
        <time>2013-08-29T11:55:47Z</time>
      </trkpt>
      <trkpt lat="44.76673" lon="6.25347">
        <ele>2463.04</ele>
        <time>2013-08-29T11:55:59Z</time>
      </trkpt>
      <trkpt lat="44.76673" lon="6.25347">
        <ele>2463.04</ele>
        <time>2013-08-29T11:56:00Z</time>
      </trkpt>
      <trkpt lat="44.76675" lon="6.25342">
        <ele>2462.07</ele>
        <time>2013-08-29T11:56:06Z</time>
      </trkpt>
      <trkpt lat="44.76672" lon="6.25341">
        <ele>2463.04</ele>
        <time>2013-08-29T11:56:14Z</time>
      </trkpt>
      <trkpt lat="44.76671" lon="6.25342">
        <ele>2460.15</ele>
        <time>2013-08-29T11:56:17Z</time>
      </trkpt>
      <trkpt lat="44.76664" lon="6.25346">
        <ele>2461.11</ele>
        <time>2013-08-29T11:56:27Z</time>
      </trkpt>
      <trkpt lat="44.76663" lon="6.25346">
        <ele>2460.63</ele>
        <time>2013-08-29T11:56:28Z</time>
      </trkpt>
      <trkpt lat="44.76662" lon="6.25347">
        <ele>2459.67</ele>
        <time>2013-08-29T11:56:30Z</time>
      </trkpt>
      <trkpt lat="44.76659" lon="6.2535">
        <ele>2456.31</ele>
        <time>2013-08-29T11:56:36Z</time>
      </trkpt>
      <trkpt lat="44.76652" lon="6.25354">
        <ele>2455.82</ele>
        <time>2013-08-29T11:56:46Z</time>
      </trkpt>
      <trkpt lat="44.76645" lon="6.25357">
        <ele>2454.38</ele>
        <time>2013-08-29T11:56:57Z</time>
      </trkpt>
      <trkpt lat="44.76646" lon="6.25355">
        <ele>2453.42</ele>
        <time>2013-08-29T11:56:59Z</time>
      </trkpt>
      <trkpt lat="44.76647" lon="6.25353">
        <ele>2451.98</ele>
        <time>2013-08-29T11:57:01Z</time>
      </trkpt>
      <trkpt lat="44.7665" lon="6.2535">
        <ele>2451.5</ele>
        <time>2013-08-29T11:57:06Z</time>
      </trkpt>
      <trkpt lat="44.76651" lon="6.25346">
        <ele>2451.02</ele>
        <time>2013-08-29T11:57:10Z</time>
      </trkpt>
      <trkpt lat="44.76651" lon="6.25337">
        <ele>2448.13</ele>
        <time>2013-08-29T11:57:21Z</time>
      </trkpt>
      <trkpt lat="44.76642" lon="6.25339">
        <ele>2449.1</ele>
        <time>2013-08-29T11:57:34Z</time>
      </trkpt>
      <trkpt lat="44.76641" lon="6.2534">
        <ele>2447.17</ele>
        <time>2013-08-29T11:57:36Z</time>
      </trkpt>
      <trkpt lat="44.76633" lon="6.25346">
        <ele>2443.33</ele>
        <time>2013-08-29T11:57:48Z</time>
      </trkpt>
      <trkpt lat="44.76634" lon="6.25341">
        <ele>2444.77</ele>
        <time>2013-08-29T11:57:52Z</time>
      </trkpt>
      <trkpt lat="44.76634" lon="6.25332">
        <ele>2443.33</ele>
        <time>2013-08-29T11:58:03Z</time>
      </trkpt>
      <trkpt lat="44.76627" lon="6.25333">
        <ele>2443.33</ele>
        <time>2013-08-29T11:58:14Z</time>
      </trkpt>
      <trkpt lat="44.76624" lon="6.25341">
        <ele>2440.44</ele>
        <time>2013-08-29T11:58:21Z</time>
      </trkpt>
      <trkpt lat="44.76619" lon="6.25347">
        <ele>2439.48</ele>
        <time>2013-08-29T11:58:31Z</time>
      </trkpt>
      <trkpt lat="44.76617" lon="6.25348">
        <ele>2440.44</ele>
        <time>2013-08-29T11:58:33Z</time>
      </trkpt>
      <trkpt lat="44.76616" lon="6.2535">
        <ele>2438.52</ele>
        <time>2013-08-29T11:58:36Z</time>
      </trkpt>
      <trkpt lat="44.7661" lon="6.25355">
        <ele>2435.16</ele>
        <time>2013-08-29T11:58:46Z</time>
      </trkpt>
      <trkpt lat="44.76609" lon="6.25356">
        <ele>2435.64</ele>
        <time>2013-08-29T11:58:47Z</time>
      </trkpt>
      <trkpt lat="44.76599" lon="6.25359">
        <ele>2433.71</ele>
        <time>2013-08-29T11:58:58Z</time>
      </trkpt>
      <trkpt lat="44.76594" lon="6.2536">
        <ele>2435.16</ele>
        <time>2013-08-29T11:59:06Z</time>
      </trkpt>
      <trkpt lat="44.76592" lon="6.25359">
        <ele>2431.31</ele>
        <time>2013-08-29T11:59:11Z</time>
      </trkpt>
      <trkpt lat="44.76597" lon="6.2535">
        <ele>2428.91</ele>
        <time>2013-08-29T11:59:24Z</time>
      </trkpt>
      <trkpt lat="44.766" lon="6.25344">
        <ele>2429.39</ele>
        <time>2013-08-29T11:59:31Z</time>
      </trkpt>
      <trkpt lat="44.76589" lon="6.25347">
        <ele>2425.06</ele>
        <time>2013-08-29T11:59:45Z</time>
      </trkpt>
      <trkpt lat="44.7658" lon="6.25348">
        <ele>2426.02</ele>
        <time>2013-08-29T11:59:55Z</time>
      </trkpt>
      <trkpt lat="44.76574" lon="6.25347">
        <ele>2421.7</ele>
        <time>2013-08-29T12:00:03Z</time>
      </trkpt>
      <trkpt lat="44.7657" lon="6.25347">
        <ele>2421.22</ele>
        <time>2013-08-29T12:00:08Z</time>
      </trkpt>
      <trkpt lat="44.76568" lon="6.25347">
        <ele>2423.14</ele>
        <time>2013-08-29T12:00:11Z</time>
      </trkpt>
      <trkpt lat="44.76565" lon="6.25347">
        <ele>2420.74</ele>
        <time>2013-08-29T12:00:15Z</time>
      </trkpt>
      <trkpt lat="44.76561" lon="6.25343">
        <ele>2419.3</ele>
        <time>2013-08-29T12:00:25Z</time>
      </trkpt>
      <trkpt lat="44.76564" lon="6.25337">
        <ele>2418.81</ele>
        <time>2013-08-29T12:00:36Z</time>
      </trkpt>
      <trkpt lat="44.76566" lon="6.25336">
        <ele>2417.85</ele>
        <time>2013-08-29T12:00:38Z</time>
      </trkpt>
      <trkpt lat="44.76568" lon="6.25333">
        <ele>2416.41</ele>
        <time>2013-08-29T12:00:48Z</time>
      </trkpt>
      <trkpt lat="44.76563" lon="6.25329">
        <ele>2417.37</ele>
        <time>2013-08-29T12:00:56Z</time>
      </trkpt>
      <trkpt lat="44.76562" lon="6.25327">
        <ele>2414.01</ele>
        <time>2013-08-29T12:00:58Z</time>
      </trkpt>
      <trkpt lat="44.76551" lon="6.2532">
        <ele>2415.45</ele>
        <time>2013-08-29T12:01:13Z</time>
      </trkpt>
      <trkpt lat="44.76549" lon="6.2532">
        <ele>2413.05</ele>
        <time>2013-08-29T12:01:15Z</time>
      </trkpt>
      <trkpt lat="44.76541" lon="6.2532">
        <ele>2411.6</ele>
        <time>2013-08-29T12:01:26Z</time>
      </trkpt>
      <trkpt lat="44.76538" lon="6.25324">
        <ele>2407.76</ele>
        <time>2013-08-29T12:01:33Z</time>
      </trkpt>
      <trkpt lat="44.76537" lon="6.25325">
        <ele>2408.24</ele>
        <time>2013-08-29T12:01:34Z</time>
      </trkpt>
      <trkpt lat="44.76534" lon="6.25327">
        <ele>2406.8</ele>
        <time>2013-08-29T12:01:45Z</time>
      </trkpt>
      <trkpt lat="44.76534" lon="6.25325">
        <ele>2408.72</ele>
        <time>2013-08-29T12:01:48Z</time>
      </trkpt>
      <trkpt lat="44.76534" lon="6.25324">
        <ele>2407.76</ele>
        <time>2013-08-29T12:01:49Z</time>
      </trkpt>
      <trkpt lat="44.76531" lon="6.25313">
        <ele>2407.28</ele>
        <time>2013-08-29T12:02:01Z</time>
      </trkpt>
      <trkpt lat="44.76529" lon="6.2531">
        <ele>2404.39</ele>
        <time>2013-08-29T12:02:06Z</time>
      </trkpt>
      <trkpt lat="44.76527" lon="6.25303">
        <ele>2404.88</ele>
        <time>2013-08-29T12:02:13Z</time>
      </trkpt>
      <trkpt lat="44.76523" lon="6.25296">
        <ele>2402.47</ele>
        <time>2013-08-29T12:02:25Z</time>
      </trkpt>
      <trkpt lat="44.76521" lon="6.25292">
        <ele>2398.63</ele>
        <time>2013-08-29T12:02:34Z</time>
      </trkpt>
      <trkpt lat="44.76519" lon="6.25293">
        <ele>2401.99</ele>
        <time>2013-08-29T12:02:38Z</time>
      </trkpt>
      <trkpt lat="44.76516" lon="6.25293">
        <ele>2398.63</ele>
        <time>2013-08-29T12:02:41Z</time>
      </trkpt>
      <trkpt lat="44.76514" lon="6.25293">
        <ele>2398.63</ele>
        <time>2013-08-29T12:02:42Z</time>
      </trkpt>
      <trkpt lat="44.76513" lon="6.25294">
        <ele>2401.03</ele>
        <time>2013-08-29T12:02:43Z</time>
      </trkpt>
      <trkpt lat="44.76509" lon="6.253">
        <ele>2397.18</ele>
        <time>2013-08-29T12:02:55Z</time>
      </trkpt>
      <trkpt lat="44.76507" lon="6.25298">
        <ele>2395.74</ele>
        <time>2013-08-29T12:02:58Z</time>
      </trkpt>
      <trkpt lat="44.76506" lon="6.25295">
        <ele>2396.22</ele>
        <time>2013-08-29T12:03:03Z</time>
      </trkpt>
      <trkpt lat="44.76505" lon="6.25289">
        <ele>2393.82</ele>
        <time>2013-08-29T12:03:15Z</time>
      </trkpt>
      <trkpt lat="44.76504" lon="6.2529">
        <ele>2395.26</ele>
        <time>2013-08-29T12:03:16Z</time>
      </trkpt>
      <trkpt lat="44.76499" lon="6.25291">
        <ele>2394.3</ele>
        <time>2013-08-29T12:03:22Z</time>
      </trkpt>
      <trkpt lat="44.76497" lon="6.25291">
        <ele>2393.82</ele>
        <time>2013-08-29T12:03:24Z</time>
      </trkpt>
      <trkpt lat="44.76492" lon="6.25291">
        <ele>2394.3</ele>
        <time>2013-08-29T12:03:28Z</time>
      </trkpt>
      <trkpt lat="44.76486" lon="6.25292">
        <ele>2390.94</ele>
        <time>2013-08-29T12:03:35Z</time>
      </trkpt>
      <trkpt lat="44.76486" lon="6.25292">
        <ele>2390.94</ele>
        <time>2013-08-29T12:03:36Z</time>
      </trkpt>
      <trkpt lat="44.76485" lon="6.25293">
        <ele>2390.94</ele>
        <time>2013-08-29T12:03:47Z</time>
      </trkpt>
      <trkpt lat="44.76485" lon="6.25293">
        <ele>2390.94</ele>
        <time>2013-08-29T12:04:15Z</time>
      </trkpt>
      <trkpt lat="44.76485" lon="6.25292">
        <ele>2390.94</ele>
        <time>2013-08-29T12:04:19Z</time>
      </trkpt>
      <trkpt lat="44.76485" lon="6.25292">
        <ele>2390.94</ele>
        <time>2013-08-29T12:04:27Z</time>
      </trkpt>
      <trkpt lat="44.76485" lon="6.25293">
        <ele>2391.9</ele>
        <time>2013-08-29T12:04:56Z</time>
      </trkpt>
      <trkpt lat="44.76485" lon="6.25293">
        <ele>2390.94</ele>
        <time>2013-08-29T12:05:07Z</time>
      </trkpt>
      <trkpt lat="44.76485" lon="6.25293">
        <ele>2389.97</ele>
        <time>2013-08-29T12:05:38Z</time>
      </trkpt>
      <trkpt lat="44.76485" lon="6.25293">
        <ele>2391.42</ele>
        <time>2013-08-29T12:05:53Z</time>
      </trkpt>
      <trkpt lat="44.76478" lon="6.25292">
        <ele>2390.46</ele>
        <time>2013-08-29T12:06:05Z</time>
      </trkpt>
      <trkpt lat="44.76471" lon="6.25294">
        <ele>2387.09</ele>
        <time>2013-08-29T12:06:16Z</time>
      </trkpt>
      <trkpt lat="44.76473" lon="6.25284">
        <ele>2387.09</ele>
        <time>2013-08-29T12:06:28Z</time>
      </trkpt>
      <trkpt lat="44.76475" lon="6.25279">
        <ele>2383.73</ele>
        <time>2013-08-29T12:06:36Z</time>
      </trkpt>
      <trkpt lat="44.76479" lon="6.25275">
        <ele>2383.73</ele>
        <time>2013-08-29T12:06:43Z</time>
      </trkpt>
      <trkpt lat="44.76485" lon="6.25266">
        <ele>2382.28</ele>
        <time>2013-08-29T12:06:56Z</time>
      </trkpt>
      <trkpt lat="44.76482" lon="6.25264">
        <ele>2381.32</ele>
        <time>2013-08-29T12:07:02Z</time>
      </trkpt>
      <trkpt lat="44.76478" lon="6.25265">
        <ele>2380.84</ele>
        <time>2013-08-29T12:07:08Z</time>
      </trkpt>
      <trkpt lat="44.76468" lon="6.25268">
        <ele>2378.44</ele>
        <time>2013-08-29T12:07:19Z</time>
      </trkpt>
      <trkpt lat="44.76468" lon="6.25268">
        <ele>2378.92</ele>
        <time>2013-08-29T12:07:20Z</time>
      </trkpt>
      <trkpt lat="44.76464" lon="6.25267">
        <ele>2377.48</ele>
        <time>2013-08-29T12:07:24Z</time>
      </trkpt>
      <trkpt lat="44.76458" lon="6.25266">
        <ele>2375.55</ele>
        <time>2013-08-29T12:07:32Z</time>
      </trkpt>
      <trkpt lat="44.76448" lon="6.25264">
        <ele>2374.11</ele>
        <time>2013-08-29T12:07:44Z</time>
      </trkpt>
      <trkpt lat="44.7644" lon="6.25264">
        <ele>2373.15</ele>
        <time>2013-08-29T12:07:53Z</time>
      </trkpt>
      <trkpt lat="44.76433" lon="6.25263">
        <ele>2372.67</ele>
        <time>2013-08-29T12:08:04Z</time>
      </trkpt>
      <trkpt lat="44.76429" lon="6.25262">
        <ele>2369.79</ele>
        <time>2013-08-29T12:08:11Z</time>
      </trkpt>
      <trkpt lat="44.76421" lon="6.25263">
        <ele>2370.27</ele>
        <time>2013-08-29T12:08:20Z</time>
      </trkpt>
      <trkpt lat="44.76419" lon="6.25264">
        <ele>2368.83</ele>
        <time>2013-08-29T12:08:22Z</time>
      </trkpt>
      <trkpt lat="44.76411" lon="6.25262">
        <ele>2366.9</ele>
        <time>2013-08-29T12:08:35Z</time>
      </trkpt>
      <trkpt lat="44.76407" lon="6.25262">
        <ele>2365.46</ele>
        <time>2013-08-29T12:08:42Z</time>
      </trkpt>
      <trkpt lat="44.76405" lon="6.2526">
        <ele>2364.98</ele>
        <time>2013-08-29T12:08:46Z</time>
      </trkpt>
      <trkpt lat="44.76396" lon="6.25257">
        <ele>2363.06</ele>
        <time>2013-08-29T12:08:57Z</time>
      </trkpt>
      <trkpt lat="44.7639" lon="6.25258">
        <ele>2360.17</ele>
        <time>2013-08-29T12:09:06Z</time>
      </trkpt>
      <trkpt lat="44.76379" lon="6.25257">
        <ele>2360.17</ele>
        <time>2013-08-29T12:09:20Z</time>
      </trkpt>
      <trkpt lat="44.76371" lon="6.25256">
        <ele>2355.37</ele>
        <time>2013-08-29T12:09:30Z</time>
      </trkpt>
      <trkpt lat="44.76363" lon="6.25254">
        <ele>2353.93</ele>
        <time>2013-08-29T12:09:42Z</time>
      </trkpt>
      <trkpt lat="44.76356" lon="6.25254">
        <ele>2351.04</ele>
        <time>2013-08-29T12:09:52Z</time>
      </trkpt>
      <trkpt lat="44.76348" lon="6.25252">
        <ele>2350.08</ele>
        <time>2013-08-29T12:10:02Z</time>
      </trkpt>
      <trkpt lat="44.76343" lon="6.25254">
        <ele>2349.6</ele>
        <time>2013-08-29T12:10:12Z</time>
      </trkpt>
      <trkpt lat="44.76341" lon="6.25255">
        <ele>2347.68</ele>
        <time>2013-08-29T12:10:15Z</time>
      </trkpt>
      <trkpt lat="44.76335" lon="6.25254">
        <ele>2343.83</ele>
        <time>2013-08-29T12:10:26Z</time>
      </trkpt>
      <trkpt lat="44.76336" lon="6.25252">
        <ele>2345.27</ele>
        <time>2013-08-29T12:10:29Z</time>
      </trkpt>
      <trkpt lat="44.76336" lon="6.2525">
        <ele>2344.31</ele>
        <time>2013-08-29T12:10:31Z</time>
      </trkpt>
      <trkpt lat="44.76336" lon="6.25248">
        <ele>2345.27</ele>
        <time>2013-08-29T12:10:33Z</time>
      </trkpt>
      <trkpt lat="44.76336" lon="6.25246">
        <ele>2341.43</ele>
        <time>2013-08-29T12:10:35Z</time>
      </trkpt>
      <trkpt lat="44.76344" lon="6.25237">
        <ele>2340.47</ele>
        <time>2013-08-29T12:10:46Z</time>
      </trkpt>
      <trkpt lat="44.7635" lon="6.25231">
        <ele>2341.91</ele>
        <time>2013-08-29T12:10:54Z</time>
      </trkpt>
      <trkpt lat="44.76353" lon="6.25227">
        <ele>2338.54</ele>
        <time>2013-08-29T12:10:59Z</time>
      </trkpt>
      <trkpt lat="44.76356" lon="6.25223">
        <ele>2336.62</ele>
        <time>2013-08-29T12:11:04Z</time>
      </trkpt>
      <trkpt lat="44.76361" lon="6.2522">
        <ele>2337.1</ele>
        <time>2013-08-29T12:11:10Z</time>
      </trkpt>
      <trkpt lat="44.76368" lon="6.2521">
        <ele>2335.66</ele>
        <time>2013-08-29T12:11:22Z</time>
      </trkpt>
      <trkpt lat="44.76368" lon="6.25207">
        <ele>2337.58</ele>
        <time>2013-08-29T12:11:24Z</time>
      </trkpt>
      <trkpt lat="44.76369" lon="6.25206">
        <ele>2337.58</ele>
        <time>2013-08-29T12:11:25Z</time>
      </trkpt>
      <trkpt lat="44.76373" lon="6.25192">
        <ele>2335.18</ele>
        <time>2013-08-29T12:11:37Z</time>
      </trkpt>
      <trkpt lat="44.76376" lon="6.25184">
        <ele>2332.78</ele>
        <time>2013-08-29T12:11:48Z</time>
      </trkpt>
      <trkpt lat="44.76381" lon="6.25174">
        <ele>2331.33</ele>
        <time>2013-08-29T12:12:00Z</time>
      </trkpt>
      <trkpt lat="44.76385" lon="6.25168">
        <ele>2330.85</ele>
        <time>2013-08-29T12:12:09Z</time>
      </trkpt>
      <trkpt lat="44.76387" lon="6.25167">
        <ele>2330.37</ele>
        <time>2013-08-29T12:12:12Z</time>
      </trkpt>
      <trkpt lat="44.76394" lon="6.25163">
        <ele>2328.45</ele>
        <time>2013-08-29T12:12:24Z</time>
      </trkpt>
      <trkpt lat="44.76396" lon="6.25163">
        <ele>2327.49</ele>
        <time>2013-08-29T12:12:33Z</time>
      </trkpt>
      <trkpt lat="44.76403" lon="6.25162">
        <ele>2325.09</ele>
        <time>2013-08-29T12:12:41Z</time>
      </trkpt>
      <trkpt lat="44.76412" lon="6.25164">
        <ele>2321.72</ele>
        <time>2013-08-29T12:12:53Z</time>
      </trkpt>
      <trkpt lat="44.76416" lon="6.25163">
        <ele>2322.68</ele>
        <time>2013-08-29T12:12:59Z</time>
      </trkpt>
      <trkpt lat="44.76421" lon="6.25163">
        <ele>2320.28</ele>
        <time>2013-08-29T12:13:06Z</time>
      </trkpt>
      <trkpt lat="44.7643" lon="6.25166">
        <ele>2318.84</ele>
        <time>2013-08-29T12:13:18Z</time>
      </trkpt>
      <trkpt lat="44.76434" lon="6.25167">
        <ele>2317.4</ele>
        <time>2013-08-29T12:13:24Z</time>
      </trkpt>
      <trkpt lat="44.76441" lon="6.2517">
        <ele>2316.43</ele>
        <time>2013-08-29T12:13:36Z</time>
      </trkpt>
      <trkpt lat="44.76445" lon="6.25168">
        <ele>2314.03</ele>
        <time>2013-08-29T12:13:47Z</time>
      </trkpt>
      <trkpt lat="44.76442" lon="6.25158">
        <ele>2313.07</ele>
        <time>2013-08-29T12:13:59Z</time>
      </trkpt>
      <trkpt lat="44.76441" lon="6.25156">
        <ele>2310.67</ele>
        <time>2013-08-29T12:14:01Z</time>
      </trkpt>
      <trkpt lat="44.76438" lon="6.25147">
        <ele>2309.22</ele>
        <time>2013-08-29T12:14:12Z</time>
      </trkpt>
      <trkpt lat="44.76432" lon="6.25139">
        <ele>2307.3</ele>
        <time>2013-08-29T12:14:23Z</time>
      </trkpt>
      <trkpt lat="44.76426" lon="6.25133">
        <ele>2306.34</ele>
        <time>2013-08-29T12:14:34Z</time>
      </trkpt>
      <trkpt lat="44.76419" lon="6.25126">
        <ele>2304.9</ele>
        <time>2013-08-29T12:14:45Z</time>
      </trkpt>
      <trkpt lat="44.76417" lon="6.25124">
        <ele>2303.94</ele>
        <time>2013-08-29T12:14:48Z</time>
      </trkpt>
      <trkpt lat="44.76406" lon="6.25121">
        <ele>2302.49</ele>
        <time>2013-08-29T12:15:02Z</time>
      </trkpt>
      <trkpt lat="44.76406" lon="6.25119">
        <ele>2301.53</ele>
        <time>2013-08-29T12:15:04Z</time>
      </trkpt>
      <trkpt lat="44.76412" lon="6.25117">
        <ele>2298.65</ele>
        <time>2013-08-29T12:15:12Z</time>
      </trkpt>
      <trkpt lat="44.76417" lon="6.25114">
        <ele>2298.17</ele>
        <time>2013-08-29T12:15:20Z</time>
      </trkpt>
      <trkpt lat="44.76417" lon="6.25109">
        <ele>2297.21</ele>
        <time>2013-08-29T12:15:28Z</time>
      </trkpt>
      <trkpt lat="44.76412" lon="6.25108">
        <ele>2296.25</ele>
        <time>2013-08-29T12:15:36Z</time>
      </trkpt>
      <trkpt lat="44.76403" lon="6.25107">
        <ele>2294.32</ele>
        <time>2013-08-29T12:15:47Z</time>
      </trkpt>
      <trkpt lat="44.76405" lon="6.25101">
        <ele>2291.44</ele>
        <time>2013-08-29T12:15:57Z</time>
      </trkpt>
      <trkpt lat="44.76406" lon="6.25098">
        <ele>2292.4</ele>
        <time>2013-08-29T12:16:01Z</time>
      </trkpt>
      <trkpt lat="44.76407" lon="6.25097">
        <ele>2290.96</ele>
        <time>2013-08-29T12:16:03Z</time>
      </trkpt>
      <trkpt lat="44.76407" lon="6.25091">
        <ele>2287.59</ele>
        <time>2013-08-29T12:16:08Z</time>
      </trkpt>
      <trkpt lat="44.76407" lon="6.25086">
        <ele>2288.08</ele>
        <time>2013-08-29T12:16:12Z</time>
      </trkpt>
      <trkpt lat="44.76407" lon="6.25078">
        <ele>2286.63</ele>
        <time>2013-08-29T12:16:18Z</time>
      </trkpt>
      <trkpt lat="44.76407" lon="6.25077">
        <ele>2287.11</ele>
        <time>2013-08-29T12:16:20Z</time>
      </trkpt>
      <trkpt lat="44.76404" lon="6.25074">
        <ele>2289.04</ele>
        <time>2013-08-29T12:16:25Z</time>
      </trkpt>
      <trkpt lat="44.76408" lon="6.25067">
        <ele>2288.08</ele>
        <time>2013-08-29T12:16:34Z</time>
      </trkpt>
      <trkpt lat="44.76411" lon="6.25063">
        <ele>2288.08</ele>
        <time>2013-08-29T12:16:39Z</time>
      </trkpt>
      <trkpt lat="44.76413" lon="6.25059">
        <ele>2284.71</ele>
        <time>2013-08-29T12:16:44Z</time>
      </trkpt>
      <trkpt lat="44.76419" lon="6.25055">
        <ele>2285.67</ele>
        <time>2013-08-29T12:16:53Z</time>
      </trkpt>
      <trkpt lat="44.76425" lon="6.2505">
        <ele>2283.27</ele>
        <time>2013-08-29T12:17:06Z</time>
      </trkpt>
      <trkpt lat="44.76423" lon="6.25047">
        <ele>2283.75</ele>
        <time>2013-08-29T12:17:09Z</time>
      </trkpt>
      <trkpt lat="44.76416" lon="6.25043">
        <ele>2284.23</ele>
        <time>2013-08-29T12:17:17Z</time>
      </trkpt>
      <trkpt lat="44.76413" lon="6.25042">
        <ele>2280.87</ele>
        <time>2013-08-29T12:17:21Z</time>
      </trkpt>
      <trkpt lat="44.76403" lon="6.2504">
        <ele>2279.42</ele>
        <time>2013-08-29T12:17:33Z</time>
      </trkpt>
      <trkpt lat="44.76403" lon="6.2504">
        <ele>2280.38</ele>
        <time>2013-08-29T12:17:34Z</time>
      </trkpt>
      <trkpt lat="44.764" lon="6.25032">
        <ele>2279.42</ele>
        <time>2013-08-29T12:17:44Z</time>
      </trkpt>
      <trkpt lat="44.76403" lon="6.25028">
        <ele>2276.06</ele>
        <time>2013-08-29T12:17:51Z</time>
      </trkpt>
      <trkpt lat="44.7641" lon="6.25023">
        <ele>2276.54</ele>
        <time>2013-08-29T12:18:02Z</time>
      </trkpt>
      <trkpt lat="44.76414" lon="6.25021">
        <ele>2275.58</ele>
        <time>2013-08-29T12:18:06Z</time>
      </trkpt>
      <trkpt lat="44.76416" lon="6.25019">
        <ele>2275.58</ele>
        <time>2013-08-29T12:18:09Z</time>
      </trkpt>
      <trkpt lat="44.76425" lon="6.25011">
        <ele>2272.21</ele>
        <time>2013-08-29T12:18:23Z</time>
      </trkpt>
      <trkpt lat="44.76431" lon="6.25011">
        <ele>2271.73</ele>
        <time>2013-08-29T12:18:29Z</time>
      </trkpt>
      <trkpt lat="44.76442" lon="6.2501">
        <ele>2270.77</ele>
        <time>2013-08-29T12:18:42Z</time>
      </trkpt>
      <trkpt lat="44.76439" lon="6.24995">
        <ele>2269.33</ele>
        <time>2013-08-29T12:18:55Z</time>
      </trkpt>
      <trkpt lat="44.76438" lon="6.24988">
        <ele>2268.37</ele>
        <time>2013-08-29T12:19:07Z</time>
      </trkpt>
      <trkpt lat="44.76439" lon="6.24986">
        <ele>2266.93</ele>
        <time>2013-08-29T12:19:11Z</time>
      </trkpt>
      <trkpt lat="44.76435" lon="6.24977">
        <ele>2265.48</ele>
        <time>2013-08-29T12:19:23Z</time>
      </trkpt>
      <trkpt lat="44.76432" lon="6.24973">
        <ele>2264.04</ele>
        <time>2013-08-29T12:19:33Z</time>
      </trkpt>
      <trkpt lat="44.76425" lon="6.2497">
        <ele>2262.12</ele>
        <time>2013-08-29T12:19:44Z</time>
      </trkpt>
      <trkpt lat="44.76421" lon="6.24965">
        <ele>2263.08</ele>
        <time>2013-08-29T12:19:54Z</time>
      </trkpt>
      <trkpt lat="44.76421" lon="6.24966">
        <ele>2258.75</ele>
        <time>2013-08-29T12:20:01Z</time>
      </trkpt>
      <trkpt lat="44.76421" lon="6.24966">
        <ele>2255.87</ele>
        <time>2013-08-29T12:20:03Z</time>
      </trkpt>
      <trkpt lat="44.76421" lon="6.24966">
        <ele>2262.6</ele>
        <time>2013-08-29T12:20:04Z</time>
      </trkpt>
      <trkpt lat="44.76421" lon="6.24965">
        <ele>2259.24</ele>
        <time>2013-08-29T12:20:24Z</time>
      </trkpt>
      <trkpt lat="44.76421" lon="6.24965">
        <ele>2262.6</ele>
        <time>2013-08-29T12:20:26Z</time>
      </trkpt>
      <trkpt lat="44.76421" lon="6.24965">
        <ele>2262.12</ele>
        <time>2013-08-29T12:20:27Z</time>
      </trkpt>
      <trkpt lat="44.7642" lon="6.24965">
        <ele>2261.64</ele>
        <time>2013-08-29T12:20:49Z</time>
      </trkpt>
      <trkpt lat="44.76418" lon="6.24965">
        <ele>2262.6</ele>
        <time>2013-08-29T12:20:55Z</time>
      </trkpt>
      <trkpt lat="44.7641" lon="6.24959">
        <ele>2259.72</ele>
        <time>2013-08-29T12:21:05Z</time>
      </trkpt>
      <trkpt lat="44.76408" lon="6.2496">
        <ele>2260.2</ele>
        <time>2013-08-29T12:21:15Z</time>
      </trkpt>
      <trkpt lat="44.76406" lon="6.24958">
        <ele>2259.24</ele>
        <time>2013-08-29T12:21:18Z</time>
      </trkpt>
      <trkpt lat="44.76401" lon="6.24951">
        <ele>2256.35</ele>
        <time>2013-08-29T12:21:26Z</time>
      </trkpt>
      <trkpt lat="44.76401" lon="6.24951">
        <ele>2256.35</ele>
        <time>2013-08-29T12:21:27Z</time>
      </trkpt>
      <trkpt lat="44.76399" lon="6.24948">
        <ele>2254.91</ele>
        <time>2013-08-29T12:21:31Z</time>
      </trkpt>
      <trkpt lat="44.76403" lon="6.24945">
        <ele>2255.39</ele>
        <time>2013-08-29T12:21:35Z</time>
      </trkpt>
      <trkpt lat="44.76408" lon="6.24942">
        <ele>2253.47</ele>
        <time>2013-08-29T12:21:46Z</time>
      </trkpt>
      <trkpt lat="44.76408" lon="6.24942">
        <ele>2253.47</ele>
        <time>2013-08-29T12:22:09Z</time>
      </trkpt>
      <trkpt lat="44.76407" lon="6.24943">
        <ele>2253.95</ele>
        <time>2013-08-29T12:22:16Z</time>
      </trkpt>
      <trkpt lat="44.76404" lon="6.24942">
        <ele>2254.91</ele>
        <time>2013-08-29T12:22:28Z</time>
      </trkpt>
      <trkpt lat="44.76404" lon="6.24942">
        <ele>2253.95</ele>
        <time>2013-08-29T12:22:46Z</time>
      </trkpt>
      <trkpt lat="44.76404" lon="6.24942">
        <ele>2254.91</ele>
        <time>2013-08-29T12:23:02Z</time>
      </trkpt>
      <trkpt lat="44.76404" lon="6.24942">
        <ele>2254.43</ele>
        <time>2013-08-29T12:23:31Z</time>
      </trkpt>
      <trkpt lat="44.76404" lon="6.24942">
        <ele>2254.91</ele>
        <time>2013-08-29T12:23:53Z</time>
      </trkpt>
      <trkpt lat="44.76405" lon="6.24943">
        <ele>2254.91</ele>
        <time>2013-08-29T12:24:18Z</time>
      </trkpt>
      <trkpt lat="44.76404" lon="6.24943">
        <ele>2253.95</ele>
        <time>2013-08-29T12:24:45Z</time>
      </trkpt>
      <trkpt lat="44.76404" lon="6.24943">
        <ele>2253.95</ele>
        <time>2013-08-29T12:25:16Z</time>
      </trkpt>
      <trkpt lat="44.76407" lon="6.24942">
        <ele>2254.43</ele>
        <time>2013-08-29T12:25:42Z</time>
      </trkpt>
      <trkpt lat="44.76413" lon="6.2494">
        <ele>2253.95</ele>
        <time>2013-08-29T12:25:50Z</time>
      </trkpt>
      <trkpt lat="44.76416" lon="6.24936">
        <ele>2252.99</ele>
        <time>2013-08-29T12:25:58Z</time>
      </trkpt>
      <trkpt lat="44.76423" lon="6.24933">
        <ele>2252.51</ele>
        <time>2013-08-29T12:26:09Z</time>
      </trkpt>
      <trkpt lat="44.76424" lon="6.24932">
        <ele>2251.06</ele>
        <time>2013-08-29T12:26:12Z</time>
      </trkpt>
      <trkpt lat="44.76426" lon="6.24927">
        <ele>2250.1</ele>
        <time>2013-08-29T12:26:18Z</time>
      </trkpt>
      <trkpt lat="44.76435" lon="6.2493">
        <ele>2249.62</ele>
        <time>2013-08-29T12:26:30Z</time>
      </trkpt>
      <trkpt lat="44.76437" lon="6.2493">
        <ele>2248.18</ele>
        <time>2013-08-29T12:26:34Z</time>
      </trkpt>
      <trkpt lat="44.76439" lon="6.2493">
        <ele>2247.22</ele>
        <time>2013-08-29T12:26:43Z</time>
      </trkpt>
      <trkpt lat="44.76441" lon="6.24927">
        <ele>2245.3</ele>
        <time>2013-08-29T12:26:53Z</time>
      </trkpt>
      <trkpt lat="44.76442" lon="6.24927">
        <ele>2244.33</ele>
        <time>2013-08-29T12:26:55Z</time>
      </trkpt>
      <trkpt lat="44.76442" lon="6.24927">
        <ele>2245.78</ele>
        <time>2013-08-29T12:26:56Z</time>
      </trkpt>
      <trkpt lat="44.76457" lon="6.24922">
        <ele>2244.33</ele>
        <time>2013-08-29T12:27:09Z</time>
      </trkpt>
      <trkpt lat="44.76458" lon="6.24923">
        <ele>2245.3</ele>
        <time>2013-08-29T12:27:10Z</time>
      </trkpt>
      <trkpt lat="44.76466" lon="6.24919">
        <ele>2243.85</ele>
        <time>2013-08-29T12:27:20Z</time>
      </trkpt>
      <trkpt lat="44.76467" lon="6.24917">
        <ele>2244.33</ele>
        <time>2013-08-29T12:27:22Z</time>
      </trkpt>
      <trkpt lat="44.76471" lon="6.24911">
        <ele>2241.45</ele>
        <time>2013-08-29T12:27:28Z</time>
      </trkpt>
      <trkpt lat="44.76472" lon="6.24905">
        <ele>2242.89</ele>
        <time>2013-08-29T12:27:33Z</time>
      </trkpt>
      <trkpt lat="44.76477" lon="6.24898">
        <ele>2241.93</ele>
        <time>2013-08-29T12:27:44Z</time>
      </trkpt>
      <trkpt lat="44.76481" lon="6.24893">
        <ele>2239.05</ele>
        <time>2013-08-29T12:27:55Z</time>
      </trkpt>
      <trkpt lat="44.76478" lon="6.24892">
        <ele>2239.53</ele>
        <time>2013-08-29T12:28:02Z</time>
      </trkpt>
      <trkpt lat="44.76474" lon="6.2489">
        <ele>2239.53</ele>
        <time>2013-08-29T12:28:08Z</time>
      </trkpt>
      <trkpt lat="44.76468" lon="6.24889">
        <ele>2238.09</ele>
        <time>2013-08-29T12:28:14Z</time>
      </trkpt>
      <trkpt lat="44.76464" lon="6.24887">
        <ele>2239.05</ele>
        <time>2013-08-29T12:28:22Z</time>
      </trkpt>
      <trkpt lat="44.7647" lon="6.24884">
        <ele>2236.16</ele>
        <time>2013-08-29T12:28:31Z</time>
      </trkpt>
      <trkpt lat="44.76473" lon="6.24884">
        <ele>2236.16</ele>
        <time>2013-08-29T12:28:35Z</time>
      </trkpt>
      <trkpt lat="44.76477" lon="6.24882">
        <ele>2235.68</ele>
        <time>2013-08-29T12:28:42Z</time>
      </trkpt>
      <trkpt lat="44.7648" lon="6.24879">
        <ele>2237.61</ele>
        <time>2013-08-29T12:28:46Z</time>
      </trkpt>
      <trkpt lat="44.76482" lon="6.24877">
        <ele>2235.2</ele>
        <time>2013-08-29T12:28:49Z</time>
      </trkpt>
      <trkpt lat="44.76484" lon="6.24876">
        <ele>2235.68</ele>
        <time>2013-08-29T12:28:53Z</time>
      </trkpt>
      <trkpt lat="44.76485" lon="6.24876">
        <ele>2234.24</ele>
        <time>2013-08-29T12:28:55Z</time>
      </trkpt>
      <trkpt lat="44.76486" lon="6.24871">
        <ele>2233.76</ele>
        <time>2013-08-29T12:29:02Z</time>
      </trkpt>
      <trkpt lat="44.76484" lon="6.24859">
        <ele>2234.24</ele>
        <time>2013-08-29T12:29:15Z</time>
      </trkpt>
      <trkpt lat="44.76481" lon="6.24849">
        <ele>2233.28</ele>
        <time>2013-08-29T12:29:26Z</time>
      </trkpt>
      <trkpt lat="44.76479" lon="6.24845">
        <ele>2234.72</ele>
        <time>2013-08-29T12:29:29Z</time>
      </trkpt>
      <trkpt lat="44.76477" lon="6.2484">
        <ele>2233.28</ele>
        <time>2013-08-29T12:29:35Z</time>
      </trkpt>
      <trkpt lat="44.7647" lon="6.24834">
        <ele>2231.84</ele>
        <time>2013-08-29T12:29:48Z</time>
      </trkpt>
      <trkpt lat="44.76464" lon="6.24828">
        <ele>2230.88</ele>
        <time>2013-08-29T12:29:59Z</time>
      </trkpt>
      <trkpt lat="44.76461" lon="6.24824">
        <ele>2228.95</ele>
        <time>2013-08-29T12:30:09Z</time>
      </trkpt>
      <trkpt lat="44.76458" lon="6.24816">
        <ele>2225.59</ele>
        <time>2013-08-29T12:30:19Z</time>
      </trkpt>
      <trkpt lat="44.76454" lon="6.24806">
        <ele>2226.07</ele>
        <time>2013-08-29T12:30:31Z</time>
      </trkpt>
      <trkpt lat="44.76449" lon="6.24799">
        <ele>2224.15</ele>
        <time>2013-08-29T12:30:43Z</time>
      </trkpt>
      <trkpt lat="44.76445" lon="6.24791">
        <ele>2221.74</ele>
        <time>2013-08-29T12:30:52Z</time>
      </trkpt>
      <trkpt lat="44.7644" lon="6.24779">
        <ele>2218.86</ele>
        <time>2013-08-29T12:31:04Z</time>
      </trkpt>
      <trkpt lat="44.76439" lon="6.24778">
        <ele>2219.34</ele>
        <time>2013-08-29T12:31:05Z</time>
      </trkpt>
      <trkpt lat="44.76437" lon="6.24769">
        <ele>2218.38</ele>
        <time>2013-08-29T12:31:13Z</time>
      </trkpt>
      <trkpt lat="44.76434" lon="6.24761">
        <ele>2213.57</ele>
        <time>2013-08-29T12:31:25Z</time>
      </trkpt>
      <trkpt lat="44.76431" lon="6.2475">
        <ele>2215.01</ele>
        <time>2013-08-29T12:31:38Z</time>
      </trkpt>
      <trkpt lat="44.7643" lon="6.24748">
        <ele>2212.13</ele>
        <time>2013-08-29T12:31:43Z</time>
      </trkpt>
      <trkpt lat="44.76428" lon="6.24749">
        <ele>2209.25</ele>
        <time>2013-08-29T12:31:54Z</time>
      </trkpt>
      <trkpt lat="44.76428" lon="6.2475">
        <ele>2210.69</ele>
        <time>2013-08-29T12:31:55Z</time>
      </trkpt>
      <trkpt lat="44.76424" lon="6.24748">
        <ele>2208.77</ele>
        <time>2013-08-29T12:32:05Z</time>
      </trkpt>
      <trkpt lat="44.76422" lon="6.24738">
        <ele>2206.36</ele>
        <time>2013-08-29T12:32:16Z</time>
      </trkpt>
      <trkpt lat="44.76419" lon="6.24745">
        <ele>2204.92</ele>
        <time>2013-08-29T12:32:27Z</time>
      </trkpt>
      <trkpt lat="44.76418" lon="6.24745">
        <ele>2203.96</ele>
        <time>2013-08-29T12:32:29Z</time>
      </trkpt>
      <trkpt lat="44.76415" lon="6.24755">
        <ele>2203.48</ele>
        <time>2013-08-29T12:32:38Z</time>
      </trkpt>
      <trkpt lat="44.76416" lon="6.24758">
        <ele>2202.04</ele>
        <time>2013-08-29T12:32:42Z</time>
      </trkpt>
      <trkpt lat="44.76413" lon="6.24756">
        <ele>2199.15</ele>
        <time>2013-08-29T12:32:51Z</time>
      </trkpt>
      <trkpt lat="44.76413" lon="6.24755">
        <ele>2200.11</ele>
        <time>2013-08-29T12:32:53Z</time>
      </trkpt>
      <trkpt lat="44.7641" lon="6.24751">
        <ele>2197.23</ele>
        <time>2013-08-29T12:33:02Z</time>
      </trkpt>
      <trkpt lat="44.7641" lon="6.2475">
        <ele>2198.19</ele>
        <time>2013-08-29T12:33:03Z</time>
      </trkpt>
      <trkpt lat="44.76406" lon="6.24747">
        <ele>2197.71</ele>
        <time>2013-08-29T12:33:12Z</time>
      </trkpt>
      <trkpt lat="44.76405" lon="6.24746">
        <ele>2196.27</ele>
        <time>2013-08-29T12:33:14Z</time>
      </trkpt>
      <trkpt lat="44.76403" lon="6.24744">
        <ele>2195.31</ele>
        <time>2013-08-29T12:33:25Z</time>
      </trkpt>
      <trkpt lat="44.764" lon="6.24741">
        <ele>2193.87</ele>
        <time>2013-08-29T12:33:33Z</time>
      </trkpt>
      <trkpt lat="44.76397" lon="6.24738">
        <ele>2191.46</ele>
        <time>2013-08-29T12:33:40Z</time>
      </trkpt>
      <trkpt lat="44.76388" lon="6.24738">
        <ele>2191.94</ele>
        <time>2013-08-29T12:33:50Z</time>
      </trkpt>
      <trkpt lat="44.76386" lon="6.24735">
        <ele>2190.02</ele>
        <time>2013-08-29T12:33:56Z</time>
      </trkpt>
      <trkpt lat="44.76382" lon="6.24738">
        <ele>2188.1</ele>
        <time>2013-08-29T12:34:08Z</time>
      </trkpt>
      <trkpt lat="44.76378" lon="6.24737">
        <ele>2187.62</ele>
        <time>2013-08-29T12:34:17Z</time>
      </trkpt>
      <trkpt lat="44.76377" lon="6.24737">
        <ele>2185.21</ele>
        <time>2013-08-29T12:34:19Z</time>
      </trkpt>
      <trkpt lat="44.76374" lon="6.24737">
        <ele>2183.29</ele>
        <time>2013-08-29T12:34:31Z</time>
      </trkpt>
      <trkpt lat="44.76374" lon="6.24738">
        <ele>2181.85</ele>
        <time>2013-08-29T12:34:38Z</time>
      </trkpt>
      <trkpt lat="44.76368" lon="6.24736">
        <ele>2180.89</ele>
        <time>2013-08-29T12:34:47Z</time>
      </trkpt>
      <trkpt lat="44.76365" lon="6.24738">
        <ele>2179.45</ele>
        <time>2013-08-29T12:34:51Z</time>
      </trkpt>
      <trkpt lat="44.7636" lon="6.24729">
        <ele>2177.52</ele>
        <time>2013-08-29T12:35:03Z</time>
      </trkpt>
      <trkpt lat="44.76364" lon="6.24718">
        <ele>2175.12</ele>
        <time>2013-08-29T12:35:16Z</time>
      </trkpt>
      <trkpt lat="44.76364" lon="6.24712">
        <ele>2175.12</ele>
        <time>2013-08-29T12:35:22Z</time>
      </trkpt>
      <trkpt lat="44.7636" lon="6.24705">
        <ele>2173.68</ele>
        <time>2013-08-29T12:35:33Z</time>
      </trkpt>
      <trkpt lat="44.76353" lon="6.24697">
        <ele>2173.68</ele>
        <time>2013-08-29T12:35:45Z</time>
      </trkpt>
      <trkpt lat="44.76346" lon="6.24694">
        <ele>2172.72</ele>
        <time>2013-08-29T12:35:57Z</time>
      </trkpt>
      <trkpt lat="44.76345" lon="6.24692">
        <ele>2172.72</ele>
        <time>2013-08-29T12:36:00Z</time>
      </trkpt>
      <trkpt lat="44.76341" lon="6.24688">
        <ele>2170.79</ele>
        <time>2013-08-29T12:36:07Z</time>
      </trkpt>
      <trkpt lat="44.76337" lon="6.24688">
        <ele>2167.91</ele>
        <time>2013-08-29T12:36:12Z</time>
      </trkpt>
      <trkpt lat="44.76331" lon="6.24686">
        <ele>2167.43</ele>
        <time>2013-08-29T12:36:20Z</time>
      </trkpt>
      <trkpt lat="44.76322" lon="6.24681">
        <ele>2165.51</ele>
        <time>2013-08-29T12:36:32Z</time>
      </trkpt>
      <trkpt lat="44.76313" lon="6.24676">
        <ele>2163.1</ele>
        <time>2013-08-29T12:36:44Z</time>
      </trkpt>
      <trkpt lat="44.76307" lon="6.24671">
        <ele>2162.14</ele>
        <time>2013-08-29T12:36:53Z</time>
      </trkpt>
      <trkpt lat="44.76302" lon="6.24666">
        <ele>2161.18</ele>
        <time>2013-08-29T12:36:59Z</time>
      </trkpt>
      <trkpt lat="44.76301" lon="6.24663">
        <ele>2160.22</ele>
        <time>2013-08-29T12:37:02Z</time>
      </trkpt>
      <trkpt lat="44.76297" lon="6.24659">
        <ele>2158.78</ele>
        <time>2013-08-29T12:37:08Z</time>
      </trkpt>
      <trkpt lat="44.76296" lon="6.24659">
        <ele>2159.74</ele>
        <time>2013-08-29T12:37:09Z</time>
      </trkpt>
      <trkpt lat="44.76295" lon="6.24659">
        <ele>2158.3</ele>
        <time>2013-08-29T12:37:10Z</time>
      </trkpt>
      <trkpt lat="44.76285" lon="6.24654">
        <ele>2157.34</ele>
        <time>2013-08-29T12:37:22Z</time>
      </trkpt>
      <trkpt lat="44.76282" lon="6.24651">
        <ele>2156.37</ele>
        <time>2013-08-29T12:37:29Z</time>
      </trkpt>
      <trkpt lat="44.76279" lon="6.24647">
        <ele>2154.45</ele>
        <time>2013-08-29T12:37:33Z</time>
      </trkpt>
      <trkpt lat="44.76274" lon="6.24642">
        <ele>2154.93</ele>
        <time>2013-08-29T12:37:40Z</time>
      </trkpt>
      <trkpt lat="44.76271" lon="6.2464">
        <ele>2153.01</ele>
        <time>2013-08-29T12:37:44Z</time>
      </trkpt>
      <trkpt lat="44.76263" lon="6.24636">
        <ele>2153.97</ele>
        <time>2013-08-29T12:37:55Z</time>
      </trkpt>
      <trkpt lat="44.76256" lon="6.2463">
        <ele>2151.57</ele>
        <time>2013-08-29T12:38:07Z</time>
      </trkpt>
      <trkpt lat="44.76255" lon="6.2463">
        <ele>2153.01</ele>
        <time>2013-08-29T12:38:09Z</time>
      </trkpt>
      <trkpt lat="44.76249" lon="6.24626">
        <ele>2149.16</ele>
        <time>2013-08-29T12:38:16Z</time>
      </trkpt>
      <trkpt lat="44.76248" lon="6.24626">
        <ele>2150.13</ele>
        <time>2013-08-29T12:38:17Z</time>
      </trkpt>
      <trkpt lat="44.76237" lon="6.24624">
        <ele>2149.16</ele>
        <time>2013-08-29T12:38:29Z</time>
      </trkpt>
      <trkpt lat="44.76228" lon="6.24619">
        <ele>2146.76</ele>
        <time>2013-08-29T12:38:42Z</time>
      </trkpt>
      <trkpt lat="44.76224" lon="6.24614">
        <ele>2143.88</ele>
        <time>2013-08-29T12:38:50Z</time>
      </trkpt>
      <trkpt lat="44.76224" lon="6.24613">
        <ele>2144.36</ele>
        <time>2013-08-29T12:38:51Z</time>
      </trkpt>
      <trkpt lat="44.76224" lon="6.24612">
        <ele>2145.32</ele>
        <time>2013-08-29T12:38:53Z</time>
      </trkpt>
      <trkpt lat="44.76219" lon="6.24601">
        <ele>2140.51</ele>
        <time>2013-08-29T12:39:04Z</time>
      </trkpt>
      <trkpt lat="44.76219" lon="6.24601">
        <ele>2141.95</ele>
        <time>2013-08-29T12:39:05Z</time>
      </trkpt>
      <trkpt lat="44.76217" lon="6.24595">
        <ele>2138.59</ele>
        <time>2013-08-29T12:39:11Z</time>
      </trkpt>
      <trkpt lat="44.76209" lon="6.24589">
        <ele>2138.59</ele>
        <time>2013-08-29T12:39:22Z</time>
      </trkpt>
      <trkpt lat="44.76206" lon="6.24587">
        <ele>2139.07</ele>
        <time>2013-08-29T12:39:25Z</time>
      </trkpt>
      <trkpt lat="44.76202" lon="6.24587">
        <ele>2137.63</ele>
        <time>2013-08-29T12:39:28Z</time>
      </trkpt>
      <trkpt lat="44.76192" lon="6.24583">
        <ele>2136.19</ele>
        <time>2013-08-29T12:39:40Z</time>
      </trkpt>
      <trkpt lat="44.76186" lon="6.24581">
        <ele>2135.71</ele>
        <time>2013-08-29T12:39:48Z</time>
      </trkpt>
      <trkpt lat="44.76178" lon="6.24571">
        <ele>2135.71</ele>
        <time>2013-08-29T12:39:58Z</time>
      </trkpt>
      <trkpt lat="44.76174" lon="6.2457">
        <ele>2132.34</ele>
        <time>2013-08-29T12:40:03Z</time>
      </trkpt>
      <trkpt lat="44.7617" lon="6.2457">
        <ele>2134.26</ele>
        <time>2013-08-29T12:40:07Z</time>
      </trkpt>
      <trkpt lat="44.76167" lon="6.24569">
        <ele>2131.86</ele>
        <time>2013-08-29T12:40:11Z</time>
      </trkpt>
      <trkpt lat="44.76158" lon="6.24561">
        <ele>2132.82</ele>
        <time>2013-08-29T12:40:22Z</time>
      </trkpt>
      <trkpt lat="44.76158" lon="6.2456">
        <ele>2131.38</ele>
        <time>2013-08-29T12:40:23Z</time>
      </trkpt>
      <trkpt lat="44.7615" lon="6.24557">
        <ele>2131.38</ele>
        <time>2013-08-29T12:40:32Z</time>
      </trkpt>
      <trkpt lat="44.76147" lon="6.24553">
        <ele>2130.42</ele>
        <time>2013-08-29T12:40:36Z</time>
      </trkpt>
      <trkpt lat="44.76144" lon="6.24552">
        <ele>2128.5</ele>
        <time>2013-08-29T12:40:41Z</time>
      </trkpt>
      <trkpt lat="44.76134" lon="6.24542">
        <ele>2125.61</ele>
        <time>2013-08-29T12:40:56Z</time>
      </trkpt>
      <trkpt lat="44.7613" lon="6.24541">
        <ele>2125.61</ele>
        <time>2013-08-29T12:41:01Z</time>
      </trkpt>
      <trkpt lat="44.7612" lon="6.24536">
        <ele>2123.21</ele>
        <time>2013-08-29T12:41:14Z</time>
      </trkpt>
      <trkpt lat="44.76115" lon="6.24535">
        <ele>2122.73</ele>
        <time>2013-08-29T12:41:19Z</time>
      </trkpt>
      <trkpt lat="44.76109" lon="6.24533">
        <ele>2122.25</ele>
        <time>2013-08-29T12:41:24Z</time>
      </trkpt>
      <trkpt lat="44.76105" lon="6.24531">
        <ele>2123.21</ele>
        <time>2013-08-29T12:41:28Z</time>
      </trkpt>
      <trkpt lat="44.76096" lon="6.24527">
        <ele>2121.77</ele>
        <time>2013-08-29T12:41:40Z</time>
      </trkpt>
      <trkpt lat="44.76091" lon="6.24526">
        <ele>2121.29</ele>
        <time>2013-08-29T12:41:56Z</time>
      </trkpt>
      <trkpt lat="44.76087" lon="6.24525">
        <ele>2118.88</ele>
        <time>2013-08-29T12:42:00Z</time>
      </trkpt>
      <trkpt lat="44.76083" lon="6.24524">
        <ele>2118.88</ele>
        <time>2013-08-29T12:42:05Z</time>
      </trkpt>
      <trkpt lat="44.7608" lon="6.24523">
        <ele>2119.36</ele>
        <time>2013-08-29T12:42:08Z</time>
      </trkpt>
      <trkpt lat="44.76078" lon="6.24522">
        <ele>2118.4</ele>
        <time>2013-08-29T12:42:10Z</time>
      </trkpt>
      <trkpt lat="44.76077" lon="6.24521">
        <ele>2118.88</ele>
        <time>2013-08-29T12:42:11Z</time>
      </trkpt>
      <trkpt lat="44.76074" lon="6.24519">
        <ele>2116.96</ele>
        <time>2013-08-29T12:42:17Z</time>
      </trkpt>
      <trkpt lat="44.7607" lon="6.24513">
        <ele>2116.96</ele>
        <time>2013-08-29T12:42:24Z</time>
      </trkpt>
      <trkpt lat="44.76067" lon="6.24499">
        <ele>2114.08</ele>
        <time>2013-08-29T12:42:36Z</time>
      </trkpt>
      <trkpt lat="44.76064" lon="6.24489">
        <ele>2113.6</ele>
        <time>2013-08-29T12:42:45Z</time>
      </trkpt>
      <trkpt lat="44.76059" lon="6.24485">
        <ele>2113.6</ele>
        <time>2013-08-29T12:42:52Z</time>
      </trkpt>
      <trkpt lat="44.76059" lon="6.24484">
        <ele>2112.15</ele>
        <time>2013-08-29T12:42:53Z</time>
      </trkpt>
      <trkpt lat="44.76052" lon="6.24481">
        <ele>2111.19</ele>
        <time>2013-08-29T12:43:03Z</time>
      </trkpt>
      <trkpt lat="44.76046" lon="6.24473">
        <ele>2110.71</ele>
        <time>2013-08-29T12:43:12Z</time>
      </trkpt>
      <trkpt lat="44.76041" lon="6.24466">
        <ele>2110.23</ele>
        <time>2013-08-29T12:43:20Z</time>
      </trkpt>
      <trkpt lat="44.7604" lon="6.24462">
        <ele>2108.79</ele>
        <time>2013-08-29T12:43:23Z</time>
      </trkpt>
      <trkpt lat="44.76034" lon="6.24454">
        <ele>2107.83</ele>
        <time>2013-08-29T12:43:34Z</time>
      </trkpt>
      <trkpt lat="44.76027" lon="6.24448">
        <ele>2104.94</ele>
        <time>2013-08-29T12:43:45Z</time>
      </trkpt>
      <trkpt lat="44.76024" lon="6.24447">
        <ele>2105.42</ele>
        <time>2013-08-29T12:43:50Z</time>
      </trkpt>
      <trkpt lat="44.76025" lon="6.24453">
        <ele>2103.5</ele>
        <time>2013-08-29T12:43:58Z</time>
      </trkpt>
      <trkpt lat="44.76027" lon="6.24457">
        <ele>2103.02</ele>
        <time>2013-08-29T12:44:03Z</time>
      </trkpt>
      <trkpt lat="44.76029" lon="6.24467">
        <ele>2101.58</ele>
        <time>2013-08-29T12:44:13Z</time>
      </trkpt>
      <trkpt lat="44.76029" lon="6.24468">
        <ele>2102.54</ele>
        <time>2013-08-29T12:44:15Z</time>
      </trkpt>
      <trkpt lat="44.76028" lon="6.24468">
        <ele>2100.62</ele>
        <time>2013-08-29T12:44:16Z</time>
      </trkpt>
      <trkpt lat="44.76024" lon="6.24468">
        <ele>2100.62</ele>
        <time>2013-08-29T12:44:22Z</time>
      </trkpt>
      <trkpt lat="44.76021" lon="6.24468">
        <ele>2099.66</ele>
        <time>2013-08-29T12:44:26Z</time>
      </trkpt>
      <trkpt lat="44.76013" lon="6.24468">
        <ele>2096.77</ele>
        <time>2013-08-29T12:44:39Z</time>
      </trkpt>
      <trkpt lat="44.76012" lon="6.24469">
        <ele>2098.21</ele>
        <time>2013-08-29T12:44:41Z</time>
      </trkpt>
      <trkpt lat="44.76004" lon="6.24467">
        <ele>2096.29</ele>
        <time>2013-08-29T12:44:54Z</time>
      </trkpt>
      <trkpt lat="44.75998" lon="6.24462">
        <ele>2094.85</ele>
        <time>2013-08-29T12:45:06Z</time>
      </trkpt>
      <trkpt lat="44.75992" lon="6.24457">
        <ele>2092.45</ele>
        <time>2013-08-29T12:45:15Z</time>
      </trkpt>
      <trkpt lat="44.75991" lon="6.24454">
        <ele>2093.41</ele>
        <time>2013-08-29T12:45:18Z</time>
      </trkpt>
      <trkpt lat="44.75985" lon="6.24451">
        <ele>2091</ele>
        <time>2013-08-29T12:45:27Z</time>
      </trkpt>
      <trkpt lat="44.75983" lon="6.2445">
        <ele>2091.49</ele>
        <time>2013-08-29T12:45:29Z</time>
      </trkpt>
      <trkpt lat="44.75981" lon="6.24446">
        <ele>2090.52</ele>
        <time>2013-08-29T12:45:32Z</time>
      </trkpt>
      <trkpt lat="44.75977" lon="6.24431">
        <ele>2089.56</ele>
        <time>2013-08-29T12:45:46Z</time>
      </trkpt>
      <trkpt lat="44.75976" lon="6.24428">
        <ele>2088.12</ele>
        <time>2013-08-29T12:45:49Z</time>
      </trkpt>
      <trkpt lat="44.75974" lon="6.24428">
        <ele>2086.68</ele>
        <time>2013-08-29T12:46:01Z</time>
      </trkpt>
      <trkpt lat="44.75971" lon="6.24433">
        <ele>2086.2</ele>
        <time>2013-08-29T12:46:07Z</time>
      </trkpt>
      <trkpt lat="44.75969" lon="6.24439">
        <ele>2084.76</ele>
        <time>2013-08-29T12:46:12Z</time>
      </trkpt>
      <trkpt lat="44.75965" lon="6.24454">
        <ele>2083.79</ele>
        <time>2013-08-29T12:46:25Z</time>
      </trkpt>
      <trkpt lat="44.75965" lon="6.24455">
        <ele>2083.79</ele>
        <time>2013-08-29T12:46:26Z</time>
      </trkpt>
      <trkpt lat="44.75964" lon="6.24456">
        <ele>2082.83</ele>
        <time>2013-08-29T12:46:28Z</time>
      </trkpt>
      <trkpt lat="44.75962" lon="6.24453">
        <ele>2082.83</ele>
        <time>2013-08-29T12:46:34Z</time>
      </trkpt>
      <trkpt lat="44.7596" lon="6.24446">
        <ele>2081.87</ele>
        <time>2013-08-29T12:46:40Z</time>
      </trkpt>
      <trkpt lat="44.75957" lon="6.24439">
        <ele>2080.91</ele>
        <time>2013-08-29T12:46:48Z</time>
      </trkpt>
      <trkpt lat="44.75956" lon="6.24436">
        <ele>2078.99</ele>
        <time>2013-08-29T12:46:50Z</time>
      </trkpt>
      <trkpt lat="44.75953" lon="6.24428">
        <ele>2077.55</ele>
        <time>2013-08-29T12:46:59Z</time>
      </trkpt>
      <trkpt lat="44.75952" lon="6.24427">
        <ele>2078.51</ele>
        <time>2013-08-29T12:47:01Z</time>
      </trkpt>
      <trkpt lat="44.75943" lon="6.24418">
        <ele>2077.07</ele>
        <time>2013-08-29T12:47:15Z</time>
      </trkpt>
      <trkpt lat="44.75942" lon="6.24417">
        <ele>2075.14</ele>
        <time>2013-08-29T12:47:17Z</time>
      </trkpt>
      <trkpt lat="44.75942" lon="6.24415">
        <ele>2076.1</ele>
        <time>2013-08-29T12:47:19Z</time>
      </trkpt>
      <trkpt lat="44.7594" lon="6.2441">
        <ele>2074.18</ele>
        <time>2013-08-29T12:47:23Z</time>
      </trkpt>
      <trkpt lat="44.75934" lon="6.24401">
        <ele>2072.74</ele>
        <time>2013-08-29T12:47:34Z</time>
      </trkpt>
      <trkpt lat="44.75933" lon="6.24403">
        <ele>2073.22</ele>
        <time>2013-08-29T12:47:41Z</time>
      </trkpt>
      <trkpt lat="44.75933" lon="6.24406">
        <ele>2071.78</ele>
        <time>2013-08-29T12:47:43Z</time>
      </trkpt>
      <trkpt lat="44.75934" lon="6.24413">
        <ele>2070.34</ele>
        <time>2013-08-29T12:47:54Z</time>
      </trkpt>
      <trkpt lat="44.75933" lon="6.24411">
        <ele>2069.86</ele>
        <time>2013-08-29T12:47:56Z</time>
      </trkpt>
      <trkpt lat="44.75925" lon="6.24409">
        <ele>2068.89</ele>
        <time>2013-08-29T12:48:08Z</time>
      </trkpt>
      <trkpt lat="44.75924" lon="6.24408">
        <ele>2068.41</ele>
        <time>2013-08-29T12:48:10Z</time>
      </trkpt>
      <trkpt lat="44.75918" lon="6.24401">
        <ele>2065.53</ele>
        <time>2013-08-29T12:48:22Z</time>
      </trkpt>
      <trkpt lat="44.75914" lon="6.2439">
        <ele>2065.05</ele>
        <time>2013-08-29T12:48:34Z</time>
      </trkpt>
      <trkpt lat="44.75912" lon="6.24387">
        <ele>2062.65</ele>
        <time>2013-08-29T12:48:37Z</time>
      </trkpt>
      <trkpt lat="44.75908" lon="6.24377">
        <ele>2061.68</ele>
        <time>2013-08-29T12:48:48Z</time>
      </trkpt>
      <trkpt lat="44.75907" lon="6.24374">
        <ele>2061.2</ele>
        <time>2013-08-29T12:48:52Z</time>
      </trkpt>
      <trkpt lat="44.75903" lon="6.24368">
        <ele>2061.68</ele>
        <time>2013-08-29T12:48:59Z</time>
      </trkpt>
      <trkpt lat="44.75902" lon="6.24368">
        <ele>2060.72</ele>
        <time>2013-08-29T12:49:00Z</time>
      </trkpt>
      <trkpt lat="44.75901" lon="6.24368">
        <ele>2059.76</ele>
        <time>2013-08-29T12:49:01Z</time>
      </trkpt>
      <trkpt lat="44.75896" lon="6.24365">
        <ele>2059.28</ele>
        <time>2013-08-29T12:49:07Z</time>
      </trkpt>
      <trkpt lat="44.75891" lon="6.24358">
        <ele>2058.32</ele>
        <time>2013-08-29T12:49:16Z</time>
      </trkpt>
      <trkpt lat="44.75886" lon="6.2435">
        <ele>2055.44</ele>
        <time>2013-08-29T12:49:24Z</time>
      </trkpt>
      <trkpt lat="44.75883" lon="6.24348">
        <ele>2055.92</ele>
        <time>2013-08-29T12:49:28Z</time>
      </trkpt>
      <trkpt lat="44.7588" lon="6.2434">
        <ele>2054.47</ele>
        <time>2013-08-29T12:49:37Z</time>
      </trkpt>
      <trkpt lat="44.75881" lon="6.24338">
        <ele>2054.47</ele>
        <time>2013-08-29T12:49:41Z</time>
      </trkpt>
      <trkpt lat="44.75884" lon="6.24325">
        <ele>2051.11</ele>
        <time>2013-08-29T12:49:53Z</time>
      </trkpt>
      <trkpt lat="44.75883" lon="6.24321">
        <ele>2050.15</ele>
        <time>2013-08-29T12:50:04Z</time>
      </trkpt>
      <trkpt lat="44.75883" lon="6.24324">
        <ele>2051.11</ele>
        <time>2013-08-29T12:50:07Z</time>
      </trkpt>
      <trkpt lat="44.75882" lon="6.24325">
        <ele>2048.71</ele>
        <time>2013-08-29T12:50:13Z</time>
      </trkpt>
      <trkpt lat="44.7588" lon="6.24333">
        <ele>2046.78</ele>
        <time>2013-08-29T12:50:22Z</time>
      </trkpt>
      <trkpt lat="44.75875" lon="6.24341">
        <ele>2044.38</ele>
        <time>2013-08-29T12:50:29Z</time>
      </trkpt>
      <trkpt lat="44.7587" lon="6.2434">
        <ele>2044.86</ele>
        <time>2013-08-29T12:50:41Z</time>
      </trkpt>
      <trkpt lat="44.75869" lon="6.24339">
        <ele>2042.46</ele>
        <time>2013-08-29T12:50:43Z</time>
      </trkpt>
      <trkpt lat="44.75868" lon="6.24341">
        <ele>2041.98</ele>
        <time>2013-08-29T12:50:47Z</time>
      </trkpt>
      <trkpt lat="44.75865" lon="6.24359">
        <ele>2040.05</ele>
        <time>2013-08-29T12:50:59Z</time>
      </trkpt>
      <trkpt lat="44.75867" lon="6.24366">
        <ele>2040.05</ele>
        <time>2013-08-29T12:51:05Z</time>
      </trkpt>
      <trkpt lat="44.75867" lon="6.24371">
        <ele>2039.57</ele>
        <time>2013-08-29T12:51:09Z</time>
      </trkpt>
      <trkpt lat="44.75867" lon="6.24373">
        <ele>2038.13</ele>
        <time>2013-08-29T12:51:11Z</time>
      </trkpt>
      <trkpt lat="44.75871" lon="6.24385">
        <ele>2034.77</ele>
        <time>2013-08-29T12:51:22Z</time>
      </trkpt>
      <trkpt lat="44.75871" lon="6.2439">
        <ele>2034.77</ele>
        <time>2013-08-29T12:51:30Z</time>
      </trkpt>
      <trkpt lat="44.75865" lon="6.24382">
        <ele>2033.33</ele>
        <time>2013-08-29T12:51:43Z</time>
      </trkpt>
      <trkpt lat="44.75864" lon="6.24382">
        <ele>2031.4</ele>
        <time>2013-08-29T12:51:45Z</time>
      </trkpt>
      <trkpt lat="44.75861" lon="6.2438">
        <ele>2030.92</ele>
        <time>2013-08-29T12:51:50Z</time>
      </trkpt>
      <trkpt lat="44.75852" lon="6.24376">
        <ele>2029.48</ele>
        <time>2013-08-29T12:52:04Z</time>
      </trkpt>
      <trkpt lat="44.75845" lon="6.24369">
        <ele>2026.12</ele>
        <time>2013-08-29T12:52:17Z</time>
      </trkpt>
      <trkpt lat="44.75842" lon="6.24361">
        <ele>2025.64</ele>
        <time>2013-08-29T12:52:27Z</time>
      </trkpt>
      <trkpt lat="44.75842" lon="6.2436">
        <ele>2024.67</ele>
        <time>2013-08-29T12:52:28Z</time>
      </trkpt>
      <trkpt lat="44.75841" lon="6.24354">
        <ele>2022.75</ele>
        <time>2013-08-29T12:52:34Z</time>
      </trkpt>
      <trkpt lat="44.75838" lon="6.24359">
        <ele>2020.35</ele>
        <time>2013-08-29T12:52:46Z</time>
      </trkpt>
      <trkpt lat="44.75838" lon="6.2436">
        <ele>2020.83</ele>
        <time>2013-08-29T12:52:47Z</time>
      </trkpt>
      <trkpt lat="44.75837" lon="6.24366">
        <ele>2019.87</ele>
        <time>2013-08-29T12:52:53Z</time>
      </trkpt>
      <trkpt lat="44.75834" lon="6.24376">
        <ele>2017.94</ele>
        <time>2013-08-29T12:53:05Z</time>
      </trkpt>
      <trkpt lat="44.75834" lon="6.24379">
        <ele>2015.54</ele>
        <time>2013-08-29T12:53:17Z</time>
      </trkpt>
      <trkpt lat="44.75833" lon="6.24374">
        <ele>2014.1</ele>
        <time>2013-08-29T12:53:29Z</time>
      </trkpt>
      <trkpt lat="44.75831" lon="6.24375">
        <ele>2013.14</ele>
        <time>2013-08-29T12:53:41Z</time>
      </trkpt>
      <trkpt lat="44.75829" lon="6.24381">
        <ele>2012.66</ele>
        <time>2013-08-29T12:53:50Z</time>
      </trkpt>
      <trkpt lat="44.75829" lon="6.24382">
        <ele>2010.25</ele>
        <time>2013-08-29T12:53:53Z</time>
      </trkpt>
      <trkpt lat="44.75826" lon="6.24376">
        <ele>2009.29</ele>
        <time>2013-08-29T12:54:03Z</time>
      </trkpt>
      <trkpt lat="44.75823" lon="6.24376">
        <ele>2006.41</ele>
        <time>2013-08-29T12:54:16Z</time>
      </trkpt>
      <trkpt lat="44.75822" lon="6.2438">
        <ele>2004.97</ele>
        <time>2013-08-29T12:54:19Z</time>
      </trkpt>
      <trkpt lat="44.7582" lon="6.24387">
        <ele>2004.97</ele>
        <time>2013-08-29T12:54:25Z</time>
      </trkpt>
      <trkpt lat="44.75818" lon="6.24386">
        <ele>2004.97</ele>
        <time>2013-08-29T12:54:28Z</time>
      </trkpt>
      <trkpt lat="44.75815" lon="6.24382">
        <ele>2002.08</ele>
        <time>2013-08-29T12:54:38Z</time>
      </trkpt>
      <trkpt lat="44.75813" lon="6.24383">
        <ele>2003.52</ele>
        <time>2013-08-29T12:54:41Z</time>
      </trkpt>
      <trkpt lat="44.75813" lon="6.24384">
        <ele>2001.6</ele>
        <time>2013-08-29T12:54:43Z</time>
      </trkpt>
      <trkpt lat="44.75811" lon="6.24389">
        <ele>2001.12</ele>
        <time>2013-08-29T12:54:49Z</time>
      </trkpt>
      <trkpt lat="44.75814" lon="6.24402">
        <ele>1998.72</ele>
        <time>2013-08-29T12:55:02Z</time>
      </trkpt>
      <trkpt lat="44.75807" lon="6.24402">
        <ele>1995.83</ele>
        <time>2013-08-29T12:55:13Z</time>
      </trkpt>
      <trkpt lat="44.75805" lon="6.24401">
        <ele>1999.2</ele>
        <time>2013-08-29T12:55:15Z</time>
      </trkpt>
      <trkpt lat="44.75804" lon="6.24401">
        <ele>1998.72</ele>
        <time>2013-08-29T12:55:16Z</time>
      </trkpt>
      <trkpt lat="44.75804" lon="6.24401">
        <ele>1995.83</ele>
        <time>2013-08-29T12:55:17Z</time>
      </trkpt>
      <trkpt lat="44.75802" lon="6.24399">
        <ele>1996.8</ele>
        <time>2013-08-29T12:55:21Z</time>
      </trkpt>
      <trkpt lat="44.75801" lon="6.24397">
        <ele>1997.28</ele>
        <time>2013-08-29T12:55:23Z</time>
      </trkpt>
      <trkpt lat="44.75801" lon="6.24395">
        <ele>1995.83</ele>
        <time>2013-08-29T12:55:24Z</time>
      </trkpt>
      <trkpt lat="44.75801" lon="6.24394">
        <ele>1994.87</ele>
        <time>2013-08-29T12:55:25Z</time>
      </trkpt>
      <trkpt lat="44.75802" lon="6.2438">
        <ele>1993.91</ele>
        <time>2013-08-29T12:55:36Z</time>
      </trkpt>
      <trkpt lat="44.75803" lon="6.24373">
        <ele>1992.47</ele>
        <time>2013-08-29T12:55:41Z</time>
      </trkpt>
      <trkpt lat="44.75803" lon="6.24372">
        <ele>1993.91</ele>
        <time>2013-08-29T12:55:42Z</time>
      </trkpt>
      <trkpt lat="44.75795" lon="6.2437">
        <ele>1993.43</ele>
        <time>2013-08-29T12:55:53Z</time>
      </trkpt>
      <trkpt lat="44.75787" lon="6.24373">
        <ele>1991.99</ele>
        <time>2013-08-29T12:56:03Z</time>
      </trkpt>
      <trkpt lat="44.75785" lon="6.24375">
        <ele>1992.95</ele>
        <time>2013-08-29T12:56:05Z</time>
      </trkpt>
      <trkpt lat="44.75772" lon="6.24377">
        <ele>1989.59</ele>
        <time>2013-08-29T12:56:19Z</time>
      </trkpt>
      <trkpt lat="44.75766" lon="6.24381">
        <ele>1989.1</ele>
        <time>2013-08-29T12:56:25Z</time>
      </trkpt>
      <trkpt lat="44.75763" lon="6.24383">
        <ele>1988.62</ele>
        <time>2013-08-29T12:56:28Z</time>
      </trkpt>
      <trkpt lat="44.75757" lon="6.24381">
        <ele>1985.26</ele>
        <time>2013-08-29T12:56:37Z</time>
      </trkpt>
      <trkpt lat="44.75753" lon="6.2438">
        <ele>1984.78</ele>
        <time>2013-08-29T12:56:50Z</time>
      </trkpt>
      <trkpt lat="44.75749" lon="6.24382">
        <ele>1983.34</ele>
        <time>2013-08-29T12:56:56Z</time>
      </trkpt>
      <trkpt lat="44.75745" lon="6.24383">
        <ele>1983.82</ele>
        <time>2013-08-29T12:57:00Z</time>
      </trkpt>
      <trkpt lat="44.75738" lon="6.24385">
        <ele>1981.41</ele>
        <time>2013-08-29T12:57:11Z</time>
      </trkpt>
      <trkpt lat="44.75736" lon="6.24386">
        <ele>1980.45</ele>
        <time>2013-08-29T12:57:14Z</time>
      </trkpt>
      <trkpt lat="44.75724" lon="6.24392">
        <ele>1979.49</ele>
        <time>2013-08-29T12:57:26Z</time>
      </trkpt>
      <trkpt lat="44.75722" lon="6.24392">
        <ele>1976.13</ele>
        <time>2013-08-29T12:57:30Z</time>
      </trkpt>
      <trkpt lat="44.75722" lon="6.24392">
        <ele>1976.13</ele>
        <time>2013-08-29T12:57:31Z</time>
      </trkpt>
      <trkpt lat="44.75723" lon="6.24396">
        <ele>1976.61</ele>
        <time>2013-08-29T12:57:40Z</time>
      </trkpt>
      <trkpt lat="44.75721" lon="6.24396">
        <ele>1974.69</ele>
        <time>2013-08-29T12:57:42Z</time>
      </trkpt>
      <trkpt lat="44.75716" lon="6.24396">
        <ele>1974.2</ele>
        <time>2013-08-29T12:57:51Z</time>
      </trkpt>
      <trkpt lat="44.75715" lon="6.24398">
        <ele>1973.72</ele>
        <time>2013-08-29T12:57:55Z</time>
      </trkpt>
      <trkpt lat="44.75714" lon="6.244">
        <ele>1971.32</ele>
        <time>2013-08-29T12:58:00Z</time>
      </trkpt>
      <trkpt lat="44.75715" lon="6.24405">
        <ele>1970.36</ele>
        <time>2013-08-29T12:58:05Z</time>
      </trkpt>
      <trkpt lat="44.75713" lon="6.24406">
        <ele>1970.84</ele>
        <time>2013-08-29T12:58:08Z</time>
      </trkpt>
      <trkpt lat="44.75712" lon="6.24404">
        <ele>1968.92</ele>
        <time>2013-08-29T12:58:11Z</time>
      </trkpt>
      <trkpt lat="44.75707" lon="6.24405">
        <ele>1969.88</ele>
        <time>2013-08-29T12:58:18Z</time>
      </trkpt>
      <trkpt lat="44.75706" lon="6.24405">
        <ele>1969.4</ele>
        <time>2013-08-29T12:58:19Z</time>
      </trkpt>
      <trkpt lat="44.75705" lon="6.24413">
        <ele>1968.44</ele>
        <time>2013-08-29T12:58:29Z</time>
      </trkpt>
      <trkpt lat="44.75707" lon="6.24415">
        <ele>1965.55</ele>
        <time>2013-08-29T12:58:33Z</time>
      </trkpt>
      <trkpt lat="44.75708" lon="6.24426">
        <ele>1963.63</ele>
        <time>2013-08-29T12:58:43Z</time>
      </trkpt>
      <trkpt lat="44.75626" lon="6.24658">
        <ele>1963.15</ele>
        <time>2013-08-29T12:58:51Z</time>
      </trkpt>
      <trkpt lat="44.75596" lon="6.24743">
        <ele>1961.71</ele>
        <time>2013-08-29T12:59:01Z</time>
      </trkpt>
      <trkpt lat="44.75595" lon="6.2474">
        <ele>1959.78</ele>
        <time>2013-08-29T12:59:07Z</time>
      </trkpt>
      <trkpt lat="44.75593" lon="6.2474">
        <ele>1959.3</ele>
        <time>2013-08-29T12:59:11Z</time>
      </trkpt>
      <trkpt lat="44.75593" lon="6.24737">
        <ele>1959.3</ele>
        <time>2013-08-29T12:59:16Z</time>
      </trkpt>
      <trkpt lat="44.75584" lon="6.2474">
        <ele>1956.9</ele>
        <time>2013-08-29T12:59:26Z</time>
      </trkpt>
      <trkpt lat="44.75574" lon="6.24759">
        <ele>1956.9</ele>
        <time>2013-08-29T12:59:32Z</time>
      </trkpt>
      <trkpt lat="44.75567" lon="6.24776">
        <ele>1955.94</ele>
        <time>2013-08-29T12:59:37Z</time>
      </trkpt>
      <trkpt lat="44.75562" lon="6.24788">
        <ele>1954.98</ele>
        <time>2013-08-29T12:59:40Z</time>
      </trkpt>
      <trkpt lat="44.75545" lon="6.24819">
        <ele>1953.54</ele>
        <time>2013-08-29T12:59:53Z</time>
      </trkpt>
      <trkpt lat="44.75543" lon="6.24821">
        <ele>1952.57</ele>
        <time>2013-08-29T12:59:57Z</time>
      </trkpt>
      <trkpt lat="44.7553" lon="6.24834">
        <ele>1950.17</ele>
        <time>2013-08-29T13:00:10Z</time>
      </trkpt>
      <trkpt lat="44.75525" lon="6.24844">
        <ele>1946.81</ele>
        <time>2013-08-29T13:00:17Z</time>
      </trkpt>
      <trkpt lat="44.75524" lon="6.24844">
        <ele>1946.81</ele>
        <time>2013-08-29T13:00:18Z</time>
      </trkpt>
      <trkpt lat="44.75523" lon="6.24843">
        <ele>1948.25</ele>
        <time>2013-08-29T13:00:19Z</time>
      </trkpt>
      <trkpt lat="44.75521" lon="6.24842">
        <ele>1945.85</ele>
        <time>2013-08-29T13:00:20Z</time>
      </trkpt>
      <trkpt lat="44.7552" lon="6.24842">
        <ele>1947.29</ele>
        <time>2013-08-29T13:00:21Z</time>
      </trkpt>
      <trkpt lat="44.75505" lon="6.24847">
        <ele>1947.29</ele>
        <time>2013-08-29T13:00:32Z</time>
      </trkpt>
      <trkpt lat="44.75503" lon="6.24847">
        <ele>1946.33</ele>
        <time>2013-08-29T13:00:34Z</time>
      </trkpt>
      <trkpt lat="44.75499" lon="6.24848">
        <ele>1948.25</ele>
        <time>2013-08-29T13:00:39Z</time>
      </trkpt>
      <trkpt lat="44.7549" lon="6.24857">
        <ele>1946.81</ele>
        <time>2013-08-29T13:00:50Z</time>
      </trkpt>
      <trkpt lat="44.75489" lon="6.24858">
        <ele>1945.85</ele>
        <time>2013-08-29T13:00:52Z</time>
      </trkpt>
      <trkpt lat="44.75489" lon="6.24857">
        <ele>1946.33</ele>
        <time>2013-08-29T13:00:54Z</time>
      </trkpt>
      <trkpt lat="44.75485" lon="6.24862">
        <ele>1945.36</ele>
        <time>2013-08-29T13:01:05Z</time>
      </trkpt>
      <trkpt lat="44.75481" lon="6.24864">
        <ele>1944.4</ele>
        <time>2013-08-29T13:01:13Z</time>
      </trkpt>
      <trkpt lat="44.75476" lon="6.24867">
        <ele>1942.48</ele>
        <time>2013-08-29T13:01:18Z</time>
      </trkpt>
      <trkpt lat="44.75467" lon="6.24869">
        <ele>1940.08</ele>
        <time>2013-08-29T13:01:30Z</time>
      </trkpt>
      <trkpt lat="44.75466" lon="6.24875">
        <ele>1938.64</ele>
        <time>2013-08-29T13:01:35Z</time>
      </trkpt>
      <trkpt lat="44.75466" lon="6.24876">
        <ele>1939.6</ele>
        <time>2013-08-29T13:01:36Z</time>
      </trkpt>
      <trkpt lat="44.75466" lon="6.24887">
        <ele>1936.71</ele>
        <time>2013-08-29T13:01:46Z</time>
      </trkpt>
      <trkpt lat="44.75469" lon="6.24888">
        <ele>1938.16</ele>
        <time>2013-08-29T13:01:48Z</time>
      </trkpt>
      <trkpt lat="44.75472" lon="6.24894">
        <ele>1936.71</ele>
        <time>2013-08-29T13:01:54Z</time>
      </trkpt>
      <trkpt lat="44.75474" lon="6.24896">
        <ele>1937.19</ele>
        <time>2013-08-29T13:01:57Z</time>
      </trkpt>
      <trkpt lat="44.75477" lon="6.24902">
        <ele>1934.79</ele>
        <time>2013-08-29T13:02:07Z</time>
      </trkpt>
      <trkpt lat="44.75434" lon="6.24995">
        <ele>1933.83</ele>
        <time>2013-08-29T13:02:27Z</time>
      </trkpt>
      <trkpt lat="44.75433" lon="6.25009">
        <ele>1934.31</ele>
        <time>2013-08-29T13:02:33Z</time>
      </trkpt>
      <trkpt lat="44.75422" lon="6.25084">
        <ele>1936.23</ele>
        <time>2013-08-29T13:03:13Z</time>
      </trkpt>
      <trkpt lat="44.75422" lon="6.25084">
        <ele>1934.31</ele>
        <time>2013-08-29T13:03:14Z</time>
      </trkpt>
      <trkpt lat="44.75422" lon="6.25086">
        <ele>1925.18</ele>
        <time>2013-08-29T13:03:16Z</time>
      </trkpt>
      <trkpt lat="44.75422" lon="6.25087">
        <ele>1925.18</ele>
        <time>2013-08-29T13:03:17Z</time>
      </trkpt>
      <trkpt lat="44.75422" lon="6.25088">
        <ele>1933.83</ele>
        <time>2013-08-29T13:03:18Z</time>
      </trkpt>
      <trkpt lat="44.75422" lon="6.25088">
        <ele>1933.83</ele>
        <time>2013-08-29T13:03:19Z</time>
      </trkpt>
      <trkpt lat="44.75425" lon="6.25071">
        <ele>1931.91</ele>
        <time>2013-08-29T13:03:44Z</time>
      </trkpt>
      <trkpt lat="44.75428" lon="6.25066">
        <ele>1934.79</ele>
        <time>2013-08-29T13:03:48Z</time>
      </trkpt>
      <trkpt lat="44.75431" lon="6.25075">
        <ele>1933.35</ele>
        <time>2013-08-29T13:04:03Z</time>
      </trkpt>
      <trkpt lat="44.75431" lon="6.25075">
        <ele>1933.83</ele>
        <time>2013-08-29T13:04:22Z</time>
      </trkpt>
      <trkpt lat="44.75437" lon="6.25076">
        <ele>1934.31</ele>
        <time>2013-08-29T13:04:42Z</time>
      </trkpt>
      <trkpt lat="44.75438" lon="6.25074">
        <ele>1934.31</ele>
        <time>2013-08-29T13:04:49Z</time>
      </trkpt>
      <trkpt lat="44.75438" lon="6.25076">
        <ele>1931.91</ele>
        <time>2013-08-29T13:05:02Z</time>
      </trkpt>
      <trkpt lat="44.75435" lon="6.25071">
        <ele>1931.91</ele>
        <time>2013-08-29T13:05:06Z</time>
      </trkpt>
      <trkpt lat="44.75427" lon="6.25065">
        <ele>1931.43</ele>
        <time>2013-08-29T13:05:15Z</time>
      </trkpt>
      <trkpt lat="44.75429" lon="6.2506">
        <ele>1929.5</ele>
        <time>2013-08-29T13:05:18Z</time>
      </trkpt>
      <trkpt lat="44.7543" lon="6.25057">
        <ele>1929.98</ele>
        <time>2013-08-29T13:05:20Z</time>
      </trkpt>
      <trkpt lat="44.75437" lon="6.25051">
        <ele>1929.5</ele>
        <time>2013-08-29T13:05:25Z</time>
      </trkpt>
      <trkpt lat="44.75441" lon="6.25047">
        <ele>1929.5</ele>
        <time>2013-08-29T13:05:28Z</time>
      </trkpt>
      <trkpt lat="44.75449" lon="6.25043">
        <ele>1927.58</ele>
        <time>2013-08-29T13:05:36Z</time>
      </trkpt>
      <trkpt lat="44.7546" lon="6.25035">
        <ele>1926.62</ele>
        <time>2013-08-29T13:05:45Z</time>
      </trkpt>
      <trkpt lat="44.75464" lon="6.25031">
        <ele>1925.66</ele>
        <time>2013-08-29T13:05:49Z</time>
      </trkpt>
      <trkpt lat="44.75461" lon="6.2503">
        <ele>1924.7</ele>
        <time>2013-08-29T13:06:02Z</time>
      </trkpt>
      <trkpt lat="44.75452" lon="6.25034">
        <ele>1921.81</ele>
        <time>2013-08-29T13:06:10Z</time>
      </trkpt>
      <trkpt lat="44.7544" lon="6.25033">
        <ele>1921.81</ele>
        <time>2013-08-29T13:06:22Z</time>
      </trkpt>
      <trkpt lat="44.75438" lon="6.25032">
        <ele>1918.45</ele>
        <time>2013-08-29T13:06:25Z</time>
      </trkpt>
      <trkpt lat="44.75437" lon="6.25033">
        <ele>1918.45</ele>
        <time>2013-08-29T13:06:26Z</time>
      </trkpt>
      <trkpt lat="44.75434" lon="6.25033">
        <ele>1919.41</ele>
        <time>2013-08-29T13:06:29Z</time>
      </trkpt>
      <trkpt lat="44.75437" lon="6.25028">
        <ele>1916.04</ele>
        <time>2013-08-29T13:06:39Z</time>
      </trkpt>
      <trkpt lat="44.75438" lon="6.25027">
        <ele>1917.49</ele>
        <time>2013-08-29T13:06:40Z</time>
      </trkpt>
      <trkpt lat="44.75444" lon="6.25026">
        <ele>1915.56</ele>
        <time>2013-08-29T13:06:45Z</time>
      </trkpt>
      <trkpt lat="44.7545" lon="6.25023">
        <ele>1914.6</ele>
        <time>2013-08-29T13:06:51Z</time>
      </trkpt>
      <trkpt lat="44.75456" lon="6.25021">
        <ele>1914.6</ele>
        <time>2013-08-29T13:06:56Z</time>
      </trkpt>
      <trkpt lat="44.75458" lon="6.2502">
        <ele>1915.56</ele>
        <time>2013-08-29T13:06:58Z</time>
      </trkpt>
      <trkpt lat="44.75458" lon="6.25019">
        <ele>1914.12</ele>
        <time>2013-08-29T13:06:59Z</time>
      </trkpt>
      <trkpt lat="44.75461" lon="6.25019">
        <ele>1912.2</ele>
        <time>2013-08-29T13:07:01Z</time>
      </trkpt>
      <trkpt lat="44.75467" lon="6.25016">
        <ele>1912.68</ele>
        <time>2013-08-29T13:07:06Z</time>
      </trkpt>
      <trkpt lat="44.75472" lon="6.25013">
        <ele>1909.32</ele>
        <time>2013-08-29T13:07:11Z</time>
      </trkpt>
      <trkpt lat="44.75477" lon="6.2501">
        <ele>1910.28</ele>
        <time>2013-08-29T13:07:16Z</time>
      </trkpt>
      <trkpt lat="44.7548" lon="6.25008">
        <ele>1911.24</ele>
        <time>2013-08-29T13:07:18Z</time>
      </trkpt>
      <trkpt lat="44.75481" lon="6.25007">
        <ele>1910.28</ele>
        <time>2013-08-29T13:07:19Z</time>
      </trkpt>
      <trkpt lat="44.75483" lon="6.25005">
        <ele>1909.8</ele>
        <time>2013-08-29T13:07:21Z</time>
      </trkpt>
      <trkpt lat="44.7549" lon="6.25001">
        <ele>1909.8</ele>
        <time>2013-08-29T13:07:28Z</time>
      </trkpt>
      <trkpt lat="44.75492" lon="6.24999">
        <ele>1905.95</ele>
        <time>2013-08-29T13:07:30Z</time>
      </trkpt>
      <trkpt lat="44.75493" lon="6.24997">
        <ele>1906.91</ele>
        <time>2013-08-29T13:07:31Z</time>
      </trkpt>
      <trkpt lat="44.75493" lon="6.24989">
        <ele>1905.95</ele>
        <time>2013-08-29T13:07:38Z</time>
      </trkpt>
      <trkpt lat="44.75492" lon="6.2498">
        <ele>1904.99</ele>
        <time>2013-08-29T13:07:46Z</time>
      </trkpt>
      <trkpt lat="44.75491" lon="6.24977">
        <ele>1906.43</ele>
        <time>2013-08-29T13:07:48Z</time>
      </trkpt>
      <trkpt lat="44.75489" lon="6.24972">
        <ele>1903.07</ele>
        <time>2013-08-29T13:07:52Z</time>
      </trkpt>
      <trkpt lat="44.75482" lon="6.2496">
        <ele>1902.11</ele>
        <time>2013-08-29T13:08:05Z</time>
      </trkpt>
      <trkpt lat="44.75478" lon="6.24954">
        <ele>1901.14</ele>
        <time>2013-08-29T13:08:10Z</time>
      </trkpt>
      <trkpt lat="44.75476" lon="6.2495">
        <ele>1899.7</ele>
        <time>2013-08-29T13:08:13Z</time>
      </trkpt>
      <trkpt lat="44.75474" lon="6.24946">
        <ele>1899.7</ele>
        <time>2013-08-29T13:08:20Z</time>
      </trkpt>
      <trkpt lat="44.75477" lon="6.24937">
        <ele>1896.82</ele>
        <time>2013-08-29T13:08:31Z</time>
      </trkpt>
      <trkpt lat="44.75484" lon="6.24928">
        <ele>1895.38</ele>
        <time>2013-08-29T13:08:36Z</time>
      </trkpt>
      <trkpt lat="44.75486" lon="6.24927">
        <ele>1896.82</ele>
        <time>2013-08-29T13:08:37Z</time>
      </trkpt>
      <trkpt lat="44.75493" lon="6.24918">
        <ele>1894.9</ele>
        <time>2013-08-29T13:08:44Z</time>
      </trkpt>
      <trkpt lat="44.75509" lon="6.249">
        <ele>1892.49</ele>
        <time>2013-08-29T13:08:56Z</time>
      </trkpt>
      <trkpt lat="44.7551" lon="6.24898">
        <ele>1892.49</ele>
        <time>2013-08-29T13:08:57Z</time>
      </trkpt>
      <trkpt lat="44.75519" lon="6.24883">
        <ele>1891.05</ele>
        <time>2013-08-29T13:09:09Z</time>
      </trkpt>
      <trkpt lat="44.75512" lon="6.24877">
        <ele>1889.13</ele>
        <time>2013-08-29T13:09:22Z</time>
      </trkpt>
      <trkpt lat="44.75506" lon="6.24878">
        <ele>1886.24</ele>
        <time>2013-08-29T13:09:34Z</time>
      </trkpt>
      <trkpt lat="44.75508" lon="6.24874">
        <ele>1883.84</ele>
        <time>2013-08-29T13:09:41Z</time>
      </trkpt>
      <trkpt lat="44.75521" lon="6.24869">
        <ele>1881.92</ele>
        <time>2013-08-29T13:09:55Z</time>
      </trkpt>
      <trkpt lat="44.75524" lon="6.24868">
        <ele>1882.88</ele>
        <time>2013-08-29T13:09:58Z</time>
      </trkpt>
      <trkpt lat="44.75528" lon="6.24865">
        <ele>1880.96</ele>
        <time>2013-08-29T13:10:01Z</time>
      </trkpt>
      <trkpt lat="44.75533" lon="6.24859">
        <ele>1878.55</ele>
        <time>2013-08-29T13:10:14Z</time>
      </trkpt>
      <trkpt lat="44.75532" lon="6.24858">
        <ele>1878.07</ele>
        <time>2013-08-29T13:10:15Z</time>
      </trkpt>
      <trkpt lat="44.75528" lon="6.24855">
        <ele>1876.63</ele>
        <time>2013-08-29T13:10:29Z</time>
      </trkpt>
      <trkpt lat="44.75527" lon="6.24855">
        <ele>1877.11</ele>
        <time>2013-08-29T13:10:30Z</time>
      </trkpt>
      <trkpt lat="44.75527" lon="6.24856">
        <ele>1876.15</ele>
        <time>2013-08-29T13:10:35Z</time>
      </trkpt>
      <trkpt lat="44.75523" lon="6.24853">
        <ele>1874.23</ele>
        <time>2013-08-29T13:10:47Z</time>
      </trkpt>
      <trkpt lat="44.75521" lon="6.24853">
        <ele>1872.3</ele>
        <time>2013-08-29T13:10:51Z</time>
      </trkpt>
      <trkpt lat="44.75518" lon="6.24857">
        <ele>1872.79</ele>
        <time>2013-08-29T13:10:54Z</time>
      </trkpt>
      <trkpt lat="44.75521" lon="6.24861">
        <ele>1869.42</ele>
        <time>2013-08-29T13:11:04Z</time>
      </trkpt>
      <trkpt lat="44.75534" lon="6.24857">
        <ele>1869.9</ele>
        <time>2013-08-29T13:11:18Z</time>
      </trkpt>
      <trkpt lat="44.75543" lon="6.2485">
        <ele>1867.5</ele>
        <time>2013-08-29T13:11:30Z</time>
      </trkpt>
      <trkpt lat="44.75544" lon="6.24849">
        <ele>1868.94</ele>
        <time>2013-08-29T13:11:33Z</time>
      </trkpt>
      <trkpt lat="44.75548" lon="6.24848">
        <ele>1866.54</ele>
        <time>2013-08-29T13:11:39Z</time>
      </trkpt>
      <trkpt lat="44.75549" lon="6.24844">
        <ele>1865.09</ele>
        <time>2013-08-29T13:11:52Z</time>
      </trkpt>
      <trkpt lat="44.75547" lon="6.24843">
        <ele>1864.13</ele>
        <time>2013-08-29T13:11:59Z</time>
      </trkpt>
      <trkpt lat="44.75542" lon="6.24841">
        <ele>1861.25</ele>
        <time>2013-08-29T13:12:08Z</time>
      </trkpt>
      <trkpt lat="44.75541" lon="6.24841">
        <ele>1862.21</ele>
        <time>2013-08-29T13:12:10Z</time>
      </trkpt>
      <trkpt lat="44.75532" lon="6.24845">
        <ele>1858.85</ele>
        <time>2013-08-29T13:12:23Z</time>
      </trkpt>
      <trkpt lat="44.7562" lon="6.24492">
        <ele>1857.89</ele>
        <time>2013-08-29T13:12:30Z</time>
      </trkpt>
      <trkpt lat="44.75611" lon="6.2449">
        <ele>1858.37</ele>
        <time>2013-08-29T13:12:36Z</time>
      </trkpt>
      <trkpt lat="44.75613" lon="6.24487">
        <ele>1857.89</ele>
        <time>2013-08-29T13:12:45Z</time>
      </trkpt>
      <trkpt lat="44.75615" lon="6.24491">
        <ele>1855.96</ele>
        <time>2013-08-29T13:12:56Z</time>
      </trkpt>
      <trkpt lat="44.75617" lon="6.24495">
        <ele>1855.48</ele>
        <time>2013-08-29T13:13:00Z</time>
      </trkpt>
      <trkpt lat="44.75617" lon="6.24496">
        <ele>1854.52</ele>
        <time>2013-08-29T13:13:01Z</time>
      </trkpt>
      <trkpt lat="44.75622" lon="6.24503">
        <ele>1855</ele>
        <time>2013-08-29T13:13:12Z</time>
      </trkpt>
      <trkpt lat="44.75623" lon="6.24507">
        <ele>1851.16</ele>
        <time>2013-08-29T13:13:24Z</time>
      </trkpt>
      <trkpt lat="44.75619" lon="6.24509">
        <ele>1849.71</ele>
        <time>2013-08-29T13:13:32Z</time>
      </trkpt>
      <trkpt lat="44.75613" lon="6.2451">
        <ele>1845.87</ele>
        <time>2013-08-29T13:13:42Z</time>
      </trkpt>
      <trkpt lat="44.75612" lon="6.24509">
        <ele>1847.31</ele>
        <time>2013-08-29T13:13:43Z</time>
      </trkpt>
      <trkpt lat="44.756" lon="6.24505">
        <ele>1845.87</ele>
        <time>2013-08-29T13:13:57Z</time>
      </trkpt>
      <trkpt lat="44.75599" lon="6.24505">
        <ele>1845.39</ele>
        <time>2013-08-29T13:13:58Z</time>
      </trkpt>
      <trkpt lat="44.75591" lon="6.24502">
        <ele>1843.95</ele>
        <time>2013-08-29T13:14:10Z</time>
      </trkpt>
      <trkpt lat="44.75587" lon="6.24503">
        <ele>1843.47</ele>
        <time>2013-08-29T13:14:22Z</time>
      </trkpt>
      <trkpt lat="44.75584" lon="6.24504">
        <ele>1840.58</ele>
        <time>2013-08-29T13:14:33Z</time>
      </trkpt>
      <trkpt lat="44.75579" lon="6.24501">
        <ele>1839.14</ele>
        <time>2013-08-29T13:14:42Z</time>
      </trkpt>
      <trkpt lat="44.75572" lon="6.24487">
        <ele>1838.66</ele>
        <time>2013-08-29T13:14:58Z</time>
      </trkpt>
      <trkpt lat="44.75572" lon="6.24486">
        <ele>1838.18</ele>
        <time>2013-08-29T13:15:12Z</time>
      </trkpt>
      <trkpt lat="44.75566" lon="6.24477">
        <ele>1835.29</ele>
        <time>2013-08-29T13:15:34Z</time>
      </trkpt>
      <trkpt lat="44.7556" lon="6.24474">
        <ele>1834.33</ele>
        <time>2013-08-29T13:15:46Z</time>
      </trkpt>
      <trkpt lat="44.75554" lon="6.24474">
        <ele>1834.81</ele>
        <time>2013-08-29T13:15:59Z</time>
      </trkpt>
      <trkpt lat="44.75554" lon="6.24474">
        <ele>1833.37</ele>
        <time>2013-08-29T13:16:02Z</time>
      </trkpt>
      <trkpt lat="44.7555" lon="6.24473">
        <ele>1834.33</ele>
        <time>2013-08-29T13:16:17Z</time>
      </trkpt>
      <trkpt lat="44.75544" lon="6.24472">
        <ele>1832.41</ele>
        <time>2013-08-29T13:16:31Z</time>
      </trkpt>
      <trkpt lat="44.75543" lon="6.24472">
        <ele>1832.41</ele>
        <time>2013-08-29T13:16:53Z</time>
      </trkpt>
      <trkpt lat="44.75543" lon="6.24472">
        <ele>1831.93</ele>
        <time>2013-08-29T13:17:12Z</time>
      </trkpt>
      <trkpt lat="44.7554" lon="6.2447">
        <ele>1831.93</ele>
        <time>2013-08-29T13:17:35Z</time>
      </trkpt>
      <trkpt lat="44.7554" lon="6.2447">
        <ele>1824.72</ele>
        <time>2013-08-29T13:17:37Z</time>
      </trkpt>
      <trkpt lat="44.7554" lon="6.2447">
        <ele>1835.77</ele>
        <time>2013-08-29T13:17:38Z</time>
      </trkpt>
      <trkpt lat="44.7554" lon="6.2447">
        <ele>1834.33</ele>
        <time>2013-08-29T13:17:39Z</time>
      </trkpt>
      <trkpt lat="44.7554" lon="6.2447">
        <ele>1832.41</ele>
        <time>2013-08-29T13:17:41Z</time>
      </trkpt>
      <trkpt lat="44.7554" lon="6.2447">
        <ele>1830.01</ele>
        <time>2013-08-29T13:18:00Z</time>
      </trkpt>
      <trkpt lat="44.75537" lon="6.24469">
        <ele>1831.93</ele>
        <time>2013-08-29T13:18:46Z</time>
      </trkpt>
      <trkpt lat="44.75531" lon="6.24467">
        <ele>1831.93</ele>
        <time>2013-08-29T13:18:58Z</time>
      </trkpt>
      <trkpt lat="44.7553" lon="6.24467">
        <ele>1830.49</ele>
        <time>2013-08-29T13:18:59Z</time>
      </trkpt>
      <trkpt lat="44.7552" lon="6.24464">
        <ele>1829.05</ele>
        <time>2013-08-29T13:19:11Z</time>
      </trkpt>
      <trkpt lat="44.75512" lon="6.2446">
        <ele>1828.56</ele>
        <time>2013-08-29T13:19:23Z</time>
      </trkpt>
      <trkpt lat="44.75511" lon="6.24458">
        <ele>1829.05</ele>
        <time>2013-08-29T13:19:26Z</time>
      </trkpt>
      <trkpt lat="44.75507" lon="6.24459">
        <ele>1829.05</ele>
        <time>2013-08-29T13:19:30Z</time>
      </trkpt>
      <trkpt lat="44.75506" lon="6.2446">
        <ele>1827.12</ele>
        <time>2013-08-29T13:19:32Z</time>
      </trkpt>
      <trkpt lat="44.75499" lon="6.24457">
        <ele>1826.16</ele>
        <time>2013-08-29T13:19:43Z</time>
      </trkpt>
      <trkpt lat="44.75493" lon="6.24453">
        <ele>1823.76</ele>
        <time>2013-08-29T13:19:56Z</time>
      </trkpt>
      <trkpt lat="44.7549" lon="6.24451">
        <ele>1822.8</ele>
        <time>2013-08-29T13:20:08Z</time>
      </trkpt>
      <trkpt lat="44.75483" lon="6.24456">
        <ele>1824.72</ele>
        <time>2013-08-29T13:20:20Z</time>
      </trkpt>
      <trkpt lat="44.75472" lon="6.24457">
        <ele>1824.72</ele>
        <time>2013-08-29T13:20:34Z</time>
      </trkpt>
      <trkpt lat="44.75472" lon="6.24457">
        <ele>1824.24</ele>
        <time>2013-08-29T13:20:38Z</time>
      </trkpt>
      <trkpt lat="44.7547" lon="6.24459">
        <ele>1825.68</ele>
        <time>2013-08-29T13:20:41Z</time>
      </trkpt>
      <trkpt lat="44.75456" lon="6.24459">
        <ele>1824.24</ele>
        <time>2013-08-29T13:20:53Z</time>
      </trkpt>
      <trkpt lat="44.75446" lon="6.24457">
        <ele>1824.72</ele>
        <time>2013-08-29T13:21:04Z</time>
      </trkpt>
      <trkpt lat="44.7544" lon="6.24458">
        <ele>1822.8</ele>
        <time>2013-08-29T13:21:15Z</time>
      </trkpt>
      <trkpt lat="44.7544" lon="6.24463">
        <ele>1824.24</ele>
        <time>2013-08-29T13:21:23Z</time>
      </trkpt>
      <trkpt lat="44.75432" lon="6.24468">
        <ele>1824.24</ele>
        <time>2013-08-29T13:21:33Z</time>
      </trkpt>
      <trkpt lat="44.75426" lon="6.24469">
        <ele>1823.76</ele>
        <time>2013-08-29T13:21:37Z</time>
      </trkpt>
      <trkpt lat="44.75418" lon="6.24471">
        <ele>1822.8</ele>
        <time>2013-08-29T13:21:44Z</time>
      </trkpt>
      <trkpt lat="44.75408" lon="6.24474">
        <ele>1822.32</ele>
        <time>2013-08-29T13:21:56Z</time>
      </trkpt>
      <trkpt lat="44.75407" lon="6.24483">
        <ele>1822.8</ele>
        <time>2013-08-29T13:22:05Z</time>
      </trkpt>
      <trkpt lat="44.75396" lon="6.24489">
        <ele>1821.35</ele>
        <time>2013-08-29T13:22:17Z</time>
      </trkpt>
      <trkpt lat="44.7539" lon="6.24489">
        <ele>1821.35</ele>
        <time>2013-08-29T13:22:21Z</time>
      </trkpt>
      <trkpt lat="44.75376" lon="6.24492">
        <ele>1819.43</ele>
        <time>2013-08-29T13:22:34Z</time>
      </trkpt>
      <trkpt lat="44.75369" lon="6.24495">
        <ele>1817.51</ele>
        <time>2013-08-29T13:22:47Z</time>
      </trkpt>
      <trkpt lat="44.75365" lon="6.24498">
        <ele>1815.11</ele>
        <time>2013-08-29T13:22:53Z</time>
      </trkpt>
      <trkpt lat="44.75363" lon="6.24502">
        <ele>1816.55</ele>
        <time>2013-08-29T13:22:59Z</time>
      </trkpt>
      <trkpt lat="44.75362" lon="6.24502">
        <ele>1817.03</ele>
        <time>2013-08-29T13:23:02Z</time>
      </trkpt>
      <trkpt lat="44.75356" lon="6.245">
        <ele>1817.51</ele>
        <time>2013-08-29T13:23:07Z</time>
      </trkpt>
      <trkpt lat="44.75354" lon="6.245">
        <ele>1818.47</ele>
        <time>2013-08-29T13:23:09Z</time>
      </trkpt>
      <trkpt lat="44.75354" lon="6.245">
        <ele>1820.39</ele>
        <time>2013-08-29T13:23:14Z</time>
      </trkpt>
      <trkpt lat="44.7535" lon="6.24503">
        <ele>1820.87</ele>
        <time>2013-08-29T13:23:27Z</time>
      </trkpt>
      <trkpt lat="44.75338" lon="6.24512">
        <ele>1821.84</ele>
        <time>2013-08-29T13:23:41Z</time>
      </trkpt>
      <trkpt lat="44.75332" lon="6.24519">
        <ele>1818.95</ele>
        <time>2013-08-29T13:23:50Z</time>
      </trkpt>
      <trkpt lat="44.75323" lon="6.24531">
        <ele>1818.95</ele>
        <time>2013-08-29T13:24:04Z</time>
      </trkpt>
      <trkpt lat="44.7532" lon="6.24533">
        <ele>1817.99</ele>
        <time>2013-08-29T13:24:07Z</time>
      </trkpt>
      <trkpt lat="44.75314" lon="6.24541">
        <ele>1817.99</ele>
        <time>2013-08-29T13:24:17Z</time>
      </trkpt>
      <trkpt lat="44.75302" lon="6.24548">
        <ele>1816.07</ele>
        <time>2013-08-29T13:24:30Z</time>
      </trkpt>
      <trkpt lat="44.753" lon="6.2455">
        <ele>1817.51</ele>
        <time>2013-08-29T13:24:32Z</time>
      </trkpt>
      <trkpt lat="44.75293" lon="6.24554">
        <ele>1815.59</ele>
        <time>2013-08-29T13:24:40Z</time>
      </trkpt>
      <trkpt lat="44.75289" lon="6.24555">
        <ele>1815.59</ele>
        <time>2013-08-29T13:24:44Z</time>
      </trkpt>
      <trkpt lat="44.75286" lon="6.24558">
        <ele>1814.15</ele>
        <time>2013-08-29T13:24:47Z</time>
      </trkpt>
      <trkpt lat="44.75276" lon="6.24562">
        <ele>1814.15</ele>
        <time>2013-08-29T13:25:00Z</time>
      </trkpt>
      <trkpt lat="44.75269" lon="6.2457">
        <ele>1811.74</ele>
        <time>2013-08-29T13:25:12Z</time>
      </trkpt>
      <trkpt lat="44.75268" lon="6.24573">
        <ele>1812.22</ele>
        <time>2013-08-29T13:25:14Z</time>
      </trkpt>
      <trkpt lat="44.75253" lon="6.24576">
        <ele>1810.3</ele>
        <time>2013-08-29T13:25:24Z</time>
      </trkpt>
      <trkpt lat="44.7524" lon="6.24576">
        <ele>1807.9</ele>
        <time>2013-08-29T13:25:37Z</time>
      </trkpt>
      <trkpt lat="44.7523" lon="6.24572">
        <ele>1806.94</ele>
        <time>2013-08-29T13:25:49Z</time>
      </trkpt>
      <trkpt lat="44.75221" lon="6.24566">
        <ele>1805.01</ele>
        <time>2013-08-29T13:26:00Z</time>
      </trkpt>
      <trkpt lat="44.75218" lon="6.24563">
        <ele>1804.53</ele>
        <time>2013-08-29T13:26:05Z</time>
      </trkpt>
      <trkpt lat="44.75211" lon="6.24555">
        <ele>1801.65</ele>
        <time>2013-08-29T13:26:18Z</time>
      </trkpt>
      <trkpt lat="44.75209" lon="6.24552">
        <ele>1801.17</ele>
        <time>2013-08-29T13:26:22Z</time>
      </trkpt>
      <trkpt lat="44.75205" lon="6.2455">
        <ele>1799.24</ele>
        <time>2013-08-29T13:26:34Z</time>
      </trkpt>
      <trkpt lat="44.75206" lon="6.24556">
        <ele>1796.84</ele>
        <time>2013-08-29T13:26:46Z</time>
      </trkpt>
      <trkpt lat="44.75208" lon="6.24571">
        <ele>1794.92</ele>
        <time>2013-08-29T13:26:58Z</time>
      </trkpt>
      <trkpt lat="44.7521" lon="6.24578">
        <ele>1793.48</ele>
        <time>2013-08-29T13:27:06Z</time>
      </trkpt>
      <trkpt lat="44.75213" lon="6.24594">
        <ele>1791.55</ele>
        <time>2013-08-29T13:27:19Z</time>
      </trkpt>
      <trkpt lat="44.7522" lon="6.24606">
        <ele>1789.63</ele>
        <time>2013-08-29T13:27:31Z</time>
      </trkpt>
      <trkpt lat="44.75215" lon="6.24608">
        <ele>1788.67</ele>
        <time>2013-08-29T13:27:42Z</time>
      </trkpt>
      <trkpt lat="44.75212" lon="6.24608">
        <ele>1786.75</ele>
        <time>2013-08-29T13:27:47Z</time>
      </trkpt>
      <trkpt lat="44.75207" lon="6.2461">
        <ele>1784.82</ele>
        <time>2013-08-29T13:28:00Z</time>
      </trkpt>
      <trkpt lat="44.75209" lon="6.24613">
        <ele>1783.38</ele>
        <time>2013-08-29T13:28:04Z</time>
      </trkpt>
      <trkpt lat="44.75215" lon="6.24619">
        <ele>1783.38</ele>
        <time>2013-08-29T13:28:16Z</time>
      </trkpt>
      <trkpt lat="44.75226" lon="6.24621">
        <ele>1781.46</ele>
        <time>2013-08-29T13:28:29Z</time>
      </trkpt>
      <trkpt lat="44.75228" lon="6.24626">
        <ele>1780.02</ele>
        <time>2013-08-29T13:28:40Z</time>
      </trkpt>
      <trkpt lat="44.75223" lon="6.24628">
        <ele>1777.61</ele>
        <time>2013-08-29T13:28:47Z</time>
      </trkpt>
      <trkpt lat="44.75212" lon="6.2463">
        <ele>1775.21</ele>
        <time>2013-08-29T13:29:01Z</time>
      </trkpt>
      <trkpt lat="44.75209" lon="6.2463">
        <ele>1773.77</ele>
        <time>2013-08-29T13:29:11Z</time>
      </trkpt>
      <trkpt lat="44.7521" lon="6.24633">
        <ele>1773.29</ele>
        <time>2013-08-29T13:29:15Z</time>
      </trkpt>
      <trkpt lat="44.75215" lon="6.24635">
        <ele>1772.81</ele>
        <time>2013-08-29T13:29:20Z</time>
      </trkpt>
      <trkpt lat="44.75223" lon="6.2464">
        <ele>1771.37</ele>
        <time>2013-08-29T13:29:33Z</time>
      </trkpt>
      <trkpt lat="44.75232" lon="6.24639">
        <ele>1768</ele>
        <time>2013-08-29T13:29:47Z</time>
      </trkpt>
      <trkpt lat="44.75234" lon="6.2464">
        <ele>1767.04</ele>
        <time>2013-08-29T13:29:52Z</time>
      </trkpt>
      <trkpt lat="44.75231" lon="6.24643">
        <ele>1767.52</ele>
        <time>2013-08-29T13:30:07Z</time>
      </trkpt>
      <trkpt lat="44.75235" lon="6.24643">
        <ele>1765.6</ele>
        <time>2013-08-29T13:30:19Z</time>
      </trkpt>
      <trkpt lat="44.75239" lon="6.24646">
        <ele>1763.68</ele>
        <time>2013-08-29T13:30:29Z</time>
      </trkpt>
      <trkpt lat="44.75239" lon="6.24648">
        <ele>1763.2</ele>
        <time>2013-08-29T13:30:34Z</time>
      </trkpt>
      <trkpt lat="44.75247" lon="6.24649">
        <ele>1761.27</ele>
        <time>2013-08-29T13:30:47Z</time>
      </trkpt>
      <trkpt lat="44.75255" lon="6.24648">
        <ele>1760.31</ele>
        <time>2013-08-29T13:31:00Z</time>
      </trkpt>
      <trkpt lat="44.75257" lon="6.24647">
        <ele>1759.35</ele>
        <time>2013-08-29T13:31:17Z</time>
      </trkpt>
      <trkpt lat="44.75263" lon="6.24643">
        <ele>1757.91</ele>
        <time>2013-08-29T13:31:25Z</time>
      </trkpt>
      <trkpt lat="44.75274" lon="6.24635">
        <ele>1756.47</ele>
        <time>2013-08-29T13:31:38Z</time>
      </trkpt>
      <trkpt lat="44.75283" lon="6.2463">
        <ele>1755.5</ele>
        <time>2013-08-29T13:31:49Z</time>
      </trkpt>
      <trkpt lat="44.75294" lon="6.24622">
        <ele>1754.54</ele>
        <time>2013-08-29T13:32:01Z</time>
      </trkpt>
      <trkpt lat="44.75299" lon="6.2462">
        <ele>1753.58</ele>
        <time>2013-08-29T13:32:07Z</time>
      </trkpt>
      <trkpt lat="44.75302" lon="6.24621">
        <ele>1753.58</ele>
        <time>2013-08-29T13:32:10Z</time>
      </trkpt>
      <trkpt lat="44.75303" lon="6.2462">
        <ele>1752.14</ele>
        <time>2013-08-29T13:32:12Z</time>
      </trkpt>
      <trkpt lat="44.75303" lon="6.24618">
        <ele>1752.14</ele>
        <time>2013-08-29T13:32:14Z</time>
      </trkpt>
      <trkpt lat="44.7531" lon="6.24619">
        <ele>1750.7</ele>
        <time>2013-08-29T13:32:20Z</time>
      </trkpt>
      <trkpt lat="44.75319" lon="6.24616">
        <ele>1750.22</ele>
        <time>2013-08-29T13:32:31Z</time>
      </trkpt>
      <trkpt lat="44.75323" lon="6.24616">
        <ele>1748.78</ele>
        <time>2013-08-29T13:32:36Z</time>
      </trkpt>
      <trkpt lat="44.7533" lon="6.24612">
        <ele>1747.33</ele>
        <time>2013-08-29T13:32:46Z</time>
      </trkpt>
      <trkpt lat="44.75336" lon="6.24609">
        <ele>1744.93</ele>
        <time>2013-08-29T13:32:57Z</time>
      </trkpt>
      <trkpt lat="44.75345" lon="6.24609">
        <ele>1743.01</ele>
        <time>2013-08-29T13:33:09Z</time>
      </trkpt>
      <trkpt lat="44.75352" lon="6.24607">
        <ele>1741.57</ele>
        <time>2013-08-29T13:33:19Z</time>
      </trkpt>
      <trkpt lat="44.75351" lon="6.24608">
        <ele>1740.12</ele>
        <time>2013-08-29T13:33:25Z</time>
      </trkpt>
      <trkpt lat="44.75354" lon="6.24611">
        <ele>1738.68</ele>
        <time>2013-08-29T13:33:37Z</time>
      </trkpt>
      <trkpt lat="44.75361" lon="6.24607">
        <ele>1736.28</ele>
        <time>2013-08-29T13:33:50Z</time>
      </trkpt>
      <trkpt lat="44.75364" lon="6.24607">
        <ele>1734.36</ele>
        <time>2013-08-29T13:34:02Z</time>
      </trkpt>
      <trkpt lat="44.75363" lon="6.24608">
        <ele>1734.36</ele>
        <time>2013-08-29T13:34:03Z</time>
      </trkpt>
      <trkpt lat="44.75364" lon="6.24612">
        <ele>1732.43</ele>
        <time>2013-08-29T13:34:07Z</time>
      </trkpt>
      <trkpt lat="44.75356" lon="6.24621">
        <ele>1730.99</ele>
        <time>2013-08-29T13:34:21Z</time>
      </trkpt>
      <trkpt lat="44.75359" lon="6.24622">
        <ele>1729.07</ele>
        <time>2013-08-29T13:34:30Z</time>
      </trkpt>
      <trkpt lat="44.7536" lon="6.24622">
        <ele>1728.59</ele>
        <time>2013-08-29T13:34:33Z</time>
      </trkpt>
      <trkpt lat="44.75369" lon="6.24618">
        <ele>1726.67</ele>
        <time>2013-08-29T13:34:46Z</time>
      </trkpt>
      <trkpt lat="44.75369" lon="6.24622">
        <ele>1724.74</ele>
        <time>2013-08-29T13:34:57Z</time>
      </trkpt>
      <trkpt lat="44.75367" lon="6.24625">
        <ele>1724.26</ele>
        <time>2013-08-29T13:35:01Z</time>
      </trkpt>
      <trkpt lat="44.75362" lon="6.24635">
        <ele>1722.82</ele>
        <time>2013-08-29T13:35:15Z</time>
      </trkpt>
      <trkpt lat="44.75362" lon="6.24636">
        <ele>1721.38</ele>
        <time>2013-08-29T13:35:17Z</time>
      </trkpt>
      <trkpt lat="44.75358" lon="6.24644">
        <ele>1720.9</ele>
        <time>2013-08-29T13:35:28Z</time>
      </trkpt>
      <trkpt lat="44.75354" lon="6.24651">
        <ele>1718.49</ele>
        <time>2013-08-29T13:35:38Z</time>
      </trkpt>
      <trkpt lat="44.75349" lon="6.24654">
        <ele>1718.01</ele>
        <time>2013-08-29T13:35:45Z</time>
      </trkpt>
      <trkpt lat="44.75353" lon="6.24652">
        <ele>1717.05</ele>
        <time>2013-08-29T13:35:52Z</time>
      </trkpt>
      <trkpt lat="44.75357" lon="6.24648">
        <ele>1716.57</ele>
        <time>2013-08-29T13:36:01Z</time>
      </trkpt>
      <trkpt lat="44.75363" lon="6.24644">
        <ele>1715.61</ele>
        <time>2013-08-29T13:36:12Z</time>
      </trkpt>
      <trkpt lat="44.75365" lon="6.24644">
        <ele>1716.09</ele>
        <time>2013-08-29T13:36:17Z</time>
      </trkpt>
      <trkpt lat="44.75368" lon="6.24644">
        <ele>1714.17</ele>
        <time>2013-08-29T13:36:23Z</time>
      </trkpt>
      <trkpt lat="44.75372" lon="6.24645">
        <ele>1712.73</ele>
        <time>2013-08-29T13:36:33Z</time>
      </trkpt>
      <trkpt lat="44.75373" lon="6.24649">
        <ele>1711.28</ele>
        <time>2013-08-29T13:36:45Z</time>
      </trkpt>
      <trkpt lat="44.75372" lon="6.24658">
        <ele>1708.88</ele>
        <time>2013-08-29T13:36:57Z</time>
      </trkpt>
      <trkpt lat="44.75372" lon="6.24659">
        <ele>1708.88</ele>
        <time>2013-08-29T13:37:00Z</time>
      </trkpt>
      <trkpt lat="44.75371" lon="6.24661">
        <ele>1707.44</ele>
        <time>2013-08-29T13:37:03Z</time>
      </trkpt>
      <trkpt lat="44.75369" lon="6.24662">
        <ele>1705.52</ele>
        <time>2013-08-29T13:37:13Z</time>
      </trkpt>
      <trkpt lat="44.75374" lon="6.24661">
        <ele>1704.07</ele>
        <time>2013-08-29T13:37:24Z</time>
      </trkpt>
      <trkpt lat="44.7538" lon="6.24662">
        <ele>1702.15</ele>
        <time>2013-08-29T13:37:36Z</time>
      </trkpt>
      <trkpt lat="44.75382" lon="6.24662">
        <ele>1701.19</ele>
        <time>2013-08-29T13:37:41Z</time>
      </trkpt>
      <trkpt lat="44.75389" lon="6.24658">
        <ele>1699.75</ele>
        <time>2013-08-29T13:37:51Z</time>
      </trkpt>
      <trkpt lat="44.75393" lon="6.24656">
        <ele>1699.27</ele>
        <time>2013-08-29T13:37:56Z</time>
      </trkpt>
      <trkpt lat="44.75392" lon="6.24661">
        <ele>1697.34</ele>
        <time>2013-08-29T13:38:07Z</time>
      </trkpt>
      <trkpt lat="44.75388" lon="6.24669">
        <ele>1695.42</ele>
        <time>2013-08-29T13:38:19Z</time>
      </trkpt>
      <trkpt lat="44.75383" lon="6.24675">
        <ele>1693.02</ele>
        <time>2013-08-29T13:38:32Z</time>
      </trkpt>
      <trkpt lat="44.75383" lon="6.24675">
        <ele>1692.06</ele>
        <time>2013-08-29T13:38:43Z</time>
      </trkpt>
      <trkpt lat="44.75383" lon="6.24675">
        <ele>1690.14</ele>
        <time>2013-08-29T13:38:49Z</time>
      </trkpt>
      <trkpt lat="44.7538" lon="6.24678">
        <ele>1690.62</ele>
        <time>2013-08-29T13:38:53Z</time>
      </trkpt>
      <trkpt lat="44.75386" lon="6.24685">
        <ele>1687.25</ele>
        <time>2013-08-29T13:39:05Z</time>
      </trkpt>
      <trkpt lat="44.75392" lon="6.24685">
        <ele>1687.25</ele>
        <time>2013-08-29T13:39:16Z</time>
      </trkpt>
      <trkpt lat="44.75394" lon="6.24685">
        <ele>1686.77</ele>
        <time>2013-08-29T13:39:18Z</time>
      </trkpt>
      <trkpt lat="44.75397" lon="6.24683">
        <ele>1685.33</ele>
        <time>2013-08-29T13:39:21Z</time>
      </trkpt>
      <trkpt lat="44.75406" lon="6.24678">
        <ele>1683.41</ele>
        <time>2013-08-29T13:39:34Z</time>
      </trkpt>
      <trkpt lat="44.75405" lon="6.24682">
        <ele>1682.44</ele>
        <time>2013-08-29T13:39:42Z</time>
      </trkpt>
      <trkpt lat="44.75405" lon="6.24683">
        <ele>1682.44</ele>
        <time>2013-08-29T13:39:43Z</time>
      </trkpt>
      <trkpt lat="44.75402" lon="6.2469">
        <ele>1681.48</ele>
        <time>2013-08-29T13:39:51Z</time>
      </trkpt>
      <trkpt lat="44.75401" lon="6.24692">
        <ele>1680.52</ele>
        <time>2013-08-29T13:39:53Z</time>
      </trkpt>
      <trkpt lat="44.75392" lon="6.24701">
        <ele>1680.52</ele>
        <time>2013-08-29T13:40:06Z</time>
      </trkpt>
      <trkpt lat="44.75389" lon="6.24704">
        <ele>1679.08</ele>
        <time>2013-08-29T13:40:11Z</time>
      </trkpt>
      <trkpt lat="44.75378" lon="6.24709">
        <ele>1677.16</ele>
        <time>2013-08-29T13:40:23Z</time>
      </trkpt>
      <trkpt lat="44.75372" lon="6.2471">
        <ele>1675.23</ele>
        <time>2013-08-29T13:40:28Z</time>
      </trkpt>
      <trkpt lat="44.75363" lon="6.24713">
        <ele>1673.79</ele>
        <time>2013-08-29T13:40:39Z</time>
      </trkpt>
      <trkpt lat="44.75356" lon="6.24719">
        <ele>1672.35</ele>
        <time>2013-08-29T13:40:52Z</time>
      </trkpt>
      <trkpt lat="44.75362" lon="6.24725">
        <ele>1669.47</ele>
        <time>2013-08-29T13:41:06Z</time>
      </trkpt>
      <trkpt lat="44.75365" lon="6.24726">
        <ele>1668.02</ele>
        <time>2013-08-29T13:41:12Z</time>
      </trkpt>
      <trkpt lat="44.75368" lon="6.24729">
        <ele>1666.1</ele>
        <time>2013-08-29T13:41:25Z</time>
      </trkpt>
      <trkpt lat="44.75366" lon="6.24733">
        <ele>1664.66</ele>
        <time>2013-08-29T13:41:35Z</time>
      </trkpt>
      <trkpt lat="44.7536" lon="6.24736">
        <ele>1662.26</ele>
        <time>2013-08-29T13:41:44Z</time>
      </trkpt>
      <trkpt lat="44.75351" lon="6.24741">
        <ele>1660.81</ele>
        <time>2013-08-29T13:41:56Z</time>
      </trkpt>
      <trkpt lat="44.75338" lon="6.2474">
        <ele>1659.37</ele>
        <time>2013-08-29T13:42:07Z</time>
      </trkpt>
      <trkpt lat="44.75328" lon="6.24743">
        <ele>1657.93</ele>
        <time>2013-08-29T13:42:18Z</time>
      </trkpt>
      <trkpt lat="44.75327" lon="6.24744">
        <ele>1656.97</ele>
        <time>2013-08-29T13:42:25Z</time>
      </trkpt>
      <trkpt lat="44.75333" lon="6.24749">
        <ele>1656.01</ele>
        <time>2013-08-29T13:42:37Z</time>
      </trkpt>
      <trkpt lat="44.75335" lon="6.2475">
        <ele>1655.53</ele>
        <time>2013-08-29T13:42:39Z</time>
      </trkpt>
      <trkpt lat="44.75344" lon="6.24759">
        <ele>1653.12</ele>
        <time>2013-08-29T13:42:52Z</time>
      </trkpt>
      <trkpt lat="44.7535" lon="6.24764">
        <ele>1651.2</ele>
        <time>2013-08-29T13:43:02Z</time>
      </trkpt>
      <trkpt lat="44.75354" lon="6.24764">
        <ele>1651.2</ele>
        <time>2013-08-29T13:43:08Z</time>
      </trkpt>
      <trkpt lat="44.75358" lon="6.24764">
        <ele>1649.28</ele>
        <time>2013-08-29T13:43:18Z</time>
      </trkpt>
      <trkpt lat="44.75356" lon="6.24765">
        <ele>1648.32</ele>
        <time>2013-08-29T13:43:28Z</time>
      </trkpt>
      <trkpt lat="44.75355" lon="6.24766">
        <ele>1646.88</ele>
        <time>2013-08-29T13:43:31Z</time>
      </trkpt>
      <trkpt lat="44.75347" lon="6.2477">
        <ele>1645.91</ele>
        <time>2013-08-29T13:43:43Z</time>
      </trkpt>
      <trkpt lat="44.75346" lon="6.2477">
        <ele>1644.95</ele>
        <time>2013-08-29T13:43:44Z</time>
      </trkpt>
      <trkpt lat="44.75339" lon="6.24771">
        <ele>1643.99</ele>
        <time>2013-08-29T13:43:49Z</time>
      </trkpt>
      <trkpt lat="44.75335" lon="6.24771">
        <ele>1641.59</ele>
        <time>2013-08-29T13:44:02Z</time>
      </trkpt>
      <trkpt lat="44.75335" lon="6.24771">
        <ele>1641.11</ele>
        <time>2013-08-29T13:44:03Z</time>
      </trkpt>
      <trkpt lat="44.75337" lon="6.24775">
        <ele>1641.11</ele>
        <time>2013-08-29T13:44:07Z</time>
      </trkpt>
      <trkpt lat="44.75345" lon="6.24784">
        <ele>1638.7</ele>
        <time>2013-08-29T13:44:20Z</time>
      </trkpt>
      <trkpt lat="44.7534" lon="6.24786">
        <ele>1637.74</ele>
        <time>2013-08-29T13:44:31Z</time>
      </trkpt>
      <trkpt lat="44.75339" lon="6.24786">
        <ele>1637.26</ele>
        <time>2013-08-29T13:44:32Z</time>
      </trkpt>
      <trkpt lat="44.75333" lon="6.24784">
        <ele>1636.3</ele>
        <time>2013-08-29T13:44:43Z</time>
      </trkpt>
      <trkpt lat="44.75332" lon="6.24784">
        <ele>1634.86</ele>
        <time>2013-08-29T13:44:47Z</time>
      </trkpt>
      <trkpt lat="44.75331" lon="6.24784">
        <ele>1632.94</ele>
        <time>2013-08-29T13:44:59Z</time>
      </trkpt>
      <trkpt lat="44.7533" lon="6.2479">
        <ele>1632.46</ele>
        <time>2013-08-29T13:45:12Z</time>
      </trkpt>
      <trkpt lat="44.75335" lon="6.24799">
        <ele>1629.57</ele>
        <time>2013-08-29T13:45:25Z</time>
      </trkpt>
      <trkpt lat="44.75336" lon="6.24803">
        <ele>1629.09</ele>
        <time>2013-08-29T13:45:37Z</time>
      </trkpt>
      <trkpt lat="44.7533" lon="6.24807">
        <ele>1627.17</ele>
        <time>2013-08-29T13:45:48Z</time>
      </trkpt>
      <trkpt lat="44.75321" lon="6.24803">
        <ele>1625.25</ele>
        <time>2013-08-29T13:46:01Z</time>
      </trkpt>
      <trkpt lat="44.75316" lon="6.24802">
        <ele>1624.28</ele>
        <time>2013-08-29T13:46:07Z</time>
      </trkpt>
      <trkpt lat="44.75309" lon="6.24802">
        <ele>1622.84</ele>
        <time>2013-08-29T13:46:19Z</time>
      </trkpt>
      <trkpt lat="44.75306" lon="6.24802">
        <ele>1622.84</ele>
        <time>2013-08-29T13:46:23Z</time>
      </trkpt>
      <trkpt lat="44.75304" lon="6.24801">
        <ele>1621.4</ele>
        <time>2013-08-29T13:46:29Z</time>
      </trkpt>
      <trkpt lat="44.75309" lon="6.2481">
        <ele>1619.96</ele>
        <time>2013-08-29T13:46:42Z</time>
      </trkpt>
      <trkpt lat="44.75318" lon="6.24822">
        <ele>1618.52</ele>
        <time>2013-08-29T13:46:55Z</time>
      </trkpt>
      <trkpt lat="44.75324" lon="6.2483">
        <ele>1616.59</ele>
        <time>2013-08-29T13:47:08Z</time>
      </trkpt>
      <trkpt lat="44.75321" lon="6.24831">
        <ele>1614.67</ele>
        <time>2013-08-29T13:47:14Z</time>
      </trkpt>
      <trkpt lat="44.75317" lon="6.24831">
        <ele>1614.19</ele>
        <time>2013-08-29T13:47:19Z</time>
      </trkpt>
      <trkpt lat="44.75308" lon="6.24829">
        <ele>1613.71</ele>
        <time>2013-08-29T13:47:30Z</time>
      </trkpt>
      <trkpt lat="44.75303" lon="6.24827">
        <ele>1611.79</ele>
        <time>2013-08-29T13:47:39Z</time>
      </trkpt>
      <trkpt lat="44.75298" lon="6.24827">
        <ele>1610.35</ele>
        <time>2013-08-29T13:47:52Z</time>
      </trkpt>
      <trkpt lat="44.75296" lon="6.24827">
        <ele>1609.38</ele>
        <time>2013-08-29T13:48:03Z</time>
      </trkpt>
      <trkpt lat="44.75297" lon="6.24831">
        <ele>1608.42</ele>
        <time>2013-08-29T13:48:08Z</time>
      </trkpt>
      <trkpt lat="44.75295" lon="6.24836">
        <ele>1606.5</ele>
        <time>2013-08-29T13:48:19Z</time>
      </trkpt>
      <trkpt lat="44.75297" lon="6.2484">
        <ele>1605.06</ele>
        <time>2013-08-29T13:48:25Z</time>
      </trkpt>
      <trkpt lat="44.75298" lon="6.24844">
        <ele>1604.58</ele>
        <time>2013-08-29T13:48:35Z</time>
      </trkpt>
      <trkpt lat="44.75303" lon="6.24854">
        <ele>1603.14</ele>
        <time>2013-08-29T13:48:46Z</time>
      </trkpt>
      <trkpt lat="44.75303" lon="6.24858">
        <ele>1602.17</ele>
        <time>2013-08-29T13:48:54Z</time>
      </trkpt>
      <trkpt lat="44.75293" lon="6.24855">
        <ele>1599.77</ele>
        <time>2013-08-29T13:49:07Z</time>
      </trkpt>
      <trkpt lat="44.75287" lon="6.24854">
        <ele>1598.33</ele>
        <time>2013-08-29T13:49:16Z</time>
      </trkpt>
      <trkpt lat="44.75278" lon="6.24851">
        <ele>1596.41</ele>
        <time>2013-08-29T13:49:28Z</time>
      </trkpt>
      <trkpt lat="44.75277" lon="6.24854">
        <ele>1595.45</ele>
        <time>2013-08-29T13:49:39Z</time>
      </trkpt>
      <trkpt lat="44.7528" lon="6.24863">
        <ele>1594.96</ele>
        <time>2013-08-29T13:49:52Z</time>
      </trkpt>
      <trkpt lat="44.75281" lon="6.24865">
        <ele>1594.48</ele>
        <time>2013-08-29T13:49:55Z</time>
      </trkpt>
      <trkpt lat="44.75282" lon="6.24868">
        <ele>1593.04</ele>
        <time>2013-08-29T13:49:57Z</time>
      </trkpt>
      <trkpt lat="44.75291" lon="6.24881">
        <ele>1591.6</ele>
        <time>2013-08-29T13:50:10Z</time>
      </trkpt>
      <trkpt lat="44.75296" lon="6.24892">
        <ele>1589.68</ele>
        <time>2013-08-29T13:50:23Z</time>
      </trkpt>
      <trkpt lat="44.7529" lon="6.24891">
        <ele>1588.24</ele>
        <time>2013-08-29T13:50:33Z</time>
      </trkpt>
      <trkpt lat="44.75279" lon="6.24888">
        <ele>1584.87</ele>
        <time>2013-08-29T13:50:46Z</time>
      </trkpt>
      <trkpt lat="44.7527" lon="6.24887">
        <ele>1583.91</ele>
        <time>2013-08-29T13:50:57Z</time>
      </trkpt>
      <trkpt lat="44.75267" lon="6.24886">
        <ele>1584.39</ele>
        <time>2013-08-29T13:51:00Z</time>
      </trkpt>
      <trkpt lat="44.75264" lon="6.24887">
        <ele>1583.91</ele>
        <time>2013-08-29T13:51:03Z</time>
      </trkpt>
      <trkpt lat="44.7526" lon="6.24887">
        <ele>1581.99</ele>
        <time>2013-08-29T13:51:08Z</time>
      </trkpt>
      <trkpt lat="44.75252" lon="6.24886">
        <ele>1580.54</ele>
        <time>2013-08-29T13:51:18Z</time>
      </trkpt>
      <trkpt lat="44.75259" lon="6.24898">
        <ele>1579.1</ele>
        <time>2013-08-29T13:51:32Z</time>
      </trkpt>
      <trkpt lat="44.75266" lon="6.24911">
        <ele>1577.18</ele>
        <time>2013-08-29T13:51:45Z</time>
      </trkpt>
      <trkpt lat="44.75268" lon="6.24914">
        <ele>1576.22</ele>
        <time>2013-08-29T13:51:48Z</time>
      </trkpt>
      <trkpt lat="44.7527" lon="6.24917">
        <ele>1575.26</ele>
        <time>2013-08-29T13:51:56Z</time>
      </trkpt>
      <trkpt lat="44.75268" lon="6.24917">
        <ele>1575.26</ele>
        <time>2013-08-29T13:51:58Z</time>
      </trkpt>
      <trkpt lat="44.75267" lon="6.24918">
        <ele>1574.3</ele>
        <time>2013-08-29T13:52:00Z</time>
      </trkpt>
      <trkpt lat="44.75261" lon="6.24922">
        <ele>1572.37</ele>
        <time>2013-08-29T13:52:10Z</time>
      </trkpt>
      <trkpt lat="44.75257" lon="6.24924">
        <ele>1570.93</ele>
        <time>2013-08-29T13:52:16Z</time>
      </trkpt>
      <trkpt lat="44.75248" lon="6.24926">
        <ele>1569.01</ele>
        <time>2013-08-29T13:52:26Z</time>
      </trkpt>
      <trkpt lat="44.75235" lon="6.24925">
        <ele>1568.53</ele>
        <time>2013-08-29T13:52:39Z</time>
      </trkpt>
      <trkpt lat="44.75233" lon="6.24926">
        <ele>1567.09</ele>
        <time>2013-08-29T13:52:42Z</time>
      </trkpt>
      <trkpt lat="44.75229" lon="6.24929">
        <ele>1566.12</ele>
        <time>2013-08-29T13:52:47Z</time>
      </trkpt>
      <trkpt lat="44.75221" lon="6.2493">
        <ele>1565.16</ele>
        <time>2013-08-29T13:52:58Z</time>
      </trkpt>
      <trkpt lat="44.75217" lon="6.2493">
        <ele>1563.72</ele>
        <time>2013-08-29T13:53:01Z</time>
      </trkpt>
      <trkpt lat="44.75207" lon="6.24922">
        <ele>1562.76</ele>
        <time>2013-08-29T13:53:13Z</time>
      </trkpt>
      <trkpt lat="44.75203" lon="6.24922">
        <ele>1562.76</ele>
        <time>2013-08-29T13:53:23Z</time>
      </trkpt>
      <trkpt lat="44.75199" lon="6.24928">
        <ele>1562.28</ele>
        <time>2013-08-29T13:53:29Z</time>
      </trkpt>
      <trkpt lat="44.75198" lon="6.24931">
        <ele>1561.32</ele>
        <time>2013-08-29T13:53:33Z</time>
      </trkpt>
      <trkpt lat="44.75188" lon="6.24933">
        <ele>1560.84</ele>
        <time>2013-08-29T13:53:43Z</time>
      </trkpt>
      <trkpt lat="44.75183" lon="6.24932">
        <ele>1559.88</ele>
        <time>2013-08-29T13:53:51Z</time>
      </trkpt>
      <trkpt lat="44.75182" lon="6.24931">
        <ele>1559.88</ele>
        <time>2013-08-29T13:54:02Z</time>
      </trkpt>
      <trkpt lat="44.75175" lon="6.24934">
        <ele>1559.4</ele>
        <time>2013-08-29T13:54:13Z</time>
      </trkpt>
      <trkpt lat="44.75164" lon="6.24936">
        <ele>1557.95</ele>
        <time>2013-08-29T13:54:24Z</time>
      </trkpt>
      <trkpt lat="44.75154" lon="6.24934">
        <ele>1556.99</ele>
        <time>2013-08-29T13:54:31Z</time>
      </trkpt>
      <trkpt lat="44.75147" lon="6.24932">
        <ele>1556.51</ele>
        <time>2013-08-29T13:54:39Z</time>
      </trkpt>
      <trkpt lat="44.75141" lon="6.24927">
        <ele>1554.11</ele>
        <time>2013-08-29T13:54:45Z</time>
      </trkpt>
      <trkpt lat="44.75133" lon="6.24925">
        <ele>1553.15</ele>
        <time>2013-08-29T13:54:54Z</time>
      </trkpt>
      <trkpt lat="44.75121" lon="6.24925">
        <ele>1551.71</ele>
        <time>2013-08-29T13:55:04Z</time>
      </trkpt>
      <trkpt lat="44.7512" lon="6.24927">
        <ele>1551.22</ele>
        <time>2013-08-29T13:55:06Z</time>
      </trkpt>
      <trkpt lat="44.75115" lon="6.24926">
        <ele>1550.26</ele>
        <time>2013-08-29T13:55:12Z</time>
      </trkpt>
      <trkpt lat="44.75106" lon="6.24929">
        <ele>1547.86</ele>
        <time>2013-08-29T13:55:22Z</time>
      </trkpt>
      <trkpt lat="44.75099" lon="6.24932">
        <ele>1546.9</ele>
        <time>2013-08-29T13:55:32Z</time>
      </trkpt>
      <trkpt lat="44.7509" lon="6.24934">
        <ele>1544.01</ele>
        <time>2013-08-29T13:55:43Z</time>
      </trkpt>
      <trkpt lat="44.75081" lon="6.24928">
        <ele>1542.57</ele>
        <time>2013-08-29T13:55:54Z</time>
      </trkpt>
      <trkpt lat="44.75079" lon="6.24925">
        <ele>1542.09</ele>
        <time>2013-08-29T13:55:57Z</time>
      </trkpt>
      <trkpt lat="44.75073" lon="6.24923">
        <ele>1541.13</ele>
        <time>2013-08-29T13:56:02Z</time>
      </trkpt>
      <trkpt lat="44.75072" lon="6.24922">
        <ele>1541.61</ele>
        <time>2013-08-29T13:56:04Z</time>
      </trkpt>
      <trkpt lat="44.75064" lon="6.2492">
        <ele>1540.17</ele>
        <time>2013-08-29T13:56:12Z</time>
      </trkpt>
      <trkpt lat="44.75058" lon="6.2492">
        <ele>1539.69</ele>
        <time>2013-08-29T13:56:20Z</time>
      </trkpt>
      <trkpt lat="44.75051" lon="6.24914">
        <ele>1538.25</ele>
        <time>2013-08-29T13:56:29Z</time>
      </trkpt>
      <trkpt lat="44.75042" lon="6.24906">
        <ele>1535.84</ele>
        <time>2013-08-29T13:56:40Z</time>
      </trkpt>
      <trkpt lat="44.75039" lon="6.24903">
        <ele>1535.36</ele>
        <time>2013-08-29T13:56:45Z</time>
      </trkpt>
      <trkpt lat="44.75035" lon="6.24899">
        <ele>1533.44</ele>
        <time>2013-08-29T13:56:58Z</time>
      </trkpt>
      <trkpt lat="44.75032" lon="6.24905">
        <ele>1531.04</ele>
        <time>2013-08-29T13:57:12Z</time>
      </trkpt>
      <trkpt lat="44.7503" lon="6.24913">
        <ele>1530.08</ele>
        <time>2013-08-29T13:57:22Z</time>
      </trkpt>
      <trkpt lat="44.75029" lon="6.24914">
        <ele>1528.63</ele>
        <time>2013-08-29T13:57:27Z</time>
      </trkpt>
      <trkpt lat="44.7503" lon="6.24922">
        <ele>1527.67</ele>
        <time>2013-08-29T13:57:35Z</time>
      </trkpt>
      <trkpt lat="44.7503" lon="6.24924">
        <ele>1527.19</ele>
        <time>2013-08-29T13:57:39Z</time>
      </trkpt>
      <trkpt lat="44.7503" lon="6.24924">
        <ele>1526.23</ele>
        <time>2013-08-29T13:57:41Z</time>
      </trkpt>
      <trkpt lat="44.75028" lon="6.24923">
        <ele>1525.27</ele>
        <time>2013-08-29T13:57:47Z</time>
      </trkpt>
      <trkpt lat="44.75026" lon="6.2492">
        <ele>1524.31</ele>
        <time>2013-08-29T13:57:53Z</time>
      </trkpt>
      <trkpt lat="44.75024" lon="6.24918">
        <ele>1523.83</ele>
        <time>2013-08-29T13:57:56Z</time>
      </trkpt>
      <trkpt lat="44.75017" lon="6.24912">
        <ele>1523.35</ele>
        <time>2013-08-29T13:58:07Z</time>
      </trkpt>
      <trkpt lat="44.75011" lon="6.24908">
        <ele>1520.46</ele>
        <time>2013-08-29T13:58:17Z</time>
      </trkpt>
      <trkpt lat="44.75004" lon="6.24907">
        <ele>1518.54</ele>
        <time>2013-08-29T13:58:27Z</time>
      </trkpt>
      <trkpt lat="44.74999" lon="6.24903">
        <ele>1517.58</ele>
        <time>2013-08-29T13:58:35Z</time>
      </trkpt>
      <trkpt lat="44.74997" lon="6.24904">
        <ele>1517.1</ele>
        <time>2013-08-29T13:58:38Z</time>
      </trkpt>
      <trkpt lat="44.74989" lon="6.249">
        <ele>1515.18</ele>
        <time>2013-08-29T13:58:48Z</time>
      </trkpt>
      <trkpt lat="44.74986" lon="6.249">
        <ele>1514.21</ele>
        <time>2013-08-29T13:58:54Z</time>
      </trkpt>
      <trkpt lat="44.74977" lon="6.24894">
        <ele>1513.25</ele>
        <time>2013-08-29T13:59:05Z</time>
      </trkpt>
      <trkpt lat="44.74969" lon="6.24889">
        <ele>1510.85</ele>
        <time>2013-08-29T13:59:16Z</time>
      </trkpt>
      <trkpt lat="44.74966" lon="6.24891">
        <ele>1509.89</ele>
        <time>2013-08-29T13:59:25Z</time>
      </trkpt>
      <trkpt lat="44.7497" lon="6.24898">
        <ele>1507.97</ele>
        <time>2013-08-29T13:59:36Z</time>
      </trkpt>
      <trkpt lat="44.7497" lon="6.24903">
        <ele>1507</ele>
        <time>2013-08-29T13:59:43Z</time>
      </trkpt>
      <trkpt lat="44.74964" lon="6.24901">
        <ele>1504.12</ele>
        <time>2013-08-29T13:59:55Z</time>
      </trkpt>
      <trkpt lat="44.74956" lon="6.24894">
        <ele>1502.2</ele>
        <time>2013-08-29T14:00:05Z</time>
      </trkpt>
      <trkpt lat="44.74952" lon="6.2489">
        <ele>1502.2</ele>
        <time>2013-08-29T14:00:11Z</time>
      </trkpt>
      <trkpt lat="44.74948" lon="6.24888">
        <ele>1500.76</ele>
        <time>2013-08-29T14:00:17Z</time>
      </trkpt>
      <trkpt lat="44.74943" lon="6.24887">
        <ele>1499.31</ele>
        <time>2013-08-29T14:00:28Z</time>
      </trkpt>
      <trkpt lat="44.74945" lon="6.24891">
        <ele>1498.83</ele>
        <time>2013-08-29T14:00:34Z</time>
      </trkpt>
      <trkpt lat="44.74942" lon="6.24893">
        <ele>1496.43</ele>
        <time>2013-08-29T14:00:42Z</time>
      </trkpt>
      <trkpt lat="44.74936" lon="6.2489">
        <ele>1495.47</ele>
        <time>2013-08-29T14:00:53Z</time>
      </trkpt>
      <trkpt lat="44.74933" lon="6.24885">
        <ele>1492.58</ele>
        <time>2013-08-29T14:01:06Z</time>
      </trkpt>
      <trkpt lat="44.74929" lon="6.24884">
        <ele>1492.1</ele>
        <time>2013-08-29T14:01:16Z</time>
      </trkpt>
      <trkpt lat="44.7492" lon="6.24882">
        <ele>1490.18</ele>
        <time>2013-08-29T14:01:25Z</time>
      </trkpt>
      <trkpt lat="44.74917" lon="6.24879">
        <ele>1488.74</ele>
        <time>2013-08-29T14:01:30Z</time>
      </trkpt>
      <trkpt lat="44.74916" lon="6.24879">
        <ele>1490.66</ele>
        <time>2013-08-29T14:01:31Z</time>
      </trkpt>
      <trkpt lat="44.74913" lon="6.24876">
        <ele>1489.22</ele>
        <time>2013-08-29T14:01:35Z</time>
      </trkpt>
      <trkpt lat="44.74913" lon="6.24876">
        <ele>1489.22</ele>
        <time>2013-08-29T14:01:36Z</time>
      </trkpt>
      <trkpt lat="44.74911" lon="6.24875">
        <ele>1487.78</ele>
        <time>2013-08-29T14:01:38Z</time>
      </trkpt>
      <trkpt lat="44.74907" lon="6.24874">
        <ele>1487.3</ele>
        <time>2013-08-29T14:01:42Z</time>
      </trkpt>
      <trkpt lat="44.74899" lon="6.24873">
        <ele>1487.3</ele>
        <time>2013-08-29T14:01:51Z</time>
      </trkpt>
      <trkpt lat="44.74891" lon="6.24865">
        <ele>1485.85</ele>
        <time>2013-08-29T14:02:02Z</time>
      </trkpt>
      <trkpt lat="44.74889" lon="6.24866">
        <ele>1484.41</ele>
        <time>2013-08-29T14:02:13Z</time>
      </trkpt>
      <trkpt lat="44.7489" lon="6.24868">
        <ele>1482.97</ele>
        <time>2013-08-29T14:02:21Z</time>
      </trkpt>
      <trkpt lat="44.74894" lon="6.24875">
        <ele>1480.57</ele>
        <time>2013-08-29T14:02:35Z</time>
      </trkpt>
      <trkpt lat="44.74894" lon="6.24876">
        <ele>1480.57</ele>
        <time>2013-08-29T14:02:37Z</time>
      </trkpt>
      <trkpt lat="44.74896" lon="6.24882">
        <ele>1479.13</ele>
        <time>2013-08-29T14:02:43Z</time>
      </trkpt>
      <trkpt lat="44.74891" lon="6.24881">
        <ele>1477.68</ele>
        <time>2013-08-29T14:02:55Z</time>
      </trkpt>
      <trkpt lat="44.74882" lon="6.24879">
        <ele>1476.24</ele>
        <time>2013-08-29T14:03:06Z</time>
      </trkpt>
      <trkpt lat="44.74875" lon="6.24873">
        <ele>1474.32</ele>
        <time>2013-08-29T14:03:18Z</time>
      </trkpt>
      <trkpt lat="44.74874" lon="6.24872">
        <ele>1472.88</ele>
        <time>2013-08-29T14:03:21Z</time>
      </trkpt>
      <trkpt lat="44.74868" lon="6.24866">
        <ele>1471.44</ele>
        <time>2013-08-29T14:03:33Z</time>
      </trkpt>
      <trkpt lat="44.74868" lon="6.24865">
        <ele>1471.44</ele>
        <time>2013-08-29T14:03:34Z</time>
      </trkpt>
      <trkpt lat="44.74861" lon="6.24858">
        <ele>1469.99</ele>
        <time>2013-08-29T14:03:45Z</time>
      </trkpt>
      <trkpt lat="44.74858" lon="6.24857">
        <ele>1468.55</ele>
        <time>2013-08-29T14:03:49Z</time>
      </trkpt>
      <trkpt lat="44.74854" lon="6.24858">
        <ele>1466.63</ele>
        <time>2013-08-29T14:03:59Z</time>
      </trkpt>
      <trkpt lat="44.74848" lon="6.24852">
        <ele>1465.67</ele>
        <time>2013-08-29T14:04:08Z</time>
      </trkpt>
      <trkpt lat="44.74845" lon="6.24854">
        <ele>1463.74</ele>
        <time>2013-08-29T14:04:19Z</time>
      </trkpt>
      <trkpt lat="44.74845" lon="6.24855">
        <ele>1464.71</ele>
        <time>2013-08-29T14:04:20Z</time>
      </trkpt>
      <trkpt lat="44.74846" lon="6.24861">
        <ele>1462.78</ele>
        <time>2013-08-29T14:04:33Z</time>
      </trkpt>
      <trkpt lat="44.74844" lon="6.2486">
        <ele>1460.86</ele>
        <time>2013-08-29T14:04:39Z</time>
      </trkpt>
      <trkpt lat="44.74839" lon="6.24853">
        <ele>1458.94</ele>
        <time>2013-08-29T14:04:51Z</time>
      </trkpt>
      <trkpt lat="44.74838" lon="6.24853">
        <ele>1456.05</ele>
        <time>2013-08-29T14:05:04Z</time>
      </trkpt>
      <trkpt lat="44.74837" lon="6.24856">
        <ele>1456.53</ele>
        <time>2013-08-29T14:05:18Z</time>
      </trkpt>
      <trkpt lat="44.74832" lon="6.24852">
        <ele>1453.65</ele>
        <time>2013-08-29T14:05:29Z</time>
      </trkpt>
      <trkpt lat="44.74827" lon="6.24846">
        <ele>1452.69</ele>
        <time>2013-08-29T14:05:40Z</time>
      </trkpt>
      <trkpt lat="44.74821" lon="6.24842">
        <ele>1449.32</ele>
        <time>2013-08-29T14:05:50Z</time>
      </trkpt>
      <trkpt lat="44.74813" lon="6.2484">
        <ele>1448.36</ele>
        <time>2013-08-29T14:06:02Z</time>
      </trkpt>
      <trkpt lat="44.74811" lon="6.2484">
        <ele>1447.88</ele>
        <time>2013-08-29T14:06:07Z</time>
      </trkpt>
      <trkpt lat="44.74808" lon="6.24839">
        <ele>1447.4</ele>
        <time>2013-08-29T14:06:10Z</time>
      </trkpt>
      <trkpt lat="44.74801" lon="6.2484">
        <ele>1445.96</ele>
        <time>2013-08-29T14:06:21Z</time>
      </trkpt>
      <trkpt lat="44.74793" lon="6.24838">
        <ele>1443.56</ele>
        <time>2013-08-29T14:06:32Z</time>
      </trkpt>
      <trkpt lat="44.7479" lon="6.2484">
        <ele>1442.11</ele>
        <time>2013-08-29T14:06:46Z</time>
      </trkpt>
      <trkpt lat="44.7479" lon="6.24843">
        <ele>1441.63</ele>
        <time>2013-08-29T14:06:50Z</time>
      </trkpt>
      <trkpt lat="44.74784" lon="6.24843">
        <ele>1439.23</ele>
        <time>2013-08-29T14:07:01Z</time>
      </trkpt>
      <trkpt lat="44.74782" lon="6.24842">
        <ele>1439.23</ele>
        <time>2013-08-29T14:07:03Z</time>
      </trkpt>
      <trkpt lat="44.74779" lon="6.24841">
        <ele>1437.79</ele>
        <time>2013-08-29T14:07:06Z</time>
      </trkpt>
      <trkpt lat="44.74774" lon="6.24838">
        <ele>1437.79</ele>
        <time>2013-08-29T14:07:13Z</time>
      </trkpt>
      <trkpt lat="44.74771" lon="6.24837">
        <ele>1435.87</ele>
        <time>2013-08-29T14:07:18Z</time>
      </trkpt>
      <trkpt lat="44.74768" lon="6.24836">
        <ele>1434.91</ele>
        <time>2013-08-29T14:07:21Z</time>
      </trkpt>
      <trkpt lat="44.74766" lon="6.24836">
        <ele>1434.91</ele>
        <time>2013-08-29T14:07:24Z</time>
      </trkpt>
      <trkpt lat="44.74764" lon="6.24836">
        <ele>1434.42</ele>
        <time>2013-08-29T14:07:26Z</time>
      </trkpt>
      <trkpt lat="44.74757" lon="6.24829">
        <ele>1434.42</ele>
        <time>2013-08-29T14:07:37Z</time>
      </trkpt>
      <trkpt lat="44.74753" lon="6.24827">
        <ele>1432.5</ele>
        <time>2013-08-29T14:07:43Z</time>
      </trkpt>
      <trkpt lat="44.74747" lon="6.24828">
        <ele>1432.02</ele>
        <time>2013-08-29T14:07:53Z</time>
      </trkpt>
      <trkpt lat="44.7474" lon="6.24828">
        <ele>1431.54</ele>
        <time>2013-08-29T14:08:05Z</time>
      </trkpt>
      <trkpt lat="44.74739" lon="6.24828">
        <ele>1430.58</ele>
        <time>2013-08-29T14:08:06Z</time>
      </trkpt>
      <trkpt lat="44.74727" lon="6.24829">
        <ele>1432.02</ele>
        <time>2013-08-29T14:08:18Z</time>
      </trkpt>
      <trkpt lat="44.74722" lon="6.2483">
        <ele>1431.54</ele>
        <time>2013-08-29T14:08:23Z</time>
      </trkpt>
      <trkpt lat="44.74712" lon="6.24831">
        <ele>1430.58</ele>
        <time>2013-08-29T14:08:35Z</time>
      </trkpt>
      <trkpt lat="44.74705" lon="6.24834">
        <ele>1431.06</ele>
        <time>2013-08-29T14:08:43Z</time>
      </trkpt>
      <trkpt lat="44.74698" lon="6.24833">
        <ele>1430.1</ele>
        <time>2013-08-29T14:08:48Z</time>
      </trkpt>
      <trkpt lat="44.74695" lon="6.24835">
        <ele>1430.1</ele>
        <time>2013-08-29T14:08:53Z</time>
      </trkpt>
      <trkpt lat="44.7469" lon="6.24835">
        <ele>1430.1</ele>
        <time>2013-08-29T14:08:58Z</time>
      </trkpt>
      <trkpt lat="44.74688" lon="6.24836">
        <ele>1431.06</ele>
        <time>2013-08-29T14:09:00Z</time>
      </trkpt>
      <trkpt lat="44.74679" lon="6.24835">
        <ele>1431.06</ele>
        <time>2013-08-29T14:09:11Z</time>
      </trkpt>
      <trkpt lat="44.74677" lon="6.24835">
        <ele>1430.1</ele>
        <time>2013-08-29T14:09:13Z</time>
      </trkpt>
      <trkpt lat="44.74674" lon="6.24836">
        <ele>1429.62</ele>
        <time>2013-08-29T14:09:17Z</time>
      </trkpt>
      <trkpt lat="44.7467" lon="6.24835">
        <ele>1430.58</ele>
        <time>2013-08-29T14:09:20Z</time>
      </trkpt>
      <trkpt lat="44.74662" lon="6.24837">
        <ele>1429.62</ele>
        <time>2013-08-29T14:09:29Z</time>
      </trkpt>
      <trkpt lat="44.74658" lon="6.24839">
        <ele>1428.66</ele>
        <time>2013-08-29T14:09:33Z</time>
      </trkpt>
      <trkpt lat="44.74652" lon="6.2484">
        <ele>1428.66</ele>
        <time>2013-08-29T14:09:44Z</time>
      </trkpt>
      <trkpt lat="44.7464" lon="6.24841">
        <ele>1428.66</ele>
        <time>2013-08-29T14:09:53Z</time>
      </trkpt>
      <trkpt lat="44.74637" lon="6.24839">
        <ele>1428.66</ele>
        <time>2013-08-29T14:09:56Z</time>
      </trkpt>
      <trkpt lat="44.74633" lon="6.24839">
        <ele>1428.66</ele>
        <time>2013-08-29T14:10:01Z</time>
      </trkpt>
      <trkpt lat="44.74631" lon="6.24841">
        <ele>1427.21</ele>
        <time>2013-08-29T14:10:04Z</time>
      </trkpt>
      <trkpt lat="44.74619" lon="6.24842">
        <ele>1427.21</ele>
        <time>2013-08-29T14:10:15Z</time>
      </trkpt>
      <trkpt lat="44.74615" lon="6.24842">
        <ele>1427.21</ele>
        <time>2013-08-29T14:10:19Z</time>
      </trkpt>
      <trkpt lat="44.74606" lon="6.24839">
        <ele>1426.25</ele>
        <time>2013-08-29T14:10:29Z</time>
      </trkpt>
      <trkpt lat="44.74601" lon="6.24838">
        <ele>1425.77</ele>
        <time>2013-08-29T14:10:34Z</time>
      </trkpt>
      <trkpt lat="44.7459" lon="6.24833">
        <ele>1426.25</ele>
        <time>2013-08-29T14:10:45Z</time>
      </trkpt>
      <trkpt lat="44.74578" lon="6.24824">
        <ele>1425.29</ele>
        <time>2013-08-29T14:10:57Z</time>
      </trkpt>
      <trkpt lat="44.74568" lon="6.24818">
        <ele>1424.33</ele>
        <time>2013-08-29T14:11:09Z</time>
      </trkpt>
      <trkpt lat="44.74564" lon="6.24818">
        <ele>1423.85</ele>
        <time>2013-08-29T14:11:14Z</time>
      </trkpt>
      <trkpt lat="44.74562" lon="6.24818">
        <ele>1423.85</ele>
        <time>2013-08-29T14:11:16Z</time>
      </trkpt>
      <trkpt lat="44.74555" lon="6.24817">
        <ele>1421.93</ele>
        <time>2013-08-29T14:11:24Z</time>
      </trkpt>
      <trkpt lat="44.74553" lon="6.24816">
        <ele>1422.89</ele>
        <time>2013-08-29T14:11:27Z</time>
      </trkpt>
      <trkpt lat="44.7455" lon="6.24817">
        <ele>1422.41</ele>
        <time>2013-08-29T14:11:29Z</time>
      </trkpt>
      <trkpt lat="44.74537" lon="6.24814">
        <ele>1422.41</ele>
        <time>2013-08-29T14:11:42Z</time>
      </trkpt>
      <trkpt lat="44.74524" lon="6.24809">
        <ele>1421.93</ele>
        <time>2013-08-29T14:11:55Z</time>
      </trkpt>
      <trkpt lat="44.74523" lon="6.24808">
        <ele>1421.93</ele>
        <time>2013-08-29T14:11:56Z</time>
      </trkpt>
      <trkpt lat="44.74522" lon="6.24803">
        <ele>1421.45</ele>
        <time>2013-08-29T14:12:00Z</time>
      </trkpt>
      <trkpt lat="44.7452" lon="6.24798">
        <ele>1421.45</ele>
        <time>2013-08-29T14:12:04Z</time>
      </trkpt>
      <trkpt lat="44.74517" lon="6.24797">
        <ele>1421.93</ele>
        <time>2013-08-29T14:12:08Z</time>
      </trkpt>
      <trkpt lat="44.74513" lon="6.24797">
        <ele>1421.45</ele>
        <time>2013-08-29T14:12:12Z</time>
      </trkpt>
      <trkpt lat="44.74507" lon="6.24796">
        <ele>1420</ele>
        <time>2013-08-29T14:12:18Z</time>
      </trkpt>
      <trkpt lat="44.74499" lon="6.24789">
        <ele>1419.52</ele>
        <time>2013-08-29T14:12:29Z</time>
      </trkpt>
      <trkpt lat="44.74492" lon="6.24785">
        <ele>1417.6</ele>
        <time>2013-08-29T14:12:37Z</time>
      </trkpt>
      <trkpt lat="44.74484" lon="6.24779">
        <ele>1417.12</ele>
        <time>2013-08-29T14:12:47Z</time>
      </trkpt>
      <trkpt lat="44.74473" lon="6.24773">
        <ele>1416.16</ele>
        <time>2013-08-29T14:12:59Z</time>
      </trkpt>
      <trkpt lat="44.74467" lon="6.24769">
        <ele>1415.2</ele>
        <time>2013-08-29T14:13:06Z</time>
      </trkpt>
      <trkpt lat="44.7446" lon="6.24768">
        <ele>1414.72</ele>
        <time>2013-08-29T14:13:14Z</time>
      </trkpt>
      <trkpt lat="44.7446" lon="6.24768">
        <ele>1414.72</ele>
        <time>2013-08-29T14:13:15Z</time>
      </trkpt>
      <trkpt lat="44.74453" lon="6.24765">
        <ele>1413.76</ele>
        <time>2013-08-29T14:13:26Z</time>
      </trkpt>
      <trkpt lat="44.74443" lon="6.24761">
        <ele>1411.83</ele>
        <time>2013-08-29T14:13:37Z</time>
      </trkpt>
      <trkpt lat="44.74438" lon="6.24754">
        <ele>1411.83</ele>
        <time>2013-08-29T14:13:48Z</time>
      </trkpt>
      <trkpt lat="44.74436" lon="6.24755">
        <ele>1411.35</ele>
        <time>2013-08-29T14:13:51Z</time>
      </trkpt>
      <trkpt lat="44.74419" lon="6.24748">
        <ele>1409.91</ele>
        <time>2013-08-29T14:14:06Z</time>
      </trkpt>
      <trkpt lat="44.74415" lon="6.24746">
        <ele>1408.47</ele>
        <time>2013-08-29T14:14:10Z</time>
      </trkpt>
      <trkpt lat="44.74405" lon="6.24741">
        <ele>1407.99</ele>
        <time>2013-08-29T14:14:21Z</time>
      </trkpt>
      <trkpt lat="44.744" lon="6.24737">
        <ele>1408.47</ele>
        <time>2013-08-29T14:14:25Z</time>
      </trkpt>
      <trkpt lat="44.74396" lon="6.24734">
        <ele>1407.99</ele>
        <time>2013-08-29T14:14:29Z</time>
      </trkpt>
      <trkpt lat="44.74394" lon="6.24732">
        <ele>1408.47</ele>
        <time>2013-08-29T14:14:32Z</time>
      </trkpt>
      <trkpt lat="44.74384" lon="6.2473">
        <ele>1406.55</ele>
        <time>2013-08-29T14:14:42Z</time>
      </trkpt>
      <trkpt lat="44.74376" lon="6.24729">
        <ele>1405.58</ele>
        <time>2013-08-29T14:14:51Z</time>
      </trkpt>
      <trkpt lat="44.7437" lon="6.24727">
        <ele>1405.1</ele>
        <time>2013-08-29T14:15:02Z</time>
      </trkpt>
      <trkpt lat="44.74361" lon="6.24725">
        <ele>1404.62</ele>
        <time>2013-08-29T14:15:22Z</time>
      </trkpt>
      <trkpt lat="44.74349" lon="6.24717">
        <ele>1403.66</ele>
        <time>2013-08-29T14:15:33Z</time>
      </trkpt>
      <trkpt lat="44.74344" lon="6.2472">
        <ele>1403.18</ele>
        <time>2013-08-29T14:15:39Z</time>
      </trkpt>
      <trkpt lat="44.74335" lon="6.24721">
        <ele>1402.22</ele>
        <time>2013-08-29T14:15:48Z</time>
      </trkpt>
      <trkpt lat="44.74334" lon="6.24723">
        <ele>1401.26</ele>
        <time>2013-08-29T14:15:50Z</time>
      </trkpt>
      <trkpt lat="44.74333" lon="6.24726">
        <ele>1400.3</ele>
        <time>2013-08-29T14:15:54Z</time>
      </trkpt>
      <trkpt lat="44.74331" lon="6.24728">
        <ele>1400.3</ele>
        <time>2013-08-29T14:15:57Z</time>
      </trkpt>
      <trkpt lat="44.74324" lon="6.24731">
        <ele>1398.37</ele>
        <time>2013-08-29T14:16:04Z</time>
      </trkpt>
      <trkpt lat="44.74313" lon="6.24733">
        <ele>1396.93</ele>
        <time>2013-08-29T14:16:14Z</time>
      </trkpt>
      <trkpt lat="44.74309" lon="6.24735">
        <ele>1396.93</ele>
        <time>2013-08-29T14:16:18Z</time>
      </trkpt>
      <trkpt lat="44.74303" lon="6.24737">
        <ele>1394.53</ele>
        <time>2013-08-29T14:16:25Z</time>
      </trkpt>
      <trkpt lat="44.74299" lon="6.24735">
        <ele>1395.01</ele>
        <time>2013-08-29T14:16:28Z</time>
      </trkpt>
      <trkpt lat="44.74296" lon="6.24738">
        <ele>1393.09</ele>
        <time>2013-08-29T14:16:34Z</time>
      </trkpt>
      <trkpt lat="44.7429" lon="6.24742">
        <ele>1391.65</ele>
        <time>2013-08-29T14:16:41Z</time>
      </trkpt>
      <trkpt lat="44.7428" lon="6.24745">
        <ele>1389.72</ele>
        <time>2013-08-29T14:16:51Z</time>
      </trkpt>
      <trkpt lat="44.74274" lon="6.24748">
        <ele>1388.76</ele>
        <time>2013-08-29T14:16:58Z</time>
      </trkpt>
      <trkpt lat="44.74271" lon="6.24749">
        <ele>1388.28</ele>
        <time>2013-08-29T14:17:01Z</time>
      </trkpt>
      <trkpt lat="44.74267" lon="6.24751">
        <ele>1386.84</ele>
        <time>2013-08-29T14:17:05Z</time>
      </trkpt>
      <trkpt lat="44.74254" lon="6.24757">
        <ele>1385.88</ele>
        <time>2013-08-29T14:17:17Z</time>
      </trkpt>
      <trkpt lat="44.74251" lon="6.24758">
        <ele>1385.88</ele>
        <time>2013-08-29T14:17:20Z</time>
      </trkpt>
      <trkpt lat="44.74243" lon="6.24763">
        <ele>1383.96</ele>
        <time>2013-08-29T14:17:32Z</time>
      </trkpt>
      <trkpt lat="44.74242" lon="6.24763">
        <ele>1383.47</ele>
        <time>2013-08-29T14:17:33Z</time>
      </trkpt>
      <trkpt lat="44.7424" lon="6.24763">
        <ele>1382.99</ele>
        <time>2013-08-29T14:17:35Z</time>
      </trkpt>
      <trkpt lat="44.74238" lon="6.24763">
        <ele>1382.03</ele>
        <time>2013-08-29T14:17:37Z</time>
      </trkpt>
      <trkpt lat="44.74227" lon="6.24764">
        <ele>1381.07</ele>
        <time>2013-08-29T14:17:49Z</time>
      </trkpt>
      <trkpt lat="44.74227" lon="6.24764">
        <ele>1381.55</ele>
        <time>2013-08-29T14:17:50Z</time>
      </trkpt>
      <trkpt lat="44.74226" lon="6.24769">
        <ele>1381.07</ele>
        <time>2013-08-29T14:17:54Z</time>
      </trkpt>
      <trkpt lat="44.74223" lon="6.2477">
        <ele>1380.59</ele>
        <time>2013-08-29T14:17:58Z</time>
      </trkpt>
      <trkpt lat="44.74211" lon="6.2477">
        <ele>1379.63</ele>
        <time>2013-08-29T14:18:07Z</time>
      </trkpt>
      <trkpt lat="44.742" lon="6.24765">
        <ele>1377.71</ele>
        <time>2013-08-29T14:18:16Z</time>
      </trkpt>
      <trkpt lat="44.74198" lon="6.24762">
        <ele>1379.63</ele>
        <time>2013-08-29T14:18:20Z</time>
      </trkpt>
      <trkpt lat="44.7419" lon="6.24762">
        <ele>1378.19</ele>
        <time>2013-08-29T14:18:29Z</time>
      </trkpt>
      <trkpt lat="44.74188" lon="6.24762">
        <ele>1377.23</ele>
        <time>2013-08-29T14:18:31Z</time>
      </trkpt>
      <trkpt lat="44.74186" lon="6.24761">
        <ele>1376.75</ele>
        <time>2013-08-29T14:18:33Z</time>
      </trkpt>
      <trkpt lat="44.74178" lon="6.24762">
        <ele>1374.82</ele>
        <time>2013-08-29T14:18:42Z</time>
      </trkpt>
      <trkpt lat="44.74175" lon="6.2476">
        <ele>1375.3</ele>
        <time>2013-08-29T14:18:45Z</time>
      </trkpt>
      <trkpt lat="44.74162" lon="6.24759">
        <ele>1373.86</ele>
        <time>2013-08-29T14:18:59Z</time>
      </trkpt>
      <trkpt lat="44.74153" lon="6.24756">
        <ele>1371.46</ele>
        <time>2013-08-29T14:19:11Z</time>
      </trkpt>
      <trkpt lat="44.74146" lon="6.24752">
        <ele>1370.5</ele>
        <time>2013-08-29T14:19:19Z</time>
      </trkpt>
      <trkpt lat="44.74136" lon="6.24748">
        <ele>1369.05</ele>
        <time>2013-08-29T14:19:30Z</time>
      </trkpt>
      <trkpt lat="44.74128" lon="6.24745">
        <ele>1368.57</ele>
        <time>2013-08-29T14:19:42Z</time>
      </trkpt>
      <trkpt lat="44.7412" lon="6.2474">
        <ele>1367.13</ele>
        <time>2013-08-29T14:19:52Z</time>
      </trkpt>
      <trkpt lat="44.74114" lon="6.24738">
        <ele>1365.69</ele>
        <time>2013-08-29T14:20:05Z</time>
      </trkpt>
      <trkpt lat="44.74108" lon="6.24739">
        <ele>1363.77</ele>
        <time>2013-08-29T14:20:17Z</time>
      </trkpt>
      <trkpt lat="44.74103" lon="6.24739">
        <ele>1363.77</ele>
        <time>2013-08-29T14:20:24Z</time>
      </trkpt>
      <trkpt lat="44.74097" lon="6.24735">
        <ele>1362.81</ele>
        <time>2013-08-29T14:20:30Z</time>
      </trkpt>
      <trkpt lat="44.74085" lon="6.24731">
        <ele>1362.81</ele>
        <time>2013-08-29T14:20:41Z</time>
      </trkpt>
      <trkpt lat="44.74081" lon="6.2473">
        <ele>1360.4</ele>
        <time>2013-08-29T14:20:50Z</time>
      </trkpt>
      <trkpt lat="44.74075" lon="6.24727">
        <ele>1358.96</ele>
        <time>2013-08-29T14:20:57Z</time>
      </trkpt>
      <trkpt lat="44.74069" lon="6.24726">
        <ele>1358.48</ele>
        <time>2013-08-29T14:21:06Z</time>
      </trkpt>
      <trkpt lat="44.7406" lon="6.24719">
        <ele>1356.56</ele>
        <time>2013-08-29T14:21:17Z</time>
      </trkpt>
      <trkpt lat="44.74059" lon="6.24717">
        <ele>1355.6</ele>
        <time>2013-08-29T14:21:19Z</time>
      </trkpt>
      <trkpt lat="44.74049" lon="6.24711">
        <ele>1354.63</ele>
        <time>2013-08-29T14:21:31Z</time>
      </trkpt>
      <trkpt lat="44.74046" lon="6.2471">
        <ele>1353.19</ele>
        <time>2013-08-29T14:21:34Z</time>
      </trkpt>
      <trkpt lat="44.74045" lon="6.24708">
        <ele>1353.19</ele>
        <time>2013-08-29T14:21:36Z</time>
      </trkpt>
      <trkpt lat="44.74035" lon="6.24701">
        <ele>1353.19</ele>
        <time>2013-08-29T14:21:51Z</time>
      </trkpt>
      <trkpt lat="44.74033" lon="6.24701">
        <ele>1352.23</ele>
        <time>2013-08-29T14:21:55Z</time>
      </trkpt>
      <trkpt lat="44.7403" lon="6.24702">
        <ele>1352.23</ele>
        <time>2013-08-29T14:22:01Z</time>
      </trkpt>
      <trkpt lat="44.74023" lon="6.24696">
        <ele>1351.27</ele>
        <time>2013-08-29T14:22:12Z</time>
      </trkpt>
      <trkpt lat="44.74021" lon="6.24695">
        <ele>1351.75</ele>
        <time>2013-08-29T14:22:14Z</time>
      </trkpt>
      <trkpt lat="44.7402" lon="6.24694">
        <ele>1350.79</ele>
        <time>2013-08-29T14:22:17Z</time>
      </trkpt>
      <trkpt lat="44.74018" lon="6.24684">
        <ele>1350.79</ele>
        <time>2013-08-29T14:22:30Z</time>
      </trkpt>
      <trkpt lat="44.74015" lon="6.24683">
        <ele>1349.35</ele>
        <time>2013-08-29T14:22:34Z</time>
      </trkpt>
      <trkpt lat="44.7401" lon="6.24683">
        <ele>1347.43</ele>
        <time>2013-08-29T14:22:46Z</time>
      </trkpt>
      <trkpt lat="44.74011" lon="6.24685">
        <ele>1345.98</ele>
        <time>2013-08-29T14:22:56Z</time>
      </trkpt>
      <trkpt lat="44.74009" lon="6.24685">
        <ele>1345.02</ele>
        <time>2013-08-29T14:23:06Z</time>
      </trkpt>
      <trkpt lat="44.74008" lon="6.24685">
        <ele>1345.02</ele>
        <time>2013-08-29T14:23:07Z</time>
      </trkpt>
      <trkpt lat="44.73998" lon="6.24682">
        <ele>1343.1</ele>
        <time>2013-08-29T14:23:18Z</time>
      </trkpt>
      <trkpt lat="44.73996" lon="6.24687">
        <ele>1341.66</ele>
        <time>2013-08-29T14:23:30Z</time>
      </trkpt>
      <trkpt lat="44.73995" lon="6.2469">
        <ele>1340.7</ele>
        <time>2013-08-29T14:23:39Z</time>
      </trkpt>
      <trkpt lat="44.73992" lon="6.2469">
        <ele>1339.25</ele>
        <time>2013-08-29T14:23:48Z</time>
      </trkpt>
      <trkpt lat="44.73983" lon="6.24688">
        <ele>1338.29</ele>
        <time>2013-08-29T14:23:58Z</time>
      </trkpt>
      <trkpt lat="44.73971" lon="6.24688">
        <ele>1335.89</ele>
        <time>2013-08-29T14:24:11Z</time>
      </trkpt>
      <trkpt lat="44.7396" lon="6.24687">
        <ele>1333.97</ele>
        <time>2013-08-29T14:24:24Z</time>
      </trkpt>
      <trkpt lat="44.73951" lon="6.24686">
        <ele>1332.04</ele>
        <time>2013-08-29T14:24:34Z</time>
      </trkpt>
      <trkpt lat="44.73948" lon="6.24685">
        <ele>1330.6</ele>
        <time>2013-08-29T14:24:38Z</time>
      </trkpt>
      <trkpt lat="44.73947" lon="6.24686">
        <ele>1331.08</ele>
        <time>2013-08-29T14:24:40Z</time>
      </trkpt>
      <trkpt lat="44.73945" lon="6.24687">
        <ele>1331.08</ele>
        <time>2013-08-29T14:24:43Z</time>
      </trkpt>
      <trkpt lat="44.73938" lon="6.24681">
        <ele>1328.2</ele>
        <time>2013-08-29T14:24:53Z</time>
      </trkpt>
      <trkpt lat="44.73931" lon="6.24678">
        <ele>1327.72</ele>
        <time>2013-08-29T14:25:03Z</time>
      </trkpt>
      <trkpt lat="44.73928" lon="6.24679">
        <ele>1327.24</ele>
        <time>2013-08-29T14:25:09Z</time>
      </trkpt>
      <trkpt lat="44.73914" lon="6.24676">
        <ele>1326.28</ele>
        <time>2013-08-29T14:25:21Z</time>
      </trkpt>
      <trkpt lat="44.73904" lon="6.24671">
        <ele>1324.83</ele>
        <time>2013-08-29T14:25:33Z</time>
      </trkpt>
      <trkpt lat="44.73897" lon="6.24667">
        <ele>1322.91</ele>
        <time>2013-08-29T14:25:41Z</time>
      </trkpt>
      <trkpt lat="44.73895" lon="6.24667">
        <ele>1321.95</ele>
        <time>2013-08-29T14:25:43Z</time>
      </trkpt>
      <trkpt lat="44.73892" lon="6.24665">
        <ele>1321.47</ele>
        <time>2013-08-29T14:25:55Z</time>
      </trkpt>
      <trkpt lat="44.73897" lon="6.24677">
        <ele>1318.59</ele>
        <time>2013-08-29T14:26:09Z</time>
      </trkpt>
      <trkpt lat="44.73902" lon="6.24687">
        <ele>1317.62</ele>
        <time>2013-08-29T14:26:21Z</time>
      </trkpt>
      <trkpt lat="44.7391" lon="6.24696">
        <ele>1316.18</ele>
        <time>2013-08-29T14:26:32Z</time>
      </trkpt>
      <trkpt lat="44.73912" lon="6.24699">
        <ele>1314.74</ele>
        <time>2013-08-29T14:26:42Z</time>
      </trkpt>
      <trkpt lat="44.73906" lon="6.24697">
        <ele>1312.34</ele>
        <time>2013-08-29T14:26:56Z</time>
      </trkpt>
      <trkpt lat="44.73897" lon="6.24695">
        <ele>1310.9</ele>
        <time>2013-08-29T14:27:08Z</time>
      </trkpt>
      <trkpt lat="44.73895" lon="6.24694">
        <ele>1309.93</ele>
        <time>2013-08-29T14:27:11Z</time>
      </trkpt>
      <trkpt lat="44.73891" lon="6.2469">
        <ele>1309.45</ele>
        <time>2013-08-29T14:27:16Z</time>
      </trkpt>
      <trkpt lat="44.73882" lon="6.24682">
        <ele>1308.49</ele>
        <time>2013-08-29T14:27:29Z</time>
      </trkpt>
      <trkpt lat="44.73875" lon="6.24684">
        <ele>1306.09</ele>
        <time>2013-08-29T14:27:40Z</time>
      </trkpt>
      <trkpt lat="44.73866" lon="6.24682">
        <ele>1304.17</ele>
        <time>2013-08-29T14:27:51Z</time>
      </trkpt>
      <trkpt lat="44.7386" lon="6.24682">
        <ele>1304.17</ele>
        <time>2013-08-29T14:27:58Z</time>
      </trkpt>
      <trkpt lat="44.73849" lon="6.24675">
        <ele>1301.76</ele>
        <time>2013-08-29T14:28:12Z</time>
      </trkpt>
      <trkpt lat="44.73849" lon="6.24681">
        <ele>1301.28</ele>
        <time>2013-08-29T14:28:24Z</time>
      </trkpt>
      <trkpt lat="44.73851" lon="6.24689">
        <ele>1298.88</ele>
        <time>2013-08-29T14:28:36Z</time>
      </trkpt>
      <trkpt lat="44.73857" lon="6.24698">
        <ele>1297.44</ele>
        <time>2013-08-29T14:28:49Z</time>
      </trkpt>
      <trkpt lat="44.73858" lon="6.24699">
        <ele>1297.44</ele>
        <time>2013-08-29T14:28:52Z</time>
      </trkpt>
      <trkpt lat="44.73864" lon="6.24709">
        <ele>1295.03</ele>
        <time>2013-08-29T14:29:03Z</time>
      </trkpt>
      <trkpt lat="44.73872" lon="6.24716">
        <ele>1294.07</ele>
        <time>2013-08-29T14:29:14Z</time>
      </trkpt>
      <trkpt lat="44.73876" lon="6.24721">
        <ele>1293.11</ele>
        <time>2013-08-29T14:29:21Z</time>
      </trkpt>
      <trkpt lat="44.73882" lon="6.24727">
        <ele>1292.15</ele>
        <time>2013-08-29T14:29:32Z</time>
      </trkpt>
      <trkpt lat="44.73891" lon="6.24735">
        <ele>1289.75</ele>
        <time>2013-08-29T14:29:43Z</time>
      </trkpt>
      <trkpt lat="44.73895" lon="6.24741">
        <ele>1290.23</ele>
        <time>2013-08-29T14:29:50Z</time>
      </trkpt>
      <trkpt lat="44.73899" lon="6.24751">
        <ele>1287.82</ele>
        <time>2013-08-29T14:30:01Z</time>
      </trkpt>
      <trkpt lat="44.73902" lon="6.24759">
        <ele>1286.86</ele>
        <time>2013-08-29T14:30:11Z</time>
      </trkpt>
      <trkpt lat="44.73901" lon="6.24759">
        <ele>1285.9</ele>
        <time>2013-08-29T14:30:13Z</time>
      </trkpt>
      <trkpt lat="44.73897" lon="6.2476">
        <ele>1285.9</ele>
        <time>2013-08-29T14:30:19Z</time>
      </trkpt>
      <trkpt lat="44.73894" lon="6.24764">
        <ele>1283.98</ele>
        <time>2013-08-29T14:30:25Z</time>
      </trkpt>
      <trkpt lat="44.73893" lon="6.24765">
        <ele>1284.46</ele>
        <time>2013-08-29T14:30:27Z</time>
      </trkpt>
      <trkpt lat="44.73889" lon="6.24771">
        <ele>1282.54</ele>
        <time>2013-08-29T14:30:35Z</time>
      </trkpt>
      <trkpt lat="44.73887" lon="6.24774">
        <ele>1282.06</ele>
        <time>2013-08-29T14:30:38Z</time>
      </trkpt>
      <trkpt lat="44.73882" lon="6.24776">
        <ele>1280.61</ele>
        <time>2013-08-29T14:30:44Z</time>
      </trkpt>
      <trkpt lat="44.73878" lon="6.24783">
        <ele>1280.13</ele>
        <time>2013-08-29T14:30:51Z</time>
      </trkpt>
      <trkpt lat="44.73877" lon="6.24786">
        <ele>1280.61</ele>
        <time>2013-08-29T14:30:54Z</time>
      </trkpt>
      <trkpt lat="44.73871" lon="6.24792">
        <ele>1277.73</ele>
        <time>2013-08-29T14:31:05Z</time>
      </trkpt>
      <trkpt lat="44.7386" lon="6.24802">
        <ele>1278.21</ele>
        <time>2013-08-29T14:31:16Z</time>
      </trkpt>
      <trkpt lat="44.73859" lon="6.24804">
        <ele>1277.73</ele>
        <time>2013-08-29T14:31:19Z</time>
      </trkpt>
      <trkpt lat="44.73857" lon="6.24803">
        <ele>1277.73</ele>
        <time>2013-08-29T14:31:21Z</time>
      </trkpt>
      <trkpt lat="44.73854" lon="6.24807">
        <ele>1277.25</ele>
        <time>2013-08-29T14:31:27Z</time>
      </trkpt>
      <trkpt lat="44.73854" lon="6.24807">
        <ele>1277.25</ele>
        <time>2013-08-29T14:31:34Z</time>
      </trkpt>
      <trkpt lat="44.73856" lon="6.24812">
        <ele>1276.77</ele>
        <time>2013-08-29T14:31:49Z</time>
      </trkpt>
      <trkpt lat="44.73861" lon="6.24815">
        <ele>1275.33</ele>
        <time>2013-08-29T14:31:59Z</time>
      </trkpt>
      <trkpt lat="44.73866" lon="6.24818">
        <ele>1274.36</ele>
        <time>2013-08-29T14:32:09Z</time>
      </trkpt>
      <trkpt lat="44.73871" lon="6.24818">
        <ele>1273.88</ele>
        <time>2013-08-29T14:32:21Z</time>
      </trkpt>
      <trkpt lat="44.73874" lon="6.24821">
        <ele>1273.4</ele>
        <time>2013-08-29T14:32:26Z</time>
      </trkpt>
      <trkpt lat="44.73882" lon="6.24828">
        <ele>1272.44</ele>
        <time>2013-08-29T14:32:39Z</time>
      </trkpt>
      <trkpt lat="44.73891" lon="6.24833">
        <ele>1271.48</ele>
        <time>2013-08-29T14:32:50Z</time>
      </trkpt>
      <trkpt lat="44.73893" lon="6.24834">
        <ele>1271.48</ele>
        <time>2013-08-29T14:32:52Z</time>
      </trkpt>
      <trkpt lat="44.73897" lon="6.24831">
        <ele>1271</ele>
        <time>2013-08-29T14:33:04Z</time>
      </trkpt>
      <trkpt lat="44.73898" lon="6.24831">
        <ele>1271.48</ele>
        <time>2013-08-29T14:33:17Z</time>
      </trkpt>
      <trkpt lat="44.73905" lon="6.24833">
        <ele>1271.48</ele>
        <time>2013-08-29T14:33:29Z</time>
      </trkpt>
      <trkpt lat="44.73917" lon="6.24831">
        <ele>1271.96</ele>
        <time>2013-08-29T14:33:42Z</time>
      </trkpt>
      <trkpt lat="44.7392" lon="6.24832">
        <ele>1271</ele>
        <time>2013-08-29T14:33:44Z</time>
      </trkpt>
      <trkpt lat="44.73933" lon="6.24835">
        <ele>1270.52</ele>
        <time>2013-08-29T14:33:56Z</time>
      </trkpt>
      <trkpt lat="44.73936" lon="6.24834">
        <ele>1271</ele>
        <time>2013-08-29T14:33:58Z</time>
      </trkpt>
      <trkpt lat="44.73947" lon="6.24832">
        <ele>1270.04</ele>
        <time>2013-08-29T14:34:10Z</time>
      </trkpt>
      <trkpt lat="44.73956" lon="6.24836">
        <ele>1271</ele>
        <time>2013-08-29T14:34:22Z</time>
      </trkpt>
      <trkpt lat="44.7396" lon="6.24835">
        <ele>1270.04</ele>
        <time>2013-08-29T14:34:35Z</time>
      </trkpt>
      <trkpt lat="44.73959" lon="6.24836">
        <ele>1270.52</ele>
        <time>2013-08-29T14:34:45Z</time>
      </trkpt>
      <trkpt lat="44.73955" lon="6.24835">
        <ele>1271</ele>
        <time>2013-08-29T14:34:50Z</time>
      </trkpt>
      <trkpt lat="44.73953" lon="6.24838">
        <ele>1271</ele>
        <time>2013-08-29T14:35:01Z</time>
      </trkpt>
      <trkpt lat="44.73952" lon="6.24838">
        <ele>1270.04</ele>
        <time>2013-08-29T14:35:18Z</time>
      </trkpt>
      <trkpt lat="44.73951" lon="6.24837">
        <ele>1270.52</ele>
        <time>2013-08-29T14:35:40Z</time>
      </trkpt>
      <trkpt lat="44.73953" lon="6.2484">
        <ele>1270.04</ele>
        <time>2013-08-29T14:35:49Z</time>
      </trkpt>
      <trkpt lat="44.73954" lon="6.24839">
        <ele>1270.04</ele>
        <time>2013-08-29T14:36:11Z</time>
      </trkpt>
      <trkpt lat="44.73954" lon="6.24839">
        <ele>1270.52</ele>
        <time>2013-08-29T14:36:16Z</time>
      </trkpt>
      <trkpt lat="44.73952" lon="6.24837">
        <ele>1271</ele>
        <time>2013-08-29T14:36:27Z</time>
      </trkpt>
      <trkpt lat="44.7395" lon="6.24837">
        <ele>1270.04</ele>
        <time>2013-08-29T14:36:52Z</time>
      </trkpt>
      <trkpt lat="44.7395" lon="6.24838">
        <ele>1263.31</ele>
        <time>2013-08-29T14:37:19Z</time>
      </trkpt>
      <trkpt lat="44.7395" lon="6.24838">
        <ele>1270.04</ele>
        <time>2013-08-29T14:37:20Z</time>
      </trkpt>
      <trkpt lat="44.7395" lon="6.24838">
        <ele>1244.56</ele>
        <time>2013-08-29T14:37:25Z</time>
      </trkpt>
      <trkpt lat="44.7395" lon="6.24838">
        <ele>1280.61</ele>
        <time>2013-08-29T14:37:26Z</time>
      </trkpt>
      <trkpt lat="44.7395" lon="6.24838">
        <ele>1272.92</ele>
        <time>2013-08-29T14:37:27Z</time>
      </trkpt>
      <trkpt lat="44.7395" lon="6.24838">
        <ele>1269.08</ele>
        <time>2013-08-29T14:37:29Z</time>
      </trkpt>
      <trkpt lat="44.7395" lon="6.24838">
        <ele>1270.04</ele>
        <time>2013-08-29T14:37:33Z</time>
      </trkpt>
      <trkpt lat="44.7395" lon="6.24838">
        <ele>1259.46</ele>
        <time>2013-08-29T14:37:53Z</time>
      </trkpt>
      <trkpt lat="44.7395" lon="6.24838">
        <ele>1271.96</ele>
        <time>2013-08-29T14:37:54Z</time>
      </trkpt>
      <trkpt lat="44.7395" lon="6.24838">
        <ele>1281.09</ele>
        <time>2013-08-29T14:37:55Z</time>
      </trkpt>
      <trkpt lat="44.7395" lon="6.24838">
        <ele>1278.69</ele>
        <time>2013-08-29T14:37:56Z</time>
      </trkpt>
      <trkpt lat="44.73951" lon="6.24839">
        <ele>1271.48</ele>
        <time>2013-08-29T14:37:57Z</time>
      </trkpt>
      <trkpt lat="44.73951" lon="6.24839">
        <ele>1268.12</ele>
        <time>2013-08-29T14:38:17Z</time>
      </trkpt>
      <trkpt lat="44.73951" lon="6.24839">
        <ele>1272.44</ele>
        <time>2013-08-29T14:38:19Z</time>
      </trkpt>
      <trkpt lat="44.73951" lon="6.24839">
        <ele>1268.12</ele>
        <time>2013-08-29T14:38:20Z</time>
      </trkpt>
      <trkpt lat="44.73951" lon="6.24839">
        <ele>1268.12</ele>
        <time>2013-08-29T14:38:21Z</time>
      </trkpt>
      <trkpt lat="44.73951" lon="6.24839">
        <ele>1271.96</ele>
        <time>2013-08-29T14:38:31Z</time>
      </trkpt>
      <trkpt lat="44.73951" lon="6.24839">
        <ele>1265.71</ele>
        <time>2013-08-29T14:38:35Z</time>
      </trkpt>
      <trkpt lat="44.73951" lon="6.24839">
        <ele>1271</ele>
        <time>2013-08-29T14:38:36Z</time>
      </trkpt>
      <trkpt lat="44.73951" lon="6.24839">
        <ele>1265.23</ele>
        <time>2013-08-29T14:38:57Z</time>
      </trkpt>
      <trkpt lat="44.73951" lon="6.24839">
        <ele>1274.85</ele>
        <time>2013-08-29T14:38:58Z</time>
      </trkpt>
      <trkpt lat="44.73951" lon="6.24839">
        <ele>1273.4</ele>
        <time>2013-08-29T14:38:59Z</time>
      </trkpt>
      <trkpt lat="44.73951" lon="6.24839">
        <ele>1270.04</ele>
        <time>2013-08-29T14:39:01Z</time>
      </trkpt>
      <trkpt lat="44.73952" lon="6.24839">
        <ele>1270.04</ele>
        <time>2013-08-29T14:39:29Z</time>
      </trkpt>
      <trkpt lat="44.73952" lon="6.24841">
        <ele>1270.04</ele>
        <time>2013-08-29T14:40:05Z</time>
      </trkpt>
      <trkpt lat="44.73952" lon="6.24841">
        <ele>1271</ele>
        <time>2013-08-29T14:40:07Z</time>
      </trkpt>
      <trkpt lat="44.73952" lon="6.24841">
        <ele>1261.39</ele>
        <time>2013-08-29T14:40:15Z</time>
      </trkpt>
      <trkpt lat="44.73952" lon="6.24841">
        <ele>1269.56</ele>
        <time>2013-08-29T14:40:16Z</time>
      </trkpt>
      <trkpt lat="44.73952" lon="6.24841">
        <ele>1271</ele>
        <time>2013-08-29T14:40:19Z</time>
      </trkpt>
      <trkpt lat="44.73952" lon="6.24841">
        <ele>1274.36</ele>
        <time>2013-08-29T14:40:25Z</time>
      </trkpt>
      <trkpt lat="44.73952" lon="6.24841">
        <ele>1271</ele>
        <time>2013-08-29T14:40:28Z</time>
      </trkpt>
      <trkpt lat="44.73951" lon="6.24842">
        <ele>1270.52</ele>
        <time>2013-08-29T14:40:45Z</time>
      </trkpt>
      <trkpt lat="44.73951" lon="6.24843">
        <ele>1273.88</ele>
        <time>2013-08-29T14:40:55Z</time>
      </trkpt>
      <trkpt lat="44.73951" lon="6.24843">
        <ele>1266.19</ele>
        <time>2013-08-29T14:40:56Z</time>
      </trkpt>
      <trkpt lat="44.73951" lon="6.24843">
        <ele>1272.92</ele>
        <time>2013-08-29T14:40:57Z</time>
      </trkpt>
      <trkpt lat="44.73951" lon="6.24842">
        <ele>1267.16</ele>
        <time>2013-08-29T14:41:00Z</time>
      </trkpt>
      <trkpt lat="44.7395" lon="6.24839">
        <ele>1269.08</ele>
        <time>2013-08-29T14:41:03Z</time>
      </trkpt>
      <trkpt lat="44.7395" lon="6.24837">
        <ele>1273.88</ele>
        <time>2013-08-29T14:41:04Z</time>
      </trkpt>
      <trkpt lat="44.7395" lon="6.24836">
        <ele>1267.64</ele>
        <time>2013-08-29T14:41:05Z</time>
      </trkpt>
      <trkpt lat="44.73949" lon="6.24836">
        <ele>1271.96</ele>
        <time>2013-08-29T14:41:06Z</time>
      </trkpt>
      <trkpt lat="44.73948" lon="6.24835">
        <ele>1268.12</ele>
        <time>2013-08-29T14:41:07Z</time>
      </trkpt>
      <trkpt lat="44.73948" lon="6.24834">
        <ele>1266.67</ele>
        <time>2013-08-29T14:41:08Z</time>
      </trkpt>
      <trkpt lat="44.73946" lon="6.24832">
        <ele>1266.67</ele>
        <time>2013-08-29T14:41:10Z</time>
      </trkpt>
      <trkpt lat="44.73945" lon="6.24831">
        <ele>1274.36</ele>
        <time>2013-08-29T14:41:11Z</time>
      </trkpt>
      <trkpt lat="44.73944" lon="6.24829">
        <ele>1271</ele>
        <time>2013-08-29T14:41:12Z</time>
      </trkpt>
      <trkpt lat="44.73944" lon="6.24826">
        <ele>1281.57</ele>
        <time>2013-08-29T14:41:16Z</time>
      </trkpt>
      <trkpt lat="44.73948" lon="6.24836">
        <ele>1273.4</ele>
        <time>2013-08-29T14:41:17Z</time>
      </trkpt>
      <trkpt lat="44.73955" lon="6.24837">
        <ele>1267.64</ele>
        <time>2013-08-29T14:41:21Z</time>
      </trkpt>
      <trkpt lat="44.73955" lon="6.24837">
        <ele>1271.96</ele>
        <time>2013-08-29T14:41:22Z</time>
      </trkpt>
      <trkpt lat="44.73961" lon="6.24839">
        <ele>1270.04</ele>
        <time>2013-08-29T14:41:29Z</time>
      </trkpt>
      <trkpt lat="44.73965" lon="6.24841">
        <ele>1270.04</ele>
        <time>2013-08-29T14:41:43Z</time>
      </trkpt>
      <trkpt lat="44.73964" lon="6.2484">
        <ele>1271</ele>
        <time>2013-08-29T14:41:52Z</time>
      </trkpt>
      <trkpt lat="44.73963" lon="6.24839">
        <ele>1268.6</ele>
        <time>2013-08-29T14:41:55Z</time>
      </trkpt>
      <trkpt lat="44.7395" lon="6.24841">
        <ele>1272.44</ele>
        <time>2013-08-29T14:42:01Z</time>
      </trkpt>
      <trkpt lat="44.73951" lon="6.24842">
        <ele>1268.6</ele>
        <time>2013-08-29T14:42:11Z</time>
      </trkpt>
      <trkpt lat="44.7395" lon="6.24839">
        <ele>1271.96</ele>
        <time>2013-08-29T14:42:13Z</time>
      </trkpt>
      <trkpt lat="44.73952" lon="6.24837">
        <ele>1265.71</ele>
        <time>2013-08-29T14:42:15Z</time>
      </trkpt>
      <trkpt lat="44.73952" lon="6.24838">
        <ele>1273.88</ele>
        <time>2013-08-29T14:42:16Z</time>
      </trkpt>
      <trkpt lat="44.73951" lon="6.24839">
        <ele>1271.48</ele>
        <time>2013-08-29T14:42:17Z</time>
      </trkpt>
      <trkpt lat="44.73953" lon="6.2484">
        <ele>1268.6</ele>
        <time>2013-08-29T14:42:28Z</time>
      </trkpt>
      <trkpt lat="44.7395" lon="6.24841">
        <ele>1270.52</ele>
        <time>2013-08-29T14:42:37Z</time>
      </trkpt>
      <trkpt lat="44.73947" lon="6.24837">
        <ele>1271</ele>
        <time>2013-08-29T14:42:44Z</time>
      </trkpt>
      <trkpt lat="44.73953" lon="6.24835">
        <ele>1269.56</ele>
        <time>2013-08-29T14:42:48Z</time>
      </trkpt>
      <trkpt lat="44.73954" lon="6.24837">
        <ele>1271.96</ele>
        <time>2013-08-29T14:42:58Z</time>
      </trkpt>
      <trkpt lat="44.73948" lon="6.2483">
        <ele>1271.96</ele>
        <time>2013-08-29T14:43:06Z</time>
      </trkpt>
      <trkpt lat="44.73902" lon="6.24834">
        <ele>1272.92</ele>
        <time>2013-08-29T14:43:19Z</time>
      </trkpt>
      <trkpt lat="44.7389" lon="6.24838">
        <ele>1273.4</ele>
        <time>2013-08-29T14:43:21Z</time>
      </trkpt>
      <trkpt lat="44.73802" lon="6.24883">
        <ele>1272.92</ele>
        <time>2013-08-29T14:43:34Z</time>
      </trkpt>
      <trkpt lat="44.73741" lon="6.24889">
        <ele>1274.36</ele>
        <time>2013-08-29T14:43:42Z</time>
      </trkpt>
      <trkpt lat="44.73734" lon="6.24887">
        <ele>1274.85</ele>
        <time>2013-08-29T14:43:43Z</time>
      </trkpt>
      <trkpt lat="44.73727" lon="6.24884">
        <ele>1274.85</ele>
        <time>2013-08-29T14:43:44Z</time>
      </trkpt>
      <trkpt lat="44.73721" lon="6.2488">
        <ele>1273.88</ele>
        <time>2013-08-29T14:43:45Z</time>
      </trkpt>
      <trkpt lat="44.73715" lon="6.24876">
        <ele>1273.88</ele>
        <time>2013-08-29T14:43:46Z</time>
      </trkpt>
      <trkpt lat="44.73709" lon="6.24871">
        <ele>1274.36</ele>
        <time>2013-08-29T14:43:47Z</time>
      </trkpt>
      <trkpt lat="44.73703" lon="6.24865">
        <ele>1275.33</ele>
        <time>2013-08-29T14:43:48Z</time>
      </trkpt>
      <trkpt lat="44.73697" lon="6.2486">
        <ele>1275.33</ele>
        <time>2013-08-29T14:43:49Z</time>
      </trkpt>
      <trkpt lat="44.73691" lon="6.24855">
        <ele>1275.33</ele>
        <time>2013-08-29T14:43:50Z</time>
      </trkpt>
      <trkpt lat="44.73683" lon="6.24851">
        <ele>1274.85</ele>
        <time>2013-08-29T14:43:51Z</time>
      </trkpt>
      <trkpt lat="44.73651" lon="6.2483">
        <ele>1275.81</ele>
        <time>2013-08-29T14:43:56Z</time>
      </trkpt>
      <trkpt lat="44.73619" lon="6.24797">
        <ele>1275.33</ele>
        <time>2013-08-29T14:44:04Z</time>
      </trkpt>
      <trkpt lat="44.73581" lon="6.24773">
        <ele>1274.85</ele>
        <time>2013-08-29T14:44:09Z</time>
      </trkpt>
      <trkpt lat="44.7357" lon="6.2477">
        <ele>1272.92</ele>
        <time>2013-08-29T14:44:10Z</time>
      </trkpt>
      <trkpt lat="44.7356" lon="6.24769">
        <ele>1272.44</ele>
        <time>2013-08-29T14:44:11Z</time>
      </trkpt>
      <trkpt lat="44.7354" lon="6.24767">
        <ele>1272.44</ele>
        <time>2013-08-29T14:44:13Z</time>
      </trkpt>
      <trkpt lat="44.73533" lon="6.24762">
        <ele>1272.92</ele>
        <time>2013-08-29T14:44:14Z</time>
      </trkpt>
      <trkpt lat="44.73526" lon="6.24755">
        <ele>1272.44</ele>
        <time>2013-08-29T14:44:15Z</time>
      </trkpt>
      <trkpt lat="44.7352" lon="6.24747">
        <ele>1270.52</ele>
        <time>2013-08-29T14:44:16Z</time>
      </trkpt>
      <trkpt lat="44.73513" lon="6.24741">
        <ele>1269.56</ele>
        <time>2013-08-29T14:44:17Z</time>
      </trkpt>
      <trkpt lat="44.73506" lon="6.24737">
        <ele>1270.52</ele>
        <time>2013-08-29T14:44:18Z</time>
      </trkpt>
      <trkpt lat="44.73497" lon="6.24736">
        <ele>1270.04</ele>
        <time>2013-08-29T14:44:19Z</time>
      </trkpt>
      <trkpt lat="44.73489" lon="6.24739">
        <ele>1269.56</ele>
        <time>2013-08-29T14:44:20Z</time>
      </trkpt>
      <trkpt lat="44.73481" lon="6.24744">
        <ele>1269.08</ele>
        <time>2013-08-29T14:44:21Z</time>
      </trkpt>
      <trkpt lat="44.73473" lon="6.24751">
        <ele>1270.04</ele>
        <time>2013-08-29T14:44:22Z</time>
      </trkpt>
      <trkpt lat="44.73466" lon="6.24759">
        <ele>1268.6</ele>
        <time>2013-08-29T14:44:23Z</time>
      </trkpt>
      <trkpt lat="44.73436" lon="6.24785">
        <ele>1267.16</ele>
        <time>2013-08-29T14:44:27Z</time>
      </trkpt>
      <trkpt lat="44.73428" lon="6.24789">
        <ele>1268.6</ele>
        <time>2013-08-29T14:44:28Z</time>
      </trkpt>
      <trkpt lat="44.73332" lon="6.24823">
        <ele>1265.71</ele>
        <time>2013-08-29T14:44:38Z</time>
      </trkpt>
      <trkpt lat="44.73323" lon="6.24827">
        <ele>1265.71</ele>
        <time>2013-08-29T14:44:39Z</time>
      </trkpt>
      <trkpt lat="44.73278" lon="6.24851">
        <ele>1263.31</ele>
        <time>2013-08-29T14:44:44Z</time>
      </trkpt>
      <trkpt lat="44.73269" lon="6.24853">
        <ele>1262.83</ele>
        <time>2013-08-29T14:44:45Z</time>
      </trkpt>
      <trkpt lat="44.73232" lon="6.24855">
        <ele>1262.35</ele>
        <time>2013-08-29T14:44:49Z</time>
      </trkpt>
      <trkpt lat="44.73168" lon="6.24872">
        <ele>1259.94</ele>
        <time>2013-08-29T14:44:55Z</time>
      </trkpt>
      <trkpt lat="44.73158" lon="6.24872">
        <ele>1259.46</ele>
        <time>2013-08-29T14:44:56Z</time>
      </trkpt>
      <trkpt lat="44.73117" lon="6.24873">
        <ele>1258.02</ele>
        <time>2013-08-29T14:45:00Z</time>
      </trkpt>
      <trkpt lat="44.73046" lon="6.24888">
        <ele>1251.77</ele>
        <time>2013-08-29T14:45:07Z</time>
      </trkpt>
      <trkpt lat="44.73037" lon="6.24889">
        <ele>1256.58</ele>
        <time>2013-08-29T14:45:08Z</time>
      </trkpt>
      <trkpt lat="44.73027" lon="6.24892">
        <ele>1255.14</ele>
        <time>2013-08-29T14:45:09Z</time>
      </trkpt>
      <trkpt lat="44.73019" lon="6.24897">
        <ele>1258.98</ele>
        <time>2013-08-29T14:45:10Z</time>
      </trkpt>
      <trkpt lat="44.73004" lon="6.24905">
        <ele>1254.66</ele>
        <time>2013-08-29T14:45:12Z</time>
      </trkpt>
      <trkpt lat="44.72997" lon="6.24906">
        <ele>1253.7</ele>
        <time>2013-08-29T14:45:13Z</time>
      </trkpt>
      <trkpt lat="44.7299" lon="6.24906">
        <ele>1253.7</ele>
        <time>2013-08-29T14:45:14Z</time>
      </trkpt>
      <trkpt lat="44.72984" lon="6.24904">
        <ele>1252.74</ele>
        <time>2013-08-29T14:45:15Z</time>
      </trkpt>
      <trkpt lat="44.72977" lon="6.24901">
        <ele>1252.74</ele>
        <time>2013-08-29T14:45:16Z</time>
      </trkpt>
      <trkpt lat="44.7297" lon="6.24897">
        <ele>1252.74</ele>
        <time>2013-08-29T14:45:17Z</time>
      </trkpt>
      <trkpt lat="44.72963" lon="6.24894">
        <ele>1252.74</ele>
        <time>2013-08-29T14:45:18Z</time>
      </trkpt>
      <trkpt lat="44.72955" lon="6.24893">
        <ele>1252.25</ele>
        <time>2013-08-29T14:45:19Z</time>
      </trkpt>
      <trkpt lat="44.72946" lon="6.24892">
        <ele>1251.77</ele>
        <time>2013-08-29T14:45:20Z</time>
      </trkpt>
      <trkpt lat="44.72938" lon="6.24892">
        <ele>1251.29</ele>
        <time>2013-08-29T14:45:21Z</time>
      </trkpt>
      <trkpt lat="44.7292" lon="6.24889">
        <ele>1250.33</ele>
        <time>2013-08-29T14:45:23Z</time>
      </trkpt>
      <trkpt lat="44.72912" lon="6.24885">
        <ele>1249.85</ele>
        <time>2013-08-29T14:45:24Z</time>
      </trkpt>
      <trkpt lat="44.72903" lon="6.2488">
        <ele>1251.29</ele>
        <time>2013-08-29T14:45:25Z</time>
      </trkpt>
      <trkpt lat="44.72895" lon="6.24873">
        <ele>1249.37</ele>
        <time>2013-08-29T14:45:26Z</time>
      </trkpt>
      <trkpt lat="44.72863" lon="6.24846">
        <ele>1247.45</ele>
        <time>2013-08-29T14:45:30Z</time>
      </trkpt>
      <trkpt lat="44.72854" lon="6.24841">
        <ele>1246.97</ele>
        <time>2013-08-29T14:45:31Z</time>
      </trkpt>
      <trkpt lat="44.72845" lon="6.24838">
        <ele>1246.49</ele>
        <time>2013-08-29T14:45:32Z</time>
      </trkpt>
      <trkpt lat="44.72835" lon="6.24836">
        <ele>1246.49</ele>
        <time>2013-08-29T14:45:33Z</time>
      </trkpt>
      <trkpt lat="44.72826" lon="6.24835">
        <ele>1245.53</ele>
        <time>2013-08-29T14:45:34Z</time>
      </trkpt>
      <trkpt lat="44.72816" lon="6.24834">
        <ele>1245.04</ele>
        <time>2013-08-29T14:45:35Z</time>
      </trkpt>
      <trkpt lat="44.72807" lon="6.24835">
        <ele>1244.08</ele>
        <time>2013-08-29T14:45:36Z</time>
      </trkpt>
      <trkpt lat="44.72797" lon="6.24837">
        <ele>1243.6</ele>
        <time>2013-08-29T14:45:37Z</time>
      </trkpt>
      <trkpt lat="44.7279" lon="6.24842">
        <ele>1244.08</ele>
        <time>2013-08-29T14:45:38Z</time>
      </trkpt>
      <trkpt lat="44.72785" lon="6.24852">
        <ele>1243.6</ele>
        <time>2013-08-29T14:45:39Z</time>
      </trkpt>
      <trkpt lat="44.72781" lon="6.24864">
        <ele>1243.12</ele>
        <time>2013-08-29T14:45:40Z</time>
      </trkpt>
      <trkpt lat="44.72777" lon="6.24877">
        <ele>1243.12</ele>
        <time>2013-08-29T14:45:41Z</time>
      </trkpt>
      <trkpt lat="44.7275" lon="6.24961">
        <ele>1241.2</ele>
        <time>2013-08-29T14:45:47Z</time>
      </trkpt>
      <trkpt lat="44.72735" lon="6.25006">
        <ele>1238.8</ele>
        <time>2013-08-29T14:45:50Z</time>
      </trkpt>
      <trkpt lat="44.72703" lon="6.25109">
        <ele>1234.95</ele>
        <time>2013-08-29T14:45:57Z</time>
      </trkpt>
      <trkpt lat="44.7268" lon="6.25207">
        <ele>1231.59</ele>
        <time>2013-08-29T14:46:04Z</time>
      </trkpt>
      <trkpt lat="44.72675" lon="6.25219">
        <ele>1231.59</ele>
        <time>2013-08-29T14:46:05Z</time>
      </trkpt>
      <trkpt lat="44.72669" lon="6.25231">
        <ele>1230.62</ele>
        <time>2013-08-29T14:46:06Z</time>
      </trkpt>
      <trkpt lat="44.72662" lon="6.25243">
        <ele>1230.62</ele>
        <time>2013-08-29T14:46:07Z</time>
      </trkpt>
      <trkpt lat="44.72654" lon="6.25253">
        <ele>1231.11</ele>
        <time>2013-08-29T14:46:08Z</time>
      </trkpt>
      <trkpt lat="44.72646" lon="6.25263">
        <ele>1230.14</ele>
        <time>2013-08-29T14:46:09Z</time>
      </trkpt>
      <trkpt lat="44.72636" lon="6.25273">
        <ele>1229.18</ele>
        <time>2013-08-29T14:46:10Z</time>
      </trkpt>
      <trkpt lat="44.72627" lon="6.25282">
        <ele>1229.18</ele>
        <time>2013-08-29T14:46:11Z</time>
      </trkpt>
      <trkpt lat="44.72588" lon="6.25317">
        <ele>1227.26</ele>
        <time>2013-08-29T14:46:15Z</time>
      </trkpt>
      <trkpt lat="44.72528" lon="6.25364">
        <ele>1224.38</ele>
        <time>2013-08-29T14:46:21Z</time>
      </trkpt>
      <trkpt lat="44.7252" lon="6.25373">
        <ele>1223.42</ele>
        <time>2013-08-29T14:46:22Z</time>
      </trkpt>
      <trkpt lat="44.72513" lon="6.25383">
        <ele>1221.01</ele>
        <time>2013-08-29T14:46:23Z</time>
      </trkpt>
      <trkpt lat="44.72508" lon="6.25395">
        <ele>1224.86</ele>
        <time>2013-08-29T14:46:24Z</time>
      </trkpt>
      <trkpt lat="44.72504" lon="6.25407">
        <ele>1222.45</ele>
        <time>2013-08-29T14:46:25Z</time>
      </trkpt>
      <trkpt lat="44.72501" lon="6.2542">
        <ele>1222.45</ele>
        <time>2013-08-29T14:46:26Z</time>
      </trkpt>
      <trkpt lat="44.725" lon="6.25433">
        <ele>1222.45</ele>
        <time>2013-08-29T14:46:27Z</time>
      </trkpt>
      <trkpt lat="44.72499" lon="6.25447">
        <ele>1221.49</ele>
        <time>2013-08-29T14:46:28Z</time>
      </trkpt>
      <trkpt lat="44.72499" lon="6.25461">
        <ele>1218.13</ele>
        <time>2013-08-29T14:46:29Z</time>
      </trkpt>
      <trkpt lat="44.72501" lon="6.25475">
        <ele>1220.05</ele>
        <time>2013-08-29T14:46:30Z</time>
      </trkpt>
      <trkpt lat="44.72505" lon="6.25489">
        <ele>1221.49</ele>
        <time>2013-08-29T14:46:31Z</time>
      </trkpt>
      <trkpt lat="44.72508" lon="6.25502">
        <ele>1220.05</ele>
        <time>2013-08-29T14:46:32Z</time>
      </trkpt>
      <trkpt lat="44.72523" lon="6.25562">
        <ele>1220.53</ele>
        <time>2013-08-29T14:46:37Z</time>
      </trkpt>
      <trkpt lat="44.72523" lon="6.25572">
        <ele>1219.09</ele>
        <time>2013-08-29T14:46:38Z</time>
      </trkpt>
      <trkpt lat="44.7252" lon="6.25582">
        <ele>1219.09</ele>
        <time>2013-08-29T14:46:39Z</time>
      </trkpt>
      <trkpt lat="44.72514" lon="6.25591">
        <ele>1220.53</ele>
        <time>2013-08-29T14:46:40Z</time>
      </trkpt>
      <trkpt lat="44.72507" lon="6.25598">
        <ele>1220.05</ele>
        <time>2013-08-29T14:46:41Z</time>
      </trkpt>
      <trkpt lat="44.725" lon="6.25606">
        <ele>1219.57</ele>
        <time>2013-08-29T14:46:42Z</time>
      </trkpt>
      <trkpt lat="44.72492" lon="6.25612">
        <ele>1219.57</ele>
        <time>2013-08-29T14:46:43Z</time>
      </trkpt>
      <trkpt lat="44.72484" lon="6.25617">
        <ele>1220.05</ele>
        <time>2013-08-29T14:46:44Z</time>
      </trkpt>
      <trkpt lat="44.7247" lon="6.25628">
        <ele>1220.05</ele>
        <time>2013-08-29T14:46:46Z</time>
      </trkpt>
      <trkpt lat="44.72464" lon="6.25636">
        <ele>1219.09</ele>
        <time>2013-08-29T14:46:47Z</time>
      </trkpt>
      <trkpt lat="44.72458" lon="6.25645">
        <ele>1218.61</ele>
        <time>2013-08-29T14:46:48Z</time>
      </trkpt>
      <trkpt lat="44.7243" lon="6.25701">
        <ele>1218.61</ele>
        <time>2013-08-29T14:46:53Z</time>
      </trkpt>
      <trkpt lat="44.72422" lon="6.2571">
        <ele>1218.61</ele>
        <time>2013-08-29T14:46:54Z</time>
      </trkpt>
      <trkpt lat="44.72413" lon="6.25718">
        <ele>1218.13</ele>
        <time>2013-08-29T14:46:55Z</time>
      </trkpt>
      <trkpt lat="44.72404" lon="6.25724">
        <ele>1219.09</ele>
        <time>2013-08-29T14:46:56Z</time>
      </trkpt>
      <trkpt lat="44.72395" lon="6.25729">
        <ele>1218.61</ele>
        <time>2013-08-29T14:46:57Z</time>
      </trkpt>
      <trkpt lat="44.72306" lon="6.25769">
        <ele>1216.69</ele>
        <time>2013-08-29T14:47:06Z</time>
      </trkpt>
      <trkpt lat="44.72297" lon="6.25777">
        <ele>1214.76</ele>
        <time>2013-08-29T14:47:07Z</time>
      </trkpt>
      <trkpt lat="44.7229" lon="6.25788">
        <ele>1217.17</ele>
        <time>2013-08-29T14:47:08Z</time>
      </trkpt>
      <trkpt lat="44.72283" lon="6.25799">
        <ele>1215.72</ele>
        <time>2013-08-29T14:47:09Z</time>
      </trkpt>
      <trkpt lat="44.72275" lon="6.2581">
        <ele>1212.84</ele>
        <time>2013-08-29T14:47:10Z</time>
      </trkpt>
      <trkpt lat="44.72268" lon="6.25821">
        <ele>1218.13</ele>
        <time>2013-08-29T14:47:11Z</time>
      </trkpt>
      <trkpt lat="44.7226" lon="6.2583">
        <ele>1211.88</ele>
        <time>2013-08-29T14:47:12Z</time>
      </trkpt>
    </trkseg>
  </trk>
</gpx>